<?xml version='1.0' encoding='UTF-8'?><gpx version="1.1" creator="JPX - https://github.com/jenetics/jpx" xmlns="http://www.topografix.com/GPX/1/1"><trk><trkseg><trkpt lat="-36.7399133" lon="174.4227921"><ele>85.0</ele><time>2026-05-02T21:05:15.594Z</time></trkpt><trkpt lat="-36.7398835" lon="174.4228719"><ele>85.0</ele><time>2026-05-02T21:05:19.593Z</time></trkpt><trkpt lat="-36.7398788" lon="174.4229651"><ele>85.0</ele><time>2026-05-02T21:05:22.594Z</time></trkpt><trkpt lat="-36.7398596" lon="174.4230809"><ele>85.0</ele><time>2026-05-02T21:05:25.594Z</time></trkpt><trkpt lat="-36.739847" lon="174.4231607"><ele>85.0</ele><time>2026-05-02T21:05:27.594Z</time></trkpt><trkpt lat="-36.7398688" lon="174.4232651"><ele>85.0</ele><time>2026-05-02T21:05:30.593Z</time></trkpt><trkpt lat="-36.7399298" lon="174.4233362"><ele>85.14285714285715</ele><time>2026-05-02T21:05:33.594Z</time></trkpt><trkpt lat="-36.7399957" lon="174.4233605"><ele>85.28571428571428</ele><time>2026-05-02T21:05:35.594Z</time></trkpt><trkpt lat="-36.7400614" lon="174.4233845"><ele>85.42857142857143</ele><time>2026-05-02T21:05:37.593Z</time></trkpt><trkpt lat="-36.7401471" lon="174.423348"><ele>85.57142857142858</ele><time>2026-05-02T21:05:40.593Z</time></trkpt><trkpt lat="-36.7402157" lon="174.4233216"><ele>85.71428571428572</ele><time>2026-05-02T21:05:43.594Z</time></trkpt><trkpt lat="-36.7402741" lon="174.4233709"><ele>85.85714285714286</ele><time>2026-05-02T21:05:47.594Z</time></trkpt><trkpt lat="-36.7402622" lon="174.4234486"><ele>86.0</ele><time>2026-05-02T21:09:19.594Z</time></trkpt><trkpt lat="-36.7402531" lon="174.4233442"><ele>85.28571428571429</ele><time>2026-05-02T21:09:45.594Z</time></trkpt><trkpt lat="-36.7401854" lon="174.4233084"><ele>84.57142857142857</ele><time>2026-05-02T21:09:48.592Z</time></trkpt><trkpt lat="-36.7401202" lon="174.4233124"><ele>83.85714285714286</ele><time>2026-05-02T21:09:50.594Z</time></trkpt><trkpt lat="-36.7400549" lon="174.4233277"><ele>83.14285714285714</ele><time>2026-05-02T21:09:52.593Z</time></trkpt><trkpt lat="-36.7399806" lon="174.4233339"><ele>82.42857142857143</ele><time>2026-05-02T21:09:54.593Z</time></trkpt><trkpt lat="-36.7399025" lon="174.4232964"><ele>81.71428571428572</ele><time>2026-05-02T21:09:56.593Z</time></trkpt><trkpt lat="-36.7398593" lon="174.4232104"><ele>81.0</ele><time>2026-05-02T21:09:58.594Z</time></trkpt><trkpt lat="-36.7398564" lon="174.4231181"><ele>81.0</ele><time>2026-05-02T21:10:00.593Z</time></trkpt><trkpt lat="-36.7398683" lon="174.4230381"><ele>81.0</ele><time>2026-05-02T21:10:02.593Z</time></trkpt><trkpt lat="-36.7398825" lon="174.4229384"><ele>81.0</ele><time>2026-05-02T21:10:05.593Z</time></trkpt><trkpt lat="-36.7398925" lon="174.4228342"><ele>81.0</ele><time>2026-05-02T21:10:08.594Z</time></trkpt><trkpt lat="-36.7399078" lon="174.4227537"><ele>81.0</ele><time>2026-05-02T21:10:10.594Z</time></trkpt><trkpt lat="-36.739932" lon="174.4226761"><ele>81.0</ele><time>2026-05-02T21:10:12.592Z</time></trkpt><trkpt lat="-36.7399692" lon="174.4225714"><ele>81.57142857142857</ele><time>2026-05-02T21:10:15.594Z</time></trkpt><trkpt lat="-36.740008" lon="174.4225038"><ele>82.14285714285714</ele><time>2026-05-02T21:10:32.593Z</time></trkpt><trkpt lat="-36.7400267" lon="174.4224276"><ele>82.71428571428572</ele><time>2026-05-02T21:11:34.593Z</time></trkpt><trkpt lat="-36.7400705" lon="174.4223362"><ele>83.28571428571428</ele><time>2026-05-02T21:11:38.593Z</time></trkpt><trkpt lat="-36.7400934" lon="174.4222463"><ele>83.85714285714285</ele><time>2026-05-02T21:11:41.592Z</time></trkpt><trkpt lat="-36.7401462" lon="174.4221777"><ele>84.42857142857143</ele><time>2026-05-02T21:11:43.592Z</time></trkpt><trkpt lat="-36.7402021" lon="174.4221176"><ele>85.0</ele><time>2026-05-02T21:11:45.592Z</time></trkpt><trkpt lat="-36.7402503" lon="174.4220451"><ele>86.5</ele><time>2026-05-02T21:11:48.592Z</time></trkpt><trkpt lat="-36.7403248" lon="174.4220736"><ele>88.0</ele><time>2026-05-02T21:11:51.593Z</time></trkpt><trkpt lat="-36.7404002" lon="174.4220882"><ele>89.5</ele><time>2026-05-02T21:11:53.593Z</time></trkpt><trkpt lat="-36.7404623" lon="174.4220415"><ele>91.0</ele><time>2026-05-02T21:11:55.592Z</time></trkpt><trkpt lat="-36.7405129" lon="174.4219679"><ele>92.5</ele><time>2026-05-02T21:11:58.593Z</time></trkpt><trkpt lat="-36.740594" lon="174.4219322"><ele>94.0</ele><time>2026-05-02T21:12:01.593Z</time></trkpt><trkpt lat="-36.7406638" lon="174.4219175"><ele>94.0</ele><time>2026-05-02T21:12:03.593Z</time></trkpt><trkpt lat="-36.7407323" lon="174.4219833"><ele>94.0</ele><time>2026-05-02T21:12:06.594Z</time></trkpt><trkpt lat="-36.7407698" lon="174.421903"><ele>94.0</ele><time>2026-05-02T21:12:09.592Z</time></trkpt><trkpt lat="-36.7407493" lon="174.4218148"><ele>94.0</ele><time>2026-05-02T21:12:11.593Z</time></trkpt><trkpt lat="-36.7407261" lon="174.4217305"><ele>94.0</ele><time>2026-05-02T21:12:13.592Z</time></trkpt><trkpt lat="-36.7407183" lon="174.4216301"><ele>94.0</ele><time>2026-05-02T21:12:15.593Z</time></trkpt><trkpt lat="-36.7407938" lon="174.4215697"><ele>94.0</ele><time>2026-05-02T21:12:18.591Z</time></trkpt><trkpt lat="-36.7408718" lon="174.4215529"><ele>94.0</ele><time>2026-05-02T21:12:20.593Z</time></trkpt><trkpt lat="-36.7409198" lon="174.4214741"><ele>94.0</ele><time>2026-05-02T21:12:23.592Z</time></trkpt><trkpt lat="-36.7409398" lon="174.4213767"><ele>94.0</ele><time>2026-05-02T21:12:25.593Z</time></trkpt><trkpt lat="-36.7409398" lon="174.4212792"><ele>94.0</ele><time>2026-05-02T21:12:27.593Z</time></trkpt><trkpt lat="-36.7409491" lon="174.4211924"><ele>94.0</ele><time>2026-05-02T21:12:29.593Z</time></trkpt><trkpt lat="-36.7409597" lon="174.4210983"><ele>94.66666666666666</ele><time>2026-05-02T21:12:31.592Z</time></trkpt><trkpt lat="-36.7409959" lon="174.4209962"><ele>95.33333333333333</ele><time>2026-05-02T21:12:33.593Z</time></trkpt><trkpt lat="-36.7410636" lon="174.4209134"><ele>96.0</ele><time>2026-05-02T21:12:35.593Z</time></trkpt><trkpt lat="-36.7411004" lon="174.4208455"><ele>96.66666666666666</ele><time>2026-05-02T21:12:36.593Z</time></trkpt><trkpt lat="-36.7411359" lon="174.4207347"><ele>97.33333333333333</ele><time>2026-05-02T21:12:38.592Z</time></trkpt><trkpt lat="-36.7412148" lon="174.4206605"><ele>98.0</ele><time>2026-05-02T21:12:40.593Z</time></trkpt><trkpt lat="-36.7412998" lon="174.4205665"><ele>98.66666666666666</ele><time>2026-05-02T21:12:42.593Z</time></trkpt><trkpt lat="-36.7413725" lon="174.4204708"><ele>99.33333333333333</ele><time>2026-05-02T21:12:44.593Z</time></trkpt><trkpt lat="-36.7414264" lon="174.4204228"><ele>100.0</ele><time>2026-05-02T21:12:45.593Z</time></trkpt><trkpt lat="-36.7415132" lon="174.4203408"><ele>100.66666666666666</ele><time>2026-05-02T21:12:47.592Z</time></trkpt><trkpt lat="-36.7415684" lon="174.420272"><ele>101.33333333333333</ele><time>2026-05-02T21:12:49.593Z</time></trkpt><trkpt lat="-36.7415605" lon="174.4201744"><ele>102.0</ele><time>2026-05-02T21:12:51.593Z</time></trkpt><trkpt lat="-36.7415424" lon="174.4200481"><ele>102.0</ele><time>2026-05-02T21:12:53.593Z</time></trkpt><trkpt lat="-36.7415339" lon="174.4199158"><ele>102.0</ele><time>2026-05-02T21:12:55.593Z</time></trkpt><trkpt lat="-36.741521" lon="174.4198118"><ele>102.0</ele><time>2026-05-02T21:12:57.593Z</time></trkpt><trkpt lat="-36.7415414" lon="174.4196884"><ele>102.0</ele><time>2026-05-02T21:12:59.592Z</time></trkpt><trkpt lat="-36.7415244" lon="174.4195914"><ele>102.0</ele><time>2026-05-02T21:13:01.592Z</time></trkpt><trkpt lat="-36.7414807" lon="174.4195123"><ele>102.0</ele><time>2026-05-02T21:13:03.593Z</time></trkpt><trkpt lat="-36.7414314" lon="174.4194225"><ele>103.39999999999999</ele><time>2026-05-02T21:13:05.592Z</time></trkpt><trkpt lat="-36.7413794" lon="174.4193241"><ele>104.8</ele><time>2026-05-02T21:13:07.593Z</time></trkpt><trkpt lat="-36.7414512" lon="174.4192572"><ele>106.2</ele><time>2026-05-02T21:13:09.593Z</time></trkpt><trkpt lat="-36.7415346" lon="174.4191958"><ele>107.6</ele><time>2026-05-02T21:13:11.592Z</time></trkpt><trkpt lat="-36.7416079" lon="174.4191439"><ele>109.0</ele><time>2026-05-02T21:13:13.592Z</time></trkpt><trkpt lat="-36.7416976" lon="174.4190892"><ele>109.00000000000001</ele><time>2026-05-02T21:13:15.592Z</time></trkpt><trkpt lat="-36.7417613" lon="174.4190673"><ele>109.0</ele><time>2026-05-02T21:13:16.592Z</time></trkpt><trkpt lat="-36.7418461" lon="174.4190286"><ele>109.0</ele><time>2026-05-02T21:13:18.593Z</time></trkpt><trkpt lat="-36.7419378" lon="174.4190039"><ele>109.0</ele><time>2026-05-02T21:13:20.592Z</time></trkpt><trkpt lat="-36.7420151" lon="174.4189634"><ele>109.00000000000001</ele><time>2026-05-02T21:13:22.593Z</time></trkpt><trkpt lat="-36.7421123" lon="174.41894"><ele>109.0</ele><time>2026-05-02T21:13:24.592Z</time></trkpt><trkpt lat="-36.7422059" lon="174.4188928"><ele>109.6</ele><time>2026-05-02T21:13:26.593Z</time></trkpt><trkpt lat="-36.7423002" lon="174.4188334"><ele>110.2</ele><time>2026-05-02T21:13:28.593Z</time></trkpt><trkpt lat="-36.7423762" lon="174.4187756"><ele>110.79999999999998</ele><time>2026-05-02T21:13:30.593Z</time></trkpt><trkpt lat="-36.7424766" lon="174.4187315"><ele>111.39999999999999</ele><time>2026-05-02T21:13:32.593Z</time></trkpt><trkpt lat="-36.7425683" lon="174.4186854"><ele>112.0</ele><time>2026-05-02T21:13:34.593Z</time></trkpt><trkpt lat="-36.7426482" lon="174.4186466"><ele>112.6</ele><time>2026-05-02T21:13:36.592Z</time></trkpt><trkpt lat="-36.7427412" lon="174.4186478"><ele>113.19999999999999</ele><time>2026-05-02T21:13:38.592Z</time></trkpt><trkpt lat="-36.7428328" lon="174.418734"><ele>113.8</ele><time>2026-05-02T21:13:40.593Z</time></trkpt><trkpt lat="-36.7429415" lon="174.4187599"><ele>114.4</ele><time>2026-05-02T21:13:42.593Z</time></trkpt><trkpt lat="-36.7430093" lon="174.4187478"><ele>115.0</ele><time>2026-05-02T21:13:43.592Z</time></trkpt><trkpt lat="-36.7431043" lon="174.4187145"><ele>115.00000000000001</ele><time>2026-05-02T21:13:45.592Z</time></trkpt><trkpt lat="-36.7431771" lon="174.4187101"><ele>115.0</ele><time>2026-05-02T21:13:47.593Z</time></trkpt><trkpt lat="-36.7432853" lon="174.4187254"><ele>115.0</ele><time>2026-05-02T21:13:50.592Z</time></trkpt><trkpt lat="-36.743383" lon="174.4187118"><ele>115.0</ele><time>2026-05-02T21:13:52.591Z</time></trkpt><trkpt lat="-36.7434625" lon="174.4186873"><ele>115.00000000000001</ele><time>2026-05-02T21:13:54.592Z</time></trkpt><trkpt lat="-36.7435435" lon="174.4186536"><ele>115.0</ele><time>2026-05-02T21:13:56.593Z</time></trkpt><trkpt lat="-36.7436378" lon="174.4186717"><ele>115.8</ele><time>2026-05-02T21:13:58.593Z</time></trkpt><trkpt lat="-36.7437204" lon="174.4187289"><ele>116.6</ele><time>2026-05-02T21:14:00.593Z</time></trkpt><trkpt lat="-36.7438062" lon="174.4187559"><ele>117.4</ele><time>2026-05-02T21:14:02.592Z</time></trkpt><trkpt lat="-36.7439264" lon="174.4188321"><ele>118.2</ele><time>2026-05-02T21:14:04.592Z</time></trkpt><trkpt lat="-36.7440182" lon="174.4188416"><ele>119.0</ele><time>2026-05-02T21:14:07.591Z</time></trkpt><trkpt lat="-36.7441141" lon="174.4188698"><ele>119.83333333333333</ele><time>2026-05-02T21:14:09.593Z</time></trkpt><trkpt lat="-36.7442058" lon="174.4188876"><ele>120.66666666666666</ele><time>2026-05-02T21:14:11.593Z</time></trkpt><trkpt lat="-36.744273" lon="174.4188969"><ele>121.5</ele><time>2026-05-02T21:14:13.592Z</time></trkpt><trkpt lat="-36.7443525" lon="174.41887"><ele>122.33333333333334</ele><time>2026-05-02T21:14:15.593Z</time></trkpt><trkpt lat="-36.7444039" lon="174.4189196"><ele>123.16666666666667</ele><time>2026-05-02T21:14:18.592Z</time></trkpt><trkpt lat="-36.7443766" lon="174.4190315"><ele>124.0</ele><time>2026-05-02T21:14:21.593Z</time></trkpt><trkpt lat="-36.7443389" lon="174.4191215"><ele>124.00000000000001</ele><time>2026-05-02T21:14:23.592Z</time></trkpt><trkpt lat="-36.7443042" lon="174.4191987"><ele>124.0</ele><time>2026-05-02T21:14:25.592Z</time></trkpt><trkpt lat="-36.7443892" lon="174.4192219"><ele>124.0</ele><time>2026-05-02T21:14:29.592Z</time></trkpt><trkpt lat="-36.7444522" lon="174.4191938"><ele>124.0</ele><time>2026-05-02T21:14:31.591Z</time></trkpt><trkpt lat="-36.744517" lon="174.4191623"><ele>124.00000000000001</ele><time>2026-05-02T21:14:33.593Z</time></trkpt><trkpt lat="-36.7445664" lon="174.4190962"><ele>124.0</ele><time>2026-05-02T21:14:35.592Z</time></trkpt><trkpt lat="-36.7446066" lon="174.4189882"><ele>125.00000000000001</ele><time>2026-05-02T21:14:38.591Z</time></trkpt><trkpt lat="-36.7446584" lon="174.4189401"><ele>126.0</ele><time>2026-05-02T21:14:40.592Z</time></trkpt><trkpt lat="-36.7447014" lon="174.4188638"><ele>127.0</ele><time>2026-05-02T21:14:42.593Z</time></trkpt><trkpt lat="-36.7447614" lon="174.418808"><ele>128.0</ele><time>2026-05-02T21:14:45.592Z</time></trkpt><trkpt lat="-36.7447637" lon="174.4189181"><ele>129.0</ele><time>2026-05-02T21:14:49.593Z</time></trkpt><trkpt lat="-36.7447381" lon="174.4190147"><ele>130.0</ele><time>2026-05-02T21:14:52.592Z</time></trkpt><trkpt lat="-36.744813" lon="174.4190155"><ele>130.00000000000003</ele><time>2026-05-02T21:14:57.592Z</time></trkpt><trkpt lat="-36.7448588" lon="174.4189538"><ele>130.0</ele><time>2026-05-02T21:14:59.592Z</time></trkpt><trkpt lat="-36.7449036" lon="174.4188673"><ele>130.0</ele><time>2026-05-02T21:15:02.592Z</time></trkpt><trkpt lat="-36.7449603" lon="174.4189044"><ele>130.0</ele><time>2026-05-02T21:15:08.591Z</time></trkpt><trkpt lat="-36.7449616" lon="174.4189908"><ele>130.0</ele><time>2026-05-02T21:15:10.593Z</time></trkpt><trkpt lat="-36.7450278" lon="174.4190672"><ele>130.00000000000003</ele><time>2026-05-02T21:15:13.592Z</time></trkpt><trkpt lat="-36.7450949" lon="174.4190751"><ele>130.0</ele><time>2026-05-02T21:15:17.592Z</time></trkpt><trkpt lat="-36.7451121" lon="174.418996"><ele>130.0</ele><time>2026-05-02T21:15:20.592Z</time></trkpt><trkpt lat="-36.7451805" lon="174.4190277"><ele>130.0</ele><time>2026-05-02T21:15:24.592Z</time></trkpt><trkpt lat="-36.7452264" lon="174.419116"><ele>130.0</ele><time>2026-05-02T21:15:27.592Z</time></trkpt><trkpt lat="-36.7452783" lon="174.41919"><ele>130.0</ele><time>2026-05-02T21:15:30.592Z</time></trkpt><trkpt lat="-36.7453595" lon="174.4192156"><ele>130.0</ele><time>2026-05-02T21:15:33.592Z</time></trkpt><trkpt lat="-36.7454459" lon="174.4192092"><ele>130.0</ele><time>2026-05-02T21:15:36.593Z</time></trkpt><trkpt lat="-36.7455218" lon="174.4192107"><ele>130.8</ele><time>2026-05-02T21:15:39.592Z</time></trkpt><trkpt lat="-36.7455745" lon="174.4191215"><ele>131.6</ele><time>2026-05-02T21:15:41.592Z</time></trkpt><trkpt lat="-36.7456082" lon="174.4190148"><ele>132.4</ele><time>2026-05-02T21:15:43.592Z</time></trkpt><trkpt lat="-36.7456449" lon="174.4189094"><ele>133.2</ele><time>2026-05-02T21:15:45.592Z</time></trkpt><trkpt lat="-36.7457011" lon="174.4188159"><ele>134.0</ele><time>2026-05-02T21:15:47.592Z</time></trkpt><trkpt lat="-36.7457551" lon="174.4187278"><ele>134.0</ele><time>2026-05-02T21:15:49.593Z</time></trkpt><trkpt lat="-36.74582" lon="174.418635"><ele>134.0</ele><time>2026-05-02T21:15:51.592Z</time></trkpt><trkpt lat="-36.7458803" lon="174.418549"><ele>134.0</ele><time>2026-05-02T21:15:53.593Z</time></trkpt><trkpt lat="-36.7459376" lon="174.418459"><ele>134.0</ele><time>2026-05-02T21:15:55.593Z</time></trkpt><trkpt lat="-36.7459935" lon="174.4183589"><ele>134.0</ele><time>2026-05-02T21:15:57.593Z</time></trkpt><trkpt lat="-36.7460327" lon="174.4182963"><ele>134.0</ele><time>2026-05-02T21:15:58.592Z</time></trkpt><trkpt lat="-36.7460762" lon="174.4182054"><ele>134.0</ele><time>2026-05-02T21:16:00.592Z</time></trkpt><trkpt lat="-36.7461179" lon="174.4181156"><ele>134.0</ele><time>2026-05-02T21:16:02.593Z</time></trkpt><trkpt lat="-36.7461544" lon="174.4180415"><ele>134.0</ele><time>2026-05-02T21:16:04.593Z</time></trkpt><trkpt lat="-36.7461825" lon="174.4179556"><ele>134.0</ele><time>2026-05-02T21:16:06.593Z</time></trkpt><trkpt lat="-36.7461996" lon="174.4178733"><ele>134.0</ele><time>2026-05-02T21:16:08.593Z</time></trkpt><trkpt lat="-36.7462242" lon="174.4178006"><ele>134.0</ele><time>2026-05-02T21:16:11.593Z</time></trkpt><trkpt lat="-36.7462931" lon="174.4177582"><ele>134.0</ele><time>2026-05-02T21:16:16.592Z</time></trkpt><trkpt lat="-36.7463183" lon="174.4178341"><ele>134.0</ele><time>2026-05-02T21:16:18.592Z</time></trkpt><trkpt lat="-36.7462871" lon="174.4179184"><ele>134.0</ele><time>2026-05-02T21:16:19.593Z</time></trkpt><trkpt lat="-36.7462557" lon="174.4180312"><ele>134.0</ele><time>2026-05-02T21:16:21.592Z</time></trkpt><trkpt lat="-36.7462085" lon="174.4181423"><ele>134.0</ele><time>2026-05-02T21:16:23.591Z</time></trkpt><trkpt lat="-36.7461494" lon="174.4182977"><ele>134.0</ele><time>2026-05-02T21:16:25.591Z</time></trkpt><trkpt lat="-36.7461123" lon="174.4183755"><ele>134.5</ele><time>2026-05-02T21:16:26.593Z</time></trkpt><trkpt lat="-36.7460216" lon="174.4185164"><ele>135.0</ele><time>2026-05-02T21:16:28.591Z</time></trkpt><trkpt lat="-36.7459749" lon="174.4186217"><ele>135.5</ele><time>2026-05-02T21:16:29.592Z</time></trkpt><trkpt lat="-36.7458909" lon="174.4186965"><ele>136.0</ele><time>2026-05-02T21:16:30.593Z</time></trkpt><trkpt lat="-36.7458353" lon="174.4188125"><ele>135.6</ele><time>2026-05-02T21:16:32.591Z</time></trkpt><trkpt lat="-36.7458322" lon="174.4189067"><ele>135.2</ele><time>2026-05-02T21:16:33.592Z</time></trkpt><trkpt lat="-36.745806" lon="174.4189896"><ele>134.8</ele><time>2026-05-02T21:16:34.593Z</time></trkpt><trkpt lat="-36.7456975" lon="174.4190971"><ele>134.4</ele><time>2026-05-02T21:16:36.593Z</time></trkpt><trkpt lat="-36.7456344" lon="174.4191442"><ele>134.0</ele><time>2026-05-02T21:16:37.593Z</time></trkpt><trkpt lat="-36.7456901" lon="174.4192392"><ele>134.0</ele><time>2026-05-02T21:16:39.593Z</time></trkpt><trkpt lat="-36.7457636" lon="174.4192477"><ele>134.0</ele><time>2026-05-02T21:16:40.593Z</time></trkpt><trkpt lat="-36.7458373" lon="174.4192619"><ele>134.0</ele><time>2026-05-02T21:16:41.592Z</time></trkpt><trkpt lat="-36.7459013" lon="174.4193135"><ele>134.0</ele><time>2026-05-02T21:16:42.593Z</time></trkpt><trkpt lat="-36.7458589" lon="174.4194584"><ele>134.0</ele><time>2026-05-02T21:16:44.592Z</time></trkpt><trkpt lat="-36.7458763" lon="174.4195578"><ele>134.0</ele><time>2026-05-02T21:16:46.593Z</time></trkpt><trkpt lat="-36.7459547" lon="174.4195626"><ele>134.0</ele><time>2026-05-02T21:16:48.593Z</time></trkpt><trkpt lat="-36.7460144" lon="174.419589"><ele>134.0</ele><time>2026-05-02T21:16:49.593Z</time></trkpt><trkpt lat="-36.746061" lon="174.419756"><ele>134.0</ele><time>2026-05-02T21:16:51.592Z</time></trkpt><trkpt lat="-36.7460851" lon="174.4198958"><ele>134.0</ele><time>2026-05-02T21:16:53.593Z</time></trkpt><trkpt lat="-36.7460456" lon="174.4199843"><ele>134.0</ele><time>2026-05-02T21:16:54.592Z</time></trkpt><trkpt lat="-36.7460668" lon="174.4200868"><ele>132.5</ele><time>2026-05-02T21:16:56.593Z</time></trkpt><trkpt lat="-36.7461466" lon="174.4201268"><ele>131.0</ele><time>2026-05-02T21:16:57.591Z</time></trkpt><trkpt lat="-36.7462346" lon="174.4201224"><ele>129.5</ele><time>2026-05-02T21:16:58.593Z</time></trkpt><trkpt lat="-36.7463295" lon="174.4201249"><ele>128.0</ele><time>2026-05-02T21:16:59.592Z</time></trkpt><trkpt lat="-36.7464117" lon="174.4201315"><ele>126.49999999999999</ele><time>2026-05-02T21:17:00.593Z</time></trkpt><trkpt lat="-36.7464993" lon="174.4200971"><ele>125.0</ele><time>2026-05-02T21:17:01.592Z</time></trkpt><trkpt lat="-36.746583" lon="174.4200727"><ele>124.99999999999999</ele><time>2026-05-02T21:17:02.593Z</time></trkpt><trkpt lat="-36.7466189" lon="174.4199979"><ele>125.0</ele><time>2026-05-02T21:17:03.593Z</time></trkpt><trkpt lat="-36.7466557" lon="174.4199009"><ele>125.0</ele><time>2026-05-02T21:17:04.593Z</time></trkpt><trkpt lat="-36.7466576" lon="174.4197944"><ele>125.0</ele><time>2026-05-02T21:17:05.593Z</time></trkpt><trkpt lat="-36.7466343" lon="174.4196535"><ele>124.99999999999999</ele><time>2026-05-02T21:17:07.593Z</time></trkpt><trkpt lat="-36.7467133" lon="174.4196305"><ele>125.0</ele><time>2026-05-02T21:17:09.593Z</time></trkpt><trkpt lat="-36.746771" lon="174.4197472"><ele>125.0</ele><time>2026-05-02T21:17:11.593Z</time></trkpt><trkpt lat="-36.7468198" lon="174.4198909"><ele>125.0</ele><time>2026-05-02T21:17:13.593Z</time></trkpt><trkpt lat="-36.7468292" lon="174.419972"><ele>125.0</ele><time>2026-05-02T21:17:14.592Z</time></trkpt><trkpt lat="-36.7468345" lon="174.4201209"><ele>125.0</ele><time>2026-05-02T21:17:16.592Z</time></trkpt><trkpt lat="-36.7469128" lon="174.4201829"><ele>125.0</ele><time>2026-05-02T21:17:18.592Z</time></trkpt><trkpt lat="-36.7470288" lon="174.4201764"><ele>123.2</ele><time>2026-05-02T21:17:20.592Z</time></trkpt><trkpt lat="-36.7471381" lon="174.4200918"><ele>121.4</ele><time>2026-05-02T21:17:22.592Z</time></trkpt><trkpt lat="-36.7472264" lon="174.4201308"><ele>119.6</ele><time>2026-05-02T21:17:24.593Z</time></trkpt><trkpt lat="-36.7473219" lon="174.4201616"><ele>117.8</ele><time>2026-05-02T21:17:26.592Z</time></trkpt><trkpt lat="-36.7473998" lon="174.4201896"><ele>116.0</ele><time>2026-05-02T21:17:28.593Z</time></trkpt><trkpt lat="-36.7474667" lon="174.4201262"><ele>116.0</ele><time>2026-05-02T21:17:30.593Z</time></trkpt><trkpt lat="-36.747508" lon="174.4200102"><ele>116.0</ele><time>2026-05-02T21:17:32.592Z</time></trkpt><trkpt lat="-36.7475263" lon="174.4198879"><ele>116.0</ele><time>2026-05-02T21:17:34.593Z</time></trkpt><trkpt lat="-36.7475047" lon="174.4197791"><ele>116.0</ele><time>2026-05-02T21:17:36.592Z</time></trkpt><trkpt lat="-36.7474127" lon="174.4197144"><ele>116.0</ele><time>2026-05-02T21:17:38.593Z</time></trkpt><trkpt lat="-36.7473382" lon="174.4196576"><ele>117.0</ele><time>2026-05-02T21:17:40.592Z</time></trkpt><trkpt lat="-36.7472503" lon="174.4196027"><ele>118.0</ele><time>2026-05-02T21:17:42.592Z</time></trkpt><trkpt lat="-36.7472205" lon="174.4194859"><ele>119.0</ele><time>2026-05-02T21:17:44.592Z</time></trkpt><trkpt lat="-36.7472499" lon="174.4193551"><ele>120.0</ele><time>2026-05-02T21:17:46.593Z</time></trkpt><trkpt lat="-36.747243" lon="174.4192531"><ele>121.0</ele><time>2026-05-02T21:17:48.592Z</time></trkpt><trkpt lat="-36.7472759" lon="174.4191342"><ele>121.00000000000001</ele><time>2026-05-02T21:17:50.592Z</time></trkpt><trkpt lat="-36.74732" lon="174.4190429"><ele>121.0</ele><time>2026-05-02T21:17:52.591Z</time></trkpt><trkpt lat="-36.7474013" lon="174.4189455"><ele>121.0</ele><time>2026-05-02T21:17:54.593Z</time></trkpt><trkpt lat="-36.7474547" lon="174.4188413"><ele>121.0</ele><time>2026-05-02T21:17:56.592Z</time></trkpt><trkpt lat="-36.7474742" lon="174.4187622"><ele>121.00000000000001</ele><time>2026-05-02T21:17:58.592Z</time></trkpt><trkpt lat="-36.7474315" lon="174.41867"><ele>121.0</ele><time>2026-05-02T21:18:01.592Z</time></trkpt><trkpt lat="-36.7474337" lon="174.4185739"><ele>122.0</ele><time>2026-05-02T21:18:03.593Z</time></trkpt><trkpt lat="-36.7474547" lon="174.4184862"><ele>123.0</ele><time>2026-05-02T21:18:04.593Z</time></trkpt><trkpt lat="-36.747482" lon="174.4183326"><ele>124.0</ele><time>2026-05-02T21:18:06.593Z</time></trkpt><trkpt lat="-36.7475434" lon="174.4182398"><ele>125.0</ele><time>2026-05-02T21:18:08.592Z</time></trkpt><trkpt lat="-36.7475633" lon="174.4181213"><ele>126.0</ele><time>2026-05-02T21:18:10.593Z</time></trkpt><trkpt lat="-36.7475002" lon="174.4180609"><ele>126.0</ele><time>2026-05-02T21:18:12.593Z</time></trkpt><trkpt lat="-36.7474328" lon="174.4180142"><ele>126.0</ele><time>2026-05-02T21:18:14.593Z</time></trkpt><trkpt lat="-36.7473776" lon="174.4179616"><ele>126.0</ele><time>2026-05-02T21:18:16.592Z</time></trkpt><trkpt lat="-36.7473191" lon="174.4178904"><ele>126.0</ele><time>2026-05-02T21:18:18.593Z</time></trkpt><trkpt lat="-36.747246" lon="174.4178333"><ele>126.0</ele><time>2026-05-02T21:18:20.593Z</time></trkpt><trkpt lat="-36.7471698" lon="174.417782"><ele>126.0</ele><time>2026-05-02T21:18:22.593Z</time></trkpt><trkpt lat="-36.7470947" lon="174.4177407"><ele>126.83333333333333</ele><time>2026-05-02T21:18:24.592Z</time></trkpt><trkpt lat="-36.747019" lon="174.4176957"><ele>127.66666666666666</ele><time>2026-05-02T21:18:26.593Z</time></trkpt><trkpt lat="-36.7469452" lon="174.4176537"><ele>128.5</ele><time>2026-05-02T21:18:28.592Z</time></trkpt><trkpt lat="-36.7468795" lon="174.4175994"><ele>129.33333333333331</ele><time>2026-05-02T21:18:30.592Z</time></trkpt><trkpt lat="-36.7468127" lon="174.4175486"><ele>130.16666666666666</ele><time>2026-05-02T21:18:32.592Z</time></trkpt><trkpt lat="-36.7467452" lon="174.4175116"><ele>131.0</ele><time>2026-05-02T21:18:34.593Z</time></trkpt><trkpt lat="-36.74668" lon="174.4174754"><ele>131.66666666666666</ele><time>2026-05-02T21:18:36.592Z</time></trkpt><trkpt lat="-36.7466184" lon="174.4174423"><ele>132.33333333333331</ele><time>2026-05-02T21:18:38.593Z</time></trkpt><trkpt lat="-36.7465453" lon="174.4174495"><ele>133.0</ele><time>2026-05-02T21:18:40.593Z</time></trkpt><trkpt lat="-36.7464698" lon="174.4174829"><ele>133.66666666666666</ele><time>2026-05-02T21:18:42.593Z</time></trkpt><trkpt lat="-36.7464076" lon="174.4175492"><ele>134.33333333333334</ele><time>2026-05-02T21:18:45.592Z</time></trkpt><trkpt lat="-36.7463299" lon="174.4175915"><ele>135.0</ele><time>2026-05-02T21:18:48.593Z</time></trkpt><trkpt lat="-36.7463203" lon="174.4176958"><ele>135.0</ele><time>2026-05-02T21:18:51.593Z</time></trkpt><trkpt lat="-36.7462959" lon="174.41777"><ele>135.0</ele><time>2026-05-02T21:19:29.592Z</time></trkpt><trkpt lat="-36.7462098" lon="174.4177907"><ele>135.0</ele><time>2026-05-02T21:19:32.592Z</time></trkpt><trkpt lat="-36.7461532" lon="174.4177442"><ele>135.0</ele><time>2026-05-02T21:19:35.592Z</time></trkpt><trkpt lat="-36.7460962" lon="174.4177026"><ele>135.0</ele><time>2026-05-02T21:19:38.593Z</time></trkpt><trkpt lat="-36.7460255" lon="174.4176558"><ele>135.0</ele><time>2026-05-02T21:19:41.592Z</time></trkpt><trkpt lat="-36.7459914" lon="174.41757"><ele>135.0</ele><time>2026-05-02T21:19:43.593Z</time></trkpt><trkpt lat="-36.7459909" lon="174.4174581"><ele>135.2</ele><time>2026-05-02T21:19:44.593Z</time></trkpt><trkpt lat="-36.7459721" lon="174.4173421"><ele>135.4</ele><time>2026-05-02T21:19:46.592Z</time></trkpt><trkpt lat="-36.7459491" lon="174.4172338"><ele>135.6</ele><time>2026-05-02T21:19:48.593Z</time></trkpt><trkpt lat="-36.7458809" lon="174.4171505"><ele>135.8</ele><time>2026-05-02T21:19:50.593Z</time></trkpt><trkpt lat="-36.7458235" lon="174.4171171"><ele>136.0</ele><time>2026-05-02T21:19:51.592Z</time></trkpt><trkpt lat="-36.745711" lon="174.4170024"><ele>136.16666666666669</ele><time>2026-05-02T21:19:53.593Z</time></trkpt><trkpt lat="-36.7456487" lon="174.416956"><ele>136.33333333333334</ele><time>2026-05-02T21:19:54.592Z</time></trkpt><trkpt lat="-36.7455745" lon="174.4169431"><ele>136.5</ele><time>2026-05-02T21:19:55.593Z</time></trkpt><trkpt lat="-36.7454939" lon="174.4169356"><ele>136.66666666666666</ele><time>2026-05-02T21:19:56.592Z</time></trkpt><trkpt lat="-36.7454243" lon="174.4169159"><ele>136.83333333333331</ele><time>2026-05-02T21:19:57.592Z</time></trkpt><trkpt lat="-36.7453026" lon="174.4168649"><ele>137.0</ele><time>2026-05-02T21:19:59.592Z</time></trkpt><trkpt lat="-36.7452397" lon="174.4168138"><ele>136.16666666666666</ele><time>2026-05-02T21:20:00.593Z</time></trkpt><trkpt lat="-36.7451292" lon="174.4167292"><ele>135.33333333333331</ele><time>2026-05-02T21:20:02.591Z</time></trkpt><trkpt lat="-36.7450831" lon="174.4166692"><ele>134.5</ele><time>2026-05-02T21:20:03.593Z</time></trkpt><trkpt lat="-36.74502" lon="174.4165954"><ele>133.66666666666666</ele><time>2026-05-02T21:20:04.593Z</time></trkpt><trkpt lat="-36.7449598" lon="174.4165219"><ele>132.83333333333334</ele><time>2026-05-02T21:20:05.593Z</time></trkpt><trkpt lat="-36.7449014" lon="174.4164529"><ele>132.0</ele><time>2026-05-02T21:20:06.593Z</time></trkpt><trkpt lat="-36.744844" lon="174.4163933"><ele>132.0</ele><time>2026-05-02T21:20:07.592Z</time></trkpt><trkpt lat="-36.7447778" lon="174.4163584"><ele>132.0</ele><time>2026-05-02T21:20:08.592Z</time></trkpt><trkpt lat="-36.7446466" lon="174.4162572"><ele>132.0</ele><time>2026-05-02T21:20:10.592Z</time></trkpt><trkpt lat="-36.7445821" lon="174.4162084"><ele>132.0</ele><time>2026-05-02T21:20:11.592Z</time></trkpt><trkpt lat="-36.7445068" lon="174.4161685"><ele>132.0</ele><time>2026-05-02T21:20:12.592Z</time></trkpt><trkpt lat="-36.7444352" lon="174.4161245"><ele>129.4</ele><time>2026-05-02T21:20:13.593Z</time></trkpt><trkpt lat="-36.7443789" lon="174.4160535"><ele>126.79999999999998</ele><time>2026-05-02T21:20:14.593Z</time></trkpt><trkpt lat="-36.74432" lon="174.4159398"><ele>124.2</ele><time>2026-05-02T21:20:15.592Z</time></trkpt><trkpt lat="-36.7442442" lon="174.415866"><ele>121.6</ele><time>2026-05-02T21:20:16.592Z</time></trkpt><trkpt lat="-36.7441598" lon="174.415802"><ele>119.0</ele><time>2026-05-02T21:20:17.593Z</time></trkpt><trkpt lat="-36.7440649" lon="174.4157677"><ele>118.99999999999999</ele><time>2026-05-02T21:20:18.593Z</time></trkpt><trkpt lat="-36.7439756" lon="174.4157232"><ele>119.0</ele><time>2026-05-02T21:20:19.593Z</time></trkpt><trkpt lat="-36.743877" lon="174.4156764"><ele>119.0</ele><time>2026-05-02T21:20:20.593Z</time></trkpt><trkpt lat="-36.7438034" lon="174.4156203"><ele>119.0</ele><time>2026-05-02T21:20:21.592Z</time></trkpt><trkpt lat="-36.7437518" lon="174.4155557"><ele>118.99999999999999</ele><time>2026-05-02T21:20:22.592Z</time></trkpt><trkpt lat="-36.743688" lon="174.4155142"><ele>119.0</ele><time>2026-05-02T21:20:23.592Z</time></trkpt><trkpt lat="-36.7436467" lon="174.4154065"><ele>119.66666666666666</ele><time>2026-05-02T21:20:25.592Z</time></trkpt><trkpt lat="-36.743596" lon="174.415338"><ele>120.33333333333333</ele><time>2026-05-02T21:20:27.593Z</time></trkpt><trkpt lat="-36.7435386" lon="174.4152832"><ele>121.0</ele><time>2026-05-02T21:20:29.593Z</time></trkpt><trkpt lat="-36.7434655" lon="174.4152128"><ele>121.66666666666666</ele><time>2026-05-02T21:20:31.593Z</time></trkpt><trkpt lat="-36.7433876" lon="174.415141"><ele>122.33333333333333</ele><time>2026-05-02T21:20:33.592Z</time></trkpt><trkpt lat="-36.7432976" lon="174.4150662"><ele>123.0</ele><time>2026-05-02T21:20:35.593Z</time></trkpt><trkpt lat="-36.743203" lon="174.4150167"><ele>123.60000000000001</ele><time>2026-05-02T21:20:37.591Z</time></trkpt><trkpt lat="-36.7431178" lon="174.4149431"><ele>124.20000000000002</ele><time>2026-05-02T21:20:39.593Z</time></trkpt><trkpt lat="-36.7430347" lon="174.4148869"><ele>124.8</ele><time>2026-05-02T21:20:41.592Z</time></trkpt><trkpt lat="-36.7429576" lon="174.414821"><ele>125.4</ele><time>2026-05-02T21:20:43.592Z</time></trkpt><trkpt lat="-36.7428779" lon="174.4147602"><ele>126.0</ele><time>2026-05-02T21:20:45.593Z</time></trkpt><trkpt lat="-36.7427948" lon="174.4146925"><ele>127.0</ele><time>2026-05-02T21:20:47.592Z</time></trkpt><trkpt lat="-36.742724" lon="174.4146267"><ele>128.0</ele><time>2026-05-02T21:20:49.593Z</time></trkpt><trkpt lat="-36.7426393" lon="174.4145816"><ele>129.0</ele><time>2026-05-02T21:20:51.593Z</time></trkpt><trkpt lat="-36.7425716" lon="174.4145366"><ele>130.0</ele><time>2026-05-02T21:20:53.593Z</time></trkpt><trkpt lat="-36.7425055" lon="174.4144794"><ele>131.0</ele><time>2026-05-02T21:20:55.592Z</time></trkpt><trkpt lat="-36.7424411" lon="174.4144356"><ele>132.0</ele><time>2026-05-02T21:20:57.594Z</time></trkpt><trkpt lat="-36.7423768" lon="174.4143987"><ele>132.79999999999998</ele><time>2026-05-02T21:20:59.592Z</time></trkpt><trkpt lat="-36.7423092" lon="174.4143333"><ele>133.6</ele><time>2026-05-02T21:21:02.592Z</time></trkpt><trkpt lat="-36.7423604" lon="174.4142655"><ele>134.39999999999998</ele><time>2026-05-02T21:21:05.593Z</time></trkpt><trkpt lat="-36.7424524" lon="174.4142626"><ele>135.2</ele><time>2026-05-02T21:21:06.592Z</time></trkpt><trkpt lat="-36.7425833" lon="174.4142308"><ele>136.0</ele><time>2026-05-02T21:21:08.592Z</time></trkpt><trkpt lat="-36.7426479" lon="174.4142423"><ele>135.2</ele><time>2026-05-02T21:21:09.592Z</time></trkpt><trkpt lat="-36.7427487" lon="174.4142879"><ele>134.39999999999998</ele><time>2026-05-02T21:21:11.593Z</time></trkpt><trkpt lat="-36.7427725" lon="174.4143944"><ele>133.6</ele><time>2026-05-02T21:21:13.592Z</time></trkpt><trkpt lat="-36.7428259" lon="174.4144779"><ele>132.79999999999998</ele><time>2026-05-02T21:21:15.593Z</time></trkpt><trkpt lat="-36.7429306" lon="174.4144783"><ele>132.0</ele><time>2026-05-02T21:21:17.593Z</time></trkpt><trkpt lat="-36.7429992" lon="174.414469"><ele>132.0</ele><time>2026-05-02T21:21:18.592Z</time></trkpt><trkpt lat="-36.7431125" lon="174.4144975"><ele>132.0</ele><time>2026-05-02T21:21:20.592Z</time></trkpt><trkpt lat="-36.7431292" lon="174.4145982"><ele>132.0</ele><time>2026-05-02T21:21:22.592Z</time></trkpt><trkpt lat="-36.7431684" lon="174.4147254"><ele>132.0</ele><time>2026-05-02T21:21:24.593Z</time></trkpt><trkpt lat="-36.7432448" lon="174.414781"><ele>132.0</ele><time>2026-05-02T21:21:26.592Z</time></trkpt><trkpt lat="-36.7433365" lon="174.4148384"><ele>131.0</ele><time>2026-05-02T21:21:28.593Z</time></trkpt><trkpt lat="-36.743393" lon="174.4148867"><ele>130.0</ele><time>2026-05-02T21:21:29.593Z</time></trkpt><trkpt lat="-36.7434871" lon="174.4148783"><ele>129.0</ele><time>2026-05-02T21:21:31.592Z</time></trkpt><trkpt lat="-36.7435661" lon="174.4148927"><ele>128.0</ele><time>2026-05-02T21:21:33.593Z</time></trkpt><trkpt lat="-36.7436622" lon="174.4148961"><ele>127.0</ele><time>2026-05-02T21:21:35.593Z</time></trkpt><trkpt lat="-36.7437458" lon="174.4148706"><ele>126.0</ele><time>2026-05-02T21:21:37.593Z</time></trkpt><trkpt lat="-36.7438375" lon="174.4147817"><ele>125.4</ele><time>2026-05-02T21:21:39.592Z</time></trkpt><trkpt lat="-36.743928" lon="174.4147535"><ele>124.8</ele><time>2026-05-02T21:21:41.593Z</time></trkpt><trkpt lat="-36.7439803" lon="174.4148157"><ele>124.20000000000002</ele><time>2026-05-02T21:21:43.593Z</time></trkpt><trkpt lat="-36.7440084" lon="174.41489"><ele>123.60000000000001</ele><time>2026-05-02T21:21:45.592Z</time></trkpt><trkpt lat="-36.7441274" lon="174.4149616"><ele>123.0</ele><time>2026-05-02T21:21:48.592Z</time></trkpt><trkpt lat="-36.7442388" lon="174.4149895"><ele>123.0</ele><time>2026-05-02T21:21:50.592Z</time></trkpt><trkpt lat="-36.7443483" lon="174.415055"><ele>123.00000000000001</ele><time>2026-05-02T21:21:52.593Z</time></trkpt><trkpt lat="-36.7444006" lon="174.4151918"><ele>123.00000000000001</ele><time>2026-05-02T21:21:54.591Z</time></trkpt><trkpt lat="-36.7444469" lon="174.4153278"><ele>123.0</ele><time>2026-05-02T21:21:56.593Z</time></trkpt><trkpt lat="-36.7445046" lon="174.4153789"><ele>123.0</ele><time>2026-05-02T21:21:58.591Z</time></trkpt><trkpt lat="-36.7445474" lon="174.4154686"><ele>123.85714285714288</ele><time>2026-05-02T21:22:00.592Z</time></trkpt><trkpt lat="-36.7445124" lon="174.4155732"><ele>124.71428571428572</ele><time>2026-05-02T21:22:03.591Z</time></trkpt><trkpt lat="-36.7444905" lon="174.4156616"><ele>125.57142857142857</ele><time>2026-05-02T21:22:06.593Z</time></trkpt><trkpt lat="-36.7445636" lon="174.4156962"><ele>126.42857142857143</ele><time>2026-05-02T21:22:08.593Z</time></trkpt><trkpt lat="-36.7446303" lon="174.4157325"><ele>127.28571428571428</ele><time>2026-05-02T21:22:10.592Z</time></trkpt><trkpt lat="-36.744694" lon="174.4157482"><ele>128.14285714285714</ele><time>2026-05-02T21:22:12.593Z</time></trkpt><trkpt lat="-36.7447579" lon="174.4157443"><ele>129.0</ele><time>2026-05-02T21:22:14.592Z</time></trkpt><trkpt lat="-36.744821" lon="174.4157951"><ele>128.99999999999997</ele><time>2026-05-02T21:22:17.592Z</time></trkpt><trkpt lat="-36.7447849" lon="174.4158768"><ele>129.0</ele><time>2026-05-02T21:22:21.591Z</time></trkpt><trkpt lat="-36.7447395" lon="174.4159368"><ele>129.0</ele><time>2026-05-02T21:22:24.592Z</time></trkpt><trkpt lat="-36.744807" lon="174.4159637"><ele>129.0</ele><time>2026-05-02T21:22:29.592Z</time></trkpt><trkpt lat="-36.7448806" lon="174.4160239"><ele>129.0</ele><time>2026-05-02T21:22:32.592Z</time></trkpt><trkpt lat="-36.7449591" lon="174.4160413"><ele>128.99999999999997</ele><time>2026-05-02T21:22:35.592Z</time></trkpt><trkpt lat="-36.7449934" lon="174.4161121"><ele>129.0</ele><time>2026-05-02T21:22:39.593Z</time></trkpt><trkpt lat="-36.7450171" lon="174.4160124"><ele>129.0</ele><time>2026-05-02T21:22:43.593Z</time></trkpt><trkpt lat="-36.7450742" lon="174.4159278"><ele>129.0</ele><time>2026-05-02T21:22:46.593Z</time></trkpt><trkpt lat="-36.7451602" lon="174.4159265"><ele>129.0</ele><time>2026-05-02T21:22:49.592Z</time></trkpt><trkpt lat="-36.7452234" lon="174.4159446"><ele>129.0</ele><time>2026-05-02T21:22:51.592Z</time></trkpt><trkpt lat="-36.7452923" lon="174.4159524"><ele>129.0</ele><time>2026-05-02T21:22:54.592Z</time></trkpt><trkpt lat="-36.7452702" lon="174.416046"><ele>129.0</ele><time>2026-05-02T21:22:58.592Z</time></trkpt><trkpt lat="-36.7452563" lon="174.4161339"><ele>130.33333333333334</ele><time>2026-05-02T21:23:02.593Z</time></trkpt><trkpt lat="-36.7452897" lon="174.4162152"><ele>131.66666666666666</ele><time>2026-05-02T21:23:05.592Z</time></trkpt><trkpt lat="-36.7453487" lon="174.4162526"><ele>133.0</ele><time>2026-05-02T21:23:08.592Z</time></trkpt><trkpt lat="-36.7453906" lon="174.4163412"><ele>134.33333333333331</ele><time>2026-05-02T21:23:11.592Z</time></trkpt><trkpt lat="-36.7454437" lon="174.4163835"><ele>135.66666666666666</ele><time>2026-05-02T21:23:13.592Z</time></trkpt><trkpt lat="-36.7455294" lon="174.4164068"><ele>137.0</ele><time>2026-05-02T21:23:16.593Z</time></trkpt><trkpt lat="-36.7455815" lon="174.4164804"><ele>137.00000000000003</ele><time>2026-05-02T21:23:19.592Z</time></trkpt><trkpt lat="-36.7456363" lon="174.4165304"><ele>137.0</ele><time>2026-05-02T21:23:22.592Z</time></trkpt><trkpt lat="-36.7457115" lon="174.4165313"><ele>137.0</ele><time>2026-05-02T21:23:26.592Z</time></trkpt><trkpt lat="-36.7457683" lon="174.4164651"><ele>137.0</ele><time>2026-05-02T21:23:30.592Z</time></trkpt><trkpt lat="-36.7457804" lon="174.4163819"><ele>137.0</ele><time>2026-05-02T21:23:34.592Z</time></trkpt><trkpt lat="-36.7457712" lon="174.4162947"><ele>137.00000000000003</ele><time>2026-05-02T21:23:36.593Z</time></trkpt><trkpt lat="-36.74579" lon="174.4161902"><ele>137.0</ele><time>2026-05-02T21:23:39.593Z</time></trkpt><trkpt lat="-36.7458443" lon="174.4160974"><ele>137.16666666666666</ele><time>2026-05-02T21:23:42.593Z</time></trkpt><trkpt lat="-36.7458801" lon="174.4159996"><ele>137.33333333333331</ele><time>2026-05-02T21:23:44.593Z</time></trkpt><trkpt lat="-36.7458246" lon="174.4159169"><ele>137.5</ele><time>2026-05-02T21:23:47.592Z</time></trkpt><trkpt lat="-36.745753" lon="174.4159407"><ele>137.66666666666666</ele><time>2026-05-02T21:23:49.592Z</time></trkpt><trkpt lat="-36.7456808" lon="174.4159207"><ele>137.83333333333334</ele><time>2026-05-02T21:23:52.594Z</time></trkpt><trkpt lat="-36.7456681" lon="174.4158073"><ele>138.0</ele><time>2026-05-02T21:23:53.593Z</time></trkpt><trkpt lat="-36.745642" lon="174.4156801"><ele>138.0</ele><time>2026-05-02T21:23:55.592Z</time></trkpt><trkpt lat="-36.745575" lon="174.4155752"><ele>138.0</ele><time>2026-05-02T21:23:57.593Z</time></trkpt><trkpt lat="-36.7455151" lon="174.415551"><ele>138.0</ele><time>2026-05-02T21:23:58.592Z</time></trkpt><trkpt lat="-36.745464" lon="174.4154808"><ele>138.0</ele><time>2026-05-02T21:23:59.594Z</time></trkpt><trkpt lat="-36.7454235" lon="174.415396"><ele>138.0</ele><time>2026-05-02T21:24:00.592Z</time></trkpt><trkpt lat="-36.7454014" lon="174.41523"><ele>136.66666666666666</ele><time>2026-05-02T21:24:02.592Z</time></trkpt><trkpt lat="-36.745348" lon="174.4151139"><ele>135.33333333333334</ele><time>2026-05-02T21:24:04.593Z</time></trkpt><trkpt lat="-36.7453083" lon="174.415051"><ele>134.0</ele><time>2026-05-02T21:24:05.592Z</time></trkpt><trkpt lat="-36.7452208" lon="174.4149949"><ele>132.66666666666669</ele><time>2026-05-02T21:24:07.593Z</time></trkpt><trkpt lat="-36.7451327" lon="174.4150199"><ele>131.33333333333334</ele><time>2026-05-02T21:24:10.592Z</time></trkpt><trkpt lat="-36.7450522" lon="174.4150584"><ele>130.0</ele><time>2026-05-02T21:24:12.593Z</time></trkpt><trkpt lat="-36.7449907" lon="174.4150933"><ele>129.5</ele><time>2026-05-02T21:24:14.593Z</time></trkpt><trkpt lat="-36.7449174" lon="174.4150929"><ele>129.0</ele><time>2026-05-02T21:24:16.592Z</time></trkpt><trkpt lat="-36.744851" lon="174.4151199"><ele>128.5</ele><time>2026-05-02T21:24:18.592Z</time></trkpt><trkpt lat="-36.7447781" lon="174.4151533"><ele>128.0</ele><time>2026-05-02T21:24:20.592Z</time></trkpt><trkpt lat="-36.7447031" lon="174.4151507"><ele>127.50000000000001</ele><time>2026-05-02T21:24:22.592Z</time></trkpt><trkpt lat="-36.7446172" lon="174.4151398"><ele>127.0</ele><time>2026-05-02T21:24:24.593Z</time></trkpt><trkpt lat="-36.7445476" lon="174.4150842"><ele>127.00000000000001</ele><time>2026-05-02T21:24:25.593Z</time></trkpt><trkpt lat="-36.7444887" lon="174.4150506"><ele>127.0</ele><time>2026-05-02T21:24:26.593Z</time></trkpt><trkpt lat="-36.7444476" lon="174.4149613"><ele>127.0</ele><time>2026-05-02T21:24:28.593Z</time></trkpt><trkpt lat="-36.7444192" lon="174.414872"><ele>127.0</ele><time>2026-05-02T21:24:30.593Z</time></trkpt><trkpt lat="-36.7443432" lon="174.4148177"><ele>127.00000000000001</ele><time>2026-05-02T21:24:32.592Z</time></trkpt><trkpt lat="-36.7442926" lon="174.4147601"><ele>127.0</ele><time>2026-05-02T21:24:35.592Z</time></trkpt><trkpt lat="-36.7442318" lon="174.4147188"><ele>127.33333333333334</ele><time>2026-05-02T21:24:39.591Z</time></trkpt><trkpt lat="-36.7441815" lon="174.4146623"><ele>127.66666666666667</ele><time>2026-05-02T21:24:41.592Z</time></trkpt><trkpt lat="-36.7441371" lon="174.4146001"><ele>128.0</ele><time>2026-05-02T21:24:43.592Z</time></trkpt><trkpt lat="-36.7440817" lon="174.4145288"><ele>128.33333333333334</ele><time>2026-05-02T21:24:45.592Z</time></trkpt><trkpt lat="-36.7440344" lon="174.4144482"><ele>128.66666666666666</ele><time>2026-05-02T21:24:47.594Z</time></trkpt><trkpt lat="-36.744004" lon="174.4143527"><ele>129.0</ele><time>2026-05-02T21:24:49.592Z</time></trkpt><trkpt lat="-36.7439811" lon="174.4142478"><ele>129.0</ele><time>2026-05-02T21:24:51.592Z</time></trkpt><trkpt lat="-36.7439808" lon="174.4141318"><ele>129.0</ele><time>2026-05-02T21:24:53.592Z</time></trkpt><trkpt lat="-36.7439634" lon="174.4140454"><ele>129.0</ele><time>2026-05-02T21:24:55.592Z</time></trkpt><trkpt lat="-36.7439481" lon="174.4139534"><ele>129.0</ele><time>2026-05-02T21:24:57.593Z</time></trkpt><trkpt lat="-36.7438848" lon="174.4138759"><ele>129.0</ele><time>2026-05-02T21:24:59.592Z</time></trkpt><trkpt lat="-36.7437907" lon="174.4138275"><ele>129.0</ele><time>2026-05-02T21:25:01.592Z</time></trkpt><trkpt lat="-36.7437068" lon="174.4137596"><ele>129.16666666666666</ele><time>2026-05-02T21:25:03.592Z</time></trkpt><trkpt lat="-36.7436327" lon="174.41369"><ele>129.33333333333334</ele><time>2026-05-02T21:25:05.593Z</time></trkpt><trkpt lat="-36.743584" lon="174.4135973"><ele>129.5</ele><time>2026-05-02T21:25:07.593Z</time></trkpt><trkpt lat="-36.7435283" lon="174.4135223"><ele>129.66666666666669</ele><time>2026-05-02T21:25:09.592Z</time></trkpt><trkpt lat="-36.7434716" lon="174.4134625"><ele>129.83333333333334</ele><time>2026-05-02T21:25:11.593Z</time></trkpt><trkpt lat="-36.743464" lon="174.4133511"><ele>130.0</ele><time>2026-05-02T21:25:14.593Z</time></trkpt><trkpt lat="-36.7434899" lon="174.4132504"><ele>130.0</ele><time>2026-05-02T21:25:16.592Z</time></trkpt><trkpt lat="-36.7435256" lon="174.4131545"><ele>130.0</ele><time>2026-05-02T21:25:18.592Z</time></trkpt><trkpt lat="-36.7435583" lon="174.4130569"><ele>130.0</ele><time>2026-05-02T21:25:20.592Z</time></trkpt><trkpt lat="-36.7436243" lon="174.4129669"><ele>130.0</ele><time>2026-05-02T21:25:22.593Z</time></trkpt><trkpt lat="-36.7437" lon="174.4129139"><ele>130.0</ele><time>2026-05-02T21:25:24.592Z</time></trkpt><trkpt lat="-36.7437774" lon="174.4129398"><ele>130.0</ele><time>2026-05-02T21:25:26.593Z</time></trkpt><trkpt lat="-36.7437891" lon="174.4130235"><ele>130.0</ele><time>2026-05-02T21:25:28.592Z</time></trkpt><trkpt lat="-36.7437432" lon="174.4130837"><ele>130.0</ele><time>2026-05-02T21:25:30.592Z</time></trkpt><trkpt lat="-36.7436748" lon="174.4131553"><ele>130.0</ele><time>2026-05-02T21:25:32.593Z</time></trkpt><trkpt lat="-36.743651" lon="174.4132429"><ele>130.0</ele><time>2026-05-02T21:25:34.593Z</time></trkpt><trkpt lat="-36.7436659" lon="174.4133378"><ele>130.0</ele><time>2026-05-02T21:25:37.593Z</time></trkpt><trkpt lat="-36.7437337" lon="174.4134397"><ele>130.0</ele><time>2026-05-02T21:25:40.592Z</time></trkpt><trkpt lat="-36.7437659" lon="174.4135234"><ele>130.0</ele><time>2026-05-02T21:25:42.593Z</time></trkpt><trkpt lat="-36.7437932" lon="174.4136099"><ele>130.0</ele><time>2026-05-02T21:25:44.592Z</time></trkpt><trkpt lat="-36.7438351" lon="174.413674"><ele>130.0</ele><time>2026-05-02T21:25:46.593Z</time></trkpt><trkpt lat="-36.7438985" lon="174.4137206"><ele>130.0</ele><time>2026-05-02T21:25:48.593Z</time></trkpt><trkpt lat="-36.7439805" lon="174.4137506"><ele>130.0</ele><time>2026-05-02T21:25:50.593Z</time></trkpt><trkpt lat="-36.7440428" lon="174.4138238"><ele>130.0</ele><time>2026-05-02T21:25:52.593Z</time></trkpt><trkpt lat="-36.7440997" lon="174.4138815"><ele>129.85714285714286</ele><time>2026-05-02T21:25:54.593Z</time></trkpt><trkpt lat="-36.7441916" lon="174.4138857"><ele>129.71428571428572</ele><time>2026-05-02T21:25:57.593Z</time></trkpt><trkpt lat="-36.7442476" lon="174.4139364"><ele>129.57142857142856</ele><time>2026-05-02T21:25:59.593Z</time></trkpt><trkpt lat="-36.7442664" lon="174.4140176"><ele>129.42857142857144</ele><time>2026-05-02T21:26:01.593Z</time></trkpt><trkpt lat="-36.7442437" lon="174.4141105"><ele>129.28571428571428</ele><time>2026-05-02T21:26:03.593Z</time></trkpt><trkpt lat="-36.7442276" lon="174.4141927"><ele>129.14285714285714</ele><time>2026-05-02T21:26:05.593Z</time></trkpt><trkpt lat="-36.7442472" lon="174.41427"><ele>129.0</ele><time>2026-05-02T21:26:07.593Z</time></trkpt><trkpt lat="-36.7443372" lon="174.4142855"><ele>128.6</ele><time>2026-05-02T21:26:10.593Z</time></trkpt><trkpt lat="-36.744423" lon="174.4142766"><ele>128.2</ele><time>2026-05-02T21:26:12.593Z</time></trkpt><trkpt lat="-36.7444963" lon="174.4143269"><ele>127.79999999999998</ele><time>2026-05-02T21:26:14.592Z</time></trkpt><trkpt lat="-36.7445453" lon="174.4144308"><ele>127.39999999999999</ele><time>2026-05-02T21:26:16.593Z</time></trkpt><trkpt lat="-36.7445694" lon="174.4145574"><ele>127.0</ele><time>2026-05-02T21:26:18.592Z</time></trkpt><trkpt lat="-36.7446039" lon="174.4146639"><ele>127.00000000000001</ele><time>2026-05-02T21:26:20.592Z</time></trkpt><trkpt lat="-36.7446343" lon="174.414744"><ele>127.0</ele><time>2026-05-02T21:26:21.593Z</time></trkpt><trkpt lat="-36.7446979" lon="174.4148542"><ele>127.0</ele><time>2026-05-02T21:26:23.592Z</time></trkpt><trkpt lat="-36.744753" lon="174.4149543"><ele>127.0</ele><time>2026-05-02T21:26:25.592Z</time></trkpt><trkpt lat="-36.7448186" lon="174.4149828"><ele>127.00000000000001</ele><time>2026-05-02T21:26:27.593Z</time></trkpt><trkpt lat="-36.7448948" lon="174.4149725"><ele>127.0</ele><time>2026-05-02T21:26:29.593Z</time></trkpt><trkpt lat="-36.7449536" lon="174.4149036"><ele>127.0</ele><time>2026-05-02T21:26:31.593Z</time></trkpt><trkpt lat="-36.7449983" lon="174.4148172"><ele>127.0</ele><time>2026-05-02T21:26:33.592Z</time></trkpt><trkpt lat="-36.7450625" lon="174.4147867"><ele>127.0</ele><time>2026-05-02T21:26:35.593Z</time></trkpt><trkpt lat="-36.745121" lon="174.4148163"><ele>127.0</ele><time>2026-05-02T21:26:37.593Z</time></trkpt><trkpt lat="-36.7451876" lon="174.4148078"><ele>127.0</ele><time>2026-05-02T21:26:39.592Z</time></trkpt><trkpt lat="-36.7452554" lon="174.414785"><ele>127.0</ele><time>2026-05-02T21:26:41.594Z</time></trkpt><trkpt lat="-36.7453393" lon="174.4147949"><ele>127.0</ele><time>2026-05-02T21:26:43.593Z</time></trkpt><trkpt lat="-36.7454132" lon="174.4148255"><ele>127.50000000000001</ele><time>2026-05-02T21:26:45.593Z</time></trkpt><trkpt lat="-36.7454841" lon="174.4148079"><ele>128.0</ele><time>2026-05-02T21:26:47.592Z</time></trkpt><trkpt lat="-36.7455348" lon="174.4147609"><ele>128.5</ele><time>2026-05-02T21:26:49.591Z</time></trkpt><trkpt lat="-36.7456169" lon="174.4147997"><ele>129.0</ele><time>2026-05-02T21:26:52.593Z</time></trkpt><trkpt lat="-36.7456571" lon="174.4149045"><ele>129.5</ele><time>2026-05-02T21:26:55.592Z</time></trkpt><trkpt lat="-36.7456427" lon="174.4149936"><ele>130.0</ele><time>2026-05-02T21:26:57.593Z</time></trkpt><trkpt lat="-36.7456476" lon="174.4150737"><ele>130.00000000000003</ele><time>2026-05-02T21:26:59.592Z</time></trkpt><trkpt lat="-36.7457305" lon="174.4151048"><ele>130.0</ele><time>2026-05-02T21:27:02.593Z</time></trkpt><trkpt lat="-36.7457953" lon="174.4150948"><ele>130.0</ele><time>2026-05-02T21:27:04.592Z</time></trkpt><trkpt lat="-36.7458285" lon="174.415186"><ele>130.0</ele><time>2026-05-02T21:27:07.593Z</time></trkpt><trkpt lat="-36.7458077" lon="174.4152635"><ele>130.0</ele><time>2026-05-02T21:27:09.592Z</time></trkpt><trkpt lat="-36.7458456" lon="174.4153481"><ele>130.00000000000003</ele><time>2026-05-02T21:27:12.593Z</time></trkpt><trkpt lat="-36.7458967" lon="174.4154008"><ele>130.0</ele><time>2026-05-02T21:27:16.593Z</time></trkpt><trkpt lat="-36.7458754" lon="174.4154955"><ele>131.33333333333334</ele><time>2026-05-02T21:27:18.593Z</time></trkpt><trkpt lat="-36.7458261" lon="174.4155848"><ele>132.66666666666669</ele><time>2026-05-02T21:27:20.593Z</time></trkpt><trkpt lat="-36.745786" lon="174.4156563"><ele>134.0</ele><time>2026-05-02T21:27:22.592Z</time></trkpt><trkpt lat="-36.7458517" lon="174.4156965"><ele>135.33333333333334</ele><time>2026-05-02T21:27:30.593Z</time></trkpt><trkpt lat="-36.7459153" lon="174.4157414"><ele>136.66666666666666</ele><time>2026-05-02T21:27:35.592Z</time></trkpt><trkpt lat="-36.7459982" lon="174.4157598"><ele>138.0</ele><time>2026-05-02T21:27:38.593Z</time></trkpt><trkpt lat="-36.7460601" lon="174.415738"><ele>138.5</ele><time>2026-05-02T21:27:41.593Z</time></trkpt><trkpt lat="-36.7460491" lon="174.4156222"><ele>139.0</ele><time>2026-05-02T21:27:45.593Z</time></trkpt><trkpt lat="-36.7460637" lon="174.4155368"><ele>139.5</ele><time>2026-05-02T21:27:46.593Z</time></trkpt><trkpt lat="-36.7460896" lon="174.4154377"><ele>140.0</ele><time>2026-05-02T21:27:47.593Z</time></trkpt><trkpt lat="-36.7460987" lon="174.4153419"><ele>140.5</ele><time>2026-05-02T21:27:48.594Z</time></trkpt><trkpt lat="-36.74613" lon="174.4152472"><ele>141.0</ele><time>2026-05-02T21:27:49.593Z</time></trkpt><trkpt lat="-36.7461717" lon="174.4151594"><ele>141.0</ele><time>2026-05-02T21:27:50.593Z</time></trkpt><trkpt lat="-36.7462443" lon="174.415112"><ele>141.0</ele><time>2026-05-02T21:27:52.593Z</time></trkpt><trkpt lat="-36.7463275" lon="174.4150766"><ele>141.0</ele><time>2026-05-02T21:27:54.592Z</time></trkpt><trkpt lat="-36.7463068" lon="174.4149954"><ele>141.0</ele><time>2026-05-02T21:27:56.593Z</time></trkpt><trkpt lat="-36.7462922" lon="174.4149037"><ele>141.0</ele><time>2026-05-02T21:27:57.593Z</time></trkpt><trkpt lat="-36.7462736" lon="174.4148237"><ele>141.0</ele><time>2026-05-02T21:27:58.592Z</time></trkpt><trkpt lat="-36.7463042" lon="174.4147205"><ele>140.71428571428572</ele><time>2026-05-02T21:27:59.592Z</time></trkpt><trkpt lat="-36.7463303" lon="174.4146291"><ele>140.42857142857142</ele><time>2026-05-02T21:28:00.593Z</time></trkpt><trkpt lat="-36.7463642" lon="174.4145627"><ele>140.14285714285714</ele><time>2026-05-02T21:28:01.593Z</time></trkpt><trkpt lat="-36.7464208" lon="174.4144985"><ele>139.85714285714286</ele><time>2026-05-02T21:28:02.592Z</time></trkpt><trkpt lat="-36.746432" lon="174.4144169"><ele>139.57142857142858</ele><time>2026-05-02T21:28:04.593Z</time></trkpt><trkpt lat="-36.7464243" lon="174.4143277"><ele>139.28571428571428</ele><time>2026-05-02T21:28:06.593Z</time></trkpt><trkpt lat="-36.746366" lon="174.4142673"><ele>139.0</ele><time>2026-05-02T21:28:07.593Z</time></trkpt><trkpt lat="-36.7462944" lon="174.4142019"><ele>139.0</ele><time>2026-05-02T21:28:08.593Z</time></trkpt><trkpt lat="-36.7462213" lon="174.4141278"><ele>139.0</ele><time>2026-05-02T21:28:09.592Z</time></trkpt><trkpt lat="-36.7461651" lon="174.4140458"><ele>139.0</ele><time>2026-05-02T21:28:10.593Z</time></trkpt><trkpt lat="-36.7461144" lon="174.4139816"><ele>139.0</ele><time>2026-05-02T21:28:11.593Z</time></trkpt><trkpt lat="-36.7460747" lon="174.4139087"><ele>139.0</ele><time>2026-05-02T21:28:14.593Z</time></trkpt><trkpt lat="-36.7460174" lon="174.41395"><ele>139.0</ele><time>2026-05-02T21:28:19.593Z</time></trkpt><trkpt lat="-36.7459924" lon="174.4140617"><ele>137.16666666666669</ele><time>2026-05-02T21:28:22.593Z</time></trkpt><trkpt lat="-36.7459342" lon="174.4141114"><ele>135.33333333333334</ele><time>2026-05-02T21:28:24.593Z</time></trkpt><trkpt lat="-36.7458564" lon="174.414133"><ele>133.5</ele><time>2026-05-02T21:28:26.593Z</time></trkpt><trkpt lat="-36.7457665" lon="174.4141138"><ele>131.66666666666666</ele><time>2026-05-02T21:28:28.592Z</time></trkpt><trkpt lat="-36.7456749" lon="174.4141259"><ele>129.83333333333331</ele><time>2026-05-02T21:28:29.592Z</time></trkpt><trkpt lat="-36.7456502" lon="174.4142005"><ele>128.0</ele><time>2026-05-02T21:28:30.593Z</time></trkpt><trkpt lat="-36.7455681" lon="174.4142913"><ele>128.0</ele><time>2026-05-02T21:28:32.591Z</time></trkpt><trkpt lat="-36.7454481" lon="174.4143329"><ele>128.0</ele><time>2026-05-02T21:28:34.592Z</time></trkpt><trkpt lat="-36.7453573" lon="174.414341"><ele>128.0</ele><time>2026-05-02T21:28:36.593Z</time></trkpt><trkpt lat="-36.7452859" lon="174.414341"><ele>128.0</ele><time>2026-05-02T21:28:37.593Z</time></trkpt><trkpt lat="-36.7451867" lon="174.4143674"><ele>128.0</ele><time>2026-05-02T21:28:39.593Z</time></trkpt><trkpt lat="-36.7450681" lon="174.4143691"><ele>127.57142857142857</ele><time>2026-05-02T21:28:41.593Z</time></trkpt><trkpt lat="-36.7449964" lon="174.4143436"><ele>127.14285714285714</ele><time>2026-05-02T21:28:43.592Z</time></trkpt><trkpt lat="-36.7449466" lon="174.4142809"><ele>126.71428571428571</ele><time>2026-05-02T21:28:45.593Z</time></trkpt><trkpt lat="-36.7449405" lon="174.4141919"><ele>126.28571428571428</ele><time>2026-05-02T21:28:47.592Z</time></trkpt><trkpt lat="-36.7449368" lon="174.4141051"><ele>125.85714285714286</ele><time>2026-05-02T21:28:49.593Z</time></trkpt><trkpt lat="-36.7449041" lon="174.4140204"><ele>125.42857142857142</ele><time>2026-05-02T21:28:51.593Z</time></trkpt><trkpt lat="-36.7448454" lon="174.4139674"><ele>125.0</ele><time>2026-05-02T21:28:53.593Z</time></trkpt><trkpt lat="-36.7447831" lon="174.4139374"><ele>124.99999999999999</ele><time>2026-05-02T21:28:55.592Z</time></trkpt><trkpt lat="-36.7447151" lon="174.413897"><ele>125.0</ele><time>2026-05-02T21:28:57.593Z</time></trkpt><trkpt lat="-36.7446386" lon="174.4138501"><ele>125.0</ele><time>2026-05-02T21:28:59.592Z</time></trkpt><trkpt lat="-36.7445544" lon="174.4138065"><ele>125.0</ele><time>2026-05-02T21:29:01.592Z</time></trkpt><trkpt lat="-36.7444762" lon="174.4137897"><ele>124.99999999999999</ele><time>2026-05-02T21:29:03.592Z</time></trkpt><trkpt lat="-36.7444172" lon="174.4137554"><ele>125.0</ele><time>2026-05-02T21:29:05.593Z</time></trkpt><trkpt lat="-36.7443945" lon="174.413678"><ele>125.33333333333333</ele><time>2026-05-02T21:29:07.592Z</time></trkpt><trkpt lat="-36.7443893" lon="174.4135899"><ele>125.66666666666666</ele><time>2026-05-02T21:29:09.593Z</time></trkpt><trkpt lat="-36.7443589" lon="174.4135043"><ele>126.0</ele><time>2026-05-02T21:29:11.592Z</time></trkpt><trkpt lat="-36.7442971" lon="174.4134494"><ele>126.33333333333334</ele><time>2026-05-02T21:29:13.592Z</time></trkpt><trkpt lat="-36.7442087" lon="174.4134357"><ele>126.66666666666667</ele><time>2026-05-02T21:29:14.592Z</time></trkpt><trkpt lat="-36.744127" lon="174.4133899"><ele>127.0</ele><time>2026-05-02T21:29:16.593Z</time></trkpt><trkpt lat="-36.7440751" lon="174.4133414"><ele>127.0</ele><time>2026-05-02T21:29:18.594Z</time></trkpt><trkpt lat="-36.7440087" lon="174.4133251"><ele>126.99999999999999</ele><time>2026-05-02T21:29:20.593Z</time></trkpt><trkpt lat="-36.7438938" lon="174.4132811"><ele>126.99999999999999</ele><time>2026-05-02T21:29:22.592Z</time></trkpt><trkpt lat="-36.7438615" lon="174.4132077"><ele>127.0</ele><time>2026-05-02T21:29:24.593Z</time></trkpt><trkpt lat="-36.7438862" lon="174.4130992"><ele>127.0</ele><time>2026-05-02T21:29:26.593Z</time></trkpt><trkpt lat="-36.7439122" lon="174.4129645"><ele>127.00000000000001</ele><time>2026-05-02T21:29:28.591Z</time></trkpt><trkpt lat="-36.7439381" lon="174.4128549"><ele>127.0</ele><time>2026-05-02T21:29:30.592Z</time></trkpt><trkpt lat="-36.7440025" lon="174.4127633"><ele>127.0</ele><time>2026-05-02T21:29:32.593Z</time></trkpt><trkpt lat="-36.7440047" lon="174.4126634"><ele>127.0</ele><time>2026-05-02T21:29:34.591Z</time></trkpt><trkpt lat="-36.7439843" lon="174.4125637"><ele>127.00000000000001</ele><time>2026-05-02T21:29:37.593Z</time></trkpt><trkpt lat="-36.7439526" lon="174.412481"><ele>127.0</ele><time>2026-05-02T21:29:39.593Z</time></trkpt><trkpt lat="-36.7438996" lon="174.4123925"><ele>127.00000000000001</ele><time>2026-05-02T21:29:42.592Z</time></trkpt><trkpt lat="-36.7438781" lon="174.4123171"><ele>127.0</ele><time>2026-05-02T21:29:45.594Z</time></trkpt><trkpt lat="-36.7439531" lon="174.4122558"><ele>127.0</ele><time>2026-05-02T21:29:48.593Z</time></trkpt><trkpt lat="-36.7440452" lon="174.4122651"><ele>127.0</ele><time>2026-05-02T21:29:51.592Z</time></trkpt><trkpt lat="-36.7441085" lon="174.4122799"><ele>127.00000000000001</ele><time>2026-05-02T21:29:53.594Z</time></trkpt><trkpt lat="-36.7441911" lon="174.4123177"><ele>127.0</ele><time>2026-05-02T21:29:55.592Z</time></trkpt><trkpt lat="-36.7442523" lon="174.4123706"><ele>127.00000000000001</ele><time>2026-05-02T21:29:57.592Z</time></trkpt><trkpt lat="-36.7443426" lon="174.4124155"><ele>127.0</ele><time>2026-05-02T21:29:59.592Z</time></trkpt><trkpt lat="-36.7443969" lon="174.4124992"><ele>127.0</ele><time>2026-05-02T21:30:01.593Z</time></trkpt><trkpt lat="-36.7443973" lon="174.4126056"><ele>127.0</ele><time>2026-05-02T21:30:03.593Z</time></trkpt><trkpt lat="-36.7443585" lon="174.4126921"><ele>127.00000000000001</ele><time>2026-05-02T21:30:05.593Z</time></trkpt><trkpt lat="-36.7443125" lon="174.4127764"><ele>127.0</ele><time>2026-05-02T21:30:07.593Z</time></trkpt><trkpt lat="-36.7442845" lon="174.4129045"><ele>127.00000000000001</ele><time>2026-05-02T21:30:09.594Z</time></trkpt><trkpt lat="-36.7442574" lon="174.4130223"><ele>127.0</ele><time>2026-05-02T21:30:11.592Z</time></trkpt><trkpt lat="-36.7442334" lon="174.4131404"><ele>127.0</ele><time>2026-05-02T21:30:13.593Z</time></trkpt><trkpt lat="-36.7442492" lon="174.4132186"><ele>127.0</ele><time>2026-05-02T21:30:15.593Z</time></trkpt><trkpt lat="-36.7442983" lon="174.4133045"><ele>127.00000000000001</ele><time>2026-05-02T21:30:18.592Z</time></trkpt><trkpt lat="-36.7443677" lon="174.4133502"><ele>127.0</ele><time>2026-05-02T21:30:21.594Z</time></trkpt><trkpt lat="-36.7444325" lon="174.4133535"><ele>127.00000000000001</ele><time>2026-05-02T21:30:23.592Z</time></trkpt><trkpt lat="-36.7445164" lon="174.4133593"><ele>127.0</ele><time>2026-05-02T21:30:25.592Z</time></trkpt><trkpt lat="-36.7445759" lon="174.41339"><ele>127.0</ele><time>2026-05-02T21:30:27.594Z</time></trkpt><trkpt lat="-36.7446512" lon="174.4133312"><ele>127.0</ele><time>2026-05-02T21:30:30.592Z</time></trkpt><trkpt lat="-36.7447293" lon="174.4132534"><ele>127.00000000000001</ele><time>2026-05-02T21:30:33.593Z</time></trkpt><trkpt lat="-36.7447843" lon="174.413178"><ele>127.0</ele><time>2026-05-02T21:30:35.593Z</time></trkpt><trkpt lat="-36.7448502" lon="174.4131115"><ele>127.00000000000001</ele><time>2026-05-02T21:30:37.594Z</time></trkpt><trkpt lat="-36.7449255" lon="174.4130662"><ele>127.0</ele><time>2026-05-02T21:30:39.593Z</time></trkpt><trkpt lat="-36.7449811" lon="174.4130097"><ele>127.0</ele><time>2026-05-02T21:30:41.592Z</time></trkpt><trkpt lat="-36.7450399" lon="174.4129481"><ele>127.0</ele><time>2026-05-02T21:30:43.593Z</time></trkpt><trkpt lat="-36.7451101" lon="174.4129182"><ele>127.00000000000001</ele><time>2026-05-02T21:30:45.592Z</time></trkpt><trkpt lat="-36.7451893" lon="174.412898"><ele>127.0</ele><time>2026-05-02T21:30:46.592Z</time></trkpt><trkpt lat="-36.7452715" lon="174.4128762"><ele>126.8</ele><time>2026-05-02T21:30:48.592Z</time></trkpt><trkpt lat="-36.745402" lon="174.412848"><ele>126.6</ele><time>2026-05-02T21:30:50.592Z</time></trkpt><trkpt lat="-36.7455029" lon="174.412894"><ele>126.39999999999999</ele><time>2026-05-02T21:30:52.592Z</time></trkpt><trkpt lat="-36.7455667" lon="174.4129175"><ele>126.19999999999999</ele><time>2026-05-02T21:30:53.592Z</time></trkpt><trkpt lat="-36.7456144" lon="174.4130402"><ele>126.0</ele><time>2026-05-02T21:30:55.593Z</time></trkpt><trkpt lat="-36.745573" lon="174.413132"><ele>126.42857142857143</ele><time>2026-05-02T21:30:57.593Z</time></trkpt><trkpt lat="-36.7455821" lon="174.4132138"><ele>126.85714285714286</ele><time>2026-05-02T21:30:59.593Z</time></trkpt><trkpt lat="-36.745647" lon="174.4132517"><ele>127.28571428571428</ele><time>2026-05-02T21:31:02.593Z</time></trkpt><trkpt lat="-36.7457147" lon="174.4132427"><ele>127.71428571428571</ele><time>2026-05-02T21:31:04.594Z</time></trkpt><trkpt lat="-36.745796" lon="174.4132241"><ele>128.14285714285714</ele><time>2026-05-02T21:31:06.593Z</time></trkpt><trkpt lat="-36.7458792" lon="174.4132456"><ele>128.57142857142856</ele><time>2026-05-02T21:31:08.593Z</time></trkpt><trkpt lat="-36.7459348" lon="174.4132965"><ele>129.0</ele><time>2026-05-02T21:31:10.593Z</time></trkpt><trkpt lat="-36.7459649" lon="174.4133721"><ele>129.0</ele><time>2026-05-02T21:31:12.592Z</time></trkpt><trkpt lat="-36.7460331" lon="174.4134112"><ele>129.0</ele><time>2026-05-02T21:31:15.593Z</time></trkpt><trkpt lat="-36.7460987" lon="174.4133882"><ele>129.0</ele><time>2026-05-02T21:31:18.594Z</time></trkpt><trkpt lat="-36.7461556" lon="174.413301"><ele>129.0</ele><time>2026-05-02T21:31:19.592Z</time></trkpt><trkpt lat="-36.7461832" lon="174.4132041"><ele>129.0</ele><time>2026-05-02T21:31:21.593Z</time></trkpt><trkpt lat="-36.7462534" lon="174.4130888"><ele>129.0</ele><time>2026-05-02T21:31:23.592Z</time></trkpt><trkpt lat="-36.7462789" lon="174.4129849"><ele>129.0</ele><time>2026-05-02T21:31:25.593Z</time></trkpt><trkpt lat="-36.7463008" lon="174.4128789"><ele>129.0</ele><time>2026-05-02T21:31:27.593Z</time></trkpt><trkpt lat="-36.7463439" lon="174.4128183"><ele>129.0</ele><time>2026-05-02T21:31:29.594Z</time></trkpt><trkpt lat="-36.7464323" lon="174.4128379"><ele>129.0</ele><time>2026-05-02T21:31:31.592Z</time></trkpt><trkpt lat="-36.7464777" lon="174.4128974"><ele>129.0</ele><time>2026-05-02T21:31:33.592Z</time></trkpt><trkpt lat="-36.7465153" lon="174.4130196"><ele>129.0</ele><time>2026-05-02T21:31:35.591Z</time></trkpt><trkpt lat="-36.7465331" lon="174.4131008"><ele>129.5</ele><time>2026-05-02T21:31:37.593Z</time></trkpt><trkpt lat="-36.7465453" lon="174.413198"><ele>130.0</ele><time>2026-05-02T21:31:39.593Z</time></trkpt><trkpt lat="-36.7465772" lon="174.4132838"><ele>130.5</ele><time>2026-05-02T21:31:41.592Z</time></trkpt><trkpt lat="-36.7465687" lon="174.4134037"><ele>131.0</ele><time>2026-05-02T21:31:44.592Z</time></trkpt><trkpt lat="-36.7465594" lon="174.4134963"><ele>131.5</ele><time>2026-05-02T21:31:47.592Z</time></trkpt><trkpt lat="-36.7465574" lon="174.4135905"><ele>132.0</ele><time>2026-05-02T21:31:50.591Z</time></trkpt><trkpt lat="-36.7466349" lon="174.4135887"><ele>132.0</ele><time>2026-05-02T21:31:54.593Z</time></trkpt><trkpt lat="-36.7466666" lon="174.4135189"><ele>132.0</ele><time>2026-05-02T21:31:57.592Z</time></trkpt><trkpt lat="-36.7467013" lon="174.413452"><ele>132.0</ele><time>2026-05-02T21:31:59.593Z</time></trkpt><trkpt lat="-36.7467507" lon="174.4133665"><ele>132.0</ele><time>2026-05-02T21:32:02.593Z</time></trkpt><trkpt lat="-36.7468103" lon="174.413278"><ele>132.0</ele><time>2026-05-02T21:32:05.593Z</time></trkpt><trkpt lat="-36.746863" lon="174.4132215"><ele>132.0</ele><time>2026-05-02T21:32:08.594Z</time></trkpt><trkpt lat="-36.7469186" lon="174.4132764"><ele>132.0</ele><time>2026-05-02T21:32:11.594Z</time></trkpt><trkpt lat="-36.7469252" lon="174.4133657"><ele>134.33333333333334</ele><time>2026-05-02T21:32:14.594Z</time></trkpt><trkpt lat="-36.7469347" lon="174.4134617"><ele>136.66666666666666</ele><time>2026-05-02T21:32:17.592Z</time></trkpt><trkpt lat="-36.7469676" lon="174.413566"><ele>139.0</ele><time>2026-05-02T21:32:20.592Z</time></trkpt><trkpt lat="-36.7470168" lon="174.413616"><ele>141.33333333333331</ele><time>2026-05-02T21:32:24.592Z</time></trkpt><trkpt lat="-36.7470454" lon="174.4135225"><ele>143.66666666666666</ele><time>2026-05-02T21:32:28.591Z</time></trkpt><trkpt lat="-36.7470117" lon="174.413413"><ele>146.0</ele><time>2026-05-02T21:32:31.593Z</time></trkpt><trkpt lat="-36.7469776" lon="174.4132685"><ele>146.0</ele><time>2026-05-02T21:32:33.593Z</time></trkpt><trkpt lat="-36.7469424" lon="174.4131851"><ele>146.0</ele><time>2026-05-02T21:32:34.593Z</time></trkpt><trkpt lat="-36.7469167" lon="174.4130934"><ele>146.0</ele><time>2026-05-02T21:32:35.592Z</time></trkpt><trkpt lat="-36.7468786" lon="174.4130062"><ele>146.0</ele><time>2026-05-02T21:32:36.592Z</time></trkpt><trkpt lat="-36.7468503" lon="174.412923"><ele>146.0</ele><time>2026-05-02T21:32:37.593Z</time></trkpt><trkpt lat="-36.7468097" lon="174.4128268"><ele>146.0</ele><time>2026-05-02T21:32:38.592Z</time></trkpt><trkpt lat="-36.7467793" lon="174.412745"><ele>143.16666666666666</ele><time>2026-05-02T21:32:39.593Z</time></trkpt><trkpt lat="-36.7467439" lon="174.4126468"><ele>140.33333333333331</ele><time>2026-05-02T21:32:40.593Z</time></trkpt><trkpt lat="-36.7466963" lon="174.4125792"><ele>137.5</ele><time>2026-05-02T21:32:41.592Z</time></trkpt><trkpt lat="-36.7466428" lon="174.4125242"><ele>134.66666666666666</ele><time>2026-05-02T21:32:42.593Z</time></trkpt><trkpt lat="-36.7465917" lon="174.4124732"><ele>131.83333333333334</ele><time>2026-05-02T21:32:43.593Z</time></trkpt><trkpt lat="-36.7464994" lon="174.4123971"><ele>129.0</ele><time>2026-05-02T21:32:45.593Z</time></trkpt><trkpt lat="-36.7463728" lon="174.4123642"><ele>129.0</ele><time>2026-05-02T21:32:47.592Z</time></trkpt><trkpt lat="-36.7463133" lon="174.4123357"><ele>129.0</ele><time>2026-05-02T21:32:48.593Z</time></trkpt><trkpt lat="-36.7461922" lon="174.4122615"><ele>129.0</ele><time>2026-05-02T21:32:50.593Z</time></trkpt><trkpt lat="-36.7461283" lon="174.4121953"><ele>129.0</ele><time>2026-05-02T21:32:52.593Z</time></trkpt><trkpt lat="-36.7460588" lon="174.4121221"><ele>129.0</ele><time>2026-05-02T21:32:54.593Z</time></trkpt><trkpt lat="-36.746021" lon="174.4120359"><ele>128.66666666666666</ele><time>2026-05-02T21:32:56.594Z</time></trkpt><trkpt lat="-36.7459548" lon="174.4120281"><ele>128.33333333333334</ele><time>2026-05-02T21:32:58.593Z</time></trkpt><trkpt lat="-36.745883" lon="174.4120345"><ele>128.0</ele><time>2026-05-02T21:33:00.594Z</time></trkpt><trkpt lat="-36.7458043" lon="174.4120849"><ele>127.66666666666667</ele><time>2026-05-02T21:33:03.594Z</time></trkpt><trkpt lat="-36.7457447" lon="174.4120406"><ele>127.33333333333334</ele><time>2026-05-02T21:33:07.593Z</time></trkpt><trkpt lat="-36.7457521" lon="174.4119214"><ele>127.0</ele><time>2026-05-02T21:33:10.594Z</time></trkpt><trkpt lat="-36.7457005" lon="174.4118617"><ele>127.00000000000001</ele><time>2026-05-02T21:33:13.593Z</time></trkpt><trkpt lat="-36.7456271" lon="174.4119173"><ele>127.0</ele><time>2026-05-02T21:33:16.593Z</time></trkpt><trkpt lat="-36.7455933" lon="174.412002"><ele>127.0</ele><time>2026-05-02T21:33:18.593Z</time></trkpt><trkpt lat="-36.7455518" lon="174.412105"><ele>127.0</ele><time>2026-05-02T21:33:19.592Z</time></trkpt><trkpt lat="-36.745509" lon="174.4121714"><ele>127.00000000000001</ele><time>2026-05-02T21:33:20.593Z</time></trkpt><trkpt lat="-36.7454571" lon="174.4122569"><ele>127.0</ele><time>2026-05-02T21:33:21.592Z</time></trkpt><trkpt lat="-36.7453565" lon="174.4122308"><ele>126.83333333333334</ele><time>2026-05-02T21:33:23.592Z</time></trkpt><trkpt lat="-36.7452721" lon="174.412182"><ele>126.66666666666667</ele><time>2026-05-02T21:33:24.592Z</time></trkpt><trkpt lat="-36.7451981" lon="174.4121501"><ele>126.5</ele><time>2026-05-02T21:33:25.594Z</time></trkpt><trkpt lat="-36.7451234" lon="174.4121438"><ele>126.33333333333334</ele><time>2026-05-02T21:33:26.592Z</time></trkpt><trkpt lat="-36.7450465" lon="174.4121425"><ele>126.16666666666667</ele><time>2026-05-02T21:33:27.594Z</time></trkpt><trkpt lat="-36.7449678" lon="174.4121349"><ele>126.0</ele><time>2026-05-02T21:33:28.593Z</time></trkpt><trkpt lat="-36.7449021" lon="174.4121044"><ele>125.6</ele><time>2026-05-02T21:33:29.593Z</time></trkpt><trkpt lat="-36.7448378" lon="174.4120663"><ele>125.19999999999999</ele><time>2026-05-02T21:33:30.592Z</time></trkpt><trkpt lat="-36.744748" lon="174.4119683"><ele>124.80000000000001</ele><time>2026-05-02T21:33:32.593Z</time></trkpt><trkpt lat="-36.7447501" lon="174.4118484"><ele>124.4</ele><time>2026-05-02T21:33:34.592Z</time></trkpt><trkpt lat="-36.7447792" lon="174.4117366"><ele>124.0</ele><time>2026-05-02T21:33:36.592Z</time></trkpt><trkpt lat="-36.744849" lon="174.4116949"><ele>124.00000000000001</ele><time>2026-05-02T21:33:37.592Z</time></trkpt><trkpt lat="-36.7449169" lon="174.4116274"><ele>124.0</ele><time>2026-05-02T21:33:39.594Z</time></trkpt><trkpt lat="-36.7449617" lon="174.4115379"><ele>124.0</ele><time>2026-05-02T21:33:41.594Z</time></trkpt><trkpt lat="-36.744972" lon="174.4114453"><ele>124.0</ele><time>2026-05-02T21:33:43.593Z</time></trkpt><trkpt lat="-36.7449468" lon="174.4113522"><ele>124.00000000000001</ele><time>2026-05-02T21:33:45.593Z</time></trkpt><trkpt lat="-36.7449489" lon="174.4112628"><ele>124.0</ele><time>2026-05-02T21:33:46.593Z</time></trkpt><trkpt lat="-36.7449354" lon="174.4111381"><ele>123.16666666666667</ele><time>2026-05-02T21:33:48.594Z</time></trkpt><trkpt lat="-36.7448868" lon="174.4110399"><ele>122.33333333333334</ele><time>2026-05-02T21:33:50.593Z</time></trkpt><trkpt lat="-36.7448204" lon="174.4110004"><ele>121.5</ele><time>2026-05-02T21:33:52.593Z</time></trkpt><trkpt lat="-36.7447379" lon="174.4110156"><ele>120.66666666666666</ele><time>2026-05-02T21:33:54.593Z</time></trkpt><trkpt lat="-36.7446534" lon="174.4110293"><ele>119.83333333333333</ele><time>2026-05-02T21:33:56.593Z</time></trkpt><trkpt lat="-36.7445867" lon="174.4110557"><ele>119.0</ele><time>2026-05-02T21:33:58.592Z</time></trkpt><trkpt lat="-36.7445354" lon="174.4111161"><ele>119.0</ele><time>2026-05-02T21:34:00.593Z</time></trkpt><trkpt lat="-36.7445219" lon="174.4111993"><ele>119.0</ele><time>2026-05-02T21:34:03.593Z</time></trkpt><trkpt lat="-36.7445897" lon="174.4112204"><ele>119.0</ele><time>2026-05-02T21:34:07.593Z</time></trkpt><trkpt lat="-36.7445712" lon="174.4113254"><ele>119.0</ele><time>2026-05-02T21:34:10.594Z</time></trkpt><trkpt lat="-36.7445257" lon="174.4113871"><ele>119.0</ele><time>2026-05-02T21:34:12.593Z</time></trkpt><trkpt lat="-36.7444854" lon="174.4114636"><ele>119.0</ele><time>2026-05-02T21:34:14.592Z</time></trkpt><trkpt lat="-36.744437" lon="174.4115278"><ele>119.0</ele><time>2026-05-02T21:34:16.594Z</time></trkpt><trkpt lat="-36.7443889" lon="174.4115987"><ele>120.16666666666666</ele><time>2026-05-02T21:34:18.594Z</time></trkpt><trkpt lat="-36.7443425" lon="174.4116736"><ele>121.33333333333333</ele><time>2026-05-02T21:34:20.592Z</time></trkpt><trkpt lat="-36.7442689" lon="174.4117334"><ele>122.5</ele><time>2026-05-02T21:34:22.592Z</time></trkpt><trkpt lat="-36.7442194" lon="174.411807"><ele>123.66666666666666</ele><time>2026-05-02T21:34:24.594Z</time></trkpt><trkpt lat="-36.7441705" lon="174.4118761"><ele>124.83333333333333</ele><time>2026-05-02T21:34:26.593Z</time></trkpt><trkpt lat="-36.744104" lon="174.4119233"><ele>126.0</ele><time>2026-05-02T21:34:28.593Z</time></trkpt><trkpt lat="-36.7440362" lon="174.4119414"><ele>126.0</ele><time>2026-05-02T21:34:30.594Z</time></trkpt><trkpt lat="-36.743962" lon="174.4119607"><ele>126.0</ele><time>2026-05-02T21:34:32.593Z</time></trkpt><trkpt lat="-36.7438851" lon="174.4119927"><ele>126.0</ele><time>2026-05-02T21:34:34.593Z</time></trkpt><trkpt lat="-36.7438237" lon="174.4120213"><ele>126.0</ele><time>2026-05-02T21:34:36.593Z</time></trkpt><trkpt lat="-36.7437711" lon="174.4120905"><ele>126.0</ele><time>2026-05-02T21:34:38.594Z</time></trkpt><trkpt lat="-36.7437546" lon="174.4121837"><ele>126.0</ele><time>2026-05-02T21:34:40.592Z</time></trkpt><trkpt lat="-36.7437576" lon="174.4122732"><ele>126.0</ele><time>2026-05-02T21:34:42.592Z</time></trkpt><trkpt lat="-36.7436617" lon="174.4123616"><ele>126.19999999999999</ele><time>2026-05-02T21:34:45.593Z</time></trkpt><trkpt lat="-36.7435483" lon="174.4124405"><ele>126.39999999999999</ele><time>2026-05-02T21:34:47.592Z</time></trkpt><trkpt lat="-36.7434669" lon="174.4124814"><ele>126.6</ele><time>2026-05-02T21:34:48.593Z</time></trkpt><trkpt lat="-36.7434219" lon="174.4125367"><ele>126.8</ele><time>2026-05-02T21:34:49.593Z</time></trkpt><trkpt lat="-36.7433604" lon="174.4126397"><ele>127.0</ele><time>2026-05-02T21:34:51.593Z</time></trkpt><trkpt lat="-36.7432912" lon="174.4127424"><ele>126.66666666666667</ele><time>2026-05-02T21:34:53.593Z</time></trkpt><trkpt lat="-36.7432405" lon="174.4128281"><ele>126.33333333333334</ele><time>2026-05-02T21:34:55.594Z</time></trkpt><trkpt lat="-36.7431706" lon="174.4129274"><ele>126.0</ele><time>2026-05-02T21:34:57.593Z</time></trkpt><trkpt lat="-36.7431255" lon="174.4129854"><ele>125.66666666666666</ele><time>2026-05-02T21:34:58.593Z</time></trkpt><trkpt lat="-36.7430615" lon="174.4130718"><ele>125.33333333333333</ele><time>2026-05-02T21:35:00.593Z</time></trkpt><trkpt lat="-36.7430243" lon="174.4131685"><ele>125.0</ele><time>2026-05-02T21:35:02.592Z</time></trkpt><trkpt lat="-36.7429915" lon="174.4132661"><ele>125.8</ele><time>2026-05-02T21:35:04.593Z</time></trkpt><trkpt lat="-36.7429303" lon="174.4133598"><ele>126.6</ele><time>2026-05-02T21:35:06.593Z</time></trkpt><trkpt lat="-36.7428517" lon="174.4134403"><ele>127.4</ele><time>2026-05-02T21:35:08.593Z</time></trkpt><trkpt lat="-36.7427984" lon="174.4135333"><ele>128.2</ele><time>2026-05-02T21:35:10.593Z</time></trkpt><trkpt lat="-36.7427532" lon="174.4136033"><ele>129.0</ele><time>2026-05-02T21:35:11.593Z</time></trkpt><trkpt lat="-36.7426953" lon="174.4136895"><ele>129.0</ele><time>2026-05-02T21:35:13.593Z</time></trkpt><trkpt lat="-36.7426141" lon="174.4138097"><ele>129.0</ele><time>2026-05-02T21:35:15.592Z</time></trkpt><trkpt lat="-36.7425628" lon="174.4138765"><ele>129.0</ele><time>2026-05-02T21:35:17.593Z</time></trkpt><trkpt lat="-36.7425309" lon="174.4139755"><ele>129.0</ele><time>2026-05-02T21:35:19.593Z</time></trkpt><trkpt lat="-36.742471" lon="174.4140292"><ele>129.0</ele><time>2026-05-02T21:35:21.594Z</time></trkpt><trkpt lat="-36.7424061" lon="174.4140176"><ele>129.0</ele><time>2026-05-02T21:35:24.592Z</time></trkpt><trkpt lat="-36.7423756" lon="174.413944"><ele>130.16666666666666</ele><time>2026-05-02T21:35:26.592Z</time></trkpt><trkpt lat="-36.7423196" lon="174.4140218"><ele>131.33333333333334</ele><time>2026-05-02T21:35:32.593Z</time></trkpt><trkpt lat="-36.7422973" lon="174.414106"><ele>132.5</ele><time>2026-05-02T21:35:34.592Z</time></trkpt><trkpt lat="-36.7422952" lon="174.4141997"><ele>133.66666666666669</ele><time>2026-05-02T21:35:36.594Z</time></trkpt><trkpt lat="-36.7423108" lon="174.4142886"><ele>134.83333333333334</ele><time>2026-05-02T21:35:38.592Z</time></trkpt><trkpt lat="-36.742238" lon="174.4142936"><ele>136.0</ele><time>2026-05-02T21:36:06.594Z</time></trkpt><trkpt lat="-36.7421753" lon="174.4142342"><ele>136.0</ele><time>2026-05-02T21:36:09.593Z</time></trkpt><trkpt lat="-36.7420989" lon="174.4141894"><ele>136.0</ele><time>2026-05-02T21:36:12.592Z</time></trkpt><trkpt lat="-36.7420242" lon="174.4141355"><ele>136.0</ele><time>2026-05-02T21:36:15.591Z</time></trkpt><trkpt lat="-36.7419638" lon="174.4140933"><ele>136.0</ele><time>2026-05-02T21:36:17.594Z</time></trkpt><trkpt lat="-36.7418923" lon="174.4140463"><ele>136.0</ele><time>2026-05-02T21:36:19.593Z</time></trkpt><trkpt lat="-36.7418108" lon="174.4140007"><ele>136.0</ele><time>2026-05-02T21:36:21.593Z</time></trkpt><trkpt lat="-36.7417225" lon="174.4139456"><ele>135.8</ele><time>2026-05-02T21:36:23.592Z</time></trkpt><trkpt lat="-36.7416314" lon="174.4138991"><ele>135.6</ele><time>2026-05-02T21:36:25.593Z</time></trkpt><trkpt lat="-36.7415321" lon="174.4138568"><ele>135.4</ele><time>2026-05-02T21:36:27.592Z</time></trkpt><trkpt lat="-36.7414275" lon="174.4138022"><ele>135.2</ele><time>2026-05-02T21:36:29.593Z</time></trkpt><trkpt lat="-36.7413218" lon="174.4137605"><ele>135.0</ele><time>2026-05-02T21:36:31.592Z</time></trkpt><trkpt lat="-36.7412566" lon="174.413744"><ele>133.66666666666666</ele><time>2026-05-02T21:36:32.592Z</time></trkpt><trkpt lat="-36.7411439" lon="174.4136752"><ele>132.33333333333334</ele><time>2026-05-02T21:36:34.593Z</time></trkpt><trkpt lat="-36.7410821" lon="174.4136412"><ele>131.0</ele><time>2026-05-02T21:36:35.593Z</time></trkpt><trkpt lat="-36.7410185" lon="174.4136154"><ele>129.66666666666669</ele><time>2026-05-02T21:36:36.592Z</time></trkpt><trkpt lat="-36.7409561" lon="174.4135892"><ele>128.33333333333334</ele><time>2026-05-02T21:36:37.593Z</time></trkpt><trkpt lat="-36.7408947" lon="174.4135694"><ele>127.0</ele><time>2026-05-02T21:36:38.592Z</time></trkpt><trkpt lat="-36.7408276" lon="174.4135416"><ele>126.83333333333334</ele><time>2026-05-02T21:36:39.592Z</time></trkpt><trkpt lat="-36.7407543" lon="174.4135153"><ele>126.66666666666667</ele><time>2026-05-02T21:36:40.593Z</time></trkpt><trkpt lat="-36.7406831" lon="174.4134817"><ele>126.5</ele><time>2026-05-02T21:36:41.594Z</time></trkpt><trkpt lat="-36.740615" lon="174.4134479"><ele>126.33333333333334</ele><time>2026-05-02T21:36:42.593Z</time></trkpt><trkpt lat="-36.7405474" lon="174.413413"><ele>126.16666666666667</ele><time>2026-05-02T21:36:43.592Z</time></trkpt><trkpt lat="-36.7404693" lon="174.4133827"><ele>126.0</ele><time>2026-05-02T21:36:44.592Z</time></trkpt><trkpt lat="-36.7404002" lon="174.4133494"><ele>126.0</ele><time>2026-05-02T21:36:45.591Z</time></trkpt><trkpt lat="-36.7403331" lon="174.4133054"><ele>126.0</ele><time>2026-05-02T21:36:46.592Z</time></trkpt><trkpt lat="-36.7402582" lon="174.4132707"><ele>126.0</ele><time>2026-05-02T21:36:47.593Z</time></trkpt><trkpt lat="-36.7401891" lon="174.4132334"><ele>126.0</ele><time>2026-05-02T21:36:48.594Z</time></trkpt><trkpt lat="-36.740116" lon="174.4131912"><ele>126.0</ele><time>2026-05-02T21:36:49.594Z</time></trkpt><trkpt lat="-36.740042" lon="174.4131573"><ele>126.0</ele><time>2026-05-02T21:36:50.593Z</time></trkpt><trkpt lat="-36.7399708" lon="174.4131204"><ele>126.33333333333333</ele><time>2026-05-02T21:36:51.592Z</time></trkpt><trkpt lat="-36.7398935" lon="174.4130845"><ele>126.66666666666666</ele><time>2026-05-02T21:36:52.593Z</time></trkpt><trkpt lat="-36.7398185" lon="174.4130491"><ele>127.0</ele><time>2026-05-02T21:36:53.593Z</time></trkpt><trkpt lat="-36.7397495" lon="174.4130087"><ele>127.33333333333333</ele><time>2026-05-02T21:36:54.594Z</time></trkpt><trkpt lat="-36.7396833" lon="174.4129692"><ele>127.66666666666666</ele><time>2026-05-02T21:36:55.593Z</time></trkpt><trkpt lat="-36.7396132" lon="174.4129343"><ele>128.0</ele><time>2026-05-02T21:36:56.592Z</time></trkpt><trkpt lat="-36.7395438" lon="174.412903"><ele>127.42857142857142</ele><time>2026-05-02T21:36:57.592Z</time></trkpt><trkpt lat="-36.7394775" lon="174.412868"><ele>126.85714285714285</ele><time>2026-05-02T21:36:58.593Z</time></trkpt><trkpt lat="-36.7394143" lon="174.4128305"><ele>126.28571428571428</ele><time>2026-05-02T21:36:59.592Z</time></trkpt><trkpt lat="-36.7393497" lon="174.4127922"><ele>125.71428571428572</ele><time>2026-05-02T21:37:00.593Z</time></trkpt><trkpt lat="-36.7392878" lon="174.4127572"><ele>125.14285714285715</ele><time>2026-05-02T21:37:01.593Z</time></trkpt><trkpt lat="-36.7392249" lon="174.4127177"><ele>124.57142857142858</ele><time>2026-05-02T21:37:02.594Z</time></trkpt><trkpt lat="-36.7391593" lon="174.4126825"><ele>124.0</ele><time>2026-05-02T21:37:03.594Z</time></trkpt><trkpt lat="-36.7390937" lon="174.4126523"><ele>124.00000000000001</ele><time>2026-05-02T21:37:04.594Z</time></trkpt><trkpt lat="-36.739028" lon="174.412618"><ele>124.0</ele><time>2026-05-02T21:37:05.594Z</time></trkpt><trkpt lat="-36.7389589" lon="174.4125882"><ele>124.0</ele><time>2026-05-02T21:37:06.592Z</time></trkpt><trkpt lat="-36.7388917" lon="174.4125505"><ele>124.0</ele><time>2026-05-02T21:37:07.593Z</time></trkpt><trkpt lat="-36.738759" lon="174.4124768"><ele>124.00000000000001</ele><time>2026-05-02T21:37:09.593Z</time></trkpt><trkpt lat="-36.7386857" lon="174.4124466"><ele>124.0</ele><time>2026-05-02T21:37:10.592Z</time></trkpt><trkpt lat="-36.7386212" lon="174.4124036"><ele>124.0</ele><time>2026-05-02T21:37:11.592Z</time></trkpt><trkpt lat="-36.738559" lon="174.412362"><ele>124.00000000000001</ele><time>2026-05-02T21:37:12.593Z</time></trkpt><trkpt lat="-36.7384827" lon="174.4123331"><ele>124.0</ele><time>2026-05-02T21:37:13.594Z</time></trkpt><trkpt lat="-36.7384228" lon="174.4123056"><ele>124.0</ele><time>2026-05-02T21:37:14.593Z</time></trkpt><trkpt lat="-36.7383408" lon="174.4122749"><ele>124.00000000000001</ele><time>2026-05-02T21:37:15.592Z</time></trkpt><trkpt lat="-36.7382752" lon="174.4122349"><ele>124.0</ele><time>2026-05-02T21:37:16.592Z</time></trkpt><trkpt lat="-36.7382067" lon="174.4121985"><ele>124.0</ele><time>2026-05-02T21:37:17.593Z</time></trkpt><trkpt lat="-36.7381429" lon="174.4121641"><ele>124.00000000000001</ele><time>2026-05-02T21:37:18.593Z</time></trkpt><trkpt lat="-36.7380762" lon="174.412132"><ele>124.0</ele><time>2026-05-02T21:37:19.593Z</time></trkpt><trkpt lat="-36.7380137" lon="174.4121014"><ele>124.0</ele><time>2026-05-02T21:37:20.594Z</time></trkpt><trkpt lat="-36.7379528" lon="174.4120704"><ele>124.0</ele><time>2026-05-02T21:37:21.593Z</time></trkpt><trkpt lat="-36.7378514" lon="174.4120132"><ele>124.00000000000001</ele><time>2026-05-02T21:37:23.594Z</time></trkpt><trkpt lat="-36.7377603" lon="174.4119753"><ele>124.0</ele><time>2026-05-02T21:37:25.593Z</time></trkpt><trkpt lat="-36.7376919" lon="174.4119635"><ele>124.75</ele><time>2026-05-02T21:37:27.592Z</time></trkpt><trkpt lat="-36.7375972" lon="174.4119021"><ele>125.5</ele><time>2026-05-02T21:37:29.592Z</time></trkpt><trkpt lat="-36.737495" lon="174.4118481"><ele>126.25</ele><time>2026-05-02T21:37:31.593Z</time></trkpt><trkpt lat="-36.7373866" lon="174.4118007"><ele>127.0</ele><time>2026-05-02T21:37:33.593Z</time></trkpt><trkpt lat="-36.7372742" lon="174.4117548"><ele>127.0</ele><time>2026-05-02T21:37:35.593Z</time></trkpt><trkpt lat="-36.7371669" lon="174.4117071"><ele>127.0</ele><time>2026-05-02T21:37:37.592Z</time></trkpt><trkpt lat="-36.7370563" lon="174.4116558"><ele>127.0</ele><time>2026-05-02T21:37:39.593Z</time></trkpt><trkpt lat="-36.7369511" lon="174.4116075"><ele>127.0</ele><time>2026-05-02T21:37:41.594Z</time></trkpt><trkpt lat="-36.7368424" lon="174.4115525"><ele>127.39999999999999</ele><time>2026-05-02T21:37:43.592Z</time></trkpt><trkpt lat="-36.7367272" lon="174.4115119"><ele>127.79999999999998</ele><time>2026-05-02T21:37:45.593Z</time></trkpt><trkpt lat="-36.7366222" lon="174.4114581"><ele>128.2</ele><time>2026-05-02T21:37:47.593Z</time></trkpt><trkpt lat="-36.7365372" lon="174.4114019"><ele>128.6</ele><time>2026-05-02T21:37:49.593Z</time></trkpt><trkpt lat="-36.7364349" lon="174.4113569"><ele>129.0</ele><time>2026-05-02T21:37:51.593Z</time></trkpt><trkpt lat="-36.7363477" lon="174.4113072"><ele>129.66666666666666</ele><time>2026-05-02T21:37:53.593Z</time></trkpt><trkpt lat="-36.7362694" lon="174.4112746"><ele>130.33333333333334</ele><time>2026-05-02T21:37:55.593Z</time></trkpt><trkpt lat="-36.7361965" lon="174.4112484"><ele>131.0</ele><time>2026-05-02T21:37:57.592Z</time></trkpt><trkpt lat="-36.7361117" lon="174.4112328"><ele>131.66666666666669</ele><time>2026-05-02T21:38:00.593Z</time></trkpt><trkpt lat="-36.7361759" lon="174.4112084"><ele>132.33333333333334</ele><time>2026-05-02T21:38:06.593Z</time></trkpt><trkpt lat="-36.7362702" lon="174.4111921"><ele>133.0</ele><time>2026-05-02T21:38:08.593Z</time></trkpt><trkpt lat="-36.7363667" lon="174.4111809"><ele>133.0</ele><time>2026-05-02T21:38:10.593Z</time></trkpt><trkpt lat="-36.7364352" lon="174.4111604"><ele>133.0</ele><time>2026-05-02T21:38:12.594Z</time></trkpt><trkpt lat="-36.736497" lon="174.4111227"><ele>133.0</ele><time>2026-05-02T21:38:14.593Z</time></trkpt><trkpt lat="-36.7364996" lon="174.4110162"><ele>133.0</ele><time>2026-05-02T21:38:17.594Z</time></trkpt><trkpt lat="-36.7364609" lon="174.4109474"><ele>133.0</ele><time>2026-05-02T21:38:19.593Z</time></trkpt><trkpt lat="-36.7363936" lon="174.4109099"><ele>133.0</ele><time>2026-05-02T21:38:21.593Z</time></trkpt><trkpt lat="-36.7363388" lon="174.4108626"><ele>133.0</ele><time>2026-05-02T21:38:23.592Z</time></trkpt><trkpt lat="-36.7363505" lon="174.4107843"><ele>133.0</ele><time>2026-05-02T21:38:25.593Z</time></trkpt><trkpt lat="-36.7363787" lon="174.4106875"><ele>133.0</ele><time>2026-05-02T21:38:27.592Z</time></trkpt><trkpt lat="-36.7363981" lon="174.4105797"><ele>133.0</ele><time>2026-05-02T21:38:29.594Z</time></trkpt><trkpt lat="-36.7364167" lon="174.4104693"><ele>133.0</ele><time>2026-05-02T21:38:31.594Z</time></trkpt><trkpt lat="-36.7364531" lon="174.4103318"><ele>133.0</ele><time>2026-05-02T21:38:33.593Z</time></trkpt><trkpt lat="-36.7364874" lon="174.4102159"><ele>134.0</ele><time>2026-05-02T21:38:35.593Z</time></trkpt><trkpt lat="-36.7365082" lon="174.4100746"><ele>135.0</ele><time>2026-05-02T21:38:37.592Z</time></trkpt><trkpt lat="-36.7365273" lon="174.4099575"><ele>136.0</ele><time>2026-05-02T21:38:39.592Z</time></trkpt><trkpt lat="-36.7365464" lon="174.4098795"><ele>137.0</ele><time>2026-05-02T21:38:40.594Z</time></trkpt><trkpt lat="-36.7365848" lon="174.4097646"><ele>138.0</ele><time>2026-05-02T21:38:42.593Z</time></trkpt><trkpt lat="-36.7366078" lon="174.4096059"><ele>138.0</ele><time>2026-05-02T21:38:44.592Z</time></trkpt><trkpt lat="-36.7366367" lon="174.4095332"><ele>138.0</ele><time>2026-05-02T21:38:45.593Z</time></trkpt><trkpt lat="-36.7366696" lon="174.4094009"><ele>138.0</ele><time>2026-05-02T21:38:47.592Z</time></trkpt><trkpt lat="-36.7367028" lon="174.4093066"><ele>138.0</ele><time>2026-05-02T21:38:48.594Z</time></trkpt><trkpt lat="-36.7367314" lon="174.4092283"><ele>138.0</ele><time>2026-05-02T21:38:49.594Z</time></trkpt><trkpt lat="-36.7367627" lon="174.4091346"><ele>138.0</ele><time>2026-05-02T21:38:50.593Z</time></trkpt><trkpt lat="-36.7367812" lon="174.4090585"><ele>138.0</ele><time>2026-05-02T21:38:51.593Z</time></trkpt><trkpt lat="-36.7368003" lon="174.4089645"><ele>138.0</ele><time>2026-05-02T21:38:52.594Z</time></trkpt><trkpt lat="-36.7368258" lon="174.4088745"><ele>138.0</ele><time>2026-05-02T21:38:53.593Z</time></trkpt><trkpt lat="-36.7368483" lon="174.4087873"><ele>138.0</ele><time>2026-05-02T21:38:54.593Z</time></trkpt><trkpt lat="-36.7368797" lon="174.4086957"><ele>138.0</ele><time>2026-05-02T21:38:55.592Z</time></trkpt><trkpt lat="-36.7368973" lon="174.4086123"><ele>138.0</ele><time>2026-05-02T21:38:56.593Z</time></trkpt><trkpt lat="-36.736924" lon="174.4085386"><ele>138.0</ele><time>2026-05-02T21:38:57.592Z</time></trkpt><trkpt lat="-36.7369474" lon="174.4084608"><ele>137.66666666666666</ele><time>2026-05-02T21:38:58.593Z</time></trkpt><trkpt lat="-36.7369519" lon="174.4083727"><ele>137.33333333333334</ele><time>2026-05-02T21:38:59.594Z</time></trkpt><trkpt lat="-36.7369867" lon="174.4082974"><ele>137.0</ele><time>2026-05-02T21:39:00.592Z</time></trkpt><trkpt lat="-36.7370235" lon="174.4081898"><ele>136.66666666666669</ele><time>2026-05-02T21:39:02.592Z</time></trkpt><trkpt lat="-36.7370495" lon="174.4081125"><ele>136.33333333333334</ele><time>2026-05-02T21:39:03.594Z</time></trkpt><trkpt lat="-36.7370873" lon="174.4079978"><ele>136.0</ele><time>2026-05-02T21:39:05.592Z</time></trkpt><trkpt lat="-36.7371208" lon="174.4079269"><ele>137.6</ele><time>2026-05-02T21:39:06.593Z</time></trkpt><trkpt lat="-36.7371306" lon="174.4078301"><ele>139.2</ele><time>2026-05-02T21:39:08.593Z</time></trkpt><trkpt lat="-36.7371616" lon="174.4077357"><ele>140.8</ele><time>2026-05-02T21:39:10.594Z</time></trkpt><trkpt lat="-36.7372039" lon="174.4076125"><ele>142.4</ele><time>2026-05-02T21:39:12.593Z</time></trkpt><trkpt lat="-36.7372357" lon="174.4075012"><ele>144.0</ele><time>2026-05-02T21:39:14.593Z</time></trkpt><trkpt lat="-36.7372593" lon="174.4073941"><ele>144.0</ele><time>2026-05-02T21:39:16.593Z</time></trkpt><trkpt lat="-36.7372874" lon="174.4072844"><ele>144.0</ele><time>2026-05-02T21:39:18.592Z</time></trkpt><trkpt lat="-36.7373194" lon="174.4071694"><ele>144.0</ele><time>2026-05-02T21:39:20.592Z</time></trkpt><trkpt lat="-36.7373518" lon="174.4070716"><ele>144.0</ele><time>2026-05-02T21:39:22.593Z</time></trkpt><trkpt lat="-36.737371" lon="174.4069698"><ele>144.0</ele><time>2026-05-02T21:39:24.593Z</time></trkpt><trkpt lat="-36.7374399" lon="174.4069007"><ele>144.0</ele><time>2026-05-02T21:39:27.593Z</time></trkpt><trkpt lat="-36.7374946" lon="174.4068515"><ele>143.6</ele><time>2026-05-02T21:39:30.594Z</time></trkpt><trkpt lat="-36.7374498" lon="174.4067704"><ele>143.2</ele><time>2026-05-02T21:40:37.593Z</time></trkpt><trkpt lat="-36.7373873" lon="174.4067072"><ele>142.79999999999998</ele><time>2026-05-02T21:40:39.593Z</time></trkpt><trkpt lat="-36.7373096" lon="174.4066505"><ele>142.4</ele><time>2026-05-02T21:40:41.593Z</time></trkpt><trkpt lat="-36.7372036" lon="174.4066281"><ele>142.0</ele><time>2026-05-02T21:40:43.592Z</time></trkpt><trkpt lat="-36.7370842" lon="174.4066089"><ele>142.0</ele><time>2026-05-02T21:40:45.592Z</time></trkpt><trkpt lat="-36.7370949" lon="174.4065233"><ele>142.0</ele><time>2026-05-02T21:40:46.593Z</time></trkpt><trkpt lat="-36.7371137" lon="174.4063971"><ele>142.0</ele><time>2026-05-02T21:40:48.594Z</time></trkpt><trkpt lat="-36.7370028" lon="174.4063602"><ele>142.0</ele><time>2026-05-02T21:40:50.592Z</time></trkpt><trkpt lat="-36.7369408" lon="174.4063259"><ele>142.0</ele><time>2026-05-02T21:40:51.592Z</time></trkpt><trkpt lat="-36.7368354" lon="174.4062821"><ele>139.4</ele><time>2026-05-02T21:40:53.593Z</time></trkpt><trkpt lat="-36.7367242" lon="174.4062393"><ele>136.79999999999998</ele><time>2026-05-02T21:40:55.593Z</time></trkpt><trkpt lat="-36.7366632" lon="174.406202"><ele>134.2</ele><time>2026-05-02T21:40:56.593Z</time></trkpt><trkpt lat="-36.7365449" lon="174.4061473"><ele>131.6</ele><time>2026-05-02T21:40:58.594Z</time></trkpt><trkpt lat="-36.7364394" lon="174.4061025"><ele>129.0</ele><time>2026-05-02T21:41:00.592Z</time></trkpt><trkpt lat="-36.7363341" lon="174.4060947"><ele>129.0</ele><time>2026-05-02T21:41:02.592Z</time></trkpt><trkpt lat="-36.7362598" lon="174.4061096"><ele>129.0</ele><time>2026-05-02T21:41:03.593Z</time></trkpt><trkpt lat="-36.73619" lon="174.4061015"><ele>129.0</ele><time>2026-05-02T21:41:04.594Z</time></trkpt><trkpt lat="-36.736122" lon="174.4060788"><ele>129.0</ele><time>2026-05-02T21:41:05.593Z</time></trkpt><trkpt lat="-36.7360554" lon="174.4060757"><ele>129.0</ele><time>2026-05-02T21:41:06.593Z</time></trkpt><trkpt lat="-36.7359563" lon="174.4060735"><ele>129.0</ele><time>2026-05-02T21:41:07.594Z</time></trkpt><trkpt lat="-36.7358712" lon="174.4061131"><ele>127.5</ele><time>2026-05-02T21:41:08.592Z</time></trkpt><trkpt lat="-36.7357965" lon="174.4061729"><ele>126.0</ele><time>2026-05-02T21:41:09.594Z</time></trkpt><trkpt lat="-36.7357111" lon="174.4061929"><ele>124.5</ele><time>2026-05-02T21:41:10.594Z</time></trkpt><trkpt lat="-36.7356319" lon="174.4061989"><ele>123.0</ele><time>2026-05-02T21:41:11.592Z</time></trkpt><trkpt lat="-36.7355385" lon="174.4061992"><ele>121.5</ele><time>2026-05-02T21:41:12.593Z</time></trkpt><trkpt lat="-36.7354507" lon="174.4062048"><ele>120.0</ele><time>2026-05-02T21:41:13.593Z</time></trkpt><trkpt lat="-36.7353701" lon="174.4062126"><ele>120.0</ele><time>2026-05-02T21:41:14.593Z</time></trkpt><trkpt lat="-36.7352937" lon="174.4062245"><ele>120.0</ele><time>2026-05-02T21:41:15.593Z</time></trkpt><trkpt lat="-36.7352212" lon="174.4062253"><ele>120.0</ele><time>2026-05-02T21:41:16.593Z</time></trkpt><trkpt lat="-36.7351569" lon="174.4062137"><ele>120.0</ele><time>2026-05-02T21:41:17.593Z</time></trkpt><trkpt lat="-36.7350925" lon="174.4062086"><ele>120.0</ele><time>2026-05-02T21:41:18.593Z</time></trkpt><trkpt lat="-36.7349979" lon="174.4061603"><ele>120.0</ele><time>2026-05-02T21:41:20.593Z</time></trkpt><trkpt lat="-36.7349183" lon="174.4060888"><ele>120.0</ele><time>2026-05-02T21:41:22.593Z</time></trkpt><trkpt lat="-36.7348549" lon="174.4060438"><ele>120.0</ele><time>2026-05-02T21:41:24.592Z</time></trkpt><trkpt lat="-36.7348108" lon="174.4059654"><ele>120.0</ele><time>2026-05-02T21:41:26.593Z</time></trkpt><trkpt lat="-36.7347716" lon="174.4058972"><ele>120.0</ele><time>2026-05-02T21:41:28.593Z</time></trkpt><trkpt lat="-36.7347394" lon="174.4058295"><ele>120.0</ele><time>2026-05-02T21:41:30.594Z</time></trkpt><trkpt lat="-36.7347153" lon="174.4057547"><ele>120.0</ele><time>2026-05-02T21:41:32.593Z</time></trkpt><trkpt lat="-36.7347004" lon="174.4056678"><ele>120.0</ele><time>2026-05-02T21:41:34.594Z</time></trkpt><trkpt lat="-36.734703" lon="174.4055866"><ele>120.0</ele><time>2026-05-02T21:41:36.593Z</time></trkpt><trkpt lat="-36.7347017" lon="174.4054975"><ele>120.0</ele><time>2026-05-02T21:41:39.593Z</time></trkpt><trkpt lat="-36.7346524" lon="174.4054286"><ele>120.0</ele><time>2026-05-02T21:41:42.594Z</time></trkpt><trkpt lat="-36.7346961" lon="174.4053497"><ele>120.0</ele><time>2026-05-02T21:41:48.592Z</time></trkpt><trkpt lat="-36.7346901" lon="174.4052679"><ele>120.0</ele><time>2026-05-02T21:41:51.593Z</time></trkpt><trkpt lat="-36.7346546" lon="174.4051529"><ele>120.0</ele><time>2026-05-02T21:41:55.592Z</time></trkpt><trkpt lat="-36.7346485" lon="174.4050516"><ele>120.14285714285714</ele><time>2026-05-02T21:41:57.592Z</time></trkpt><trkpt lat="-36.7346318" lon="174.4049661"><ele>120.28571428571428</ele><time>2026-05-02T21:41:59.593Z</time></trkpt><trkpt lat="-36.7346044" lon="174.4048915"><ele>120.42857142857142</ele><time>2026-05-02T21:42:01.593Z</time></trkpt><trkpt lat="-36.7346468" lon="174.4047875"><ele>120.57142857142857</ele><time>2026-05-02T21:42:03.593Z</time></trkpt><trkpt lat="-36.7346892" lon="174.4047232"><ele>120.7142857142857</ele><time>2026-05-02T21:42:04.594Z</time></trkpt><trkpt lat="-36.7347221" lon="174.4046311"><ele>120.85714285714285</ele><time>2026-05-02T21:42:06.593Z</time></trkpt><trkpt lat="-36.7347748" lon="174.4045819"><ele>121.0</ele><time>2026-05-02T21:42:07.592Z</time></trkpt><trkpt lat="-36.7348159" lon="174.4044612"><ele>122.33333333333334</ele><time>2026-05-02T21:42:09.594Z</time></trkpt><trkpt lat="-36.7348423" lon="174.4043421"><ele>123.66666666666667</ele><time>2026-05-02T21:42:11.592Z</time></trkpt><trkpt lat="-36.7348636" lon="174.4042439"><ele>125.0</ele><time>2026-05-02T21:42:14.593Z</time></trkpt><trkpt lat="-36.7348638" lon="174.404165"><ele>126.33333333333334</ele><time>2026-05-02T21:42:16.594Z</time></trkpt><trkpt lat="-36.7348496" lon="174.404076"><ele>127.66666666666667</ele><time>2026-05-02T21:42:18.593Z</time></trkpt><trkpt lat="-36.7348676" lon="174.4039804"><ele>129.0</ele><time>2026-05-02T21:42:20.592Z</time></trkpt><trkpt lat="-36.7348899" lon="174.4038721"><ele>128.8</ele><time>2026-05-02T21:42:22.592Z</time></trkpt><trkpt lat="-36.7349146" lon="174.4037792"><ele>128.60000000000002</ele><time>2026-05-02T21:42:24.594Z</time></trkpt><trkpt lat="-36.7349632" lon="174.4036934"><ele>128.4</ele><time>2026-05-02T21:42:26.593Z</time></trkpt><trkpt lat="-36.7350368" lon="174.4036359"><ele>128.20000000000002</ele><time>2026-05-02T21:42:28.593Z</time></trkpt><trkpt lat="-36.7351223" lon="174.4035651"><ele>128.0</ele><time>2026-05-02T21:42:30.593Z</time></trkpt><trkpt lat="-36.7352369" lon="174.4035375"><ele>127.99999999999999</ele><time>2026-05-02T21:42:32.592Z</time></trkpt><trkpt lat="-36.7353064" lon="174.4035059"><ele>128.0</ele><time>2026-05-02T21:42:33.592Z</time></trkpt><trkpt lat="-36.7353889" lon="174.4034448"><ele>128.0</ele><time>2026-05-02T21:42:35.592Z</time></trkpt><trkpt lat="-36.7354424" lon="174.4033856"><ele>128.0</ele><time>2026-05-02T21:42:37.593Z</time></trkpt><trkpt lat="-36.7355067" lon="174.4034041"><ele>127.99999999999999</ele><time>2026-05-02T21:42:39.594Z</time></trkpt><trkpt lat="-36.7355803" lon="174.4034361"><ele>128.0</ele><time>2026-05-02T21:42:41.594Z</time></trkpt><trkpt lat="-36.7356538" lon="174.4034665"><ele>128.0</ele><time>2026-05-02T21:42:43.593Z</time></trkpt><trkpt lat="-36.7357487" lon="174.4034621"><ele>128.0</ele><time>2026-05-02T21:42:45.594Z</time></trkpt><trkpt lat="-36.7358009" lon="174.4033565"><ele>128.0</ele><time>2026-05-02T21:42:47.594Z</time></trkpt><trkpt lat="-36.7358516" lon="174.4032163"><ele>128.0</ele><time>2026-05-02T21:42:49.593Z</time></trkpt><trkpt lat="-36.7359113" lon="174.4030809"><ele>128.0</ele><time>2026-05-02T21:42:51.591Z</time></trkpt><trkpt lat="-36.7359175" lon="174.403002"><ele>127.49999999999999</ele><time>2026-05-02T21:42:52.594Z</time></trkpt><trkpt lat="-36.7359387" lon="174.4028811"><ele>127.0</ele><time>2026-05-02T21:42:54.593Z</time></trkpt><trkpt lat="-36.7359851" lon="174.4028068"><ele>126.5</ele><time>2026-05-02T21:42:55.593Z</time></trkpt><trkpt lat="-36.735997" lon="174.4027271"><ele>126.0</ele><time>2026-05-02T21:42:56.593Z</time></trkpt><trkpt lat="-36.7360365" lon="174.4026594"><ele>125.49999999999999</ele><time>2026-05-02T21:42:57.593Z</time></trkpt><trkpt lat="-36.7360672" lon="174.4025784"><ele>125.0</ele><time>2026-05-02T21:42:58.593Z</time></trkpt><trkpt lat="-36.736102" lon="174.4024904"><ele>124.6</ele><time>2026-05-02T21:42:59.594Z</time></trkpt><trkpt lat="-36.7361311" lon="174.4023435"><ele>124.2</ele><time>2026-05-02T21:43:01.594Z</time></trkpt><trkpt lat="-36.736209" lon="174.402224"><ele>123.80000000000001</ele><time>2026-05-02T21:43:03.594Z</time></trkpt><trkpt lat="-36.7362693" lon="174.4021252"><ele>123.4</ele><time>2026-05-02T21:43:05.593Z</time></trkpt><trkpt lat="-36.736298" lon="174.4020112"><ele>123.0</ele><time>2026-05-02T21:43:07.592Z</time></trkpt><trkpt lat="-36.736302" lon="174.4018767"><ele>122.60000000000001</ele><time>2026-05-02T21:43:10.592Z</time></trkpt><trkpt lat="-36.7363047" lon="174.401758"><ele>122.20000000000002</ele><time>2026-05-02T21:43:12.593Z</time></trkpt><trkpt lat="-36.7363478" lon="174.4016613"><ele>121.8</ele><time>2026-05-02T21:43:14.593Z</time></trkpt><trkpt lat="-36.7363803" lon="174.4015368"><ele>121.4</ele><time>2026-05-02T21:43:16.592Z</time></trkpt><trkpt lat="-36.7364319" lon="174.4014418"><ele>121.0</ele><time>2026-05-02T21:43:18.593Z</time></trkpt><trkpt lat="-36.7364735" lon="174.4013654"><ele>121.50000000000001</ele><time>2026-05-02T21:43:20.592Z</time></trkpt><trkpt lat="-36.736468" lon="174.4012606"><ele>122.0</ele><time>2026-05-02T21:43:23.594Z</time></trkpt><trkpt lat="-36.7364771" lon="174.4011755"><ele>122.5</ele><time>2026-05-02T21:43:26.592Z</time></trkpt><trkpt lat="-36.7365016" lon="174.4010997"><ele>123.0</ele><time>2026-05-02T21:43:28.595Z</time></trkpt><trkpt lat="-36.7365645" lon="174.4010305"><ele>123.50000000000001</ele><time>2026-05-02T21:43:30.593Z</time></trkpt><trkpt lat="-36.736639" lon="174.4009731"><ele>124.0</ele><time>2026-05-02T21:43:32.594Z</time></trkpt><trkpt lat="-36.7367137" lon="174.4009167"><ele>124.0</ele><time>2026-05-02T21:43:34.594Z</time></trkpt><trkpt lat="-36.7367383" lon="174.4008442"><ele>124.0</ele><time>2026-05-02T21:43:35.592Z</time></trkpt><trkpt lat="-36.7368164" lon="174.4007377"><ele>124.0</ele><time>2026-05-02T21:43:37.593Z</time></trkpt><trkpt lat="-36.7368646" lon="174.4006319"><ele>124.0</ele><time>2026-05-02T21:43:39.594Z</time></trkpt><trkpt lat="-36.7368975" lon="174.4005553"><ele>124.0</ele><time>2026-05-02T21:43:41.595Z</time></trkpt><trkpt lat="-36.736979" lon="174.4004708"><ele>125.28571428571429</ele><time>2026-05-02T21:43:43.594Z</time></trkpt><trkpt lat="-36.7370582" lon="174.4004163"><ele>126.57142857142858</ele><time>2026-05-02T21:43:45.592Z</time></trkpt><trkpt lat="-36.7371209" lon="174.4003385"><ele>127.85714285714286</ele><time>2026-05-02T21:43:47.594Z</time></trkpt><trkpt lat="-36.7371598" lon="174.4002712"><ele>129.14285714285714</ele><time>2026-05-02T21:43:48.593Z</time></trkpt><trkpt lat="-36.7371967" lon="174.4002066"><ele>130.42857142857144</ele><time>2026-05-02T21:43:49.594Z</time></trkpt><trkpt lat="-36.7372307" lon="174.400134"><ele>131.71428571428572</ele><time>2026-05-02T21:43:50.594Z</time></trkpt><trkpt lat="-36.737264" lon="174.4000593"><ele>133.0</ele><time>2026-05-02T21:43:51.592Z</time></trkpt><trkpt lat="-36.7373034" lon="174.3999803"><ele>133.0</ele><time>2026-05-02T21:43:52.593Z</time></trkpt><trkpt lat="-36.7373557" lon="174.3999086"><ele>133.0</ele><time>2026-05-02T21:43:53.594Z</time></trkpt><trkpt lat="-36.7373486" lon="174.399816"><ele>133.0</ele><time>2026-05-02T21:43:54.594Z</time></trkpt><trkpt lat="-36.7373539" lon="174.3997027"><ele>133.0</ele><time>2026-05-02T21:43:56.593Z</time></trkpt><trkpt lat="-36.7372902" lon="174.3997167"><ele>133.0</ele><time>2026-05-02T21:43:59.592Z</time></trkpt><trkpt lat="-36.7372869" lon="174.3998109"><ele>133.0</ele><time>2026-05-02T21:44:02.593Z</time></trkpt><trkpt lat="-36.7372848" lon="174.3999086"><ele>133.0</ele><time>2026-05-02T21:44:04.593Z</time></trkpt><trkpt lat="-36.7372583" lon="174.3999887"><ele>133.0</ele><time>2026-05-02T21:44:06.594Z</time></trkpt><trkpt lat="-36.7371995" lon="174.4000418"><ele>133.0</ele><time>2026-05-02T21:44:08.592Z</time></trkpt><trkpt lat="-36.7371447" lon="174.4001056"><ele>133.0</ele><time>2026-05-02T21:44:10.592Z</time></trkpt><trkpt lat="-36.7370453" lon="174.4001278"><ele>133.0</ele><time>2026-05-02T21:44:12.594Z</time></trkpt><trkpt lat="-36.7369308" lon="174.4001796"><ele>133.0</ele><time>2026-05-02T21:44:14.593Z</time></trkpt><trkpt lat="-36.7368614" lon="174.4002206"><ele>131.20000000000002</ele><time>2026-05-02T21:44:15.594Z</time></trkpt><trkpt lat="-36.7368108" lon="174.4003332"><ele>129.4</ele><time>2026-05-02T21:44:17.594Z</time></trkpt><trkpt lat="-36.7367416" lon="174.4004263"><ele>127.60000000000001</ele><time>2026-05-02T21:44:19.593Z</time></trkpt><trkpt lat="-36.7366803" lon="174.4005103"><ele>125.80000000000001</ele><time>2026-05-02T21:44:21.592Z</time></trkpt><trkpt lat="-36.7366551" lon="174.4006529"><ele>124.0</ele><time>2026-05-02T21:44:23.593Z</time></trkpt><trkpt lat="-36.7365944" lon="174.4006988"><ele>124.0</ele><time>2026-05-02T21:44:25.593Z</time></trkpt><trkpt lat="-36.7364971" lon="174.4007223"><ele>124.0</ele><time>2026-05-02T21:44:27.592Z</time></trkpt><trkpt lat="-36.7363854" lon="174.4007677"><ele>124.0</ele><time>2026-05-02T21:44:29.593Z</time></trkpt><trkpt lat="-36.7363424" lon="174.4008681"><ele>124.0</ele><time>2026-05-02T21:44:31.593Z</time></trkpt><trkpt lat="-36.7363204" lon="174.4009719"><ele>124.0</ele><time>2026-05-02T21:44:33.593Z</time></trkpt><trkpt lat="-36.7363155" lon="174.4010724"><ele>124.0</ele><time>2026-05-02T21:44:35.592Z</time></trkpt><trkpt lat="-36.7363251" lon="174.4011827"><ele>124.0</ele><time>2026-05-02T21:44:37.592Z</time></trkpt><trkpt lat="-36.7363398" lon="174.4012754"><ele>124.0</ele><time>2026-05-02T21:44:38.593Z</time></trkpt><trkpt lat="-36.7362843" lon="174.4013731"><ele>124.0</ele><time>2026-05-02T21:44:40.594Z</time></trkpt><trkpt lat="-36.7361938" lon="174.4014738"><ele>124.0</ele><time>2026-05-02T21:44:42.593Z</time></trkpt><trkpt lat="-36.7361515" lon="174.401633"><ele>123.4</ele><time>2026-05-02T21:44:44.593Z</time></trkpt><trkpt lat="-36.7361463" lon="174.4017293"><ele>122.80000000000001</ele><time>2026-05-02T21:44:45.593Z</time></trkpt><trkpt lat="-36.73614" lon="174.4018962"><ele>122.19999999999999</ele><time>2026-05-02T21:44:47.594Z</time></trkpt><trkpt lat="-36.736105" lon="174.4019857"><ele>121.6</ele><time>2026-05-02T21:44:49.592Z</time></trkpt><trkpt lat="-36.7360121" lon="174.4019992"><ele>121.0</ele><time>2026-05-02T21:44:51.593Z</time></trkpt><trkpt lat="-36.7359952" lon="174.4018643"><ele>120.14285714285714</ele><time>2026-05-02T21:44:53.593Z</time></trkpt><trkpt lat="-36.7360195" lon="174.4017829"><ele>119.28571428571428</ele><time>2026-05-02T21:44:54.592Z</time></trkpt><trkpt lat="-36.7360343" lon="174.4016917"><ele>118.42857142857142</ele><time>2026-05-02T21:44:55.593Z</time></trkpt><trkpt lat="-36.7359496" lon="174.4016241"><ele>117.57142857142856</ele><time>2026-05-02T21:44:57.594Z</time></trkpt><trkpt lat="-36.7358971" lon="174.4016735"><ele>116.71428571428571</ele><time>2026-05-02T21:44:58.593Z</time></trkpt><trkpt lat="-36.7358687" lon="174.4017468"><ele>115.85714285714283</ele><time>2026-05-02T21:44:59.593Z</time></trkpt><trkpt lat="-36.7358198" lon="174.4018047"><ele>114.99999999999999</ele><time>2026-05-02T21:45:00.594Z</time></trkpt><trkpt lat="-36.735755" lon="174.4018341"><ele>115.0</ele><time>2026-05-02T21:45:01.593Z</time></trkpt><trkpt lat="-36.7356365" lon="174.4017824"><ele>115.0</ele><time>2026-05-02T21:45:03.593Z</time></trkpt><trkpt lat="-36.7355225" lon="174.4017237"><ele>115.0</ele><time>2026-05-02T21:45:05.594Z</time></trkpt><trkpt lat="-36.7354572" lon="174.4016481"><ele>115.0</ele><time>2026-05-02T21:45:06.593Z</time></trkpt><trkpt lat="-36.7353927" lon="174.4015949"><ele>115.0</ele><time>2026-05-02T21:45:07.593Z</time></trkpt><trkpt lat="-36.7353318" lon="174.4015554"><ele>115.0</ele><time>2026-05-02T21:45:08.593Z</time></trkpt><trkpt lat="-36.7352699" lon="174.4015238"><ele>115.0</ele><time>2026-05-02T21:45:09.594Z</time></trkpt><trkpt lat="-36.7352005" lon="174.4015091"><ele>115.0</ele><time>2026-05-02T21:45:10.593Z</time></trkpt><trkpt lat="-36.7350961" lon="174.4015786"><ele>115.0</ele><time>2026-05-02T21:45:12.593Z</time></trkpt><trkpt lat="-36.7349695" lon="174.4016249"><ele>115.0</ele><time>2026-05-02T21:45:14.594Z</time></trkpt><trkpt lat="-36.7348609" lon="174.4016068"><ele>114.50000000000001</ele><time>2026-05-02T21:45:16.594Z</time></trkpt><trkpt lat="-36.7347919" lon="174.4015297"><ele>114.0</ele><time>2026-05-02T21:45:18.593Z</time></trkpt><trkpt lat="-36.734833" lon="174.4013942"><ele>113.5</ele><time>2026-05-02T21:45:20.592Z</time></trkpt><trkpt lat="-36.7348986" lon="174.4013339"><ele>113.0</ele><time>2026-05-02T21:45:21.592Z</time></trkpt><trkpt lat="-36.7349694" lon="174.4012962"><ele>112.50000000000001</ele><time>2026-05-02T21:45:22.593Z</time></trkpt><trkpt lat="-36.7350271" lon="174.4012319"><ele>112.0</ele><time>2026-05-02T21:45:23.594Z</time></trkpt><trkpt lat="-36.735101" lon="174.4012149"><ele>111.16666666666667</ele><time>2026-05-02T21:45:24.593Z</time></trkpt><trkpt lat="-36.7351778" lon="174.4012122"><ele>110.33333333333334</ele><time>2026-05-02T21:45:25.591Z</time></trkpt><trkpt lat="-36.7352464" lon="174.4011848"><ele>109.5</ele><time>2026-05-02T21:45:26.593Z</time></trkpt><trkpt lat="-36.7353105" lon="174.4011249"><ele>108.66666666666666</ele><time>2026-05-02T21:45:28.592Z</time></trkpt><trkpt lat="-36.735234" lon="174.4010518"><ele>107.83333333333333</ele><time>2026-05-02T21:45:30.593Z</time></trkpt><trkpt lat="-36.7351612" lon="174.4010498"><ele>107.0</ele><time>2026-05-02T21:45:31.593Z</time></trkpt><trkpt lat="-36.7350973" lon="174.401065"><ele>106.0</ele><time>2026-05-02T21:45:32.593Z</time></trkpt><trkpt lat="-36.7350125" lon="174.4010816"><ele>104.99999999999999</ele><time>2026-05-02T21:45:34.594Z</time></trkpt><trkpt lat="-36.7349448" lon="174.4010118"><ele>104.0</ele><time>2026-05-02T21:45:36.594Z</time></trkpt><trkpt lat="-36.7350434" lon="174.4008765"><ele>103.0</ele><time>2026-05-02T21:45:38.594Z</time></trkpt><trkpt lat="-36.7351235" lon="174.4008308"><ele>102.0</ele><time>2026-05-02T21:45:39.593Z</time></trkpt><trkpt lat="-36.7350831" lon="174.4006976"><ele>102.0</ele><time>2026-05-02T21:45:42.594Z</time></trkpt><trkpt lat="-36.7351086" lon="174.4005702"><ele>102.0</ele><time>2026-05-02T21:45:44.594Z</time></trkpt><trkpt lat="-36.7352067" lon="174.4005721"><ele>102.0</ele><time>2026-05-02T21:45:47.592Z</time></trkpt><trkpt lat="-36.7352831" lon="174.4006036"><ele>102.0</ele><time>2026-05-02T21:45:49.594Z</time></trkpt><trkpt lat="-36.7353402" lon="174.4006372"><ele>102.0</ele><time>2026-05-02T21:45:51.593Z</time></trkpt><trkpt lat="-36.7354153" lon="174.400675"><ele>102.0</ele><time>2026-05-02T21:45:53.594Z</time></trkpt><trkpt lat="-36.7354891" lon="174.4006353"><ele>101.66666666666667</ele><time>2026-05-02T21:45:56.593Z</time></trkpt><trkpt lat="-36.7355381" lon="174.4005776"><ele>101.33333333333334</ele><time>2026-05-02T21:45:58.594Z</time></trkpt><trkpt lat="-36.7356008" lon="174.4004881"><ele>101.0</ele><time>2026-05-02T21:46:01.593Z</time></trkpt><trkpt lat="-36.7356466" lon="174.4004032"><ele>100.66666666666667</ele><time>2026-05-02T21:46:03.594Z</time></trkpt><trkpt lat="-36.7357197" lon="174.4003536"><ele>100.33333333333334</ele><time>2026-05-02T21:46:05.592Z</time></trkpt><trkpt lat="-36.7357166" lon="174.4002721"><ele>100.0</ele><time>2026-05-02T21:46:08.592Z</time></trkpt><trkpt lat="-36.7357099" lon="174.400191"><ele>100.0</ele><time>2026-05-02T21:46:11.594Z</time></trkpt><trkpt lat="-36.7357656" lon="174.4001458"><ele>100.0</ele><time>2026-05-02T21:46:13.594Z</time></trkpt><trkpt lat="-36.7358176" lon="174.4000869"><ele>100.0</ele><time>2026-05-02T21:46:15.593Z</time></trkpt><trkpt lat="-36.7359236" lon="174.3999847"><ele>100.0</ele><time>2026-05-02T21:46:17.593Z</time></trkpt><trkpt lat="-36.7359922" lon="174.3999033"><ele>100.0</ele><time>2026-05-02T21:46:19.593Z</time></trkpt><trkpt lat="-36.7360413" lon="174.3998122"><ele>99.6</ele><time>2026-05-02T21:46:21.594Z</time></trkpt><trkpt lat="-36.7360913" lon="174.3996827"><ele>99.2</ele><time>2026-05-02T21:46:23.594Z</time></trkpt><trkpt lat="-36.7361209" lon="174.3996117"><ele>98.80000000000001</ele><time>2026-05-02T21:46:24.592Z</time></trkpt><trkpt lat="-36.7361911" lon="174.3994855"><ele>98.4</ele><time>2026-05-02T21:46:26.593Z</time></trkpt><trkpt lat="-36.7362326" lon="174.3994195"><ele>98.0</ele><time>2026-05-02T21:46:27.593Z</time></trkpt><trkpt lat="-36.7363253" lon="174.3993849"><ele>98.0</ele><time>2026-05-02T21:46:29.593Z</time></trkpt><trkpt lat="-36.7363925" lon="174.3993357"><ele>98.0</ele><time>2026-05-02T21:46:31.594Z</time></trkpt><trkpt lat="-36.7364042" lon="174.3992268"><ele>98.0</ele><time>2026-05-02T21:46:33.594Z</time></trkpt><trkpt lat="-36.7363713" lon="174.3991178"><ele>98.0</ele><time>2026-05-02T21:46:35.594Z</time></trkpt><trkpt lat="-36.7362969" lon="174.3990078"><ele>98.0</ele><time>2026-05-02T21:46:37.593Z</time></trkpt><trkpt lat="-36.7362115" lon="174.3989951"><ele>97.99999999999999</ele><time>2026-05-02T21:46:39.593Z</time></trkpt><trkpt lat="-36.7361509" lon="174.3990807"><ele>98.0</ele><time>2026-05-02T21:46:41.594Z</time></trkpt><trkpt lat="-36.7360742" lon="174.3991425"><ele>98.0</ele><time>2026-05-02T21:46:43.594Z</time></trkpt><trkpt lat="-36.7359998" lon="174.3991745"><ele>98.0</ele><time>2026-05-02T21:46:45.594Z</time></trkpt><trkpt lat="-36.7359337" lon="174.3992117"><ele>97.99999999999999</ele><time>2026-05-02T21:46:47.594Z</time></trkpt><trkpt lat="-36.7358805" lon="174.3992689"><ele>98.0</ele><time>2026-05-02T21:46:49.593Z</time></trkpt><trkpt lat="-36.7358378" lon="174.3993532"><ele>98.16666666666666</ele><time>2026-05-02T21:46:51.592Z</time></trkpt><trkpt lat="-36.7358217" lon="174.3994493"><ele>98.33333333333333</ele><time>2026-05-02T21:46:53.594Z</time></trkpt><trkpt lat="-36.7357977" lon="174.3995536"><ele>98.5</ele><time>2026-05-02T21:46:55.593Z</time></trkpt><trkpt lat="-36.7357345" lon="174.3996126"><ele>98.66666666666666</ele><time>2026-05-02T21:46:56.593Z</time></trkpt><trkpt lat="-36.7356608" lon="174.3997085"><ele>98.83333333333333</ele><time>2026-05-02T21:46:58.594Z</time></trkpt><trkpt lat="-36.7355966" lon="174.3997842"><ele>99.0</ele><time>2026-05-02T21:47:00.594Z</time></trkpt><trkpt lat="-36.7355103" lon="174.3998587"><ele>99.16666666666667</ele><time>2026-05-02T21:47:02.594Z</time></trkpt><trkpt lat="-36.7354314" lon="174.3999085"><ele>99.33333333333334</ele><time>2026-05-02T21:47:04.594Z</time></trkpt><trkpt lat="-36.7353642" lon="174.3999635"><ele>99.5</ele><time>2026-05-02T21:47:06.593Z</time></trkpt><trkpt lat="-36.7352924" lon="174.4000011"><ele>99.66666666666667</ele><time>2026-05-02T21:47:08.593Z</time></trkpt><trkpt lat="-36.7352117" lon="174.4000504"><ele>99.83333333333334</ele><time>2026-05-02T21:47:11.592Z</time></trkpt><trkpt lat="-36.7351405" lon="174.4000882"><ele>100.0</ele><time>2026-05-02T21:47:13.592Z</time></trkpt><trkpt lat="-36.7350687" lon="174.4001303"><ele>100.16666666666667</ele><time>2026-05-02T21:47:15.593Z</time></trkpt><trkpt lat="-36.7349958" lon="174.4001571"><ele>100.33333333333334</ele><time>2026-05-02T21:47:17.593Z</time></trkpt><trkpt lat="-36.7348995" lon="174.4001647"><ele>100.5</ele><time>2026-05-02T21:47:20.593Z</time></trkpt><trkpt lat="-36.7348353" lon="174.4001634"><ele>100.66666666666666</ele><time>2026-05-02T21:47:22.593Z</time></trkpt><trkpt lat="-36.7347668" lon="174.4001707"><ele>100.83333333333333</ele><time>2026-05-02T21:47:24.595Z</time></trkpt><trkpt lat="-36.734693" lon="174.4001775"><ele>101.0</ele><time>2026-05-02T21:47:26.593Z</time></trkpt><trkpt lat="-36.7346203" lon="174.400166"><ele>100.99999999999999</ele><time>2026-05-02T21:47:28.594Z</time></trkpt><trkpt lat="-36.734529" lon="174.4001736"><ele>101.0</ele><time>2026-05-02T21:47:31.594Z</time></trkpt><trkpt lat="-36.7344493" lon="174.4001756"><ele>101.0</ele><time>2026-05-02T21:47:33.592Z</time></trkpt><trkpt lat="-36.7343624" lon="174.4001693"><ele>101.0</ele><time>2026-05-02T21:47:35.594Z</time></trkpt><trkpt lat="-36.734271" lon="174.4001624"><ele>100.99999999999999</ele><time>2026-05-02T21:47:37.592Z</time></trkpt><trkpt lat="-36.7341857" lon="174.4001627"><ele>101.0</ele><time>2026-05-02T21:47:39.593Z</time></trkpt><trkpt lat="-36.7340993" lon="174.4001646"><ele>102.49999999999999</ele><time>2026-05-02T21:47:41.593Z</time></trkpt><trkpt lat="-36.7340122" lon="174.4001806"><ele>104.0</ele><time>2026-05-02T21:47:43.593Z</time></trkpt><trkpt lat="-36.7339225" lon="174.4001968"><ele>105.5</ele><time>2026-05-02T21:47:45.593Z</time></trkpt><trkpt lat="-36.7338463" lon="174.4002159"><ele>107.0</ele><time>2026-05-02T21:47:47.592Z</time></trkpt><trkpt lat="-36.7337654" lon="174.4001831"><ele>108.49999999999999</ele><time>2026-05-02T21:47:49.592Z</time></trkpt><trkpt lat="-36.7337192" lon="174.4000903"><ele>110.0</ele><time>2026-05-02T21:47:50.594Z</time></trkpt><trkpt lat="-36.7336365" lon="174.4000172"><ele>110.16666666666666</ele><time>2026-05-02T21:47:52.593Z</time></trkpt><trkpt lat="-36.733554" lon="174.3999554"><ele>110.33333333333333</ele><time>2026-05-02T21:47:54.594Z</time></trkpt><trkpt lat="-36.7335171" lon="174.3998657"><ele>110.5</ele><time>2026-05-02T21:47:56.594Z</time></trkpt><trkpt lat="-36.733534" lon="174.3997705"><ele>110.66666666666666</ele><time>2026-05-02T21:47:59.594Z</time></trkpt><trkpt lat="-36.7335283" lon="174.3996806"><ele>110.83333333333333</ele><time>2026-05-02T21:48:02.594Z</time></trkpt><trkpt lat="-36.7334315" lon="174.3996451"><ele>111.0</ele><time>2026-05-02T21:48:05.593Z</time></trkpt><trkpt lat="-36.733375" lon="174.3996002"><ele>111.83333333333333</ele><time>2026-05-02T21:48:07.593Z</time></trkpt><trkpt lat="-36.7333534" lon="174.3995249"><ele>112.66666666666666</ele><time>2026-05-02T21:48:09.593Z</time></trkpt><trkpt lat="-36.7333619" lon="174.3994369"><ele>113.5</ele><time>2026-05-02T21:48:11.592Z</time></trkpt><trkpt lat="-36.7333518" lon="174.3993339"><ele>114.33333333333333</ele><time>2026-05-02T21:48:13.592Z</time></trkpt><trkpt lat="-36.7333575" lon="174.3992359"><ele>115.16666666666666</ele><time>2026-05-02T21:48:15.594Z</time></trkpt><trkpt lat="-36.7333629" lon="174.3991319"><ele>116.0</ele><time>2026-05-02T21:48:17.594Z</time></trkpt><trkpt lat="-36.7333685" lon="174.3990363"><ele>116.00000000000001</ele><time>2026-05-02T21:48:19.593Z</time></trkpt><trkpt lat="-36.7333636" lon="174.3989387"><ele>116.0</ele><time>2026-05-02T21:48:21.594Z</time></trkpt><trkpt lat="-36.7333636" lon="174.3988277"><ele>116.00000000000001</ele><time>2026-05-02T21:48:24.594Z</time></trkpt><trkpt lat="-36.7333714" lon="174.398722"><ele>116.00000000000001</ele><time>2026-05-02T21:48:27.593Z</time></trkpt><trkpt lat="-36.7333832" lon="174.3986419"><ele>116.0</ele><time>2026-05-02T21:48:29.594Z</time></trkpt><trkpt lat="-36.7333886" lon="174.3985627"><ele>116.00000000000001</ele><time>2026-05-02T21:48:31.594Z</time></trkpt><trkpt lat="-36.7333947" lon="174.3984844"><ele>116.00000000000001</ele><time>2026-05-02T21:48:33.594Z</time></trkpt><trkpt lat="-36.7334066" lon="174.3983916"><ele>116.2857142857143</ele><time>2026-05-02T21:48:35.593Z</time></trkpt><trkpt lat="-36.7334138" lon="174.3983074"><ele>116.57142857142858</ele><time>2026-05-02T21:48:37.594Z</time></trkpt><trkpt lat="-36.733419" lon="174.3982286"><ele>116.85714285714286</ele><time>2026-05-02T21:48:39.594Z</time></trkpt><trkpt lat="-36.7334294" lon="174.398147"><ele>117.14285714285715</ele><time>2026-05-02T21:48:42.593Z</time></trkpt><trkpt lat="-36.7334601" lon="174.3980587"><ele>117.42857142857144</ele><time>2026-05-02T21:48:45.593Z</time></trkpt><trkpt lat="-36.7335213" lon="174.3980273"><ele>117.71428571428571</ele><time>2026-05-02T21:48:48.593Z</time></trkpt><trkpt lat="-36.7336123" lon="174.3980015"><ele>118.0</ele><time>2026-05-02T21:50:45.593Z</time></trkpt><trkpt lat="-36.7336687" lon="174.3979544"><ele>117.16666666666667</ele><time>2026-05-02T21:50:48.594Z</time></trkpt><trkpt lat="-36.7337247" lon="174.3979145"><ele>116.33333333333334</ele><time>2026-05-02T21:50:50.592Z</time></trkpt><trkpt lat="-36.7338032" lon="174.3979106"><ele>115.5</ele><time>2026-05-02T21:50:53.592Z</time></trkpt><trkpt lat="-36.7338807" lon="174.3978875"><ele>114.66666666666666</ele><time>2026-05-02T21:50:57.594Z</time></trkpt><trkpt lat="-36.7339563" lon="174.3978641"><ele>113.83333333333333</ele><time>2026-05-02T21:51:00.594Z</time></trkpt><trkpt lat="-36.7339879" lon="174.3977685"><ele>113.0</ele><time>2026-05-02T21:51:02.593Z</time></trkpt><trkpt lat="-36.7339815" lon="174.3976551"><ele>112.99999999999999</ele><time>2026-05-02T21:51:04.594Z</time></trkpt><trkpt lat="-36.7339778" lon="174.3975637"><ele>113.0</ele><time>2026-05-02T21:51:05.594Z</time></trkpt><trkpt lat="-36.7339988" lon="174.397442"><ele>113.0</ele><time>2026-05-02T21:51:07.593Z</time></trkpt><trkpt lat="-36.7340523" lon="174.3973467"><ele>113.0</ele><time>2026-05-02T21:51:09.593Z</time></trkpt><trkpt lat="-36.7341243" lon="174.3973061"><ele>112.99999999999999</ele><time>2026-05-02T21:51:10.594Z</time></trkpt><trkpt lat="-36.7341924" lon="174.3972933"><ele>113.0</ele><time>2026-05-02T21:51:11.593Z</time></trkpt><trkpt lat="-36.734312" lon="174.3972725"><ele>112.99999999999999</ele><time>2026-05-02T21:51:13.592Z</time></trkpt><trkpt lat="-36.7343847" lon="174.3972679"><ele>113.0</ele><time>2026-05-02T21:51:14.592Z</time></trkpt><trkpt lat="-36.7344569" lon="174.3972054"><ele>113.0</ele><time>2026-05-02T21:51:16.594Z</time></trkpt><trkpt lat="-36.7345109" lon="174.3971569"><ele>113.0</ele><time>2026-05-02T21:51:17.593Z</time></trkpt><trkpt lat="-36.7345671" lon="174.397052"><ele>112.99999999999999</ele><time>2026-05-02T21:51:19.592Z</time></trkpt><trkpt lat="-36.7346658" lon="174.3969962"><ele>113.0</ele><time>2026-05-02T21:51:21.593Z</time></trkpt><trkpt lat="-36.7347987" lon="174.3970121"><ele>112.83333333333333</ele><time>2026-05-02T21:51:23.594Z</time></trkpt><trkpt lat="-36.7348836" lon="174.3970408"><ele>112.66666666666666</ele><time>2026-05-02T21:51:25.594Z</time></trkpt><trkpt lat="-36.7349613" lon="174.3970578"><ele>112.5</ele><time>2026-05-02T21:51:27.593Z</time></trkpt><trkpt lat="-36.7350102" lon="174.3971158"><ele>112.33333333333334</ele><time>2026-05-02T21:51:29.593Z</time></trkpt><trkpt lat="-36.7350459" lon="174.3971995"><ele>112.16666666666667</ele><time>2026-05-02T21:51:33.594Z</time></trkpt><trkpt lat="-36.7351055" lon="174.3972951"><ele>112.0</ele><time>2026-05-02T21:51:36.594Z</time></trkpt><trkpt lat="-36.7351466" lon="174.3973551"><ele>109.33333333333334</ele><time>2026-05-02T21:51:38.594Z</time></trkpt><trkpt lat="-36.7352376" lon="174.3973949"><ele>106.66666666666667</ele><time>2026-05-02T21:51:41.593Z</time></trkpt><trkpt lat="-36.7353078" lon="174.3973896"><ele>104.0</ele><time>2026-05-02T21:51:43.593Z</time></trkpt><trkpt lat="-36.7353689" lon="174.3974104"><ele>101.33333333333334</ele><time>2026-05-02T21:51:45.592Z</time></trkpt><trkpt lat="-36.7354548" lon="174.3974706"><ele>98.66666666666667</ele><time>2026-05-02T21:51:48.593Z</time></trkpt><trkpt lat="-36.7355267" lon="174.3975556"><ele>96.0</ele><time>2026-05-02T21:51:50.593Z</time></trkpt><trkpt lat="-36.7356061" lon="174.3976322"><ele>96.0</ele><time>2026-05-02T21:51:52.594Z</time></trkpt><trkpt lat="-36.7356907" lon="174.3976846"><ele>96.0</ele><time>2026-05-02T21:51:54.593Z</time></trkpt><trkpt lat="-36.7357806" lon="174.3977054"><ele>96.0</ele><time>2026-05-02T21:51:56.594Z</time></trkpt><trkpt lat="-36.7358265" lon="174.3978082"><ele>96.0</ele><time>2026-05-02T21:51:59.593Z</time></trkpt><trkpt lat="-36.7358586" lon="174.3978935"><ele>96.0</ele><time>2026-05-02T21:52:01.594Z</time></trkpt><trkpt lat="-36.7358392" lon="174.3979959"><ele>96.0</ele><time>2026-05-02T21:52:04.592Z</time></trkpt><trkpt lat="-36.735803" lon="174.3980819"><ele>97.6</ele><time>2026-05-02T21:52:07.593Z</time></trkpt><trkpt lat="-36.7358191" lon="174.3981889"><ele>99.19999999999999</ele><time>2026-05-02T21:52:10.592Z</time></trkpt><trkpt lat="-36.7358456" lon="174.3982875"><ele>100.80000000000001</ele><time>2026-05-02T21:52:12.593Z</time></trkpt><trkpt lat="-36.7358685" lon="174.3983964"><ele>102.4</ele><time>2026-05-02T21:52:14.594Z</time></trkpt><trkpt lat="-36.7359337" lon="174.3984457"><ele>104.0</ele><time>2026-05-02T21:52:16.594Z</time></trkpt><trkpt lat="-36.7360516" lon="174.3984296"><ele>101.80000000000001</ele><time>2026-05-02T21:52:17.593Z</time></trkpt><trkpt lat="-36.7361364" lon="174.3983259"><ele>99.60000000000001</ele><time>2026-05-02T21:52:19.593Z</time></trkpt><trkpt lat="-36.7361929" lon="174.3982157"><ele>97.4</ele><time>2026-05-02T21:52:21.593Z</time></trkpt><trkpt lat="-36.7362252" lon="174.3981313"><ele>95.2</ele><time>2026-05-02T21:52:23.593Z</time></trkpt><trkpt lat="-36.7362454" lon="174.3980496"><ele>93.0</ele><time>2026-05-02T21:52:25.592Z</time></trkpt><trkpt lat="-36.7363171" lon="174.3979873"><ele>93.0</ele><time>2026-05-02T21:52:27.594Z</time></trkpt><trkpt lat="-36.7364041" lon="174.3979615"><ele>93.0</ele><time>2026-05-02T21:52:28.593Z</time></trkpt><trkpt lat="-36.7365367" lon="174.397906"><ele>93.0</ele><time>2026-05-02T21:52:30.594Z</time></trkpt><trkpt lat="-36.7366033" lon="174.3979094"><ele>93.0</ele><time>2026-05-02T21:52:31.594Z</time></trkpt><trkpt lat="-36.7366724" lon="174.3980088"><ele>93.0</ele><time>2026-05-02T21:52:33.593Z</time></trkpt><trkpt lat="-36.7367509" lon="174.398073"><ele>90.83333333333333</ele><time>2026-05-02T21:52:35.593Z</time></trkpt><trkpt lat="-36.736739" lon="174.397955"><ele>88.66666666666667</ele><time>2026-05-02T21:52:38.594Z</time></trkpt><trkpt lat="-36.7366755" lon="174.3979178"><ele>86.5</ele><time>2026-05-02T21:52:39.592Z</time></trkpt><trkpt lat="-36.7366174" lon="174.3978826"><ele>84.33333333333334</ele><time>2026-05-02T21:52:40.594Z</time></trkpt><trkpt lat="-36.7365248" lon="174.3978273"><ele>82.16666666666667</ele><time>2026-05-02T21:52:42.594Z</time></trkpt><trkpt lat="-36.736471" lon="174.3977392"><ele>80.0</ele><time>2026-05-02T21:52:44.593Z</time></trkpt><trkpt lat="-36.7365156" lon="174.3976222"><ele>80.0</ele><time>2026-05-02T21:52:46.591Z</time></trkpt><trkpt lat="-36.7365338" lon="174.3974941"><ele>80.0</ele><time>2026-05-02T21:52:48.593Z</time></trkpt><trkpt lat="-36.7365844" lon="174.3974303"><ele>80.0</ele><time>2026-05-02T21:52:50.594Z</time></trkpt><trkpt lat="-36.7365746" lon="174.3973335"><ele>80.0</ele><time>2026-05-02T21:52:52.592Z</time></trkpt><trkpt lat="-36.73649" lon="174.3972709"><ele>80.0</ele><time>2026-05-02T21:52:54.592Z</time></trkpt><trkpt lat="-36.7364517" lon="174.3971527"><ele>76.83333333333334</ele><time>2026-05-02T21:52:56.592Z</time></trkpt><trkpt lat="-36.7364168" lon="174.3970619"><ele>73.66666666666667</ele><time>2026-05-02T21:52:58.593Z</time></trkpt><trkpt lat="-36.7363645" lon="174.3970006"><ele>70.5</ele><time>2026-05-02T21:52:59.594Z</time></trkpt><trkpt lat="-36.7363294" lon="174.3969216"><ele>67.33333333333333</ele><time>2026-05-02T21:53:00.594Z</time></trkpt><trkpt lat="-36.7362852" lon="174.396838"><ele>64.16666666666666</ele><time>2026-05-02T21:53:02.594Z</time></trkpt><trkpt lat="-36.7362099" lon="174.3967794"><ele>61.0</ele><time>2026-05-02T21:53:04.594Z</time></trkpt><trkpt lat="-36.7361121" lon="174.3967327"><ele>60.99999999999999</ele><time>2026-05-02T21:53:06.593Z</time></trkpt><trkpt lat="-36.7361109" lon="174.3966528"><ele>61.0</ele><time>2026-05-02T21:53:07.593Z</time></trkpt><trkpt lat="-36.7360696" lon="174.3965821"><ele>61.0</ele><time>2026-05-02T21:53:09.593Z</time></trkpt><trkpt lat="-36.7360123" lon="174.3965429"><ele>61.0</ele><time>2026-05-02T21:53:15.593Z</time></trkpt><trkpt lat="-36.7359355" lon="174.396478"><ele>60.99999999999999</ele><time>2026-05-02T21:53:18.592Z</time></trkpt><trkpt lat="-36.7358622" lon="174.3963614"><ele>61.0</ele><time>2026-05-02T21:53:20.593Z</time></trkpt><trkpt lat="-36.7358313" lon="174.3962647"><ele>60.83333333333333</ele><time>2026-05-02T21:53:21.593Z</time></trkpt><trkpt lat="-36.7357933" lon="174.3961898"><ele>60.666666666666664</ele><time>2026-05-02T21:53:22.592Z</time></trkpt><trkpt lat="-36.7356903" lon="174.3960817"><ele>60.5</ele><time>2026-05-02T21:53:24.594Z</time></trkpt><trkpt lat="-36.7356381" lon="174.396028"><ele>60.33333333333333</ele><time>2026-05-02T21:53:25.594Z</time></trkpt><trkpt lat="-36.7355861" lon="174.3959832"><ele>60.166666666666664</ele><time>2026-05-02T21:53:26.594Z</time></trkpt><trkpt lat="-36.7355175" lon="174.3959559"><ele>60.0</ele><time>2026-05-02T21:53:27.593Z</time></trkpt><trkpt lat="-36.7354413" lon="174.3958805"><ele>60.0</ele><time>2026-05-02T21:53:29.594Z</time></trkpt><trkpt lat="-36.7354021" lon="174.3958178"><ele>60.0</ele><time>2026-05-02T21:53:30.594Z</time></trkpt><trkpt lat="-36.7353136" lon="174.3957675"><ele>60.0</ele><time>2026-05-02T21:53:32.594Z</time></trkpt><trkpt lat="-36.7352251" lon="174.39574"><ele>60.0</ele><time>2026-05-02T21:53:38.594Z</time></trkpt><trkpt lat="-36.7351436" lon="174.3956973"><ele>60.0</ele><time>2026-05-02T21:53:40.594Z</time></trkpt><trkpt lat="-36.7350829" lon="174.3956586"><ele>60.0</ele><time>2026-05-02T21:53:42.594Z</time></trkpt><trkpt lat="-36.735038" lon="174.3955833"><ele>59.2</ele><time>2026-05-02T21:53:44.594Z</time></trkpt><trkpt lat="-36.7350477" lon="174.3954557"><ele>58.4</ele><time>2026-05-02T21:53:46.594Z</time></trkpt><trkpt lat="-36.7351062" lon="174.3953635"><ele>57.599999999999994</ele><time>2026-05-02T21:53:47.593Z</time></trkpt><trkpt lat="-36.7351727" lon="174.3953182"><ele>56.8</ele><time>2026-05-02T21:53:49.592Z</time></trkpt><trkpt lat="-36.7352473" lon="174.3953403"><ele>56.0</ele><time>2026-05-02T21:53:50.593Z</time></trkpt><trkpt lat="-36.7353688" lon="174.3953842"><ele>54.50000000000001</ele><time>2026-05-02T21:53:52.593Z</time></trkpt><trkpt lat="-36.7354388" lon="174.3954481"><ele>53.0</ele><time>2026-05-02T21:53:54.594Z</time></trkpt><trkpt lat="-36.7355247" lon="174.3954281"><ele>51.5</ele><time>2026-05-02T21:53:57.593Z</time></trkpt><trkpt lat="-36.7354885" lon="174.395297"><ele>50.0</ele><time>2026-05-02T21:53:59.593Z</time></trkpt><trkpt lat="-36.7354454" lon="174.3952307"><ele>48.5</ele><time>2026-05-02T21:54:00.593Z</time></trkpt><trkpt lat="-36.7354076" lon="174.3951537"><ele>47.0</ele><time>2026-05-02T21:54:01.593Z</time></trkpt><trkpt lat="-36.7353385" lon="174.3950342"><ele>47.0</ele><time>2026-05-02T21:54:03.592Z</time></trkpt><trkpt lat="-36.7352428" lon="174.3949364"><ele>47.0</ele><time>2026-05-02T21:54:05.593Z</time></trkpt><trkpt lat="-36.7351325" lon="174.3949094"><ele>47.0</ele><time>2026-05-02T21:54:07.593Z</time></trkpt><trkpt lat="-36.7350667" lon="174.3948975"><ele>47.0</ele><time>2026-05-02T21:54:08.594Z</time></trkpt><trkpt lat="-36.7350047" lon="174.3948793"><ele>47.0</ele><time>2026-05-02T21:54:09.593Z</time></trkpt><trkpt lat="-36.7349833" lon="174.3947472"><ele>47.0</ele><time>2026-05-02T21:54:11.594Z</time></trkpt><trkpt lat="-36.7349991" lon="174.3946532"><ele>47.0</ele><time>2026-05-02T21:54:13.594Z</time></trkpt><trkpt lat="-36.7349693" lon="174.3945089"><ele>47.0</ele><time>2026-05-02T21:54:15.593Z</time></trkpt><trkpt lat="-36.7349266" lon="174.3943941"><ele>47.0</ele><time>2026-05-02T21:54:16.593Z</time></trkpt><trkpt lat="-36.7349252" lon="174.3942526"><ele>47.0</ele><time>2026-05-02T21:54:18.593Z</time></trkpt><trkpt lat="-36.7349499" lon="174.3941632"><ele>47.0</ele><time>2026-05-02T21:54:19.593Z</time></trkpt><trkpt lat="-36.7349895" lon="174.3940905"><ele>47.0</ele><time>2026-05-02T21:54:20.594Z</time></trkpt><trkpt lat="-36.7350173" lon="174.3940194"><ele>47.0</ele><time>2026-05-02T21:54:21.593Z</time></trkpt><trkpt lat="-36.7350515" lon="174.3939486"><ele>47.0</ele><time>2026-05-02T21:54:22.593Z</time></trkpt><trkpt lat="-36.7350798" lon="174.3938771"><ele>47.0</ele><time>2026-05-02T21:54:23.593Z</time></trkpt><trkpt lat="-36.7350802" lon="174.3937879"><ele>47.0</ele><time>2026-05-02T21:54:24.594Z</time></trkpt><trkpt lat="-36.7350084" lon="174.3936618"><ele>45.5</ele><time>2026-05-02T21:54:26.593Z</time></trkpt><trkpt lat="-36.7349345" lon="174.3936327"><ele>44.0</ele><time>2026-05-02T21:54:27.594Z</time></trkpt><trkpt lat="-36.734878" lon="174.3935861"><ele>42.5</ele><time>2026-05-02T21:54:28.593Z</time></trkpt><trkpt lat="-36.7348158" lon="174.3935317"><ele>41.0</ele><time>2026-05-02T21:54:29.593Z</time></trkpt><trkpt lat="-36.7347592" lon="174.3934709"><ele>39.5</ele><time>2026-05-02T21:54:30.594Z</time></trkpt><trkpt lat="-36.7347099" lon="174.3933342"><ele>38.0</ele><time>2026-05-02T21:54:32.593Z</time></trkpt><trkpt lat="-36.7346353" lon="174.3932623"><ele>38.0</ele><time>2026-05-02T21:54:34.593Z</time></trkpt><trkpt lat="-36.7345888" lon="174.3932027"><ele>38.0</ele><time>2026-05-02T21:54:36.594Z</time></trkpt><trkpt lat="-36.7345397" lon="174.3931073"><ele>38.0</ele><time>2026-05-02T21:54:38.594Z</time></trkpt><trkpt lat="-36.7344193" lon="174.3931131"><ele>38.0</ele><time>2026-05-02T21:54:40.592Z</time></trkpt><trkpt lat="-36.7342806" lon="174.3931133"><ele>38.0</ele><time>2026-05-02T21:54:42.594Z</time></trkpt><trkpt lat="-36.7341791" lon="174.3930716"><ele>36.4</ele><time>2026-05-02T21:54:44.593Z</time></trkpt><trkpt lat="-36.7341397" lon="174.3929609"><ele>34.8</ele><time>2026-05-02T21:54:46.594Z</time></trkpt><trkpt lat="-36.7341306" lon="174.3928236"><ele>33.2</ele><time>2026-05-02T21:54:48.593Z</time></trkpt><trkpt lat="-36.7341757" lon="174.3927656"><ele>31.6</ele><time>2026-05-02T21:54:49.593Z</time></trkpt><trkpt lat="-36.734295" lon="174.3926615"><ele>30.0</ele><time>2026-05-02T21:54:51.593Z</time></trkpt><trkpt lat="-36.7343408" lon="174.3926008"><ele>30.0</ele><time>2026-05-02T21:54:52.593Z</time></trkpt><trkpt lat="-36.7343319" lon="174.3924644"><ele>30.0</ele><time>2026-05-02T21:54:54.593Z</time></trkpt><trkpt lat="-36.7342447" lon="174.3923616"><ele>30.0</ele><time>2026-05-02T21:54:56.592Z</time></trkpt><trkpt lat="-36.7341743" lon="174.3922787"><ele>30.0</ele><time>2026-05-02T21:54:57.592Z</time></trkpt><trkpt lat="-36.7341187" lon="174.3922275"><ele>30.0</ele><time>2026-05-02T21:54:58.592Z</time></trkpt><trkpt lat="-36.7340425" lon="174.3921901"><ele>30.0</ele><time>2026-05-02T21:54:59.592Z</time></trkpt><trkpt lat="-36.7339768" lon="174.3921687"><ele>30.0</ele><time>2026-05-02T21:55:00.594Z</time></trkpt><trkpt lat="-36.733874" lon="174.3921615"><ele>30.0</ele><time>2026-05-02T21:55:02.594Z</time></trkpt><trkpt lat="-36.7337275" lon="174.3921778"><ele>30.0</ele><time>2026-05-02T21:55:04.594Z</time></trkpt><trkpt lat="-36.7336476" lon="174.3921722"><ele>30.0</ele><time>2026-05-02T21:55:05.593Z</time></trkpt><trkpt lat="-36.733577" lon="174.3921285"><ele>28.833333333333332</ele><time>2026-05-02T21:55:06.593Z</time></trkpt><trkpt lat="-36.7335289" lon="174.3920583"><ele>27.666666666666668</ele><time>2026-05-02T21:55:07.593Z</time></trkpt><trkpt lat="-36.7334852" lon="174.391959"><ele>26.5</ele><time>2026-05-02T21:55:08.594Z</time></trkpt><trkpt lat="-36.733435" lon="174.3918867"><ele>25.333333333333336</ele><time>2026-05-02T21:55:09.594Z</time></trkpt><trkpt lat="-36.7333862" lon="174.3918113"><ele>24.166666666666668</ele><time>2026-05-02T21:55:10.594Z</time></trkpt><trkpt lat="-36.733371" lon="174.391735"><ele>23.0</ele><time>2026-05-02T21:55:11.593Z</time></trkpt><trkpt lat="-36.7333728" lon="174.3915963"><ele>23.0</ele><time>2026-05-02T21:55:13.593Z</time></trkpt><trkpt lat="-36.7333757" lon="174.3915101"><ele>23.0</ele><time>2026-05-02T21:55:14.594Z</time></trkpt><trkpt lat="-36.7333124" lon="174.3914028"><ele>23.0</ele><time>2026-05-02T21:55:16.594Z</time></trkpt><trkpt lat="-36.7332667" lon="174.3912865"><ele>23.0</ele><time>2026-05-02T21:55:18.593Z</time></trkpt><trkpt lat="-36.7331918" lon="174.3911932"><ele>23.0</ele><time>2026-05-02T21:55:20.594Z</time></trkpt><trkpt lat="-36.7330934" lon="174.3911052"><ele>23.2</ele><time>2026-05-02T21:55:22.592Z</time></trkpt><trkpt lat="-36.7330047" lon="174.3910093"><ele>23.4</ele><time>2026-05-02T21:55:24.593Z</time></trkpt><trkpt lat="-36.732907" lon="174.3909379"><ele>23.599999999999998</ele><time>2026-05-02T21:55:26.593Z</time></trkpt><trkpt lat="-36.732805" lon="174.3908744"><ele>23.799999999999997</ele><time>2026-05-02T21:55:28.594Z</time></trkpt><trkpt lat="-36.7327192" lon="174.3908328"><ele>24.0</ele><time>2026-05-02T21:55:30.594Z</time></trkpt><trkpt lat="-36.7326525" lon="174.3908941"><ele>23.999999999999996</ele><time>2026-05-02T21:55:32.593Z</time></trkpt><trkpt lat="-36.7325897" lon="174.3909773"><ele>24.0</ele><time>2026-05-02T21:55:34.593Z</time></trkpt><trkpt lat="-36.7325502" lon="174.3910514"><ele>24.0</ele><time>2026-05-02T21:55:36.594Z</time></trkpt><trkpt lat="-36.7325124" lon="174.391115"><ele>24.0</ele><time>2026-05-02T21:55:38.594Z</time></trkpt><trkpt lat="-36.7324804" lon="174.3911897"><ele>24.0</ele><time>2026-05-02T21:55:41.593Z</time></trkpt><trkpt lat="-36.7324159" lon="174.3912437"><ele>23.999999999999996</ele><time>2026-05-02T21:55:45.594Z</time></trkpt><trkpt lat="-36.7323737" lon="174.3913034"><ele>24.0</ele><time>2026-05-02T21:55:49.593Z</time></trkpt><trkpt lat="-36.7324282" lon="174.3913527"><ele>24.428571428571427</ele><time>2026-05-02T21:58:23.593Z</time></trkpt><trkpt lat="-36.7323984" lon="174.3914226"><ele>24.857142857142858</ele><time>2026-05-02T21:58:26.593Z</time></trkpt><trkpt lat="-36.7323531" lon="174.3914974"><ele>25.285714285714285</ele><time>2026-05-02T21:58:29.594Z</time></trkpt><trkpt lat="-36.7322802" lon="174.3915547"><ele>25.714285714285715</ele><time>2026-05-02T21:58:31.594Z</time></trkpt><trkpt lat="-36.7322111" lon="174.3915468"><ele>26.142857142857142</ele><time>2026-05-02T21:58:32.594Z</time></trkpt><trkpt lat="-36.7321441" lon="174.39153"><ele>26.57142857142857</ele><time>2026-05-02T21:58:33.592Z</time></trkpt><trkpt lat="-36.7320799" lon="174.3915119"><ele>27.0</ele><time>2026-05-02T21:58:34.592Z</time></trkpt><trkpt lat="-36.7319693" lon="174.3915115"><ele>27.666666666666668</ele><time>2026-05-02T21:58:36.594Z</time></trkpt><trkpt lat="-36.7318819" lon="174.391531"><ele>28.333333333333336</ele><time>2026-05-02T21:58:38.593Z</time></trkpt><trkpt lat="-36.7318055" lon="174.3915209"><ele>29.0</ele><time>2026-05-02T21:58:40.594Z</time></trkpt><trkpt lat="-36.7317184" lon="174.3915255"><ele>29.666666666666668</ele><time>2026-05-02T21:58:42.594Z</time></trkpt><trkpt lat="-36.731644" lon="174.3915552"><ele>30.333333333333336</ele><time>2026-05-02T21:58:44.592Z</time></trkpt><trkpt lat="-36.7315771" lon="174.3915842"><ele>31.0</ele><time>2026-05-02T21:58:46.594Z</time></trkpt><trkpt lat="-36.7315311" lon="174.3916578"><ele>31.000000000000004</ele><time>2026-05-02T21:58:49.594Z</time></trkpt><trkpt lat="-36.7315862" lon="174.39173"><ele>31.0</ele><time>2026-05-02T21:58:52.593Z</time></trkpt><trkpt lat="-36.7315547" lon="174.3918203"><ele>31.0</ele><time>2026-05-02T21:58:56.594Z</time></trkpt><trkpt lat="-36.7315059" lon="174.3918799"><ele>31.0</ele><time>2026-05-02T21:58:58.593Z</time></trkpt><trkpt lat="-36.731456" lon="174.3919586"><ele>31.000000000000004</ele><time>2026-05-02T21:59:01.594Z</time></trkpt><trkpt lat="-36.731395" lon="174.3919899"><ele>31.0</ele><time>2026-05-02T21:59:03.594Z</time></trkpt><trkpt lat="-36.7313207" lon="174.3919615"><ele>31.0</ele><time>2026-05-02T21:59:05.594Z</time></trkpt><trkpt lat="-36.7312628" lon="174.3918978"><ele>31.000000000000004</ele><time>2026-05-02T21:59:06.593Z</time></trkpt><trkpt lat="-36.7311846" lon="174.3918566"><ele>31.0</ele><time>2026-05-02T21:59:08.593Z</time></trkpt><trkpt lat="-36.7311106" lon="174.3918134"><ele>31.0</ele><time>2026-05-02T21:59:10.593Z</time></trkpt><trkpt lat="-36.7310434" lon="174.3918127"><ele>31.000000000000004</ele><time>2026-05-02T21:59:12.594Z</time></trkpt><trkpt lat="-36.7309881" lon="174.3918608"><ele>31.0</ele><time>2026-05-02T21:59:14.592Z</time></trkpt><trkpt lat="-36.7309708" lon="174.3919378"><ele>31.0</ele><time>2026-05-02T21:59:16.592Z</time></trkpt><trkpt lat="-36.7309887" lon="174.3920315"><ele>31.500000000000004</ele><time>2026-05-02T21:59:19.593Z</time></trkpt><trkpt lat="-36.7309698" lon="174.3921264"><ele>32.0</ele><time>2026-05-02T21:59:22.593Z</time></trkpt><trkpt lat="-36.730962" lon="174.3922096"><ele>32.5</ele><time>2026-05-02T21:59:24.593Z</time></trkpt><trkpt lat="-36.7309668" lon="174.392313"><ele>33.0</ele><time>2026-05-02T21:59:27.594Z</time></trkpt><trkpt lat="-36.7309231" lon="174.3923773"><ele>33.5</ele><time>2026-05-02T21:59:31.594Z</time></trkpt><trkpt lat="-36.730907" lon="174.3922716"><ele>34.0</ele><time>2026-05-02T21:59:35.594Z</time></trkpt><trkpt lat="-36.7308887" lon="174.3921703"><ele>34.0</ele><time>2026-05-02T21:59:38.594Z</time></trkpt><trkpt lat="-36.7308547" lon="174.3920963"><ele>34.0</ele><time>2026-05-02T21:59:40.593Z</time></trkpt><trkpt lat="-36.7307843" lon="174.3920363"><ele>34.0</ele><time>2026-05-02T21:59:43.593Z</time></trkpt><trkpt lat="-36.7307118" lon="174.3920221"><ele>34.0</ele><time>2026-05-02T21:59:46.593Z</time></trkpt><trkpt lat="-36.7306454" lon="174.392018"><ele>34.0</ele><time>2026-05-02T21:59:48.593Z</time></trkpt><trkpt lat="-36.7305792" lon="174.3920361"><ele>34.0</ele><time>2026-05-02T21:59:50.594Z</time></trkpt><trkpt lat="-36.7304895" lon="174.3920552"><ele>34.0</ele><time>2026-05-02T21:59:53.592Z</time></trkpt><trkpt lat="-36.7304198" lon="174.3920387"><ele>34.0</ele><time>2026-05-02T21:59:55.593Z</time></trkpt><trkpt lat="-36.7305072" lon="174.3920721"><ele>34.0</ele><time>2026-05-02T22:00:02.593Z</time></trkpt><trkpt lat="-36.7305865" lon="174.3921098"><ele>34.0</ele><time>2026-05-02T22:00:05.593Z</time></trkpt><trkpt lat="-36.730631" lon="174.3921831"><ele>34.0</ele><time>2026-05-02T22:00:08.592Z</time></trkpt><trkpt lat="-36.7306542" lon="174.3922692"><ele>34.0</ele><time>2026-05-02T22:00:11.594Z</time></trkpt><trkpt lat="-36.7305811" lon="174.3923169"><ele>35.71428571428571</ele><time>2026-05-02T22:00:16.594Z</time></trkpt><trkpt lat="-36.7304973" lon="174.3922955"><ele>37.42857142857143</ele><time>2026-05-02T22:00:21.593Z</time></trkpt><trkpt lat="-36.7304345" lon="174.3922701"><ele>39.14285714285714</ele><time>2026-05-02T22:00:25.593Z</time></trkpt><trkpt lat="-36.7303634" lon="174.3922685"><ele>40.857142857142854</ele><time>2026-05-02T22:00:27.593Z</time></trkpt><trkpt lat="-36.7302993" lon="174.3922446"><ele>42.57142857142857</ele><time>2026-05-02T22:00:29.593Z</time></trkpt><trkpt lat="-36.7302299" lon="174.3921804"><ele>44.285714285714285</ele><time>2026-05-02T22:00:32.593Z</time></trkpt><trkpt lat="-36.7301706" lon="174.392132"><ele>46.0</ele><time>2026-05-02T22:00:35.593Z</time></trkpt><trkpt lat="-36.7301129" lon="174.3920656"><ele>46.0</ele><time>2026-05-02T22:00:38.594Z</time></trkpt><trkpt lat="-36.73006" lon="174.3919886"><ele>46.0</ele><time>2026-05-02T22:00:40.594Z</time></trkpt><trkpt lat="-36.7300005" lon="174.3918872"><ele>46.0</ele><time>2026-05-02T22:00:42.594Z</time></trkpt><trkpt lat="-36.7299307" lon="174.3917779"><ele>46.0</ele><time>2026-05-02T22:00:44.593Z</time></trkpt><trkpt lat="-36.7298478" lon="174.3916976"><ele>46.0</ele><time>2026-05-02T22:00:46.594Z</time></trkpt><trkpt lat="-36.7297716" lon="174.3916718"><ele>46.0</ele><time>2026-05-02T22:00:47.592Z</time></trkpt><trkpt lat="-36.7296703" lon="174.3916098"><ele>46.0</ele><time>2026-05-02T22:00:49.593Z</time></trkpt><trkpt lat="-36.7295681" lon="174.3915626"><ele>46.0</ele><time>2026-05-02T22:00:51.593Z</time></trkpt><trkpt lat="-36.7294914" lon="174.3915241"><ele>46.0</ele><time>2026-05-02T22:00:53.593Z</time></trkpt><trkpt lat="-36.7294226" lon="174.3914677"><ele>46.0</ele><time>2026-05-02T22:00:55.594Z</time></trkpt><trkpt lat="-36.7293604" lon="174.3914034"><ele>45.0</ele><time>2026-05-02T22:00:57.593Z</time></trkpt><trkpt lat="-36.7293058" lon="174.3913509"><ele>44.0</ele><time>2026-05-02T22:00:59.594Z</time></trkpt><trkpt lat="-36.7292601" lon="174.3912864"><ele>43.0</ele><time>2026-05-02T22:01:01.592Z</time></trkpt><trkpt lat="-36.7292109" lon="174.3911927"><ele>42.0</ele><time>2026-05-02T22:01:04.594Z</time></trkpt><trkpt lat="-36.7291556" lon="174.3911204"><ele>41.0</ele><time>2026-05-02T22:01:06.593Z</time></trkpt><trkpt lat="-36.7290932" lon="174.3910435"><ele>40.0</ele><time>2026-05-02T22:01:08.593Z</time></trkpt><trkpt lat="-36.7290323" lon="174.3909708"><ele>40.0</ele><time>2026-05-02T22:01:10.593Z</time></trkpt><trkpt lat="-36.7289817" lon="174.3909059"><ele>40.0</ele><time>2026-05-02T22:01:12.594Z</time></trkpt><trkpt lat="-36.7289268" lon="174.3908591"><ele>40.0</ele><time>2026-05-02T22:01:14.593Z</time></trkpt><trkpt lat="-36.7288579" lon="174.3907902"><ele>40.0</ele><time>2026-05-02T22:01:16.592Z</time></trkpt><trkpt lat="-36.7287659" lon="174.390749"><ele>40.0</ele><time>2026-05-02T22:01:18.593Z</time></trkpt><trkpt lat="-36.7286627" lon="174.3907328"><ele>40.0</ele><time>2026-05-02T22:01:20.593Z</time></trkpt><trkpt lat="-36.7285933" lon="174.3907825"><ele>42.16666666666667</ele><time>2026-05-02T22:01:22.593Z</time></trkpt><trkpt lat="-36.7285057" lon="174.3908679"><ele>44.333333333333336</ele><time>2026-05-02T22:01:24.593Z</time></trkpt><trkpt lat="-36.7285008" lon="174.3909629"><ele>46.5</ele><time>2026-05-02T22:01:27.594Z</time></trkpt><trkpt lat="-36.7284239" lon="174.3909019"><ele>48.66666666666667</ele><time>2026-05-02T22:01:33.594Z</time></trkpt><trkpt lat="-36.7283549" lon="174.3908475"><ele>50.833333333333336</ele><time>2026-05-02T22:01:35.594Z</time></trkpt><trkpt lat="-36.7282861" lon="174.390815"><ele>53.0</ele><time>2026-05-02T22:01:37.594Z</time></trkpt><trkpt lat="-36.7282232" lon="174.3908031"><ele>53.00000000000001</ele><time>2026-05-02T22:01:39.593Z</time></trkpt><trkpt lat="-36.7281523" lon="174.3907797"><ele>53.0</ele><time>2026-05-02T22:01:41.594Z</time></trkpt><trkpt lat="-36.7280641" lon="174.3907795"><ele>53.0</ele><time>2026-05-02T22:01:44.594Z</time></trkpt><trkpt lat="-36.7279827" lon="174.3907793"><ele>53.0</ele><time>2026-05-02T22:01:47.592Z</time></trkpt><trkpt lat="-36.7279101" lon="174.3907577"><ele>53.00000000000001</ele><time>2026-05-02T22:01:50.594Z</time></trkpt><trkpt lat="-36.7278463" lon="174.3907205"><ele>53.0</ele><time>2026-05-02T22:01:53.594Z</time></trkpt><trkpt lat="-36.7278904" lon="174.390791"><ele>53.0</ele><time>2026-05-02T22:01:59.593Z</time></trkpt><trkpt lat="-36.7278982" lon="174.3908849"><ele>53.0</ele><time>2026-05-02T22:02:03.593Z</time></trkpt><trkpt lat="-36.7278332" lon="174.390892"><ele>53.0</ele><time>2026-05-02T22:02:06.594Z</time></trkpt><trkpt lat="-36.727772" lon="174.3908544"><ele>53.0</ele><time>2026-05-02T22:02:10.594Z</time></trkpt><trkpt lat="-36.7277452" lon="174.3909304"><ele>53.0</ele><time>2026-05-02T22:02:19.594Z</time></trkpt><trkpt lat="-36.7276933" lon="174.3910202"><ele>53.0</ele><time>2026-05-02T22:02:23.593Z</time></trkpt><trkpt lat="-36.7276375" lon="174.3910805"><ele>53.0</ele><time>2026-05-02T22:02:26.593Z</time></trkpt><trkpt lat="-36.7275522" lon="174.3911125"><ele>54.00000000000001</ele><time>2026-05-02T22:02:29.592Z</time></trkpt><trkpt lat="-36.7274967" lon="174.3911541"><ele>55.0</ele><time>2026-05-02T22:02:32.594Z</time></trkpt><trkpt lat="-36.727557" lon="174.391202"><ele>56.0</ele><time>2026-05-02T22:02:36.594Z</time></trkpt><trkpt lat="-36.7276176" lon="174.391266"><ele>57.0</ele><time>2026-05-02T22:02:39.593Z</time></trkpt><trkpt lat="-36.7276544" lon="174.3913612"><ele>58.00000000000001</ele><time>2026-05-02T22:02:41.594Z</time></trkpt><trkpt lat="-36.7276686" lon="174.3914587"><ele>59.0</ele><time>2026-05-02T22:02:43.593Z</time></trkpt><trkpt lat="-36.7276707" lon="174.3915537"><ele>60.66666666666667</ele><time>2026-05-02T22:02:45.593Z</time></trkpt><trkpt lat="-36.7276862" lon="174.3916394"><ele>62.333333333333336</ele><time>2026-05-02T22:02:47.594Z</time></trkpt><trkpt lat="-36.727697" lon="174.3917309"><ele>64.0</ele><time>2026-05-02T22:02:50.594Z</time></trkpt><trkpt lat="-36.7277146" lon="174.3918351"><ele>65.66666666666667</ele><time>2026-05-02T22:02:53.594Z</time></trkpt><trkpt lat="-36.7277464" lon="174.3919461"><ele>67.33333333333333</ele><time>2026-05-02T22:02:56.593Z</time></trkpt><trkpt lat="-36.7277582" lon="174.392026"><ele>69.0</ele><time>2026-05-02T22:02:58.594Z</time></trkpt><trkpt lat="-36.7277564" lon="174.392115"><ele>69.71428571428572</ele><time>2026-05-02T22:03:00.593Z</time></trkpt><trkpt lat="-36.7277547" lon="174.392199"><ele>70.42857142857143</ele><time>2026-05-02T22:03:02.594Z</time></trkpt><trkpt lat="-36.7277519" lon="174.39228"><ele>71.14285714285714</ele><time>2026-05-02T22:03:04.594Z</time></trkpt><trkpt lat="-36.7277312" lon="174.3923618"><ele>71.85714285714286</ele><time>2026-05-02T22:03:06.594Z</time></trkpt><trkpt lat="-36.7276945" lon="174.3924618"><ele>72.57142857142857</ele><time>2026-05-02T22:03:09.594Z</time></trkpt><trkpt lat="-36.7276908" lon="174.3925708"><ele>73.28571428571429</ele><time>2026-05-02T22:03:12.594Z</time></trkpt><trkpt lat="-36.7276359" lon="174.3926259"><ele>74.0</ele><time>2026-05-02T22:03:15.593Z</time></trkpt><trkpt lat="-36.7275574" lon="174.3926604"><ele>74.0</ele><time>2026-05-02T22:03:18.593Z</time></trkpt><trkpt lat="-36.7275019" lon="174.3927273"><ele>74.0</ele><time>2026-05-02T22:03:21.593Z</time></trkpt><trkpt lat="-36.7274333" lon="174.3927844"><ele>74.0</ele><time>2026-05-02T22:03:24.593Z</time></trkpt><trkpt lat="-36.7274379" lon="174.3928715"><ele>74.0</ele><time>2026-05-02T22:03:28.593Z</time></trkpt><trkpt lat="-36.7274739" lon="174.3929541"><ele>74.0</ele><time>2026-05-02T22:03:31.594Z</time></trkpt><trkpt lat="-36.7274375" lon="174.3930326"><ele>74.0</ele><time>2026-05-02T22:03:35.594Z</time></trkpt><trkpt lat="-36.727403" lon="174.3931155"><ele>74.66666666666667</ele><time>2026-05-02T22:03:38.593Z</time></trkpt><trkpt lat="-36.7274065" lon="174.393222"><ele>75.33333333333334</ele><time>2026-05-02T22:03:41.594Z</time></trkpt><trkpt lat="-36.7273655" lon="174.3932907"><ele>76.0</ele><time>2026-05-02T22:03:43.594Z</time></trkpt><trkpt lat="-36.7272962" lon="174.3933433"><ele>76.66666666666667</ele><time>2026-05-02T22:03:46.592Z</time></trkpt><trkpt lat="-36.7272171" lon="174.3933626"><ele>77.33333333333333</ele><time>2026-05-02T22:03:49.594Z</time></trkpt><trkpt lat="-36.7272067" lon="174.3934499"><ele>78.0</ele><time>2026-05-02T22:03:53.594Z</time></trkpt><trkpt lat="-36.727175" lon="174.3935454"><ele>78.0</ele><time>2026-05-02T22:03:56.592Z</time></trkpt><trkpt lat="-36.7271935" lon="174.3936587"><ele>78.0</ele><time>2026-05-02T22:03:59.595Z</time></trkpt><trkpt lat="-36.7271766" lon="174.3937442"><ele>78.0</ele><time>2026-05-02T22:04:01.594Z</time></trkpt><trkpt lat="-36.7271194" lon="174.3938155"><ele>78.0</ele><time>2026-05-02T22:04:03.593Z</time></trkpt><trkpt lat="-36.727074" lon="174.3938802"><ele>78.0</ele><time>2026-05-02T22:04:05.594Z</time></trkpt><trkpt lat="-36.7270602" lon="174.3940051"><ele>78.0</ele><time>2026-05-02T22:04:07.593Z</time></trkpt><trkpt lat="-36.7270629" lon="174.3941035"><ele>78.0</ele><time>2026-05-02T22:04:09.593Z</time></trkpt><trkpt lat="-36.727039" lon="174.3941895"><ele>78.0</ele><time>2026-05-02T22:04:12.593Z</time></trkpt><trkpt lat="-36.7270154" lon="174.3942917"><ele>78.0</ele><time>2026-05-02T22:04:15.593Z</time></trkpt><trkpt lat="-36.7270461" lon="174.3943908"><ele>78.0</ele><time>2026-05-02T22:04:18.594Z</time></trkpt><trkpt lat="-36.7270372" lon="174.3944752"><ele>78.0</ele><time>2026-05-02T22:04:21.593Z</time></trkpt><trkpt lat="-36.7269841" lon="174.3945264"><ele>78.0</ele><time>2026-05-02T22:04:23.593Z</time></trkpt><trkpt lat="-36.7269263" lon="174.3945932"><ele>78.0</ele><time>2026-05-02T22:04:26.593Z</time></trkpt><trkpt lat="-36.7268981" lon="174.3946758"><ele>78.0</ele><time>2026-05-02T22:04:28.594Z</time></trkpt><trkpt lat="-36.7268507" lon="174.3947412"><ele>78.0</ele><time>2026-05-02T22:04:30.594Z</time></trkpt><trkpt lat="-36.7268058" lon="174.3948119"><ele>78.0</ele><time>2026-05-02T22:04:32.593Z</time></trkpt><trkpt lat="-36.7267383" lon="174.3948892"><ele>78.0</ele><time>2026-05-02T22:04:34.594Z</time></trkpt><trkpt lat="-36.7266822" lon="174.3949447"><ele>78.0</ele><time>2026-05-02T22:04:35.593Z</time></trkpt><trkpt lat="-36.7265758" lon="174.3949981"><ele>80.4</ele><time>2026-05-02T22:04:37.594Z</time></trkpt><trkpt lat="-36.7264631" lon="174.3950293"><ele>82.8</ele><time>2026-05-02T22:04:39.593Z</time></trkpt><trkpt lat="-36.7263679" lon="174.3950847"><ele>85.2</ele><time>2026-05-02T22:04:41.594Z</time></trkpt><trkpt lat="-36.7263278" lon="174.3951816"><ele>87.6</ele><time>2026-05-02T22:04:43.593Z</time></trkpt><trkpt lat="-36.7262983" lon="174.3952887"><ele>90.0</ele><time>2026-05-02T22:04:45.593Z</time></trkpt><trkpt lat="-36.7262915" lon="174.3953797"><ele>90.0</ele><time>2026-05-02T22:04:47.594Z</time></trkpt><trkpt lat="-36.7262434" lon="174.3954533"><ele>90.0</ele><time>2026-05-02T22:04:49.594Z</time></trkpt><trkpt lat="-36.7261876" lon="174.395524"><ele>90.0</ele><time>2026-05-02T22:04:51.594Z</time></trkpt><trkpt lat="-36.7261097" lon="174.3955885"><ele>90.0</ele><time>2026-05-02T22:04:53.594Z</time></trkpt><trkpt lat="-36.7260569" lon="174.3956315"><ele>90.0</ele><time>2026-05-02T22:04:54.593Z</time></trkpt><trkpt lat="-36.7259551" lon="174.3957153"><ele>90.0</ele><time>2026-05-02T22:04:56.593Z</time></trkpt><trkpt lat="-36.7258778" lon="174.3957759"><ele>92.33333333333333</ele><time>2026-05-02T22:04:58.592Z</time></trkpt><trkpt lat="-36.7258468" lon="174.395877"><ele>94.66666666666666</ele><time>2026-05-02T22:05:00.592Z</time></trkpt><trkpt lat="-36.7258063" lon="174.3959993"><ele>97.0</ele><time>2026-05-02T22:05:02.592Z</time></trkpt><trkpt lat="-36.7257914" lon="174.3961125"><ele>99.33333333333333</ele><time>2026-05-02T22:05:04.593Z</time></trkpt><trkpt lat="-36.7257802" lon="174.3961948"><ele>101.66666666666666</ele><time>2026-05-02T22:05:06.594Z</time></trkpt><trkpt lat="-36.7257162" lon="174.3961593"><ele>104.0</ele><time>2026-05-02T22:05:11.594Z</time></trkpt><trkpt lat="-36.725675" lon="174.396058"><ele>103.99999999999999</ele><time>2026-05-02T22:05:14.595Z</time></trkpt><trkpt lat="-36.7256421" lon="174.3959875"><ele>104.0</ele><time>2026-05-02T22:05:16.593Z</time></trkpt><trkpt lat="-36.7256211" lon="174.3958995"><ele>104.0</ele><time>2026-05-02T22:05:19.593Z</time></trkpt><trkpt lat="-36.7256438" lon="174.3958176"><ele>104.0</ele><time>2026-05-02T22:05:21.592Z</time></trkpt><trkpt lat="-36.7256651" lon="174.3957275"><ele>103.99999999999999</ele><time>2026-05-02T22:05:23.594Z</time></trkpt><trkpt lat="-36.7256589" lon="174.3956118"><ele>104.0</ele><time>2026-05-02T22:05:26.594Z</time></trkpt><trkpt lat="-36.7256682" lon="174.395488"><ele>104.16666666666666</ele><time>2026-05-02T22:05:29.594Z</time></trkpt><trkpt lat="-36.7257004" lon="174.3954041"><ele>104.33333333333333</ele><time>2026-05-02T22:05:31.593Z</time></trkpt><trkpt lat="-36.7257323" lon="174.395328"><ele>104.5</ele><time>2026-05-02T22:05:33.593Z</time></trkpt><trkpt lat="-36.7257744" lon="174.3952512"><ele>104.66666666666666</ele><time>2026-05-02T22:05:35.594Z</time></trkpt><trkpt lat="-36.7258305" lon="174.3951647"><ele>104.83333333333333</ele><time>2026-05-02T22:05:37.594Z</time></trkpt><trkpt lat="-36.7258738" lon="174.3950639"><ele>105.0</ele><time>2026-05-02T22:05:39.593Z</time></trkpt><trkpt lat="-36.7258986" lon="174.3949614"><ele>105.0</ele><time>2026-05-02T22:05:41.593Z</time></trkpt><trkpt lat="-36.7258951" lon="174.3948557"><ele>105.0</ele><time>2026-05-02T22:05:43.593Z</time></trkpt><trkpt lat="-36.7259026" lon="174.3947498"><ele>105.0</ele><time>2026-05-02T22:05:45.594Z</time></trkpt><trkpt lat="-36.7259243" lon="174.3946416"><ele>105.0</ele><time>2026-05-02T22:05:47.594Z</time></trkpt><trkpt lat="-36.7259043" lon="174.3945195"><ele>105.0</ele><time>2026-05-02T22:05:49.594Z</time></trkpt><trkpt lat="-36.7258788" lon="174.394426"><ele>105.0</ele><time>2026-05-02T22:05:51.594Z</time></trkpt><trkpt lat="-36.7258336" lon="174.3943059"><ele>105.16666666666667</ele><time>2026-05-02T22:05:53.592Z</time></trkpt><trkpt lat="-36.7257745" lon="174.394208"><ele>105.33333333333334</ele><time>2026-05-02T22:05:55.594Z</time></trkpt><trkpt lat="-36.7257212" lon="174.3941272"><ele>105.5</ele><time>2026-05-02T22:05:57.593Z</time></trkpt><trkpt lat="-36.7256981" lon="174.394019"><ele>105.66666666666667</ele><time>2026-05-02T22:06:00.594Z</time></trkpt><trkpt lat="-36.7256825" lon="174.3939303"><ele>105.83333333333334</ele><time>2026-05-02T22:06:02.593Z</time></trkpt><trkpt lat="-36.7256228" lon="174.3938528"><ele>106.0</ele><time>2026-05-02T22:06:04.594Z</time></trkpt><trkpt lat="-36.7255993" lon="174.3937748"><ele>105.50000000000001</ele><time>2026-05-02T22:06:06.593Z</time></trkpt><trkpt lat="-36.7256136" lon="174.3936821"><ele>105.0</ele><time>2026-05-02T22:06:08.594Z</time></trkpt><trkpt lat="-36.7256217" lon="174.3935711"><ele>104.5</ele><time>2026-05-02T22:06:10.594Z</time></trkpt><trkpt lat="-36.7256298" lon="174.393464"><ele>104.0</ele><time>2026-05-02T22:06:12.594Z</time></trkpt><trkpt lat="-36.7256188" lon="174.3933635"><ele>103.50000000000001</ele><time>2026-05-02T22:06:14.594Z</time></trkpt><trkpt lat="-36.7255998" lon="174.3932766"><ele>103.0</ele><time>2026-05-02T22:06:16.593Z</time></trkpt><trkpt lat="-36.7255775" lon="174.393195"><ele>103.00000000000001</ele><time>2026-05-02T22:06:53.593Z</time></trkpt><trkpt lat="-36.7255608" lon="174.3931061"><ele>103.0</ele><time>2026-05-02T22:06:57.593Z</time></trkpt><trkpt lat="-36.7255256" lon="174.3930071"><ele>103.0</ele><time>2026-05-02T22:07:00.594Z</time></trkpt><trkpt lat="-36.7254719" lon="174.3929344"><ele>103.0</ele><time>2026-05-02T22:07:03.593Z</time></trkpt><trkpt lat="-36.7253706" lon="174.392932"><ele>103.00000000000001</ele><time>2026-05-02T22:07:06.594Z</time></trkpt><trkpt lat="-36.725282" lon="174.3929381"><ele>103.0</ele><time>2026-05-02T22:07:09.595Z</time></trkpt><trkpt lat="-36.7252099" lon="174.3929308"><ele>103.16666666666667</ele><time>2026-05-02T22:07:12.594Z</time></trkpt><trkpt lat="-36.725144" lon="174.3929698"><ele>103.33333333333334</ele><time>2026-05-02T22:07:14.594Z</time></trkpt><trkpt lat="-36.7250766" lon="174.3930436"><ele>103.5</ele><time>2026-05-02T22:07:16.593Z</time></trkpt><trkpt lat="-36.7250457" lon="174.393137"><ele>103.66666666666666</ele><time>2026-05-02T22:07:18.594Z</time></trkpt><trkpt lat="-36.7250367" lon="174.3932164"><ele>103.83333333333333</ele><time>2026-05-02T22:07:19.593Z</time></trkpt><trkpt lat="-36.724995" lon="174.3933121"><ele>104.0</ele><time>2026-05-02T22:07:21.593Z</time></trkpt><trkpt lat="-36.7249266" lon="174.3933834"><ele>104.4</ele><time>2026-05-02T22:07:23.593Z</time></trkpt><trkpt lat="-36.7248415" lon="174.3934723"><ele>104.80000000000001</ele><time>2026-05-02T22:07:25.594Z</time></trkpt><trkpt lat="-36.7247893" lon="174.3935165"><ele>105.19999999999999</ele><time>2026-05-02T22:07:26.593Z</time></trkpt><trkpt lat="-36.724737" lon="174.3935967"><ele>105.6</ele><time>2026-05-02T22:07:28.593Z</time></trkpt><trkpt lat="-36.7246809" lon="174.3936445"><ele>106.0</ele><time>2026-05-02T22:07:29.594Z</time></trkpt><trkpt lat="-36.7245825" lon="174.393756"><ele>106.00000000000001</ele><time>2026-05-02T22:07:31.594Z</time></trkpt><trkpt lat="-36.7245279" lon="174.393808"><ele>106.0</ele><time>2026-05-02T22:07:33.593Z</time></trkpt><trkpt lat="-36.7244565" lon="174.3937872"><ele>106.0</ele><time>2026-05-02T22:07:35.594Z</time></trkpt><trkpt lat="-36.7243789" lon="174.393711"><ele>106.0</ele><time>2026-05-02T22:07:37.593Z</time></trkpt><trkpt lat="-36.7243238" lon="174.3936368"><ele>106.00000000000001</ele><time>2026-05-02T22:07:38.593Z</time></trkpt><trkpt lat="-36.7242786" lon="174.3935756"><ele>106.0</ele><time>2026-05-02T22:07:39.594Z</time></trkpt><trkpt lat="-36.7241928" lon="174.3934862"><ele>104.8</ele><time>2026-05-02T22:07:41.594Z</time></trkpt><trkpt lat="-36.7241267" lon="174.3934552"><ele>103.6</ele><time>2026-05-02T22:07:42.594Z</time></trkpt><trkpt lat="-36.7240247" lon="174.3934897"><ele>102.4</ele><time>2026-05-02T22:07:44.594Z</time></trkpt><trkpt lat="-36.7239243" lon="174.3935289"><ele>101.2</ele><time>2026-05-02T22:07:46.593Z</time></trkpt><trkpt lat="-36.723828" lon="174.3935605"><ele>100.0</ele><time>2026-05-02T22:07:48.593Z</time></trkpt><trkpt lat="-36.7237532" lon="174.3935323"><ele>100.00000000000001</ele><time>2026-05-02T22:07:50.593Z</time></trkpt><trkpt lat="-36.7236857" lon="174.3934818"><ele>100.0</ele><time>2026-05-02T22:07:52.594Z</time></trkpt><trkpt lat="-36.7236223" lon="174.3935168"><ele>100.0</ele><time>2026-05-02T22:07:54.593Z</time></trkpt><trkpt lat="-36.7235834" lon="174.3935907"><ele>100.0</ele><time>2026-05-02T22:07:56.593Z</time></trkpt><trkpt lat="-36.7235063" lon="174.3936544"><ele>100.00000000000001</ele><time>2026-05-02T22:07:59.594Z</time></trkpt><trkpt lat="-36.72346" lon="174.3937215"><ele>100.0</ele><time>2026-05-02T22:08:01.593Z</time></trkpt><trkpt lat="-36.7234136" lon="174.3936557"><ele>100.00000000000001</ele><time>2026-05-02T22:08:05.594Z</time></trkpt><trkpt lat="-36.7234607" lon="174.3935597"><ele>100.0</ele><time>2026-05-02T22:08:08.594Z</time></trkpt><trkpt lat="-36.7235079" lon="174.3934952"><ele>100.0</ele><time>2026-05-02T22:08:10.594Z</time></trkpt><trkpt lat="-36.723548" lon="174.3933805"><ele>100.0</ele><time>2026-05-02T22:08:13.593Z</time></trkpt><trkpt lat="-36.723586" lon="174.393308"><ele>100.00000000000001</ele><time>2026-05-02T22:08:15.594Z</time></trkpt><trkpt lat="-36.7235882" lon="174.3932127"><ele>100.0</ele><time>2026-05-02T22:08:18.593Z</time></trkpt><trkpt lat="-36.7236278" lon="174.3931071"><ele>100.00000000000001</ele><time>2026-05-02T22:08:21.593Z</time></trkpt><trkpt lat="-36.7236745" lon="174.3930188"><ele>100.0</ele><time>2026-05-02T22:08:24.594Z</time></trkpt><trkpt lat="-36.7237323" lon="174.392941"><ele>100.0</ele><time>2026-05-02T22:08:27.594Z</time></trkpt><trkpt lat="-36.7237617" lon="174.3928619"><ele>100.0</ele><time>2026-05-02T22:08:29.594Z</time></trkpt><trkpt lat="-36.7238143" lon="174.392788"><ele>100.00000000000001</ele><time>2026-05-02T22:08:32.593Z</time></trkpt><trkpt lat="-36.7238369" lon="174.3927055"><ele>100.0</ele><time>2026-05-02T22:08:36.593Z</time></trkpt><trkpt lat="-36.7237596" lon="174.3926743"><ele>101.14285714285715</ele><time>2026-05-02T22:08:42.594Z</time></trkpt><trkpt lat="-36.7238091" lon="174.3925993"><ele>102.28571428571429</ele><time>2026-05-02T22:08:47.592Z</time></trkpt><trkpt lat="-36.7237729" lon="174.3925278"><ele>103.42857142857143</ele><time>2026-05-02T22:08:52.594Z</time></trkpt><trkpt lat="-36.7237612" lon="174.3924374"><ele>104.57142857142858</ele><time>2026-05-02T22:08:59.593Z</time></trkpt><trkpt lat="-36.723822" lon="174.3923829"><ele>105.71428571428571</ele><time>2026-05-02T22:09:01.594Z</time></trkpt><trkpt lat="-36.7238709" lon="174.3923212"><ele>106.85714285714286</ele><time>2026-05-02T22:09:03.594Z</time></trkpt><trkpt lat="-36.7239158" lon="174.3922362"><ele>108.0</ele><time>2026-05-02T22:09:06.594Z</time></trkpt><trkpt lat="-36.7239739" lon="174.3921751"><ele>109.66666666666667</ele><time>2026-05-02T22:09:09.595Z</time></trkpt><trkpt lat="-36.7240175" lon="174.3920823"><ele>111.33333333333334</ele><time>2026-05-02T22:09:12.593Z</time></trkpt><trkpt lat="-36.724017" lon="174.3919974"><ele>113.0</ele><time>2026-05-02T22:09:15.594Z</time></trkpt><trkpt lat="-36.7239568" lon="174.3919718"><ele>114.66666666666667</ele><time>2026-05-02T22:09:19.594Z</time></trkpt><trkpt lat="-36.7238777" lon="174.3919686"><ele>116.33333333333334</ele><time>2026-05-02T22:09:22.594Z</time></trkpt><trkpt lat="-36.7238129" lon="174.3919115"><ele>118.0</ele><time>2026-05-02T22:09:25.592Z</time></trkpt><trkpt lat="-36.7237615" lon="174.3918398"><ele>118.0</ele><time>2026-05-02T22:09:28.594Z</time></trkpt><trkpt lat="-36.7237624" lon="174.3917482"><ele>118.0</ele><time>2026-05-02T22:09:31.593Z</time></trkpt><trkpt lat="-36.7238016" lon="174.3916804"><ele>118.0</ele><time>2026-05-02T22:09:34.593Z</time></trkpt><trkpt lat="-36.7238058" lon="174.3915764"><ele>118.0</ele><time>2026-05-02T22:09:38.593Z</time></trkpt><trkpt lat="-36.7238114" lon="174.3914886"><ele>118.0</ele><time>2026-05-02T22:09:41.594Z</time></trkpt><trkpt lat="-36.7238297" lon="174.3913962"><ele>118.0</ele><time>2026-05-02T22:09:45.594Z</time></trkpt><trkpt lat="-36.7238743" lon="174.3913339"><ele>118.0</ele><time>2026-05-02T22:09:49.593Z</time></trkpt><trkpt lat="-36.7239181" lon="174.3912707"><ele>119.16666666666667</ele><time>2026-05-02T22:09:52.593Z</time></trkpt><trkpt lat="-36.7239891" lon="174.3912248"><ele>120.33333333333334</ele><time>2026-05-02T22:09:55.594Z</time></trkpt><trkpt lat="-36.7240718" lon="174.3912224"><ele>121.5</ele><time>2026-05-02T22:09:58.594Z</time></trkpt><trkpt lat="-36.7241616" lon="174.3912025"><ele>122.66666666666666</ele><time>2026-05-02T22:10:01.593Z</time></trkpt><trkpt lat="-36.7242241" lon="174.3911669"><ele>123.83333333333333</ele><time>2026-05-02T22:10:03.593Z</time></trkpt><trkpt lat="-36.7242796" lon="174.3911288"><ele>125.0</ele><time>2026-05-02T22:10:05.593Z</time></trkpt><trkpt lat="-36.7243343" lon="174.3910703"><ele>124.99999999999999</ele><time>2026-05-02T22:10:07.593Z</time></trkpt><trkpt lat="-36.7243787" lon="174.3910121"><ele>125.0</ele><time>2026-05-02T22:10:09.594Z</time></trkpt><trkpt lat="-36.7244293" lon="174.3909521"><ele>125.0</ele><time>2026-05-02T22:10:11.593Z</time></trkpt><trkpt lat="-36.7244924" lon="174.3908928"><ele>125.0</ele><time>2026-05-02T22:10:13.593Z</time></trkpt><trkpt lat="-36.7245592" lon="174.3908101"><ele>124.99999999999999</ele><time>2026-05-02T22:10:15.593Z</time></trkpt><trkpt lat="-36.7246283" lon="174.3907285"><ele>125.0</ele><time>2026-05-02T22:10:17.593Z</time></trkpt><trkpt lat="-36.7246928" lon="174.3907239"><ele>123.71428571428571</ele><time>2026-05-02T22:10:18.594Z</time></trkpt><trkpt lat="-36.7247554" lon="174.3906875"><ele>122.42857142857144</ele><time>2026-05-02T22:10:20.593Z</time></trkpt><trkpt lat="-36.7248223" lon="174.3906827"><ele>121.14285714285715</ele><time>2026-05-02T22:10:22.593Z</time></trkpt><trkpt lat="-36.7248476" lon="174.3907605"><ele>119.85714285714286</ele><time>2026-05-02T22:10:25.593Z</time></trkpt><trkpt lat="-36.7248457" lon="174.3908696"><ele>118.57142857142858</ele><time>2026-05-02T22:10:28.594Z</time></trkpt><trkpt lat="-36.7248342" lon="174.3909492"><ele>117.2857142857143</ele><time>2026-05-02T22:10:30.593Z</time></trkpt><trkpt lat="-36.7247758" lon="174.3910178"><ele>116.00000000000001</ele><time>2026-05-02T22:10:32.593Z</time></trkpt><trkpt lat="-36.724706" lon="174.391048"><ele>115.99999999999999</ele><time>2026-05-02T22:10:34.593Z</time></trkpt><trkpt lat="-36.7246279" lon="174.3910522"><ele>116.0</ele><time>2026-05-02T22:10:36.594Z</time></trkpt><trkpt lat="-36.7245489" lon="174.3910589"><ele>116.0</ele><time>2026-05-02T22:10:38.593Z</time></trkpt><trkpt lat="-36.7244731" lon="174.3910886"><ele>116.0</ele><time>2026-05-02T22:10:40.594Z</time></trkpt><trkpt lat="-36.7244208" lon="174.3911601"><ele>115.99999999999999</ele><time>2026-05-02T22:10:43.594Z</time></trkpt><trkpt lat="-36.7243694" lon="174.3912269"><ele>116.0</ele><time>2026-05-02T22:10:46.594Z</time></trkpt><trkpt lat="-36.7243053" lon="174.3912623"><ele>116.4</ele><time>2026-05-02T22:10:49.593Z</time></trkpt><trkpt lat="-36.7242923" lon="174.3913704"><ele>116.8</ele><time>2026-05-02T22:10:52.593Z</time></trkpt><trkpt lat="-36.7243194" lon="174.3914777"><ele>117.20000000000002</ele><time>2026-05-02T22:10:54.594Z</time></trkpt><trkpt lat="-36.7243527" lon="174.3916044"><ele>117.60000000000001</ele><time>2026-05-02T22:10:56.594Z</time></trkpt><trkpt lat="-36.7243461" lon="174.3917244"><ele>118.0</ele><time>2026-05-02T22:10:58.594Z</time></trkpt><trkpt lat="-36.7243305" lon="174.3918173"><ele>118.0</ele><time>2026-05-02T22:11:00.594Z</time></trkpt><trkpt lat="-36.7242686" lon="174.3919031"><ele>118.00000000000001</ele><time>2026-05-02T22:11:02.593Z</time></trkpt><trkpt lat="-36.7241885" lon="174.3919724"><ele>118.00000000000001</ele><time>2026-05-02T22:11:04.594Z</time></trkpt><trkpt lat="-36.7241286" lon="174.3920327"><ele>118.0</ele><time>2026-05-02T22:11:06.594Z</time></trkpt><trkpt lat="-36.7241797" lon="174.3921307"><ele>118.0</ele><time>2026-05-02T22:11:10.594Z</time></trkpt><trkpt lat="-36.7242675" lon="174.3921087"><ele>118.00000000000001</ele><time>2026-05-02T22:11:12.593Z</time></trkpt><trkpt lat="-36.7243131" lon="174.3920514"><ele>118.0</ele><time>2026-05-02T22:11:14.593Z</time></trkpt><trkpt lat="-36.7243508" lon="174.3919736"><ele>118.0</ele><time>2026-05-02T22:11:16.593Z</time></trkpt><trkpt lat="-36.7243799" lon="174.3918856"><ele>118.0</ele><time>2026-05-02T22:11:18.594Z</time></trkpt><trkpt lat="-36.7244326" lon="174.391799"><ele>118.00000000000001</ele><time>2026-05-02T22:11:20.593Z</time></trkpt><trkpt lat="-36.7245047" lon="174.391706"><ele>118.0</ele><time>2026-05-02T22:11:22.595Z</time></trkpt><trkpt lat="-36.7245643" lon="174.3916197"><ele>117.66666666666667</ele><time>2026-05-02T22:11:24.593Z</time></trkpt><trkpt lat="-36.7246059" lon="174.3915298"><ele>117.33333333333334</ele><time>2026-05-02T22:11:26.593Z</time></trkpt><trkpt lat="-36.7246431" lon="174.3914215"><ele>117.0</ele><time>2026-05-02T22:11:29.594Z</time></trkpt><trkpt lat="-36.724693" lon="174.3913734"><ele>116.66666666666666</ele><time>2026-05-02T22:11:31.594Z</time></trkpt><trkpt lat="-36.7247608" lon="174.3913295"><ele>116.33333333333333</ele><time>2026-05-02T22:11:32.593Z</time></trkpt><trkpt lat="-36.7248202" lon="174.3912859"><ele>116.0</ele><time>2026-05-02T22:11:34.593Z</time></trkpt><trkpt lat="-36.7248834" lon="174.391234"><ele>115.99999999999999</ele><time>2026-05-02T22:11:36.594Z</time></trkpt><trkpt lat="-36.7249416" lon="174.3911727"><ele>116.0</ele><time>2026-05-02T22:11:38.595Z</time></trkpt><trkpt lat="-36.7250483" lon="174.3912126"><ele>116.0</ele><time>2026-05-02T22:11:41.593Z</time></trkpt><trkpt lat="-36.7251179" lon="174.3912076"><ele>116.0</ele><time>2026-05-02T22:11:43.594Z</time></trkpt><trkpt lat="-36.7251687" lon="174.3910793"><ele>115.99999999999999</ele><time>2026-05-02T22:11:45.593Z</time></trkpt><trkpt lat="-36.7252154" lon="174.3910254"><ele>116.0</ele><time>2026-05-02T22:11:46.594Z</time></trkpt><trkpt lat="-36.7253132" lon="174.390985"><ele>112.4</ele><time>2026-05-02T22:11:48.594Z</time></trkpt><trkpt lat="-36.7253762" lon="174.3910128"><ele>108.8</ele><time>2026-05-02T22:11:49.594Z</time></trkpt><trkpt lat="-36.7254712" lon="174.3910527"><ele>105.2</ele><time>2026-05-02T22:11:51.594Z</time></trkpt><trkpt lat="-36.7255594" lon="174.391124"><ele>101.60000000000001</ele><time>2026-05-02T22:11:54.594Z</time></trkpt><trkpt lat="-36.725564" lon="174.3912364"><ele>98.0</ele><time>2026-05-02T22:11:57.593Z</time></trkpt><trkpt lat="-36.7255108" lon="174.391328"><ele>98.33333333333333</ele><time>2026-05-02T22:12:00.594Z</time></trkpt><trkpt lat="-36.7254762" lon="174.391401"><ele>98.66666666666666</ele><time>2026-05-02T22:12:02.594Z</time></trkpt><trkpt lat="-36.7254368" lon="174.3914811"><ele>99.0</ele><time>2026-05-02T22:12:04.593Z</time></trkpt><trkpt lat="-36.7253284" lon="174.3915279"><ele>99.33333333333334</ele><time>2026-05-02T22:12:06.594Z</time></trkpt><trkpt lat="-36.7252472" lon="174.3915818"><ele>99.66666666666667</ele><time>2026-05-02T22:12:07.594Z</time></trkpt><trkpt lat="-36.7251846" lon="174.3916245"><ele>100.0</ele><time>2026-05-02T22:12:08.593Z</time></trkpt><trkpt lat="-36.7251211" lon="174.3916998"><ele>100.57142857142858</ele><time>2026-05-02T22:12:10.593Z</time></trkpt><trkpt lat="-36.7251377" lon="174.391784"><ele>101.14285714285714</ele><time>2026-05-02T22:12:11.593Z</time></trkpt><trkpt lat="-36.7251435" lon="174.3918638"><ele>101.71428571428572</ele><time>2026-05-02T22:12:12.594Z</time></trkpt><trkpt lat="-36.7251502" lon="174.3919683"><ele>102.28571428571429</ele><time>2026-05-02T22:12:13.593Z</time></trkpt><trkpt lat="-36.725161" lon="174.392062"><ele>102.85714285714286</ele><time>2026-05-02T22:12:14.593Z</time></trkpt><trkpt lat="-36.7251779" lon="174.3921394"><ele>103.42857142857143</ele><time>2026-05-02T22:12:15.592Z</time></trkpt><trkpt lat="-36.7252052" lon="174.3922105"><ele>104.0</ele><time>2026-05-02T22:12:16.594Z</time></trkpt><trkpt lat="-36.7251736" lon="174.3922894"><ele>103.99999999999999</ele><time>2026-05-02T22:12:18.594Z</time></trkpt><trkpt lat="-36.725128" lon="174.3923487"><ele>104.0</ele><time>2026-05-02T22:12:20.594Z</time></trkpt><trkpt lat="-36.7251023" lon="174.3924285"><ele>104.0</ele><time>2026-05-02T22:12:22.594Z</time></trkpt><trkpt lat="-36.7250963" lon="174.392512"><ele>104.0</ele><time>2026-05-02T22:12:24.593Z</time></trkpt><trkpt lat="-36.7250552" lon="174.3925716"><ele>103.99999999999999</ele><time>2026-05-02T22:12:26.593Z</time></trkpt><trkpt lat="-36.7249962" lon="174.3926226"><ele>104.0</ele><time>2026-05-02T22:12:28.593Z</time></trkpt><trkpt lat="-36.7248663" lon="174.3926657"><ele>103.99999999999999</ele><time>2026-05-02T22:12:30.594Z</time></trkpt><trkpt lat="-36.7247667" lon="174.3926974"><ele>104.0</ele><time>2026-05-02T22:12:32.592Z</time></trkpt><trkpt lat="-36.724668" lon="174.3927584"><ele>104.0</ele><time>2026-05-02T22:12:34.594Z</time></trkpt><trkpt lat="-36.7246683" lon="174.3928543"><ele>104.0</ele><time>2026-05-02T22:12:37.594Z</time></trkpt><trkpt lat="-36.7247246" lon="174.3928959"><ele>103.99999999999999</ele><time>2026-05-02T22:12:40.594Z</time></trkpt><trkpt lat="-36.7248159" lon="174.3928755"><ele>104.0</ele><time>2026-05-02T22:12:43.594Z</time></trkpt><trkpt lat="-36.7248904" lon="174.3928414"><ele>103.99999999999999</ele><time>2026-05-02T22:12:45.594Z</time></trkpt><trkpt lat="-36.7249569" lon="174.39281"><ele>104.0</ele><time>2026-05-02T22:12:47.593Z</time></trkpt><trkpt lat="-36.7250201" lon="174.3927736"><ele>104.0</ele><time>2026-05-02T22:12:49.594Z</time></trkpt><trkpt lat="-36.725081" lon="174.392738"><ele>104.0</ele><time>2026-05-02T22:12:51.594Z</time></trkpt><trkpt lat="-36.7251653" lon="174.3927251"><ele>103.99999999999999</ele><time>2026-05-02T22:12:53.593Z</time></trkpt><trkpt lat="-36.7252579" lon="174.3927152"><ele>104.0</ele><time>2026-05-02T22:12:56.594Z</time></trkpt><trkpt lat="-36.7253336" lon="174.3927765"><ele>103.83333333333333</ele><time>2026-05-02T22:12:59.593Z</time></trkpt><trkpt lat="-36.7253892" lon="174.392828"><ele>103.66666666666666</ele><time>2026-05-02T22:13:01.593Z</time></trkpt><trkpt lat="-36.7254425" lon="174.3928721"><ele>103.5</ele><time>2026-05-02T22:13:03.593Z</time></trkpt><trkpt lat="-36.7254954" lon="174.3929206"><ele>103.33333333333334</ele><time>2026-05-02T22:13:05.594Z</time></trkpt><trkpt lat="-36.7255307" lon="174.3930059"><ele>103.16666666666667</ele><time>2026-05-02T22:13:08.594Z</time></trkpt><trkpt lat="-36.7255367" lon="174.393092"><ele>103.0</ele><time>2026-05-02T22:13:11.593Z</time></trkpt><trkpt lat="-36.7255662" lon="174.3929534"><ele>102.4</ele><time>2026-05-02T22:15:37.594Z</time></trkpt><trkpt lat="-36.7256041" lon="174.3928116"><ele>101.80000000000001</ele><time>2026-05-02T22:15:39.594Z</time></trkpt><trkpt lat="-36.7256427" lon="174.3927463"><ele>101.2</ele><time>2026-05-02T22:15:40.595Z</time></trkpt><trkpt lat="-36.725761" lon="174.3926007"><ele>100.6</ele><time>2026-05-02T22:15:42.593Z</time></trkpt><trkpt lat="-36.7257657" lon="174.3925071"><ele>100.0</ele><time>2026-05-02T22:15:44.593Z</time></trkpt><trkpt lat="-36.725759" lon="174.3924138"><ele>100.00000000000001</ele><time>2026-05-02T22:15:47.594Z</time></trkpt><trkpt lat="-36.7257749" lon="174.3923331"><ele>100.0</ele><time>2026-05-02T22:15:49.593Z</time></trkpt><trkpt lat="-36.7258267" lon="174.3922515"><ele>100.0</ele><time>2026-05-02T22:15:51.594Z</time></trkpt><trkpt lat="-36.7258947" lon="174.3922014"><ele>100.0</ele><time>2026-05-02T22:15:52.595Z</time></trkpt><trkpt lat="-36.7259525" lon="174.3921076"><ele>100.00000000000001</ele><time>2026-05-02T22:15:54.593Z</time></trkpt><trkpt lat="-36.7260385" lon="174.3920338"><ele>100.0</ele><time>2026-05-02T22:15:56.594Z</time></trkpt><trkpt lat="-36.7261128" lon="174.3919823"><ele>97.16666666666667</ele><time>2026-05-02T22:15:58.594Z</time></trkpt><trkpt lat="-36.7261922" lon="174.3919068"><ele>94.33333333333334</ele><time>2026-05-02T22:16:00.593Z</time></trkpt><trkpt lat="-36.7262501" lon="174.391817"><ele>91.5</ele><time>2026-05-02T22:16:02.594Z</time></trkpt><trkpt lat="-36.7262771" lon="174.3917111"><ele>88.66666666666667</ele><time>2026-05-02T22:16:04.593Z</time></trkpt><trkpt lat="-36.7262812" lon="174.3916276"><ele>85.83333333333334</ele><time>2026-05-02T22:16:06.594Z</time></trkpt><trkpt lat="-36.7263264" lon="174.3915244"><ele>83.0</ele><time>2026-05-02T22:16:09.593Z</time></trkpt><trkpt lat="-36.7263507" lon="174.3914248"><ele>81.83333333333334</ele><time>2026-05-02T22:16:11.595Z</time></trkpt><trkpt lat="-36.7263669" lon="174.3913279"><ele>80.66666666666667</ele><time>2026-05-02T22:16:13.592Z</time></trkpt><trkpt lat="-36.7263602" lon="174.3912451"><ele>79.5</ele><time>2026-05-02T22:16:15.594Z</time></trkpt><trkpt lat="-36.7263433" lon="174.3911498"><ele>78.33333333333333</ele><time>2026-05-02T22:16:17.594Z</time></trkpt><trkpt lat="-36.7263225" lon="174.3910622"><ele>77.16666666666666</ele><time>2026-05-02T22:16:19.594Z</time></trkpt><trkpt lat="-36.7262549" lon="174.3909778"><ele>76.0</ele><time>2026-05-02T22:16:22.594Z</time></trkpt><trkpt lat="-36.7262378" lon="174.3908964"><ele>76.0</ele><time>2026-05-02T22:16:23.594Z</time></trkpt><trkpt lat="-36.726254" lon="174.39082"><ele>76.0</ele><time>2026-05-02T22:16:24.594Z</time></trkpt><trkpt lat="-36.7262365" lon="174.3906913"><ele>76.0</ele><time>2026-05-02T22:16:26.594Z</time></trkpt><trkpt lat="-36.7262688" lon="174.3905929"><ele>76.0</ele><time>2026-05-02T22:16:28.594Z</time></trkpt><trkpt lat="-36.7263344" lon="174.390549"><ele>76.0</ele><time>2026-05-02T22:16:30.594Z</time></trkpt><trkpt lat="-36.7264325" lon="174.3905185"><ele>76.0</ele><time>2026-05-02T22:16:32.594Z</time></trkpt><trkpt lat="-36.7265551" lon="174.3905371"><ele>76.0</ele><time>2026-05-02T22:16:34.594Z</time></trkpt><trkpt lat="-36.7266343" lon="174.3905426"><ele>76.0</ele><time>2026-05-02T22:16:36.593Z</time></trkpt><trkpt lat="-36.7267219" lon="174.3904949"><ele>76.0</ele><time>2026-05-02T22:16:38.594Z</time></trkpt><trkpt lat="-36.7267885" lon="174.3904643"><ele>76.0</ele><time>2026-05-02T22:16:40.594Z</time></trkpt><trkpt lat="-36.7268757" lon="174.3904169"><ele>76.0</ele><time>2026-05-02T22:16:42.595Z</time></trkpt><trkpt lat="-36.7269738" lon="174.390388"><ele>76.0</ele><time>2026-05-02T22:16:44.593Z</time></trkpt><trkpt lat="-36.7270928" lon="174.3904094"><ele>70.2</ele><time>2026-05-02T22:16:46.595Z</time></trkpt><trkpt lat="-36.7271974" lon="174.3904503"><ele>64.39999999999999</ele><time>2026-05-02T22:16:48.593Z</time></trkpt><trkpt lat="-36.727294" lon="174.390499"><ele>58.6</ele><time>2026-05-02T22:16:50.594Z</time></trkpt><trkpt lat="-36.7273712" lon="174.3904588"><ele>52.8</ele><time>2026-05-02T22:16:52.593Z</time></trkpt><trkpt lat="-36.7274628" lon="174.3904054"><ele>47.0</ele><time>2026-05-02T22:16:54.594Z</time></trkpt><trkpt lat="-36.7275555" lon="174.3903456"><ele>47.0</ele><time>2026-05-02T22:16:56.594Z</time></trkpt><trkpt lat="-36.7276629" lon="174.3903012"><ele>47.0</ele><time>2026-05-02T22:16:58.594Z</time></trkpt><trkpt lat="-36.7277656" lon="174.3902622"><ele>47.0</ele><time>2026-05-02T22:17:00.594Z</time></trkpt><trkpt lat="-36.727863" lon="174.3901877"><ele>47.0</ele><time>2026-05-02T22:17:02.595Z</time></trkpt><trkpt lat="-36.7279123" lon="174.3901288"><ele>47.0</ele><time>2026-05-02T22:17:03.593Z</time></trkpt><trkpt lat="-36.7279702" lon="174.3900895"><ele>45.6</ele><time>2026-05-02T22:17:04.594Z</time></trkpt><trkpt lat="-36.7280563" lon="174.3900076"><ele>44.2</ele><time>2026-05-02T22:17:06.592Z</time></trkpt><trkpt lat="-36.7280944" lon="174.3899364"><ele>42.8</ele><time>2026-05-02T22:17:07.594Z</time></trkpt><trkpt lat="-36.7281266" lon="174.3898104"><ele>41.4</ele><time>2026-05-02T22:17:09.593Z</time></trkpt><trkpt lat="-36.7281131" lon="174.3897307"><ele>40.0</ele><time>2026-05-02T22:17:10.594Z</time></trkpt><trkpt lat="-36.7280352" lon="174.389618"><ele>37.6</ele><time>2026-05-02T22:17:12.594Z</time></trkpt><trkpt lat="-36.727989" lon="174.3895361"><ele>35.2</ele><time>2026-05-02T22:17:14.594Z</time></trkpt><trkpt lat="-36.7279249" lon="174.3893807"><ele>32.8</ele><time>2026-05-02T22:17:16.593Z</time></trkpt><trkpt lat="-36.7278525" lon="174.3892633"><ele>30.4</ele><time>2026-05-02T22:17:18.594Z</time></trkpt><trkpt lat="-36.7278844" lon="174.3891577"><ele>28.0</ele><time>2026-05-02T22:17:20.594Z</time></trkpt><trkpt lat="-36.7279675" lon="174.3890764"><ele>28.0</ele><time>2026-05-02T22:17:22.593Z</time></trkpt><trkpt lat="-36.7280466" lon="174.3890316"><ele>27.999999999999996</ele><time>2026-05-02T22:17:24.594Z</time></trkpt><trkpt lat="-36.7281228" lon="174.3890069"><ele>27.999999999999996</ele><time>2026-05-02T22:17:26.594Z</time></trkpt><trkpt lat="-36.7282413" lon="174.3889791"><ele>28.0</ele><time>2026-05-02T22:17:29.594Z</time></trkpt><trkpt lat="-36.7283394" lon="174.388917"><ele>28.0</ele><time>2026-05-02T22:17:31.594Z</time></trkpt><trkpt lat="-36.7284391" lon="174.3888201"><ele>27.166666666666668</ele><time>2026-05-02T22:17:33.594Z</time></trkpt><trkpt lat="-36.7285183" lon="174.3887126"><ele>26.333333333333336</ele><time>2026-05-02T22:17:35.594Z</time></trkpt><trkpt lat="-36.7285744" lon="174.3886638"><ele>25.5</ele><time>2026-05-02T22:17:36.593Z</time></trkpt><trkpt lat="-36.728653" lon="174.3886674"><ele>24.666666666666668</ele><time>2026-05-02T22:17:38.594Z</time></trkpt><trkpt lat="-36.7287136" lon="174.3887326"><ele>23.833333333333336</ele><time>2026-05-02T22:17:40.593Z</time></trkpt><trkpt lat="-36.7287847" lon="174.3887758"><ele>23.0</ele><time>2026-05-02T22:17:42.594Z</time></trkpt><trkpt lat="-36.7288728" lon="174.3887695"><ele>22.666666666666668</ele><time>2026-05-02T22:17:45.593Z</time></trkpt><trkpt lat="-36.7289677" lon="174.3887736"><ele>22.333333333333336</ele><time>2026-05-02T22:17:48.594Z</time></trkpt><trkpt lat="-36.7290155" lon="174.3888256"><ele>22.0</ele><time>2026-05-02T22:17:50.594Z</time></trkpt><trkpt lat="-36.7290787" lon="174.3888382"><ele>21.666666666666668</ele><time>2026-05-02T22:17:53.594Z</time></trkpt><trkpt lat="-36.7291447" lon="174.3887715"><ele>21.333333333333332</ele><time>2026-05-02T22:17:56.594Z</time></trkpt><trkpt lat="-36.7292513" lon="174.3887255"><ele>21.0</ele><time>2026-05-02T22:17:59.594Z</time></trkpt><trkpt lat="-36.7293417" lon="174.3887022"><ele>21.5</ele><time>2026-05-02T22:18:01.595Z</time></trkpt><trkpt lat="-36.729446" lon="174.3886831"><ele>22.0</ele><time>2026-05-02T22:18:04.594Z</time></trkpt><trkpt lat="-36.7295183" lon="174.3886971"><ele>22.5</ele><time>2026-05-02T22:18:06.593Z</time></trkpt><trkpt lat="-36.7295854" lon="174.3887038"><ele>23.0</ele><time>2026-05-02T22:18:08.594Z</time></trkpt><trkpt lat="-36.7296484" lon="174.3886688"><ele>23.5</ele><time>2026-05-02T22:18:10.593Z</time></trkpt><trkpt lat="-36.729741" lon="174.3886913"><ele>24.0</ele><time>2026-05-02T22:18:13.594Z</time></trkpt><trkpt lat="-36.7298108" lon="174.3887424"><ele>24.0</ele><time>2026-05-02T22:18:15.593Z</time></trkpt><trkpt lat="-36.7298858" lon="174.3887964"><ele>24.0</ele><time>2026-05-02T22:18:17.594Z</time></trkpt><trkpt lat="-36.7299682" lon="174.3888445"><ele>24.0</ele><time>2026-05-02T22:18:19.593Z</time></trkpt><trkpt lat="-36.7300633" lon="174.3888995"><ele>24.0</ele><time>2026-05-02T22:18:21.594Z</time></trkpt><trkpt lat="-36.7301599" lon="174.38896"><ele>24.0</ele><time>2026-05-02T22:18:23.594Z</time></trkpt><trkpt lat="-36.7302605" lon="174.3890169"><ele>24.2</ele><time>2026-05-02T22:18:25.593Z</time></trkpt><trkpt lat="-36.7303754" lon="174.3890599"><ele>24.4</ele><time>2026-05-02T22:18:27.594Z</time></trkpt><trkpt lat="-36.7304588" lon="174.3891338"><ele>24.6</ele><time>2026-05-02T22:18:29.594Z</time></trkpt><trkpt lat="-36.7305043" lon="174.3892207"><ele>24.8</ele><time>2026-05-02T22:18:31.594Z</time></trkpt><trkpt lat="-36.7305761" lon="174.3892973"><ele>25.0</ele><time>2026-05-02T22:18:33.595Z</time></trkpt><trkpt lat="-36.7306452" lon="174.3892941"><ele>25.0</ele><time>2026-05-02T22:18:35.593Z</time></trkpt><trkpt lat="-36.7307388" lon="174.3893024"><ele>25.0</ele><time>2026-05-02T22:18:37.595Z</time></trkpt><trkpt lat="-36.7308285" lon="174.3893453"><ele>25.0</ele><time>2026-05-02T22:18:39.593Z</time></trkpt><trkpt lat="-36.7309283" lon="174.3893911"><ele>25.0</ele><time>2026-05-02T22:18:41.594Z</time></trkpt><trkpt lat="-36.7310202" lon="174.3894417"><ele>25.0</ele><time>2026-05-02T22:18:43.594Z</time></trkpt><trkpt lat="-36.7311073" lon="174.389496"><ele>25.2</ele><time>2026-05-02T22:18:45.594Z</time></trkpt><trkpt lat="-36.7311981" lon="174.38954"><ele>25.4</ele><time>2026-05-02T22:18:47.593Z</time></trkpt><trkpt lat="-36.7312791" lon="174.3895702"><ele>25.6</ele><time>2026-05-02T22:18:49.593Z</time></trkpt><trkpt lat="-36.7313649" lon="174.3896183"><ele>25.8</ele><time>2026-05-02T22:18:51.593Z</time></trkpt><trkpt lat="-36.7314475" lon="174.3896656"><ele>26.0</ele><time>2026-05-02T22:18:53.594Z</time></trkpt><trkpt lat="-36.7315204" lon="174.3897178"><ele>25.8</ele><time>2026-05-02T22:18:55.593Z</time></trkpt><trkpt lat="-36.7315955" lon="174.3897741"><ele>25.6</ele><time>2026-05-02T22:18:57.593Z</time></trkpt><trkpt lat="-36.7316796" lon="174.3898405"><ele>25.4</ele><time>2026-05-02T22:18:59.594Z</time></trkpt><trkpt lat="-36.7317562" lon="174.3898961"><ele>25.2</ele><time>2026-05-02T22:19:01.593Z</time></trkpt><trkpt lat="-36.7318445" lon="174.3899484"><ele>25.0</ele><time>2026-05-02T22:19:03.594Z</time></trkpt><trkpt lat="-36.7319143" lon="174.3900191"><ele>25.000000000000004</ele><time>2026-05-02T22:19:05.593Z</time></trkpt><trkpt lat="-36.7319914" lon="174.3900857"><ele>25.0</ele><time>2026-05-02T22:19:07.594Z</time></trkpt><trkpt lat="-36.7320651" lon="174.3901449"><ele>25.0</ele><time>2026-05-02T22:19:09.594Z</time></trkpt><trkpt lat="-36.7321265" lon="174.3901941"><ele>25.0</ele><time>2026-05-02T22:19:11.594Z</time></trkpt><trkpt lat="-36.7322026" lon="174.3902388"><ele>25.000000000000004</ele><time>2026-05-02T22:19:13.594Z</time></trkpt><trkpt lat="-36.7322782" lon="174.3903097"><ele>25.0</ele><time>2026-05-02T22:19:15.593Z</time></trkpt><trkpt lat="-36.7323414" lon="174.390383"><ele>25.0</ele><time>2026-05-02T22:19:17.593Z</time></trkpt><trkpt lat="-36.7323993" lon="174.390458"><ele>25.0</ele><time>2026-05-02T22:19:19.594Z</time></trkpt><trkpt lat="-36.7324646" lon="174.3905156"><ele>25.0</ele><time>2026-05-02T22:19:21.594Z</time></trkpt><trkpt lat="-36.7325334" lon="174.3905755"><ele>25.0</ele><time>2026-05-02T22:19:23.595Z</time></trkpt><trkpt lat="-36.7325639" lon="174.390687"><ele>25.0</ele><time>2026-05-02T22:19:25.593Z</time></trkpt><trkpt lat="-36.7325887" lon="174.3908206"><ele>24.833333333333336</ele><time>2026-05-02T22:19:27.593Z</time></trkpt><trkpt lat="-36.7325784" lon="174.3909353"><ele>24.666666666666668</ele><time>2026-05-02T22:19:29.593Z</time></trkpt><trkpt lat="-36.7325431" lon="174.391021"><ele>24.5</ele><time>2026-05-02T22:19:31.595Z</time></trkpt><trkpt lat="-36.7325038" lon="174.3911212"><ele>24.333333333333336</ele><time>2026-05-02T22:19:34.593Z</time></trkpt><trkpt lat="-36.7324649" lon="174.3912057"><ele>24.166666666666668</ele><time>2026-05-02T22:19:37.593Z</time></trkpt><trkpt lat="-36.7324133" lon="174.3912578"><ele>24.0</ele><time>2026-05-02T22:19:41.594Z</time></trkpt><trkpt lat="-36.7323875" lon="174.3913392"><ele>24.5</ele><time>2026-05-02T22:20:32.595Z</time></trkpt><trkpt lat="-36.7323145" lon="174.3914154"><ele>25.0</ele><time>2026-05-02T22:20:35.594Z</time></trkpt><trkpt lat="-36.7322597" lon="174.3914619"><ele>25.5</ele><time>2026-05-02T22:20:37.594Z</time></trkpt><trkpt lat="-36.7321901" lon="174.391515"><ele>26.0</ele><time>2026-05-02T22:20:40.594Z</time></trkpt><trkpt lat="-36.7321113" lon="174.3915256"><ele>26.5</ele><time>2026-05-02T22:20:43.593Z</time></trkpt><trkpt lat="-36.7320138" lon="174.3915214"><ele>27.0</ele><time>2026-05-02T22:20:45.594Z</time></trkpt><trkpt lat="-36.7319196" lon="174.3915261"><ele>27.666666666666668</ele><time>2026-05-02T22:20:47.594Z</time></trkpt><trkpt lat="-36.7318236" lon="174.3915311"><ele>28.333333333333336</ele><time>2026-05-02T22:20:49.593Z</time></trkpt><trkpt lat="-36.7317157" lon="174.3915235"><ele>29.0</ele><time>2026-05-02T22:20:51.595Z</time></trkpt><trkpt lat="-36.7316204" lon="174.3915429"><ele>29.666666666666668</ele><time>2026-05-02T22:20:53.594Z</time></trkpt><trkpt lat="-36.7315586" lon="174.3915823"><ele>30.333333333333336</ele><time>2026-05-02T22:20:55.595Z</time></trkpt><trkpt lat="-36.7315147" lon="174.3916432"><ele>31.0</ele><time>2026-05-02T22:20:57.594Z</time></trkpt><trkpt lat="-36.7315699" lon="174.3917005"><ele>31.0</ele><time>2026-05-02T22:20:59.593Z</time></trkpt><trkpt lat="-36.7316119" lon="174.3917631"><ele>31.000000000000004</ele><time>2026-05-02T22:21:02.594Z</time></trkpt><trkpt lat="-36.731555" lon="174.3918167"><ele>31.0</ele><time>2026-05-02T22:21:05.593Z</time></trkpt><trkpt lat="-36.7315051" lon="174.3918923"><ele>31.0</ele><time>2026-05-02T22:21:07.594Z</time></trkpt><trkpt lat="-36.7314589" lon="174.3919571"><ele>31.000000000000004</ele><time>2026-05-02T22:21:09.593Z</time></trkpt><trkpt lat="-36.7313907" lon="174.3919761"><ele>31.0</ele><time>2026-05-02T22:21:11.593Z</time></trkpt><trkpt lat="-36.7313122" lon="174.3919202"><ele>31.0</ele><time>2026-05-02T22:21:13.593Z</time></trkpt><trkpt lat="-36.7312253" lon="174.3918635"><ele>31.000000000000004</ele><time>2026-05-02T22:21:15.593Z</time></trkpt><trkpt lat="-36.7311471" lon="174.3918282"><ele>31.0</ele><time>2026-05-02T22:21:17.593Z</time></trkpt><trkpt lat="-36.7310651" lon="174.3917958"><ele>31.0</ele><time>2026-05-02T22:21:20.594Z</time></trkpt><trkpt lat="-36.7310015" lon="174.3918444"><ele>31.0</ele><time>2026-05-02T22:21:23.593Z</time></trkpt><trkpt lat="-36.7309827" lon="174.3919262"><ele>31.000000000000004</ele><time>2026-05-02T22:21:26.592Z</time></trkpt><trkpt lat="-36.7309726" lon="174.3920229"><ele>31.0</ele><time>2026-05-02T22:21:31.593Z</time></trkpt><trkpt lat="-36.7309527" lon="174.392143"><ele>31.42857142857143</ele><time>2026-05-02T22:21:35.594Z</time></trkpt><trkpt lat="-36.7309424" lon="174.3922384"><ele>31.85714285714286</ele><time>2026-05-02T22:21:37.592Z</time></trkpt><trkpt lat="-36.7309498" lon="174.3923172"><ele>32.285714285714285</ele><time>2026-05-02T22:21:39.594Z</time></trkpt><trkpt lat="-36.7309408" lon="174.3923976"><ele>32.714285714285715</ele><time>2026-05-02T22:21:42.594Z</time></trkpt><trkpt lat="-36.7309052" lon="174.392307"><ele>33.14285714285714</ele><time>2026-05-02T22:21:46.594Z</time></trkpt><trkpt lat="-36.7308907" lon="174.3922291"><ele>33.57142857142857</ele><time>2026-05-02T22:21:48.594Z</time></trkpt><trkpt lat="-36.7308531" lon="174.3921288"><ele>34.0</ele><time>2026-05-02T22:21:50.593Z</time></trkpt><trkpt lat="-36.7307935" lon="174.3920801"><ele>33.99999999999999</ele><time>2026-05-02T22:21:53.593Z</time></trkpt><trkpt lat="-36.7307314" lon="174.3920442"><ele>34.0</ele><time>2026-05-02T22:21:55.593Z</time></trkpt><trkpt lat="-36.7306534" lon="174.3920362"><ele>34.0</ele><time>2026-05-02T22:21:57.593Z</time></trkpt><trkpt lat="-36.7305821" lon="174.3920353"><ele>34.0</ele><time>2026-05-02T22:21:59.594Z</time></trkpt><trkpt lat="-36.7305168" lon="174.3920255"><ele>34.0</ele><time>2026-05-02T22:22:01.594Z</time></trkpt><trkpt lat="-36.7304374" lon="174.3920128"><ele>33.99999999999999</ele><time>2026-05-02T22:22:02.593Z</time></trkpt><trkpt lat="-36.7303675" lon="174.3920261"><ele>34.0</ele><time>2026-05-02T22:22:04.594Z</time></trkpt><trkpt lat="-36.7304548" lon="174.3920756"><ele>34.0</ele><time>2026-05-02T22:22:09.594Z</time></trkpt><trkpt lat="-36.7305506" lon="174.3920957"><ele>34.0</ele><time>2026-05-02T22:22:11.593Z</time></trkpt><trkpt lat="-36.7306197" lon="174.3921566"><ele>34.0</ele><time>2026-05-02T22:22:13.594Z</time></trkpt><trkpt lat="-36.7306578" lon="174.3922416"><ele>34.0</ele><time>2026-05-02T22:22:15.593Z</time></trkpt><trkpt lat="-36.7306168" lon="174.3923025"><ele>34.0</ele><time>2026-05-02T22:22:18.594Z</time></trkpt><trkpt lat="-36.7305396" lon="174.3923202"><ele>34.0</ele><time>2026-05-02T22:22:21.593Z</time></trkpt><trkpt lat="-36.7304715" lon="174.3922871"><ele>35.71428571428571</ele><time>2026-05-02T22:22:23.594Z</time></trkpt><trkpt lat="-36.730405" lon="174.3922651"><ele>37.42857142857143</ele><time>2026-05-02T22:22:25.593Z</time></trkpt><trkpt lat="-36.7303347" lon="174.3922626"><ele>39.14285714285714</ele><time>2026-05-02T22:22:27.593Z</time></trkpt><trkpt lat="-36.7302781" lon="174.3922263"><ele>40.857142857142854</ele><time>2026-05-02T22:22:29.593Z</time></trkpt><trkpt lat="-36.7302242" lon="174.3921607"><ele>42.57142857142857</ele><time>2026-05-02T22:22:32.593Z</time></trkpt><trkpt lat="-36.7301564" lon="174.392105"><ele>44.285714285714285</ele><time>2026-05-02T22:22:35.595Z</time></trkpt><trkpt lat="-36.7300983" lon="174.3921392"><ele>46.0</ele><time>2026-05-02T22:22:41.593Z</time></trkpt><trkpt lat="-36.7301163" lon="174.3922257"><ele>46.0</ele><time>2026-05-02T22:22:44.593Z</time></trkpt><trkpt lat="-36.7301618" lon="174.3922989"><ele>46.0</ele><time>2026-05-02T22:22:48.593Z</time></trkpt><trkpt lat="-36.7301895" lon="174.3923848"><ele>46.0</ele><time>2026-05-02T22:22:51.593Z</time></trkpt><trkpt lat="-36.7302111" lon="174.3924781"><ele>46.0</ele><time>2026-05-02T22:22:54.594Z</time></trkpt><trkpt lat="-36.7302366" lon="174.3925595"><ele>46.0</ele><time>2026-05-02T22:22:57.595Z</time></trkpt><trkpt lat="-36.7302576" lon="174.3926587"><ele>46.0</ele><time>2026-05-02T22:23:00.594Z</time></trkpt><trkpt lat="-36.7302855" lon="174.3927422"><ele>46.0</ele><time>2026-05-02T22:23:03.593Z</time></trkpt><trkpt lat="-36.7302923" lon="174.3928317"><ele>46.0</ele><time>2026-05-02T22:23:06.593Z</time></trkpt><trkpt lat="-36.730293" lon="174.3929196"><ele>46.0</ele><time>2026-05-02T22:23:09.594Z</time></trkpt><trkpt lat="-36.7303108" lon="174.3930245"><ele>46.0</ele><time>2026-05-02T22:23:12.594Z</time></trkpt><trkpt lat="-36.7303524" lon="174.3931193"><ele>46.0</ele><time>2026-05-02T22:23:15.593Z</time></trkpt><trkpt lat="-36.7303809" lon="174.3932015"><ele>46.0</ele><time>2026-05-02T22:23:17.594Z</time></trkpt><trkpt lat="-36.7303974" lon="174.3932779"><ele>47.714285714285715</ele><time>2026-05-02T22:23:19.593Z</time></trkpt><trkpt lat="-36.7304314" lon="174.3933564"><ele>49.42857142857143</ele><time>2026-05-02T22:23:22.594Z</time></trkpt><trkpt lat="-36.7304965" lon="174.3933993"><ele>51.142857142857146</ele><time>2026-05-02T22:23:25.593Z</time></trkpt><trkpt lat="-36.7305308" lon="174.3935008"><ele>52.85714285714286</ele><time>2026-05-02T22:23:28.593Z</time></trkpt><trkpt lat="-36.7305356" lon="174.3935888"><ele>54.57142857142857</ele><time>2026-05-02T22:23:31.595Z</time></trkpt><trkpt lat="-36.7305843" lon="174.3936518"><ele>56.28571428571429</ele><time>2026-05-02T22:23:34.593Z</time></trkpt><trkpt lat="-36.7306102" lon="174.3937385"><ele>58.00000000000001</ele><time>2026-05-02T22:23:37.595Z</time></trkpt><trkpt lat="-36.730573" lon="174.3938052"><ele>60.166666666666664</ele><time>2026-05-02T22:23:40.593Z</time></trkpt><trkpt lat="-36.7305694" lon="174.3938882"><ele>62.33333333333333</ele><time>2026-05-02T22:23:44.593Z</time></trkpt><trkpt lat="-36.7305689" lon="174.3939947"><ele>64.5</ele><time>2026-05-02T22:23:47.592Z</time></trkpt><trkpt lat="-36.7305263" lon="174.3940801"><ele>66.66666666666667</ele><time>2026-05-02T22:23:50.594Z</time></trkpt><trkpt lat="-36.7304967" lon="174.394171"><ele>68.83333333333334</ele><time>2026-05-02T22:23:53.593Z</time></trkpt><trkpt lat="-36.730503" lon="174.3942681"><ele>71.0</ele><time>2026-05-02T22:23:56.594Z</time></trkpt><trkpt lat="-36.7305343" lon="174.3943705"><ele>71.0</ele><time>2026-05-02T22:23:59.592Z</time></trkpt><trkpt lat="-36.7305298" lon="174.3944545"><ele>71.0</ele><time>2026-05-02T22:24:02.593Z</time></trkpt><trkpt lat="-36.7305159" lon="174.3945668"><ele>71.0</ele><time>2026-05-02T22:24:05.594Z</time></trkpt><trkpt lat="-36.7305736" lon="174.3946389"><ele>71.0</ele><time>2026-05-02T22:24:08.594Z</time></trkpt><trkpt lat="-36.7305876" lon="174.3947158"><ele>71.0</ele><time>2026-05-02T22:24:11.593Z</time></trkpt><trkpt lat="-36.7306403" lon="174.3947607"><ele>71.0</ele><time>2026-05-02T22:24:14.594Z</time></trkpt><trkpt lat="-36.7306746" lon="174.3948425"><ele>71.0</ele><time>2026-05-02T22:24:17.593Z</time></trkpt><trkpt lat="-36.7306424" lon="174.3949195"><ele>71.66666666666667</ele><time>2026-05-02T22:24:20.594Z</time></trkpt><trkpt lat="-36.7305889" lon="174.3949904"><ele>72.33333333333334</ele><time>2026-05-02T22:24:23.594Z</time></trkpt><trkpt lat="-36.7305086" lon="174.3950424"><ele>73.0</ele><time>2026-05-02T22:24:26.593Z</time></trkpt><trkpt lat="-36.7304272" lon="174.3950371"><ele>73.66666666666667</ele><time>2026-05-02T22:24:29.594Z</time></trkpt><trkpt lat="-36.7303558" lon="174.3950485"><ele>74.33333333333333</ele><time>2026-05-02T22:24:31.593Z</time></trkpt><trkpt lat="-36.7302752" lon="174.3950764"><ele>75.0</ele><time>2026-05-02T22:24:33.595Z</time></trkpt><trkpt lat="-36.7302007" lon="174.3951248"><ele>73.66666666666667</ele><time>2026-05-02T22:24:35.593Z</time></trkpt><trkpt lat="-36.7301538" lon="174.3952028"><ele>72.33333333333333</ele><time>2026-05-02T22:24:38.592Z</time></trkpt><trkpt lat="-36.7301239" lon="174.3952788"><ele>71.0</ele><time>2026-05-02T22:24:41.594Z</time></trkpt><trkpt lat="-36.7300655" lon="174.3953669"><ele>69.66666666666666</ele><time>2026-05-02T22:24:44.594Z</time></trkpt><trkpt lat="-36.7299969" lon="174.3954105"><ele>68.33333333333333</ele><time>2026-05-02T22:24:46.592Z</time></trkpt><trkpt lat="-36.7299386" lon="174.395459"><ele>67.0</ele><time>2026-05-02T22:24:48.594Z</time></trkpt><trkpt lat="-36.7298736" lon="174.3954925"><ele>67.0</ele><time>2026-05-02T22:24:50.595Z</time></trkpt><trkpt lat="-36.7297897" lon="174.395501"><ele>67.0</ele><time>2026-05-02T22:24:53.593Z</time></trkpt><trkpt lat="-36.729726" lon="174.3955376"><ele>67.0</ele><time>2026-05-02T22:24:55.594Z</time></trkpt><trkpt lat="-36.7296649" lon="174.3956019"><ele>67.0</ele><time>2026-05-02T22:24:57.594Z</time></trkpt><trkpt lat="-36.7296259" lon="174.3956708"><ele>67.0</ele><time>2026-05-02T22:24:59.594Z</time></trkpt><trkpt lat="-36.7295958" lon="174.3957638"><ele>67.0</ele><time>2026-05-02T22:25:01.593Z</time></trkpt><trkpt lat="-36.7295182" lon="174.3958215"><ele>67.5</ele><time>2026-05-02T22:25:04.594Z</time></trkpt><trkpt lat="-36.7294557" lon="174.3958489"><ele>68.0</ele><time>2026-05-02T22:25:06.593Z</time></trkpt><trkpt lat="-36.7293867" lon="174.3958675"><ele>68.5</ele><time>2026-05-02T22:25:08.593Z</time></trkpt><trkpt lat="-36.7293184" lon="174.3958897"><ele>69.0</ele><time>2026-05-02T22:25:10.594Z</time></trkpt><trkpt lat="-36.7292756" lon="174.3959778"><ele>69.5</ele><time>2026-05-02T22:25:13.594Z</time></trkpt><trkpt lat="-36.7292115" lon="174.3960441"><ele>70.0</ele><time>2026-05-02T22:25:16.593Z</time></trkpt><trkpt lat="-36.7291508" lon="174.3961176"><ele>70.0</ele><time>2026-05-02T22:25:19.594Z</time></trkpt><trkpt lat="-36.7291136" lon="174.396218"><ele>70.0</ele><time>2026-05-02T22:25:22.593Z</time></trkpt><trkpt lat="-36.7290621" lon="174.3963184"><ele>70.0</ele><time>2026-05-02T22:25:25.594Z</time></trkpt><trkpt lat="-36.7290214" lon="174.3963854"><ele>70.0</ele><time>2026-05-02T22:25:27.594Z</time></trkpt><trkpt lat="-36.7289571" lon="174.3964747"><ele>70.0</ele><time>2026-05-02T22:25:30.594Z</time></trkpt><trkpt lat="-36.7289062" lon="174.3965316"><ele>70.0</ele><time>2026-05-02T22:25:32.593Z</time></trkpt><trkpt lat="-36.7288541" lon="174.3965825"><ele>72.33333333333333</ele><time>2026-05-02T22:25:34.593Z</time></trkpt><trkpt lat="-36.7287727" lon="174.3966501"><ele>74.66666666666666</ele><time>2026-05-02T22:25:37.594Z</time></trkpt><trkpt lat="-36.7287113" lon="174.3966844"><ele>77.0</ele><time>2026-05-02T22:25:39.594Z</time></trkpt><trkpt lat="-36.7286474" lon="174.3967336"><ele>79.33333333333333</ele><time>2026-05-02T22:25:42.594Z</time></trkpt><trkpt lat="-36.7287045" lon="174.396791"><ele>81.66666666666667</ele><time>2026-05-02T22:25:45.594Z</time></trkpt><trkpt lat="-36.7287722" lon="174.3967982"><ele>84.0</ele><time>2026-05-02T22:25:47.593Z</time></trkpt><trkpt lat="-36.728839" lon="174.3968357"><ele>84.0</ele><time>2026-05-02T22:25:49.594Z</time></trkpt><trkpt lat="-36.7289015" lon="174.3968902"><ele>84.0</ele><time>2026-05-02T22:25:51.595Z</time></trkpt><trkpt lat="-36.7289651" lon="174.3969282"><ele>84.0</ele><time>2026-05-02T22:25:53.594Z</time></trkpt><trkpt lat="-36.7290359" lon="174.3969806"><ele>84.0</ele><time>2026-05-02T22:25:55.593Z</time></trkpt><trkpt lat="-36.7290656" lon="174.3970518"><ele>84.0</ele><time>2026-05-02T22:25:57.594Z</time></trkpt><trkpt lat="-36.7290245" lon="174.3971401"><ele>84.0</ele><time>2026-05-02T22:26:00.594Z</time></trkpt><trkpt lat="-36.7289605" lon="174.3972085"><ele>85.66666666666667</ele><time>2026-05-02T22:26:03.593Z</time></trkpt><trkpt lat="-36.7289053" lon="174.3972648"><ele>87.33333333333333</ele><time>2026-05-02T22:26:05.593Z</time></trkpt><trkpt lat="-36.7288367" lon="174.3973215"><ele>89.0</ele><time>2026-05-02T22:26:07.594Z</time></trkpt><trkpt lat="-36.7288361" lon="174.3974246"><ele>90.66666666666666</ele><time>2026-05-02T22:26:10.594Z</time></trkpt><trkpt lat="-36.7288494" lon="174.3975259"><ele>92.33333333333333</ele><time>2026-05-02T22:26:13.594Z</time></trkpt><trkpt lat="-36.7287798" lon="174.3975753"><ele>94.0</ele><time>2026-05-02T22:26:16.594Z</time></trkpt><trkpt lat="-36.7288261" lon="174.3976411"><ele>94.0</ele><time>2026-05-02T22:26:19.593Z</time></trkpt><trkpt lat="-36.7289051" lon="174.3976908"><ele>94.0</ele><time>2026-05-02T22:26:21.595Z</time></trkpt><trkpt lat="-36.7289824" lon="174.3977416"><ele>94.0</ele><time>2026-05-02T22:26:23.594Z</time></trkpt><trkpt lat="-36.7290386" lon="174.397795"><ele>94.0</ele><time>2026-05-02T22:26:25.592Z</time></trkpt><trkpt lat="-36.729118" lon="174.3978477"><ele>94.0</ele><time>2026-05-02T22:26:27.593Z</time></trkpt><trkpt lat="-36.729179" lon="174.3978986"><ele>94.0</ele><time>2026-05-02T22:26:29.593Z</time></trkpt><trkpt lat="-36.7292485" lon="174.3979492"><ele>95.16666666666666</ele><time>2026-05-02T22:26:32.594Z</time></trkpt><trkpt lat="-36.729328" lon="174.3980092"><ele>96.33333333333333</ele><time>2026-05-02T22:26:35.594Z</time></trkpt><trkpt lat="-36.7293973" lon="174.3980739"><ele>97.5</ele><time>2026-05-02T22:26:37.595Z</time></trkpt><trkpt lat="-36.7294696" lon="174.3981107"><ele>98.66666666666666</ele><time>2026-05-02T22:26:39.593Z</time></trkpt><trkpt lat="-36.7295481" lon="174.3981216"><ele>99.83333333333333</ele><time>2026-05-02T22:26:41.595Z</time></trkpt><trkpt lat="-36.7296336" lon="174.3981593"><ele>101.0</ele><time>2026-05-02T22:26:43.594Z</time></trkpt><trkpt lat="-36.7297046" lon="174.3981786"><ele>100.99999999999999</ele><time>2026-05-02T22:26:45.593Z</time></trkpt><trkpt lat="-36.7297835" lon="174.3982188"><ele>101.0</ele><time>2026-05-02T22:26:47.593Z</time></trkpt><trkpt lat="-36.7298666" lon="174.3982707"><ele>101.0</ele><time>2026-05-02T22:26:49.593Z</time></trkpt><trkpt lat="-36.7299452" lon="174.3983085"><ele>101.0</ele><time>2026-05-02T22:26:51.593Z</time></trkpt><trkpt lat="-36.7300215" lon="174.3983576"><ele>100.99999999999999</ele><time>2026-05-02T22:26:53.594Z</time></trkpt><trkpt lat="-36.7300739" lon="174.3984177"><ele>101.0</ele><time>2026-05-02T22:26:55.593Z</time></trkpt><trkpt lat="-36.7301594" lon="174.3984701"><ele>101.99999999999999</ele><time>2026-05-02T22:26:58.593Z</time></trkpt><trkpt lat="-36.7302272" lon="174.3984853"><ele>103.0</ele><time>2026-05-02T22:27:00.594Z</time></trkpt><trkpt lat="-36.7302841" lon="174.3985548"><ele>104.0</ele><time>2026-05-02T22:27:02.595Z</time></trkpt><trkpt lat="-36.7303402" lon="174.3986263"><ele>105.0</ele><time>2026-05-02T22:27:04.592Z</time></trkpt><trkpt lat="-36.7304004" lon="174.3986689"><ele>105.99999999999999</ele><time>2026-05-02T22:27:06.595Z</time></trkpt><trkpt lat="-36.7304659" lon="174.3987046"><ele>107.0</ele><time>2026-05-02T22:27:08.594Z</time></trkpt><trkpt lat="-36.7305215" lon="174.3987916"><ele>106.99999999999999</ele><time>2026-05-02T22:27:11.593Z</time></trkpt><trkpt lat="-36.7305958" lon="174.3988632"><ele>107.0</ele><time>2026-05-02T22:27:14.594Z</time></trkpt><trkpt lat="-36.7306584" lon="174.3987892"><ele>107.0</ele><time>2026-05-02T22:27:18.593Z</time></trkpt><trkpt lat="-36.7306768" lon="174.3987038"><ele>107.0</ele><time>2026-05-02T22:27:21.594Z</time></trkpt><trkpt lat="-36.730741" lon="174.3987076"><ele>106.99999999999999</ele><time>2026-05-02T22:27:25.594Z</time></trkpt><trkpt lat="-36.7307715" lon="174.3987999"><ele>107.0</ele><time>2026-05-02T22:27:28.595Z</time></trkpt><trkpt lat="-36.7308335" lon="174.3988228"><ele>106.99999999999999</ele><time>2026-05-02T22:27:30.594Z</time></trkpt><trkpt lat="-36.730901" lon="174.3987746"><ele>107.0</ele><time>2026-05-02T22:27:33.594Z</time></trkpt><trkpt lat="-36.7309688" lon="174.3988179"><ele>107.0</ele><time>2026-05-02T22:27:36.594Z</time></trkpt><trkpt lat="-36.7310493" lon="174.3987803"><ele>107.0</ele><time>2026-05-02T22:27:39.593Z</time></trkpt><trkpt lat="-36.7310755" lon="174.3986843"><ele>106.99999999999999</ele><time>2026-05-02T22:27:42.594Z</time></trkpt><trkpt lat="-36.7311317" lon="174.398643"><ele>107.0</ele><time>2026-05-02T22:27:44.594Z</time></trkpt><trkpt lat="-36.7312013" lon="174.3986281"><ele>107.49999999999999</ele><time>2026-05-02T22:27:46.594Z</time></trkpt><trkpt lat="-36.7312714" lon="174.3986149"><ele>108.0</ele><time>2026-05-02T22:27:48.594Z</time></trkpt><trkpt lat="-36.7313488" lon="174.3985946"><ele>108.5</ele><time>2026-05-02T22:27:50.595Z</time></trkpt><trkpt lat="-36.7314141" lon="174.3985706"><ele>109.0</ele><time>2026-05-02T22:27:52.593Z</time></trkpt><trkpt lat="-36.7314752" lon="174.3985391"><ele>109.49999999999999</ele><time>2026-05-02T22:27:54.595Z</time></trkpt><trkpt lat="-36.7315628" lon="174.3985198"><ele>110.0</ele><time>2026-05-02T22:27:56.593Z</time></trkpt><trkpt lat="-36.7316435" lon="174.3985103"><ele>109.99999999999999</ele><time>2026-05-02T22:27:58.594Z</time></trkpt><trkpt lat="-36.7317494" lon="174.3985174"><ele>110.0</ele><time>2026-05-02T22:28:00.593Z</time></trkpt><trkpt lat="-36.7318307" lon="174.3985301"><ele>110.0</ele><time>2026-05-02T22:28:02.593Z</time></trkpt><trkpt lat="-36.731912" lon="174.3985188"><ele>110.0</ele><time>2026-05-02T22:28:04.593Z</time></trkpt><trkpt lat="-36.731993" lon="174.3985123"><ele>109.99999999999999</ele><time>2026-05-02T22:28:06.595Z</time></trkpt><trkpt lat="-36.7320741" lon="174.3985109"><ele>110.0</ele><time>2026-05-02T22:28:08.594Z</time></trkpt><trkpt lat="-36.732151" lon="174.398535"><ele>111.33333333333333</ele><time>2026-05-02T22:28:10.593Z</time></trkpt><trkpt lat="-36.7322341" lon="174.3985583"><ele>112.66666666666666</ele><time>2026-05-02T22:28:12.594Z</time></trkpt><trkpt lat="-36.732311" lon="174.3985871"><ele>114.0</ele><time>2026-05-02T22:28:14.594Z</time></trkpt><trkpt lat="-36.7323948" lon="174.3986136"><ele>115.33333333333334</ele><time>2026-05-02T22:28:16.593Z</time></trkpt><trkpt lat="-36.7324767" lon="174.3986365"><ele>116.66666666666667</ele><time>2026-05-02T22:28:18.594Z</time></trkpt><trkpt lat="-36.7325561" lon="174.3986693"><ele>118.0</ele><time>2026-05-02T22:28:20.593Z</time></trkpt><trkpt lat="-36.7326339" lon="174.398722"><ele>118.00000000000001</ele><time>2026-05-02T22:28:22.595Z</time></trkpt><trkpt lat="-36.7327082" lon="174.3987541"><ele>118.0</ele><time>2026-05-02T22:28:23.595Z</time></trkpt><trkpt lat="-36.7327863" lon="174.3988413"><ele>118.0</ele><time>2026-05-02T22:28:25.594Z</time></trkpt><trkpt lat="-36.7328371" lon="174.3988899"><ele>118.0</ele><time>2026-05-02T22:28:26.595Z</time></trkpt><trkpt lat="-36.732886" lon="174.3989453"><ele>118.00000000000001</ele><time>2026-05-02T22:28:27.594Z</time></trkpt><trkpt lat="-36.7329905" lon="174.3990166"><ele>118.0</ele><time>2026-05-02T22:28:29.593Z</time></trkpt><trkpt lat="-36.7330665" lon="174.3991133"><ele>117.60000000000001</ele><time>2026-05-02T22:28:31.594Z</time></trkpt><trkpt lat="-36.7331109" lon="174.3991881"><ele>117.20000000000002</ele><time>2026-05-02T22:28:32.593Z</time></trkpt><trkpt lat="-36.7331449" lon="174.3993317"><ele>116.8</ele><time>2026-05-02T22:28:34.595Z</time></trkpt><trkpt lat="-36.7331533" lon="174.3994189"><ele>116.4</ele><time>2026-05-02T22:28:35.594Z</time></trkpt><trkpt lat="-36.7331403" lon="174.3995074"><ele>116.0</ele><time>2026-05-02T22:28:36.594Z</time></trkpt><trkpt lat="-36.7331705" lon="174.3996568"><ele>115.2857142857143</ele><time>2026-05-02T22:28:38.593Z</time></trkpt><trkpt lat="-36.7331824" lon="174.3997438"><ele>114.57142857142858</ele><time>2026-05-02T22:28:39.593Z</time></trkpt><trkpt lat="-36.7331875" lon="174.3998266"><ele>113.85714285714286</ele><time>2026-05-02T22:28:40.594Z</time></trkpt><trkpt lat="-36.7332133" lon="174.399902"><ele>113.14285714285715</ele><time>2026-05-02T22:28:41.593Z</time></trkpt><trkpt lat="-36.7332543" lon="174.3999728"><ele>112.42857142857144</ele><time>2026-05-02T22:28:42.593Z</time></trkpt><trkpt lat="-36.7333124" lon="174.4000193"><ele>111.71428571428571</ele><time>2026-05-02T22:28:43.593Z</time></trkpt><trkpt lat="-36.7333843" lon="174.4000612"><ele>111.0</ele><time>2026-05-02T22:28:44.594Z</time></trkpt><trkpt lat="-36.7334803" lon="174.4001176"><ele>110.83333333333333</ele><time>2026-05-02T22:28:46.594Z</time></trkpt><trkpt lat="-36.7335856" lon="174.4001843"><ele>110.66666666666666</ele><time>2026-05-02T22:28:48.594Z</time></trkpt><trkpt lat="-36.7336759" lon="174.4002204"><ele>110.5</ele><time>2026-05-02T22:28:50.595Z</time></trkpt><trkpt lat="-36.733764" lon="174.4002267"><ele>110.33333333333333</ele><time>2026-05-02T22:28:52.594Z</time></trkpt><trkpt lat="-36.7338354" lon="174.4002162"><ele>110.16666666666666</ele><time>2026-05-02T22:28:54.593Z</time></trkpt><trkpt lat="-36.7339094" lon="174.4002342"><ele>110.0</ele><time>2026-05-02T22:28:56.594Z</time></trkpt><trkpt lat="-36.7339573" lon="174.4002886"><ele>109.99999999999999</ele><time>2026-05-02T22:28:58.594Z</time></trkpt><trkpt lat="-36.7340187" lon="174.4003385"><ele>110.0</ele><time>2026-05-02T22:29:00.594Z</time></trkpt><trkpt lat="-36.7340867" lon="174.4004037"><ele>110.0</ele><time>2026-05-02T22:29:02.594Z</time></trkpt><trkpt lat="-36.7341519" lon="174.4004688"><ele>110.0</ele><time>2026-05-02T22:29:04.593Z</time></trkpt><trkpt lat="-36.7342127" lon="174.4005746"><ele>109.99999999999999</ele><time>2026-05-02T22:29:06.594Z</time></trkpt><trkpt lat="-36.7342453" lon="174.4006906"><ele>110.0</ele><time>2026-05-02T22:29:08.595Z</time></trkpt><trkpt lat="-36.7342306" lon="174.4008398"><ele>109.85714285714285</ele><time>2026-05-02T22:29:10.595Z</time></trkpt><trkpt lat="-36.7342079" lon="174.4009198"><ele>109.71428571428571</ele><time>2026-05-02T22:29:11.593Z</time></trkpt><trkpt lat="-36.7341792" lon="174.4010102"><ele>109.57142857142857</ele><time>2026-05-02T22:29:12.595Z</time></trkpt><trkpt lat="-36.734153" lon="174.4010922"><ele>109.42857142857142</ele><time>2026-05-02T22:29:13.594Z</time></trkpt><trkpt lat="-36.7341257" lon="174.4011742"><ele>109.28571428571429</ele><time>2026-05-02T22:29:14.594Z</time></trkpt><trkpt lat="-36.734097" lon="174.4012541"><ele>109.14285714285714</ele><time>2026-05-02T22:29:15.595Z</time></trkpt><trkpt lat="-36.73406" lon="174.4013539"><ele>109.0</ele><time>2026-05-02T22:29:16.595Z</time></trkpt><trkpt lat="-36.7340354" lon="174.4014396"><ele>109.33333333333334</ele><time>2026-05-02T22:29:17.593Z</time></trkpt><trkpt lat="-36.7340148" lon="174.4015242"><ele>109.66666666666667</ele><time>2026-05-02T22:29:18.593Z</time></trkpt><trkpt lat="-36.7339913" lon="174.4016057"><ele>110.0</ele><time>2026-05-02T22:29:19.594Z</time></trkpt><trkpt lat="-36.7339865" lon="174.4016904"><ele>110.33333333333334</ele><time>2026-05-02T22:29:20.593Z</time></trkpt><trkpt lat="-36.7339677" lon="174.4017705"><ele>110.66666666666667</ele><time>2026-05-02T22:29:21.593Z</time></trkpt><trkpt lat="-36.7339519" lon="174.4019212"><ele>111.0</ele><time>2026-05-02T22:29:23.593Z</time></trkpt><trkpt lat="-36.7339441" lon="174.4020574"><ele>112.5</ele><time>2026-05-02T22:29:25.594Z</time></trkpt><trkpt lat="-36.7339848" lon="174.4021996"><ele>114.0</ele><time>2026-05-02T22:29:27.594Z</time></trkpt><trkpt lat="-36.7340411" lon="174.4023277"><ele>115.5</ele><time>2026-05-02T22:29:29.593Z</time></trkpt><trkpt lat="-36.7341027" lon="174.4024329"><ele>117.0</ele><time>2026-05-02T22:29:31.593Z</time></trkpt><trkpt lat="-36.7341402" lon="174.4025616"><ele>117.0</ele><time>2026-05-02T22:29:33.593Z</time></trkpt><trkpt lat="-36.7341362" lon="174.4026862"><ele>116.99999999999999</ele><time>2026-05-02T22:29:35.594Z</time></trkpt><trkpt lat="-36.7341116" lon="174.4028123"><ele>116.99999999999999</ele><time>2026-05-02T22:29:37.594Z</time></trkpt><trkpt lat="-36.7340963" lon="174.4029406"><ele>117.0</ele><time>2026-05-02T22:29:39.593Z</time></trkpt><trkpt lat="-36.7341288" lon="174.4030675"><ele>117.0</ele><time>2026-05-02T22:29:41.594Z</time></trkpt><trkpt lat="-36.7341869" lon="174.4031688"><ele>118.19999999999999</ele><time>2026-05-02T22:29:43.593Z</time></trkpt><trkpt lat="-36.7342247" lon="174.4032719"><ele>119.39999999999999</ele><time>2026-05-02T22:29:45.594Z</time></trkpt><trkpt lat="-36.7342777" lon="174.4033675"><ele>120.60000000000001</ele><time>2026-05-02T22:29:47.593Z</time></trkpt><trkpt lat="-36.7342798" lon="174.4035166"><ele>121.80000000000001</ele><time>2026-05-02T22:29:49.594Z</time></trkpt><trkpt lat="-36.7342327" lon="174.4036137"><ele>123.0</ele><time>2026-05-02T22:29:52.593Z</time></trkpt><trkpt lat="-36.7342086" lon="174.4037213"><ele>123.0</ele><time>2026-05-02T22:29:54.593Z</time></trkpt><trkpt lat="-36.7341727" lon="174.4038237"><ele>123.0</ele><time>2026-05-02T22:29:56.593Z</time></trkpt><trkpt lat="-36.7341515" lon="174.4039303"><ele>123.0</ele><time>2026-05-02T22:29:58.594Z</time></trkpt><trkpt lat="-36.7341271" lon="174.4040553"><ele>123.0</ele><time>2026-05-02T22:30:00.595Z</time></trkpt><trkpt lat="-36.7341309" lon="174.4041555"><ele>123.0</ele><time>2026-05-02T22:30:02.595Z</time></trkpt><trkpt lat="-36.7341622" lon="174.4042334"><ele>123.0</ele><time>2026-05-02T22:30:04.594Z</time></trkpt><trkpt lat="-36.7342066" lon="174.4043196"><ele>122.71428571428572</ele><time>2026-05-02T22:30:06.594Z</time></trkpt><trkpt lat="-36.7342456" lon="174.4043894"><ele>122.42857142857143</ele><time>2026-05-02T22:30:08.594Z</time></trkpt><trkpt lat="-36.7342815" lon="174.4044604"><ele>122.14285714285714</ele><time>2026-05-02T22:30:10.593Z</time></trkpt><trkpt lat="-36.7343081" lon="174.4045728"><ele>121.85714285714286</ele><time>2026-05-02T22:30:13.593Z</time></trkpt><trkpt lat="-36.7343661" lon="174.404613"><ele>121.57142857142856</ele><time>2026-05-02T22:30:15.593Z</time></trkpt><trkpt lat="-36.7344261" lon="174.4046489"><ele>121.28571428571428</ele><time>2026-05-02T22:30:17.594Z</time></trkpt><trkpt lat="-36.7344834" lon="174.4046913"><ele>121.0</ele><time>2026-05-02T22:30:19.595Z</time></trkpt><trkpt lat="-36.7345452" lon="174.4047069"><ele>121.00000000000001</ele><time>2026-05-02T22:30:21.594Z</time></trkpt><trkpt lat="-36.7346032" lon="174.404741"><ele>121.0</ele><time>2026-05-02T22:30:23.594Z</time></trkpt><trkpt lat="-36.7346113" lon="174.4048469"><ele>121.0</ele><time>2026-05-02T22:30:26.594Z</time></trkpt><trkpt lat="-36.7345867" lon="174.404933"><ele>121.0</ele><time>2026-05-02T22:30:28.593Z</time></trkpt><trkpt lat="-36.7346252" lon="174.4050475"><ele>121.00000000000001</ele><time>2026-05-02T22:30:30.594Z</time></trkpt><trkpt lat="-36.7346425" lon="174.4051491"><ele>121.0</ele><time>2026-05-02T22:30:32.593Z</time></trkpt><trkpt lat="-36.7346584" lon="174.4052456"><ele>121.0</ele><time>2026-05-02T22:30:35.594Z</time></trkpt><trkpt lat="-36.7346962" lon="174.4053175"><ele>120.99999999999999</ele><time>2026-05-02T22:30:38.595Z</time></trkpt><trkpt lat="-36.7346512" lon="174.4053828"><ele>121.0</ele><time>2026-05-02T22:30:43.593Z</time></trkpt><trkpt lat="-36.7346287" lon="174.4054585"><ele>121.0</ele><time>2026-05-02T22:30:46.594Z</time></trkpt><trkpt lat="-36.7346426" lon="174.4055695"><ele>120.99999999999999</ele><time>2026-05-02T22:30:49.595Z</time></trkpt><trkpt lat="-36.7345763" lon="174.4055709"><ele>121.0</ele><time>2026-05-02T22:31:11.594Z</time></trkpt><trkpt lat="-36.7345329" lon="174.4055053"><ele>121.0</ele><time>2026-05-02T22:31:14.593Z</time></trkpt><trkpt lat="-36.7344655" lon="174.4054483"><ele>121.00000000000001</ele><time>2026-05-02T22:31:17.593Z</time></trkpt><trkpt lat="-36.734389" lon="174.4054619"><ele>121.0</ele><time>2026-05-02T22:31:22.592Z</time></trkpt><trkpt lat="-36.7343061" lon="174.4054651"><ele>121.0</ele><time>2026-05-02T22:31:26.595Z</time></trkpt><trkpt lat="-36.7342467" lon="174.4054272"><ele>121.0</ele><time>2026-05-02T22:31:28.593Z</time></trkpt><trkpt lat="-36.7341581" lon="174.4054159"><ele>121.00000000000001</ele><time>2026-05-02T22:31:31.593Z</time></trkpt><trkpt lat="-36.7340724" lon="174.4054162"><ele>121.0</ele><time>2026-05-02T22:31:34.594Z</time></trkpt><trkpt lat="-36.7339839" lon="174.4054448"><ele>121.50000000000001</ele><time>2026-05-02T22:31:37.596Z</time></trkpt><trkpt lat="-36.7339142" lon="174.4054804"><ele>122.0</ele><time>2026-05-02T22:31:40.594Z</time></trkpt><trkpt lat="-36.7338528" lon="174.4054382"><ele>122.5</ele><time>2026-05-02T22:31:45.595Z</time></trkpt><trkpt lat="-36.7337918" lon="174.4053965"><ele>123.0</ele><time>2026-05-02T22:31:47.595Z</time></trkpt><trkpt lat="-36.7336973" lon="174.4053828"><ele>123.50000000000001</ele><time>2026-05-02T22:31:49.594Z</time></trkpt><trkpt lat="-36.733615" lon="174.4054253"><ele>124.0</ele><time>2026-05-02T22:31:51.595Z</time></trkpt><trkpt lat="-36.7335972" lon="174.405504"><ele>123.83333333333334</ele><time>2026-05-02T22:31:53.594Z</time></trkpt><trkpt lat="-36.7336004" lon="174.4056059"><ele>123.66666666666667</ele><time>2026-05-02T22:31:56.594Z</time></trkpt><trkpt lat="-36.7335503" lon="174.4056789"><ele>123.5</ele><time>2026-05-02T22:31:59.594Z</time></trkpt><trkpt lat="-36.7334818" lon="174.4056549"><ele>123.33333333333334</ele><time>2026-05-02T22:32:02.594Z</time></trkpt><trkpt lat="-36.7334405" lon="174.4055622"><ele>123.16666666666667</ele><time>2026-05-02T22:32:05.594Z</time></trkpt><trkpt lat="-36.7334074" lon="174.4054542"><ele>123.0</ele><time>2026-05-02T22:32:08.594Z</time></trkpt><trkpt lat="-36.7333519" lon="174.405406"><ele>123.0</ele><time>2026-05-02T22:32:10.594Z</time></trkpt><trkpt lat="-36.73327" lon="174.4053471"><ele>123.00000000000001</ele><time>2026-05-02T22:32:12.594Z</time></trkpt><trkpt lat="-36.7331401" lon="174.4053105"><ele>123.00000000000001</ele><time>2026-05-02T22:32:14.593Z</time></trkpt><trkpt lat="-36.7330687" lon="174.4052719"><ele>123.0</ele><time>2026-05-02T22:32:15.595Z</time></trkpt><trkpt lat="-36.7329973" lon="174.4052653"><ele>123.0</ele><time>2026-05-02T22:32:16.595Z</time></trkpt><trkpt lat="-36.7328967" lon="174.4052895"><ele>123.0</ele><time>2026-05-02T22:32:18.592Z</time></trkpt><trkpt lat="-36.7328317" lon="174.4053694"><ele>123.0</ele><time>2026-05-02T22:32:20.593Z</time></trkpt><trkpt lat="-36.7327514" lon="174.4054546"><ele>123.0</ele><time>2026-05-02T22:32:22.596Z</time></trkpt><trkpt lat="-36.7326767" lon="174.4054853"><ele>123.0</ele><time>2026-05-02T22:32:25.593Z</time></trkpt><trkpt lat="-36.7325946" lon="174.4055255"><ele>123.0</ele><time>2026-05-02T22:32:28.595Z</time></trkpt><trkpt lat="-36.7325388" lon="174.4055716"><ele>123.0</ele><time>2026-05-02T22:32:30.593Z</time></trkpt><trkpt lat="-36.7324847" lon="174.4056408"><ele>123.00000000000001</ele><time>2026-05-02T22:32:32.595Z</time></trkpt><trkpt lat="-36.7324434" lon="174.4057057"><ele>123.0</ele><time>2026-05-02T22:32:34.594Z</time></trkpt><trkpt lat="-36.7324075" lon="174.405781"><ele>123.00000000000001</ele><time>2026-05-02T22:32:36.593Z</time></trkpt><trkpt lat="-36.7323625" lon="174.405841"><ele>123.00000000000001</ele><time>2026-05-02T22:32:38.593Z</time></trkpt><trkpt lat="-36.7323194" lon="174.4059057"><ele>123.0</ele><time>2026-05-02T22:32:40.594Z</time></trkpt><trkpt lat="-36.7322818" lon="174.4059781"><ele>123.00000000000001</ele><time>2026-05-02T22:32:42.594Z</time></trkpt><trkpt lat="-36.7322305" lon="174.4060312"><ele>123.00000000000001</ele><time>2026-05-02T22:32:44.595Z</time></trkpt><trkpt lat="-36.7321712" lon="174.4061132"><ele>123.0</ele><time>2026-05-02T22:32:47.594Z</time></trkpt><trkpt lat="-36.7321362" lon="174.4062137"><ele>123.0</ele><time>2026-05-02T22:32:50.593Z</time></trkpt><trkpt lat="-36.732089" lon="174.4063018"><ele>123.0</ele><time>2026-05-02T22:32:53.594Z</time></trkpt><trkpt lat="-36.7320682" lon="174.406376"><ele>123.0</ele><time>2026-05-02T22:32:55.595Z</time></trkpt><trkpt lat="-36.7320149" lon="174.406472"><ele>123.0</ele><time>2026-05-02T22:32:58.595Z</time></trkpt><trkpt lat="-36.7319593" lon="174.4065645"><ele>123.0</ele><time>2026-05-02T22:33:01.594Z</time></trkpt><trkpt lat="-36.7319424" lon="174.4066612"><ele>123.33333333333333</ele><time>2026-05-02T22:33:03.594Z</time></trkpt><trkpt lat="-36.7318875" lon="174.4067501"><ele>123.66666666666666</ele><time>2026-05-02T22:33:06.594Z</time></trkpt><trkpt lat="-36.731841" lon="174.4068554"><ele>124.0</ele><time>2026-05-02T22:33:09.594Z</time></trkpt><trkpt lat="-36.7317893" lon="174.4069401"><ele>124.33333333333333</ele><time>2026-05-02T22:33:12.594Z</time></trkpt><trkpt lat="-36.7317477" lon="174.4070311"><ele>124.66666666666666</ele><time>2026-05-02T22:33:15.595Z</time></trkpt><trkpt lat="-36.7317201" lon="174.4071139"><ele>125.0</ele><time>2026-05-02T22:33:17.594Z</time></trkpt><trkpt lat="-36.7316864" lon="174.4072184"><ele>125.49999999999999</ele><time>2026-05-02T22:33:20.595Z</time></trkpt><trkpt lat="-36.7316677" lon="174.4072967"><ele>126.0</ele><time>2026-05-02T22:33:23.595Z</time></trkpt><trkpt lat="-36.7316429" lon="174.407404"><ele>126.5</ele><time>2026-05-02T22:33:26.594Z</time></trkpt><trkpt lat="-36.7316" lon="174.4074798"><ele>127.0</ele><time>2026-05-02T22:33:29.594Z</time></trkpt><trkpt lat="-36.7315691" lon="174.4075835"><ele>127.49999999999999</ele><time>2026-05-02T22:33:32.595Z</time></trkpt><trkpt lat="-36.7315421" lon="174.4076622"><ele>128.0</ele><time>2026-05-02T22:33:34.594Z</time></trkpt><trkpt lat="-36.7315013" lon="174.4077504"><ele>127.99999999999999</ele><time>2026-05-02T22:33:38.593Z</time></trkpt><trkpt lat="-36.7315027" lon="174.4078395"><ele>128.0</ele><time>2026-05-02T22:33:41.592Z</time></trkpt><trkpt lat="-36.7314464" lon="174.4079209"><ele>128.0</ele><time>2026-05-02T22:33:45.594Z</time></trkpt><trkpt lat="-36.7313979" lon="174.4080029"><ele>128.0</ele><time>2026-05-02T22:33:48.595Z</time></trkpt><trkpt lat="-36.7313342" lon="174.4080599"><ele>127.99999999999999</ele><time>2026-05-02T22:33:51.593Z</time></trkpt><trkpt lat="-36.7312946" lon="174.4081518"><ele>128.0</ele><time>2026-05-02T22:33:54.595Z</time></trkpt><trkpt lat="-36.7312829" lon="174.4082429"><ele>128.16666666666666</ele><time>2026-05-02T22:33:57.594Z</time></trkpt><trkpt lat="-36.73128" lon="174.4083233"><ele>128.33333333333331</ele><time>2026-05-02T22:33:59.594Z</time></trkpt><trkpt lat="-36.7312476" lon="174.408431"><ele>128.5</ele><time>2026-05-02T22:34:02.594Z</time></trkpt><trkpt lat="-36.7312164" lon="174.4085032"><ele>128.66666666666666</ele><time>2026-05-02T22:34:04.593Z</time></trkpt><trkpt lat="-36.7311904" lon="174.4086035"><ele>128.83333333333334</ele><time>2026-05-02T22:34:07.594Z</time></trkpt><trkpt lat="-36.7311782" lon="174.4087111"><ele>129.0</ele><time>2026-05-02T22:34:10.593Z</time></trkpt><trkpt lat="-36.7311604" lon="174.4088104"><ele>129.57142857142856</ele><time>2026-05-02T22:34:13.594Z</time></trkpt><trkpt lat="-36.7311333" lon="174.4088951"><ele>130.14285714285714</ele><time>2026-05-02T22:34:16.595Z</time></trkpt><trkpt lat="-36.7312168" lon="174.4088859"><ele>130.71428571428572</ele><time>2026-05-02T22:34:33.594Z</time></trkpt><trkpt lat="-36.7312977" lon="174.4089142"><ele>131.28571428571428</ele><time>2026-05-02T22:34:36.594Z</time></trkpt><trkpt lat="-36.7313556" lon="174.4089481"><ele>131.85714285714286</ele><time>2026-05-02T22:34:38.593Z</time></trkpt><trkpt lat="-36.7314277" lon="174.4089433"><ele>132.42857142857142</ele><time>2026-05-02T22:34:40.593Z</time></trkpt><trkpt lat="-36.7314806" lon="174.4088888"><ele>133.0</ele><time>2026-05-02T22:34:41.595Z</time></trkpt><trkpt lat="-36.7315752" lon="174.4088378"><ele>133.0</ele><time>2026-05-02T22:34:43.594Z</time></trkpt><trkpt lat="-36.731676" lon="174.4088297"><ele>133.0</ele><time>2026-05-02T22:34:45.594Z</time></trkpt><trkpt lat="-36.7317635" lon="174.4088362"><ele>133.0</ele><time>2026-05-02T22:34:47.594Z</time></trkpt><trkpt lat="-36.7318323" lon="174.4088308"><ele>133.0</ele><time>2026-05-02T22:34:49.594Z</time></trkpt><trkpt lat="-36.7319041" lon="174.4087874"><ele>133.0</ele><time>2026-05-02T22:34:51.593Z</time></trkpt><trkpt lat="-36.7319837" lon="174.4087205"><ele>133.0</ele><time>2026-05-02T22:34:53.595Z</time></trkpt><trkpt lat="-36.732075" lon="174.4086702"><ele>131.83333333333334</ele><time>2026-05-02T22:34:55.594Z</time></trkpt><trkpt lat="-36.7321669" lon="174.408659"><ele>130.66666666666669</ele><time>2026-05-02T22:34:57.593Z</time></trkpt><trkpt lat="-36.7322588" lon="174.4086725"><ele>129.5</ele><time>2026-05-02T22:35:00.595Z</time></trkpt><trkpt lat="-36.7323532" lon="174.4086927"><ele>128.33333333333334</ele><time>2026-05-02T22:35:03.593Z</time></trkpt><trkpt lat="-36.732435" lon="174.4086847"><ele>127.16666666666667</ele><time>2026-05-02T22:35:05.594Z</time></trkpt><trkpt lat="-36.7325149" lon="174.4086811"><ele>126.0</ele><time>2026-05-02T22:35:07.595Z</time></trkpt><trkpt lat="-36.732598" lon="174.4086791"><ele>126.0</ele><time>2026-05-02T22:35:09.593Z</time></trkpt><trkpt lat="-36.7326857" lon="174.408654"><ele>126.0</ele><time>2026-05-02T22:35:11.593Z</time></trkpt><trkpt lat="-36.7327659" lon="174.4086447"><ele>126.0</ele><time>2026-05-02T22:35:13.593Z</time></trkpt><trkpt lat="-36.7328386" lon="174.408659"><ele>126.0</ele><time>2026-05-02T22:35:15.594Z</time></trkpt><trkpt lat="-36.7329169" lon="174.4086946"><ele>126.0</ele><time>2026-05-02T22:35:18.593Z</time></trkpt><trkpt lat="-36.7329886" lon="174.4087039"><ele>126.0</ele><time>2026-05-02T22:35:21.595Z</time></trkpt><trkpt lat="-36.7330512" lon="174.4087882"><ele>126.33333333333333</ele><time>2026-05-02T22:35:24.593Z</time></trkpt><trkpt lat="-36.733098" lon="174.4088638"><ele>126.66666666666666</ele><time>2026-05-02T22:35:26.594Z</time></trkpt><trkpt lat="-36.7331477" lon="174.408917"><ele>127.0</ele><time>2026-05-02T22:35:28.594Z</time></trkpt><trkpt lat="-36.7332159" lon="174.4089853"><ele>127.33333333333333</ele><time>2026-05-02T22:35:31.594Z</time></trkpt><trkpt lat="-36.7332718" lon="174.4090654"><ele>127.66666666666666</ele><time>2026-05-02T22:35:34.594Z</time></trkpt><trkpt lat="-36.7333301" lon="174.4091094"><ele>128.0</ele><time>2026-05-02T22:35:36.593Z</time></trkpt><trkpt lat="-36.7334067" lon="174.409155"><ele>127.99999999999999</ele><time>2026-05-02T22:35:39.594Z</time></trkpt><trkpt lat="-36.733469" lon="174.4092062"><ele>128.0</ele><time>2026-05-02T22:35:41.594Z</time></trkpt><trkpt lat="-36.7335217" lon="174.4092774"><ele>128.0</ele><time>2026-05-02T22:35:43.594Z</time></trkpt><trkpt lat="-36.7335751" lon="174.409352"><ele>128.0</ele><time>2026-05-02T22:35:45.594Z</time></trkpt><trkpt lat="-36.7336458" lon="174.4094167"><ele>127.99999999999999</ele><time>2026-05-02T22:35:47.593Z</time></trkpt><trkpt lat="-36.7337207" lon="174.4095024"><ele>128.0</ele><time>2026-05-02T22:35:49.593Z</time></trkpt><trkpt lat="-36.7337539" lon="174.4096461"><ele>126.66666666666666</ele><time>2026-05-02T22:35:51.592Z</time></trkpt><trkpt lat="-36.7337708" lon="174.4097586"><ele>125.33333333333333</ele><time>2026-05-02T22:35:53.594Z</time></trkpt><trkpt lat="-36.7338041" lon="174.4098486"><ele>124.0</ele><time>2026-05-02T22:35:55.593Z</time></trkpt><trkpt lat="-36.7338848" lon="174.4098853"><ele>122.66666666666666</ele><time>2026-05-02T22:35:57.594Z</time></trkpt><trkpt lat="-36.733958" lon="174.4099037"><ele>121.33333333333333</ele><time>2026-05-02T22:35:59.594Z</time></trkpt><trkpt lat="-36.7340335" lon="174.4099653"><ele>120.0</ele><time>2026-05-02T22:36:01.594Z</time></trkpt><trkpt lat="-36.7341123" lon="174.4100139"><ele>120.0</ele><time>2026-05-02T22:36:04.593Z</time></trkpt><trkpt lat="-36.7341492" lon="174.4100803"><ele>120.0</ele><time>2026-05-02T22:36:06.594Z</time></trkpt><trkpt lat="-36.7341713" lon="174.4101853"><ele>120.0</ele><time>2026-05-02T22:36:08.593Z</time></trkpt><trkpt lat="-36.7342103" lon="174.41028"><ele>120.0</ele><time>2026-05-02T22:36:10.593Z</time></trkpt><trkpt lat="-36.7342671" lon="174.4103393"><ele>120.0</ele><time>2026-05-02T22:36:13.594Z</time></trkpt><trkpt lat="-36.7342888" lon="174.4104132"><ele>120.0</ele><time>2026-05-02T22:36:16.593Z</time></trkpt><trkpt lat="-36.7342721" lon="174.4105302"><ele>120.66666666666667</ele><time>2026-05-02T22:36:20.594Z</time></trkpt><trkpt lat="-36.7342472" lon="174.4106107"><ele>121.33333333333334</ele><time>2026-05-02T22:36:22.592Z</time></trkpt><trkpt lat="-36.7342496" lon="174.4106918"><ele>122.0</ele><time>2026-05-02T22:36:24.594Z</time></trkpt><trkpt lat="-36.7342085" lon="174.4107624"><ele>122.66666666666667</ele><time>2026-05-02T22:36:27.594Z</time></trkpt><trkpt lat="-36.7341439" lon="174.4107049"><ele>123.33333333333334</ele><time>2026-05-02T22:36:30.593Z</time></trkpt><trkpt lat="-36.7340926" lon="174.4106085"><ele>124.0</ele><time>2026-05-02T22:36:32.593Z</time></trkpt><trkpt lat="-36.7340122" lon="174.4105532"><ele>124.00000000000001</ele><time>2026-05-02T22:36:34.593Z</time></trkpt><trkpt lat="-36.7339329" lon="174.4105836"><ele>124.0</ele><time>2026-05-02T22:36:36.594Z</time></trkpt><trkpt lat="-36.7338777" lon="174.4106315"><ele>124.0</ele><time>2026-05-02T22:36:38.594Z</time></trkpt><trkpt lat="-36.7337966" lon="174.4105879"><ele>124.0</ele><time>2026-05-02T22:36:41.594Z</time></trkpt><trkpt lat="-36.7337056" lon="174.4105555"><ele>124.00000000000001</ele><time>2026-05-02T22:36:43.593Z</time></trkpt><trkpt lat="-36.7336113" lon="174.4105557"><ele>124.0</ele><time>2026-05-02T22:36:45.594Z</time></trkpt><trkpt lat="-36.7335475" lon="174.4106056"><ele>124.33333333333334</ele><time>2026-05-02T22:36:47.593Z</time></trkpt><trkpt lat="-36.7335161" lon="174.4106954"><ele>124.66666666666667</ele><time>2026-05-02T22:36:49.593Z</time></trkpt><trkpt lat="-36.7334817" lon="174.410769"><ele>125.0</ele><time>2026-05-02T22:36:51.593Z</time></trkpt><trkpt lat="-36.7334062" lon="174.4108225"><ele>125.33333333333334</ele><time>2026-05-02T22:36:54.593Z</time></trkpt><trkpt lat="-36.7333305" lon="174.4107706"><ele>125.66666666666667</ele><time>2026-05-02T22:36:57.594Z</time></trkpt><trkpt lat="-36.7333145" lon="174.4106818"><ele>126.0</ele><time>2026-05-02T22:37:00.593Z</time></trkpt><trkpt lat="-36.7332458" lon="174.4106742"><ele>126.0</ele><time>2026-05-02T22:37:04.593Z</time></trkpt><trkpt lat="-36.7331933" lon="174.4107331"><ele>126.0</ele><time>2026-05-02T22:37:07.594Z</time></trkpt><trkpt lat="-36.7331283" lon="174.4107342"><ele>126.0</ele><time>2026-05-02T22:37:09.595Z</time></trkpt><trkpt lat="-36.7330516" lon="174.4107247"><ele>126.0</ele><time>2026-05-02T22:37:12.594Z</time></trkpt><trkpt lat="-36.7330864" lon="174.4106344"><ele>126.0</ele><time>2026-05-02T22:37:18.595Z</time></trkpt><trkpt lat="-36.7331138" lon="174.4105621"><ele>126.0</ele><time>2026-05-02T22:37:21.595Z</time></trkpt><trkpt lat="-36.7331148" lon="174.4104788"><ele>126.0</ele><time>2026-05-02T22:37:24.595Z</time></trkpt><trkpt lat="-36.7331518" lon="174.4103839"><ele>126.0</ele><time>2026-05-02T22:37:27.593Z</time></trkpt><trkpt lat="-36.7331148" lon="174.4103022"><ele>126.0</ele><time>2026-05-02T22:37:31.594Z</time></trkpt><trkpt lat="-36.7330272" lon="174.4102918"><ele>126.0</ele><time>2026-05-02T22:37:34.593Z</time></trkpt><trkpt lat="-36.7329651" lon="174.4103078"><ele>126.0</ele><time>2026-05-02T22:37:36.593Z</time></trkpt><trkpt lat="-36.7329024" lon="174.4103591"><ele>126.0</ele><time>2026-05-02T22:37:38.594Z</time></trkpt><trkpt lat="-36.7328361" lon="174.4103767"><ele>126.0</ele><time>2026-05-02T22:37:40.595Z</time></trkpt><trkpt lat="-36.7327727" lon="174.4103618"><ele>126.0</ele><time>2026-05-02T22:37:42.593Z</time></trkpt><trkpt lat="-36.7327021" lon="174.4103335"><ele>127.33333333333333</ele><time>2026-05-02T22:37:44.595Z</time></trkpt><trkpt lat="-36.7326242" lon="174.4103269"><ele>128.66666666666666</ele><time>2026-05-02T22:37:46.594Z</time></trkpt><trkpt lat="-36.7325595" lon="174.410304"><ele>130.0</ele><time>2026-05-02T22:37:48.595Z</time></trkpt><trkpt lat="-36.7324783" lon="174.4102747"><ele>131.33333333333331</ele><time>2026-05-02T22:37:50.594Z</time></trkpt><trkpt lat="-36.732402" lon="174.4102451"><ele>132.66666666666666</ele><time>2026-05-02T22:37:52.595Z</time></trkpt><trkpt lat="-36.7323242" lon="174.4102149"><ele>134.0</ele><time>2026-05-02T22:37:54.593Z</time></trkpt><trkpt lat="-36.7322527" lon="174.41017"><ele>134.0</ele><time>2026-05-02T22:37:56.594Z</time></trkpt><trkpt lat="-36.732187" lon="174.4101235"><ele>134.0</ele><time>2026-05-02T22:37:58.595Z</time></trkpt><trkpt lat="-36.7321138" lon="174.4100864"><ele>134.0</ele><time>2026-05-02T22:38:00.594Z</time></trkpt><trkpt lat="-36.7320561" lon="174.4100324"><ele>134.0</ele><time>2026-05-02T22:38:02.593Z</time></trkpt><trkpt lat="-36.73199" lon="174.4100029"><ele>134.0</ele><time>2026-05-02T22:38:04.594Z</time></trkpt><trkpt lat="-36.7319187" lon="174.409969"><ele>134.0</ele><time>2026-05-02T22:38:06.593Z</time></trkpt><trkpt lat="-36.7318425" lon="174.4099598"><ele>134.33333333333331</ele><time>2026-05-02T22:38:08.594Z</time></trkpt><trkpt lat="-36.7317767" lon="174.4099811"><ele>134.66666666666666</ele><time>2026-05-02T22:38:10.593Z</time></trkpt><trkpt lat="-36.7317151" lon="174.4100217"><ele>135.0</ele><time>2026-05-02T22:38:12.594Z</time></trkpt><trkpt lat="-36.7316453" lon="174.4100772"><ele>135.33333333333334</ele><time>2026-05-02T22:38:14.593Z</time></trkpt><trkpt lat="-36.7315917" lon="174.4101575"><ele>135.66666666666669</ele><time>2026-05-02T22:38:16.594Z</time></trkpt><trkpt lat="-36.7314948" lon="174.410172"><ele>136.0</ele><time>2026-05-02T22:38:19.594Z</time></trkpt><trkpt lat="-36.7314316" lon="174.4101948"><ele>136.0</ele><time>2026-05-02T22:38:21.594Z</time></trkpt><trkpt lat="-36.7313619" lon="174.4102766"><ele>136.0</ele><time>2026-05-02T22:38:24.593Z</time></trkpt><trkpt lat="-36.7313058" lon="174.4103408"><ele>136.0</ele><time>2026-05-02T22:38:26.595Z</time></trkpt><trkpt lat="-36.7312368" lon="174.4103931"><ele>136.0</ele><time>2026-05-02T22:38:28.593Z</time></trkpt><trkpt lat="-36.7311644" lon="174.4104247"><ele>136.0</ele><time>2026-05-02T22:38:30.593Z</time></trkpt><trkpt lat="-36.7310905" lon="174.4104286"><ele>136.0</ele><time>2026-05-02T22:38:32.594Z</time></trkpt><trkpt lat="-36.7310062" lon="174.4104102"><ele>136.33333333333334</ele><time>2026-05-02T22:38:34.593Z</time></trkpt><trkpt lat="-36.7309309" lon="174.410371"><ele>136.66666666666669</ele><time>2026-05-02T22:38:36.595Z</time></trkpt><trkpt lat="-36.730892" lon="174.4102772"><ele>137.0</ele><time>2026-05-02T22:38:39.595Z</time></trkpt><trkpt lat="-36.7308318" lon="174.4102145"><ele>137.33333333333334</ele><time>2026-05-02T22:38:42.595Z</time></trkpt><trkpt lat="-36.7307575" lon="174.4102347"><ele>137.66666666666666</ele><time>2026-05-02T22:38:45.594Z</time></trkpt><trkpt lat="-36.7307005" lon="174.4102683"><ele>138.0</ele><time>2026-05-02T22:38:48.593Z</time></trkpt><trkpt lat="-36.7307159" lon="174.4101804"><ele>138.0</ele><time>2026-05-02T22:38:51.593Z</time></trkpt><trkpt lat="-36.7307209" lon="174.4100808"><ele>138.0</ele><time>2026-05-02T22:38:54.594Z</time></trkpt><trkpt lat="-36.7306762" lon="174.4100156"><ele>138.0</ele><time>2026-05-02T22:38:57.593Z</time></trkpt><trkpt lat="-36.7306078" lon="174.4099948"><ele>138.0</ele><time>2026-05-02T22:39:00.593Z</time></trkpt><trkpt lat="-36.7305588" lon="174.4099206"><ele>138.0</ele><time>2026-05-02T22:39:03.593Z</time></trkpt><trkpt lat="-36.7305701" lon="174.4098351"><ele>138.0</ele><time>2026-05-02T22:39:05.594Z</time></trkpt><trkpt lat="-36.7306068" lon="174.4097418"><ele>138.0</ele><time>2026-05-02T22:39:07.594Z</time></trkpt><trkpt lat="-36.7306493" lon="174.409636"><ele>137.20000000000002</ele><time>2026-05-02T22:39:09.594Z</time></trkpt><trkpt lat="-36.730694" lon="174.4095047"><ele>136.4</ele><time>2026-05-02T22:39:11.595Z</time></trkpt><trkpt lat="-36.7307392" lon="174.4093839"><ele>135.60000000000002</ele><time>2026-05-02T22:39:13.594Z</time></trkpt><trkpt lat="-36.7307829" lon="174.4092754"><ele>134.8</ele><time>2026-05-02T22:39:15.593Z</time></trkpt><trkpt lat="-36.7308196" lon="174.4091928"><ele>134.0</ele><time>2026-05-02T22:39:17.593Z</time></trkpt><trkpt lat="-36.7307691" lon="174.4091351"><ele>134.0</ele><time>2026-05-02T22:39:22.595Z</time></trkpt><trkpt lat="-36.7307242" lon="174.4090762"><ele>134.0</ele><time>2026-05-02T22:39:32.593Z</time></trkpt><trkpt lat="-36.7306426" lon="174.4090323"><ele>134.0</ele><time>2026-05-02T22:39:35.592Z</time></trkpt><trkpt lat="-36.7305583" lon="174.4090551"><ele>134.0</ele><time>2026-05-02T22:39:37.593Z</time></trkpt><trkpt lat="-36.7304926" lon="174.4091153"><ele>134.0</ele><time>2026-05-02T22:39:38.594Z</time></trkpt><trkpt lat="-36.7303799" lon="174.4091692"><ele>134.0</ele><time>2026-05-02T22:39:40.595Z</time></trkpt><trkpt lat="-36.7302758" lon="174.4091337"><ele>133.0</ele><time>2026-05-02T22:39:42.594Z</time></trkpt><trkpt lat="-36.7301864" lon="174.4091087"><ele>132.0</ele><time>2026-05-02T22:39:44.595Z</time></trkpt><trkpt lat="-36.7300877" lon="174.4091584"><ele>131.0</ele><time>2026-05-02T22:39:46.594Z</time></trkpt><trkpt lat="-36.7299903" lon="174.4092366"><ele>130.0</ele><time>2026-05-02T22:39:48.593Z</time></trkpt><trkpt lat="-36.7299647" lon="174.4093092"><ele>129.0</ele><time>2026-05-02T22:39:49.594Z</time></trkpt><trkpt lat="-36.7299466" lon="174.409385"><ele>128.0</ele><time>2026-05-02T22:39:50.593Z</time></trkpt><trkpt lat="-36.7298598" lon="174.4094408"><ele>127.99999999999999</ele><time>2026-05-02T22:39:52.593Z</time></trkpt><trkpt lat="-36.7297551" lon="174.4093953"><ele>128.0</ele><time>2026-05-02T22:39:54.593Z</time></trkpt><trkpt lat="-36.729722" lon="174.4093182"><ele>128.0</ele><time>2026-05-02T22:39:55.595Z</time></trkpt><trkpt lat="-36.7296923" lon="174.4092191"><ele>128.0</ele><time>2026-05-02T22:39:56.594Z</time></trkpt><trkpt lat="-36.7296986" lon="174.4091344"><ele>127.99999999999999</ele><time>2026-05-02T22:39:57.594Z</time></trkpt><trkpt lat="-36.7297118" lon="174.408996"><ele>128.0</ele><time>2026-05-02T22:39:59.594Z</time></trkpt><trkpt lat="-36.7296602" lon="174.4088926"><ele>127.99999999999999</ele><time>2026-05-02T22:40:01.594Z</time></trkpt><trkpt lat="-36.729564" lon="174.4088567"><ele>128.0</ele><time>2026-05-02T22:40:03.593Z</time></trkpt><trkpt lat="-36.7294551" lon="174.4088474"><ele>128.0</ele><time>2026-05-02T22:40:05.595Z</time></trkpt><trkpt lat="-36.7293894" lon="174.4088815"><ele>128.0</ele><time>2026-05-02T22:40:06.595Z</time></trkpt><trkpt lat="-36.7293123" lon="174.4089065"><ele>127.99999999999999</ele><time>2026-05-02T22:40:07.595Z</time></trkpt><trkpt lat="-36.729258" lon="174.4089545"><ele>128.0</ele><time>2026-05-02T22:40:08.594Z</time></trkpt><trkpt lat="-36.7291677" lon="174.4090116"><ele>127.0</ele><time>2026-05-02T22:40:10.594Z</time></trkpt><trkpt lat="-36.7290747" lon="174.4089891"><ele>126.00000000000001</ele><time>2026-05-02T22:40:12.595Z</time></trkpt><trkpt lat="-36.7290023" lon="174.4089187"><ele>125.00000000000001</ele><time>2026-05-02T22:40:14.595Z</time></trkpt><trkpt lat="-36.7289264" lon="174.4088777"><ele>124.0</ele><time>2026-05-02T22:40:16.595Z</time></trkpt><trkpt lat="-36.7288292" lon="174.4088246"><ele>123.0</ele><time>2026-05-02T22:40:18.593Z</time></trkpt><trkpt lat="-36.7287536" lon="174.4087455"><ele>122.16666666666667</ele><time>2026-05-02T22:40:20.593Z</time></trkpt><trkpt lat="-36.7287117" lon="174.4086641"><ele>121.33333333333334</ele><time>2026-05-02T22:40:22.594Z</time></trkpt><trkpt lat="-36.7286627" lon="174.4086"><ele>120.5</ele><time>2026-05-02T22:40:24.594Z</time></trkpt><trkpt lat="-36.728578" lon="174.4085824"><ele>119.66666666666667</ele><time>2026-05-02T22:40:28.594Z</time></trkpt><trkpt lat="-36.7285089" lon="174.4085577"><ele>118.83333333333334</ele><time>2026-05-02T22:40:30.594Z</time></trkpt><trkpt lat="-36.7284018" lon="174.4085204"><ele>118.0</ele><time>2026-05-02T22:40:32.595Z</time></trkpt><trkpt lat="-36.72831" lon="174.4085048"><ele>118.00000000000001</ele><time>2026-05-02T22:40:34.593Z</time></trkpt><trkpt lat="-36.7282579" lon="174.4085736"><ele>118.0</ele><time>2026-05-02T22:40:37.594Z</time></trkpt><trkpt lat="-36.7282262" lon="174.4086458"><ele>118.0</ele><time>2026-05-02T22:40:40.594Z</time></trkpt><trkpt lat="-36.7281589" lon="174.4086898"><ele>118.0</ele><time>2026-05-02T22:40:43.595Z</time></trkpt><trkpt lat="-36.7280732" lon="174.4086929"><ele>118.00000000000001</ele><time>2026-05-02T22:40:46.593Z</time></trkpt><trkpt lat="-36.7279827" lon="174.4087548"><ele>118.0</ele><time>2026-05-02T22:40:49.593Z</time></trkpt><trkpt lat="-36.727899" lon="174.4087792"><ele>118.0</ele><time>2026-05-02T22:40:51.595Z</time></trkpt><trkpt lat="-36.7278139" lon="174.4087304"><ele>118.00000000000001</ele><time>2026-05-02T22:40:53.593Z</time></trkpt><trkpt lat="-36.7277596" lon="174.4086536"><ele>118.00000000000001</ele><time>2026-05-02T22:40:55.595Z</time></trkpt><trkpt lat="-36.7277068" lon="174.4085624"><ele>118.0</ele><time>2026-05-02T22:40:57.595Z</time></trkpt><trkpt lat="-36.7276517" lon="174.4084639"><ele>118.0</ele><time>2026-05-02T22:40:59.595Z</time></trkpt><trkpt lat="-36.7275585" lon="174.408387"><ele>118.33333333333334</ele><time>2026-05-02T22:41:00.593Z</time></trkpt><trkpt lat="-36.7274655" lon="174.4083546"><ele>118.66666666666667</ele><time>2026-05-02T22:41:02.594Z</time></trkpt><trkpt lat="-36.7273836" lon="174.4083588"><ele>119.0</ele><time>2026-05-02T22:41:04.593Z</time></trkpt><trkpt lat="-36.7272939" lon="174.4083573"><ele>119.33333333333334</ele><time>2026-05-02T22:41:06.594Z</time></trkpt><trkpt lat="-36.7272178" lon="174.4083316"><ele>119.66666666666667</ele><time>2026-05-02T22:41:08.595Z</time></trkpt><trkpt lat="-36.7271545" lon="174.4082746"><ele>120.0</ele><time>2026-05-02T22:41:09.593Z</time></trkpt><trkpt lat="-36.7271012" lon="174.4081595"><ele>120.0</ele><time>2026-05-02T22:41:11.595Z</time></trkpt><trkpt lat="-36.727035" lon="174.4080218"><ele>120.0</ele><time>2026-05-02T22:41:13.592Z</time></trkpt><trkpt lat="-36.7270038" lon="174.4079418"><ele>120.0</ele><time>2026-05-02T22:41:14.594Z</time></trkpt><trkpt lat="-36.726957" lon="174.4078658"><ele>120.0</ele><time>2026-05-02T22:41:15.595Z</time></trkpt><trkpt lat="-36.726931" lon="174.4077749"><ele>120.0</ele><time>2026-05-02T22:41:16.595Z</time></trkpt><trkpt lat="-36.7269346" lon="174.4076862"><ele>120.0</ele><time>2026-05-02T22:41:17.594Z</time></trkpt><trkpt lat="-36.7269079" lon="174.4075873"><ele>117.83333333333333</ele><time>2026-05-02T22:41:19.595Z</time></trkpt><trkpt lat="-36.7268381" lon="174.4076403"><ele>115.66666666666666</ele><time>2026-05-02T22:41:21.595Z</time></trkpt><trkpt lat="-36.7267715" lon="174.40772"><ele>113.5</ele><time>2026-05-02T22:41:23.595Z</time></trkpt><trkpt lat="-36.7267094" lon="174.4076383"><ele>111.33333333333333</ele><time>2026-05-02T22:41:25.594Z</time></trkpt><trkpt lat="-36.7267014" lon="174.4075255"><ele>109.16666666666666</ele><time>2026-05-02T22:41:27.594Z</time></trkpt><trkpt lat="-36.7266988" lon="174.4074356"><ele>107.0</ele><time>2026-05-02T22:41:29.593Z</time></trkpt><trkpt lat="-36.7266507" lon="174.4073503"><ele>107.0</ele><time>2026-05-02T22:41:31.593Z</time></trkpt><trkpt lat="-36.7265732" lon="174.4072319"><ele>106.99999999999999</ele><time>2026-05-02T22:41:33.595Z</time></trkpt><trkpt lat="-36.7265259" lon="174.4071642"><ele>106.99999999999999</ele><time>2026-05-02T22:41:34.594Z</time></trkpt><trkpt lat="-36.726437" lon="174.4070773"><ele>107.0</ele><time>2026-05-02T22:41:36.593Z</time></trkpt><trkpt lat="-36.7263815" lon="174.4070286"><ele>107.0</ele><time>2026-05-02T22:41:37.593Z</time></trkpt><trkpt lat="-36.7262856" lon="174.4070467"><ele>106.8</ele><time>2026-05-02T22:41:39.594Z</time></trkpt><trkpt lat="-36.7262167" lon="174.406992"><ele>106.6</ele><time>2026-05-02T22:41:41.593Z</time></trkpt><trkpt lat="-36.7261106" lon="174.4068752"><ele>106.39999999999999</ele><time>2026-05-02T22:41:43.593Z</time></trkpt><trkpt lat="-36.7260563" lon="174.4067915"><ele>106.19999999999999</ele><time>2026-05-02T22:41:44.594Z</time></trkpt><trkpt lat="-36.7260221" lon="174.4066933"><ele>106.0</ele><time>2026-05-02T22:41:45.593Z</time></trkpt><trkpt lat="-36.725962" lon="174.4066359"><ele>104.8</ele><time>2026-05-02T22:41:47.595Z</time></trkpt><trkpt lat="-36.7258508" lon="174.4066361"><ele>103.6</ele><time>2026-05-02T22:41:50.593Z</time></trkpt><trkpt lat="-36.7257407" lon="174.406674"><ele>102.4</ele><time>2026-05-02T22:41:52.593Z</time></trkpt><trkpt lat="-36.7256501" lon="174.4067205"><ele>101.2</ele><time>2026-05-02T22:41:54.596Z</time></trkpt><trkpt lat="-36.7255961" lon="174.4067878"><ele>100.0</ele><time>2026-05-02T22:41:56.594Z</time></trkpt><trkpt lat="-36.7255375" lon="174.4068551"><ele>100.0</ele><time>2026-05-02T22:41:58.593Z</time></trkpt><trkpt lat="-36.7254934" lon="174.4069258"><ele>100.0</ele><time>2026-05-02T22:42:00.595Z</time></trkpt><trkpt lat="-36.7254315" lon="174.4070122"><ele>100.0</ele><time>2026-05-02T22:42:02.593Z</time></trkpt><trkpt lat="-36.7253634" lon="174.4071364"><ele>100.0</ele><time>2026-05-02T22:42:04.594Z</time></trkpt><trkpt lat="-36.725322" lon="174.4072503"><ele>100.0</ele><time>2026-05-02T22:42:06.594Z</time></trkpt><trkpt lat="-36.7252742" lon="174.4073615"><ele>99.66666666666667</ele><time>2026-05-02T22:42:08.594Z</time></trkpt><trkpt lat="-36.7252238" lon="174.4074398"><ele>99.33333333333334</ele><time>2026-05-02T22:42:10.593Z</time></trkpt><trkpt lat="-36.7251638" lon="174.407516"><ele>99.0</ele><time>2026-05-02T22:42:13.594Z</time></trkpt><trkpt lat="-36.7250982" lon="174.4075818"><ele>98.66666666666666</ele><time>2026-05-02T22:42:16.594Z</time></trkpt><trkpt lat="-36.725046" lon="174.4075213"><ele>98.33333333333333</ele><time>2026-05-02T22:42:20.593Z</time></trkpt><trkpt lat="-36.7249655" lon="174.4074608"><ele>98.0</ele><time>2026-05-02T22:42:24.594Z</time></trkpt><trkpt lat="-36.7249064" lon="174.4074119"><ele>97.99999999999999</ele><time>2026-05-02T22:42:27.594Z</time></trkpt><trkpt lat="-36.7248925" lon="174.407305"><ele>98.0</ele><time>2026-05-02T22:42:30.594Z</time></trkpt><trkpt lat="-36.7248765" lon="174.407195"><ele>98.0</ele><time>2026-05-02T22:42:33.594Z</time></trkpt><trkpt lat="-36.72484" lon="174.4071191"><ele>98.0</ele><time>2026-05-02T22:42:35.593Z</time></trkpt><trkpt lat="-36.7247777" lon="174.4070988"><ele>97.99999999999999</ele><time>2026-05-02T22:42:37.595Z</time></trkpt><trkpt lat="-36.7247088" lon="174.4070892"><ele>98.0</ele><time>2026-05-02T22:42:39.595Z</time></trkpt><trkpt lat="-36.7246343" lon="174.4070581"><ele>98.99999999999999</ele><time>2026-05-02T22:42:41.594Z</time></trkpt><trkpt lat="-36.7245623" lon="174.4070105"><ele>100.0</ele><time>2026-05-02T22:42:43.594Z</time></trkpt><trkpt lat="-36.7245188" lon="174.406944"><ele>101.0</ele><time>2026-05-02T22:42:45.594Z</time></trkpt><trkpt lat="-36.7244864" lon="174.4068614"><ele>102.0</ele><time>2026-05-02T22:42:47.594Z</time></trkpt><trkpt lat="-36.7244347" lon="174.4067649"><ele>102.99999999999999</ele><time>2026-05-02T22:42:49.594Z</time></trkpt><trkpt lat="-36.7243854" lon="174.4066835"><ele>104.0</ele><time>2026-05-02T22:42:50.593Z</time></trkpt><trkpt lat="-36.7243055" lon="174.4066407"><ele>104.33333333333333</ele><time>2026-05-02T22:42:52.594Z</time></trkpt><trkpt lat="-36.7242316" lon="174.4066368"><ele>104.66666666666666</ele><time>2026-05-02T22:42:54.593Z</time></trkpt><trkpt lat="-36.7241367" lon="174.406644"><ele>105.0</ele><time>2026-05-02T22:42:56.593Z</time></trkpt><trkpt lat="-36.7240235" lon="174.4066231"><ele>105.33333333333334</ele><time>2026-05-02T22:42:58.594Z</time></trkpt><trkpt lat="-36.7239507" lon="174.4066004"><ele>105.66666666666667</ele><time>2026-05-02T22:43:00.593Z</time></trkpt><trkpt lat="-36.723883" lon="174.406543"><ele>106.0</ele><time>2026-05-02T22:43:02.595Z</time></trkpt><trkpt lat="-36.7238202" lon="174.4065134"><ele>106.00000000000001</ele><time>2026-05-02T22:43:04.593Z</time></trkpt><trkpt lat="-36.7237551" lon="174.4064978"><ele>106.0</ele><time>2026-05-02T22:43:07.595Z</time></trkpt><trkpt lat="-36.7237056" lon="174.4064452"><ele>106.0</ele><time>2026-05-02T22:43:09.594Z</time></trkpt><trkpt lat="-36.7236441" lon="174.4063895"><ele>106.0</ele><time>2026-05-02T22:43:11.594Z</time></trkpt><trkpt lat="-36.7235497" lon="174.4063398"><ele>106.00000000000001</ele><time>2026-05-02T22:43:13.594Z</time></trkpt><trkpt lat="-36.7234779" lon="174.4062725"><ele>106.0</ele><time>2026-05-02T22:43:15.593Z</time></trkpt><trkpt lat="-36.7233972" lon="174.4062352"><ele>104.8</ele><time>2026-05-02T22:43:16.594Z</time></trkpt><trkpt lat="-36.7233191" lon="174.4062218"><ele>103.6</ele><time>2026-05-02T22:43:17.594Z</time></trkpt><trkpt lat="-36.7232387" lon="174.4061679"><ele>102.4</ele><time>2026-05-02T22:43:19.594Z</time></trkpt><trkpt lat="-36.7231255" lon="174.4061154"><ele>101.2</ele><time>2026-05-02T22:43:21.593Z</time></trkpt><trkpt lat="-36.7230643" lon="174.4060958"><ele>100.0</ele><time>2026-05-02T22:43:22.593Z</time></trkpt><trkpt lat="-36.7229524" lon="174.4060491"><ele>100.0</ele><time>2026-05-02T22:43:24.594Z</time></trkpt><trkpt lat="-36.7228388" lon="174.4060486"><ele>100.0</ele><time>2026-05-02T22:43:26.595Z</time></trkpt><trkpt lat="-36.7227653" lon="174.4061092"><ele>100.0</ele><time>2026-05-02T22:43:28.594Z</time></trkpt><trkpt lat="-36.7226833" lon="174.4062096"><ele>100.0</ele><time>2026-05-02T22:43:30.593Z</time></trkpt><trkpt lat="-36.7226376" lon="174.4063068"><ele>100.0</ele><time>2026-05-02T22:43:32.594Z</time></trkpt><trkpt lat="-36.7225915" lon="174.4063787"><ele>99.2</ele><time>2026-05-02T22:43:33.593Z</time></trkpt><trkpt lat="-36.7225281" lon="174.4064621"><ele>98.4</ele><time>2026-05-02T22:43:35.594Z</time></trkpt><trkpt lat="-36.7224522" lon="174.4064776"><ele>97.6</ele><time>2026-05-02T22:43:37.594Z</time></trkpt><trkpt lat="-36.7223776" lon="174.4064591"><ele>96.8</ele><time>2026-05-02T22:43:39.595Z</time></trkpt><trkpt lat="-36.7222742" lon="174.4064205"><ele>96.0</ele><time>2026-05-02T22:43:41.595Z</time></trkpt><trkpt lat="-36.7221752" lon="174.4063401"><ele>96.19999999999999</ele><time>2026-05-02T22:43:43.593Z</time></trkpt><trkpt lat="-36.7220714" lon="174.4062919"><ele>96.39999999999999</ele><time>2026-05-02T22:43:45.595Z</time></trkpt><trkpt lat="-36.7219757" lon="174.4062668"><ele>96.6</ele><time>2026-05-02T22:43:47.593Z</time></trkpt><trkpt lat="-36.7219169" lon="174.4062017"><ele>96.8</ele><time>2026-05-02T22:43:49.594Z</time></trkpt><trkpt lat="-36.7218512" lon="174.4061356"><ele>97.0</ele><time>2026-05-02T22:43:51.593Z</time></trkpt><trkpt lat="-36.721783" lon="174.4060565"><ele>95.8</ele><time>2026-05-02T22:43:53.594Z</time></trkpt><trkpt lat="-36.7217051" lon="174.4059583"><ele>94.6</ele><time>2026-05-02T22:43:55.595Z</time></trkpt><trkpt lat="-36.7216051" lon="174.4058206"><ele>93.39999999999999</ele><time>2026-05-02T22:43:57.594Z</time></trkpt><trkpt lat="-36.7215541" lon="174.4057566"><ele>92.19999999999999</ele><time>2026-05-02T22:43:58.595Z</time></trkpt><trkpt lat="-36.7214818" lon="174.4056561"><ele>91.0</ele><time>2026-05-02T22:44:00.594Z</time></trkpt><trkpt lat="-36.7213954" lon="174.4055604"><ele>90.66666666666666</ele><time>2026-05-02T22:44:02.593Z</time></trkpt><trkpt lat="-36.7213092" lon="174.4054773"><ele>90.33333333333333</ele><time>2026-05-02T22:44:04.595Z</time></trkpt><trkpt lat="-36.721253" lon="174.4054303"><ele>90.0</ele><time>2026-05-02T22:44:05.595Z</time></trkpt><trkpt lat="-36.7211929" lon="174.4053934"><ele>89.66666666666667</ele><time>2026-05-02T22:44:06.595Z</time></trkpt><trkpt lat="-36.7211257" lon="174.4054059"><ele>89.33333333333334</ele><time>2026-05-02T22:44:08.594Z</time></trkpt><trkpt lat="-36.7210505" lon="174.4053859"><ele>89.0</ele><time>2026-05-02T22:44:10.594Z</time></trkpt><trkpt lat="-36.7209726" lon="174.4053796"><ele>88.5</ele><time>2026-05-02T22:44:12.594Z</time></trkpt><trkpt lat="-36.7208812" lon="174.4053704"><ele>88.0</ele><time>2026-05-02T22:44:14.593Z</time></trkpt><trkpt lat="-36.7208163" lon="174.4052964"><ele>87.5</ele><time>2026-05-02T22:44:16.594Z</time></trkpt><trkpt lat="-36.720816" lon="174.4052057"><ele>87.0</ele><time>2026-05-02T22:44:18.593Z</time></trkpt><trkpt lat="-36.7208377" lon="174.4051152"><ele>86.5</ele><time>2026-05-02T22:44:21.594Z</time></trkpt><trkpt lat="-36.7208288" lon="174.4050149"><ele>86.0</ele><time>2026-05-02T22:44:25.594Z</time></trkpt><trkpt lat="-36.7207987" lon="174.4049428"><ele>86.0</ele><time>2026-05-02T22:44:29.594Z</time></trkpt><trkpt lat="-36.7208511" lon="174.4048702"><ele>86.0</ele><time>2026-05-02T22:44:32.593Z</time></trkpt><trkpt lat="-36.7209104" lon="174.4047913"><ele>86.0</ele><time>2026-05-02T22:44:35.593Z</time></trkpt><trkpt lat="-36.7209484" lon="174.4047167"><ele>86.0</ele><time>2026-05-02T22:44:38.594Z</time></trkpt><trkpt lat="-36.7210098" lon="174.4046504"><ele>86.0</ele><time>2026-05-02T22:44:41.596Z</time></trkpt><trkpt lat="-36.7210634" lon="174.4045827"><ele>86.0</ele><time>2026-05-02T22:44:44.595Z</time></trkpt><trkpt lat="-36.7211167" lon="174.4045246"><ele>87.66666666666667</ele><time>2026-05-02T22:44:47.593Z</time></trkpt><trkpt lat="-36.7211965" lon="174.4044837"><ele>89.33333333333334</ele><time>2026-05-02T22:44:50.595Z</time></trkpt><trkpt lat="-36.7212808" lon="174.40443"><ele>91.0</ele><time>2026-05-02T22:44:52.594Z</time></trkpt><trkpt lat="-36.7213488" lon="174.4043784"><ele>92.66666666666667</ele><time>2026-05-02T22:44:53.594Z</time></trkpt><trkpt lat="-36.721449" lon="174.4043852"><ele>94.33333333333333</ele><time>2026-05-02T22:44:55.594Z</time></trkpt><trkpt lat="-36.7215259" lon="174.4043849"><ele>96.0</ele><time>2026-05-02T22:44:57.594Z</time></trkpt><trkpt lat="-36.7216181" lon="174.4043908"><ele>96.0</ele><time>2026-05-02T22:44:59.593Z</time></trkpt><trkpt lat="-36.7217014" lon="174.4043817"><ele>96.0</ele><time>2026-05-02T22:45:01.593Z</time></trkpt><trkpt lat="-36.7217855" lon="174.4043872"><ele>96.0</ele><time>2026-05-02T22:45:03.593Z</time></trkpt><trkpt lat="-36.7218837" lon="174.4044149"><ele>96.0</ele><time>2026-05-02T22:45:05.594Z</time></trkpt><trkpt lat="-36.7219688" lon="174.4044642"><ele>96.0</ele><time>2026-05-02T22:45:07.594Z</time></trkpt><trkpt lat="-36.7220315" lon="174.4045037"><ele>96.0</ele><time>2026-05-02T22:45:09.594Z</time></trkpt><trkpt lat="-36.7221094" lon="174.4045404"><ele>96.99999999999999</ele><time>2026-05-02T22:45:11.593Z</time></trkpt><trkpt lat="-36.722171" lon="174.4045698"><ele>98.0</ele><time>2026-05-02T22:45:13.595Z</time></trkpt><trkpt lat="-36.7222405" lon="174.4046006"><ele>99.0</ele><time>2026-05-02T22:45:16.594Z</time></trkpt><trkpt lat="-36.7222882" lon="174.4045475"><ele>100.0</ele><time>2026-05-02T22:45:19.594Z</time></trkpt><trkpt lat="-36.7223031" lon="174.4044418"><ele>101.0</ele><time>2026-05-02T22:45:22.594Z</time></trkpt><trkpt lat="-36.7223547" lon="174.4043936"><ele>101.99999999999999</ele><time>2026-05-02T22:45:25.595Z</time></trkpt><trkpt lat="-36.7224" lon="174.4044646"><ele>103.0</ele><time>2026-05-02T22:45:28.594Z</time></trkpt><trkpt lat="-36.7224231" lon="174.4045561"><ele>103.00000000000001</ele><time>2026-05-02T22:45:31.593Z</time></trkpt><trkpt lat="-36.7224867" lon="174.4046471"><ele>103.0</ele><time>2026-05-02T22:45:34.594Z</time></trkpt><trkpt lat="-36.7225374" lon="174.4047031"><ele>103.0</ele><time>2026-05-02T22:45:36.594Z</time></trkpt><trkpt lat="-36.7225977" lon="174.4047386"><ele>103.0</ele><time>2026-05-02T22:45:38.593Z</time></trkpt><trkpt lat="-36.7226819" lon="174.4047482"><ele>103.00000000000001</ele><time>2026-05-02T22:45:41.593Z</time></trkpt><trkpt lat="-36.722738" lon="174.4047905"><ele>103.0</ele><time>2026-05-02T22:45:43.594Z</time></trkpt><trkpt lat="-36.722827" lon="174.4048084"><ele>103.50000000000001</ele><time>2026-05-02T22:45:46.594Z</time></trkpt><trkpt lat="-36.7228938" lon="174.404831"><ele>104.0</ele><time>2026-05-02T22:45:48.595Z</time></trkpt><trkpt lat="-36.722966" lon="174.404875"><ele>104.5</ele><time>2026-05-02T22:45:51.594Z</time></trkpt><trkpt lat="-36.7230412" lon="174.4048897"><ele>105.0</ele><time>2026-05-02T22:45:53.594Z</time></trkpt><trkpt lat="-36.7231067" lon="174.4049254"><ele>105.50000000000001</ele><time>2026-05-02T22:45:55.594Z</time></trkpt><trkpt lat="-36.7231813" lon="174.4049634"><ele>106.0</ele><time>2026-05-02T22:45:57.594Z</time></trkpt><trkpt lat="-36.7232597" lon="174.4049816"><ele>106.00000000000001</ele><time>2026-05-02T22:45:59.593Z</time></trkpt><trkpt lat="-36.7233315" lon="174.4049966"><ele>106.0</ele><time>2026-05-02T22:46:01.594Z</time></trkpt><trkpt lat="-36.7234202" lon="174.4050635"><ele>106.0</ele><time>2026-05-02T22:46:03.594Z</time></trkpt><trkpt lat="-36.7235023" lon="174.4051127"><ele>106.0</ele><time>2026-05-02T22:46:05.594Z</time></trkpt><trkpt lat="-36.7235753" lon="174.4051367"><ele>106.00000000000001</ele><time>2026-05-02T22:46:07.594Z</time></trkpt><trkpt lat="-36.7236524" lon="174.4051231"><ele>106.0</ele><time>2026-05-02T22:46:09.593Z</time></trkpt><trkpt lat="-36.7237244" lon="174.4051162"><ele>106.16666666666667</ele><time>2026-05-02T22:46:11.594Z</time></trkpt><trkpt lat="-36.7238001" lon="174.4051108"><ele>106.33333333333334</ele><time>2026-05-02T22:46:13.595Z</time></trkpt><trkpt lat="-36.7238839" lon="174.4051146"><ele>106.5</ele><time>2026-05-02T22:46:15.594Z</time></trkpt><trkpt lat="-36.7239809" lon="174.4051518"><ele>106.66666666666666</ele><time>2026-05-02T22:46:17.595Z</time></trkpt><trkpt lat="-36.7240603" lon="174.4051863"><ele>106.83333333333333</ele><time>2026-05-02T22:46:19.594Z</time></trkpt><trkpt lat="-36.7241406" lon="174.4052267"><ele>107.0</ele><time>2026-05-02T22:46:21.593Z</time></trkpt><trkpt lat="-36.7242079" lon="174.4052927"><ele>106.99999999999999</ele><time>2026-05-02T22:46:23.594Z</time></trkpt><trkpt lat="-36.7242654" lon="174.4053555"><ele>107.0</ele><time>2026-05-02T22:46:25.593Z</time></trkpt><trkpt lat="-36.7243258" lon="174.4053789"><ele>107.0</ele><time>2026-05-02T22:46:27.593Z</time></trkpt><trkpt lat="-36.7244122" lon="174.4054199"><ele>107.0</ele><time>2026-05-02T22:46:29.594Z</time></trkpt><trkpt lat="-36.7244938" lon="174.4054347"><ele>106.99999999999999</ele><time>2026-05-02T22:46:31.594Z</time></trkpt><trkpt lat="-36.7245939" lon="174.4054455"><ele>107.0</ele><time>2026-05-02T22:46:33.594Z</time></trkpt><trkpt lat="-36.7246846" lon="174.4054737"><ele>106.99999999999999</ele><time>2026-05-02T22:46:35.593Z</time></trkpt><trkpt lat="-36.7247663" lon="174.4055387"><ele>107.0</ele><time>2026-05-02T22:46:37.595Z</time></trkpt><trkpt lat="-36.7248419" lon="174.4055744"><ele>107.0</ele><time>2026-05-02T22:46:39.594Z</time></trkpt><trkpt lat="-36.7249105" lon="174.4055797"><ele>107.0</ele><time>2026-05-02T22:46:41.595Z</time></trkpt><trkpt lat="-36.7249887" lon="174.4056256"><ele>106.99999999999999</ele><time>2026-05-02T22:46:43.594Z</time></trkpt><trkpt lat="-36.7250711" lon="174.4056736"><ele>107.0</ele><time>2026-05-02T22:46:45.594Z</time></trkpt><trkpt lat="-36.7251477" lon="174.4057009"><ele>106.99999999999999</ele><time>2026-05-02T22:46:47.594Z</time></trkpt><trkpt lat="-36.7252148" lon="174.4056936"><ele>107.0</ele><time>2026-05-02T22:46:49.594Z</time></trkpt><trkpt lat="-36.7252965" lon="174.405662"><ele>107.0</ele><time>2026-05-02T22:46:51.594Z</time></trkpt><trkpt lat="-36.7253764" lon="174.4056189"><ele>107.0</ele><time>2026-05-02T22:46:53.594Z</time></trkpt><trkpt lat="-36.7254527" lon="174.4056126"><ele>106.99999999999999</ele><time>2026-05-02T22:46:55.593Z</time></trkpt><trkpt lat="-36.7255375" lon="174.4056159"><ele>107.0</ele><time>2026-05-02T22:46:57.593Z</time></trkpt><trkpt lat="-36.7256112" lon="174.4056061"><ele>106.66666666666666</ele><time>2026-05-02T22:46:59.595Z</time></trkpt><trkpt lat="-36.7256875" lon="174.4055711"><ele>106.33333333333333</ele><time>2026-05-02T22:47:01.593Z</time></trkpt><trkpt lat="-36.7257611" lon="174.4055483"><ele>106.0</ele><time>2026-05-02T22:47:03.592Z</time></trkpt><trkpt lat="-36.7258332" lon="174.4055441"><ele>105.66666666666666</ele><time>2026-05-02T22:47:05.594Z</time></trkpt><trkpt lat="-36.7258978" lon="174.4055569"><ele>105.33333333333333</ele><time>2026-05-02T22:47:07.594Z</time></trkpt><trkpt lat="-36.7259841" lon="174.4056203"><ele>105.0</ele><time>2026-05-02T22:47:10.594Z</time></trkpt><trkpt lat="-36.7260542" lon="174.4056873"><ele>105.66666666666667</ele><time>2026-05-02T22:47:12.594Z</time></trkpt><trkpt lat="-36.7261168" lon="174.4057331"><ele>106.33333333333334</ele><time>2026-05-02T22:47:14.594Z</time></trkpt><trkpt lat="-36.7262044" lon="174.4057801"><ele>107.0</ele><time>2026-05-02T22:47:16.594Z</time></trkpt><trkpt lat="-36.7262789" lon="174.4057945"><ele>107.66666666666667</ele><time>2026-05-02T22:47:18.594Z</time></trkpt><trkpt lat="-36.7263518" lon="174.4057811"><ele>108.33333333333334</ele><time>2026-05-02T22:47:20.594Z</time></trkpt><trkpt lat="-36.726435" lon="174.4057419"><ele>109.0</ele><time>2026-05-02T22:47:23.593Z</time></trkpt><trkpt lat="-36.7265008" lon="174.4057471"><ele>109.00000000000001</ele><time>2026-05-02T22:47:25.595Z</time></trkpt><trkpt lat="-36.7265627" lon="174.4058133"><ele>109.0</ele><time>2026-05-02T22:47:27.594Z</time></trkpt><trkpt lat="-36.726611" lon="174.4058836"><ele>109.0</ele><time>2026-05-02T22:47:29.595Z</time></trkpt><trkpt lat="-36.7266659" lon="174.405945"><ele>109.0</ele><time>2026-05-02T22:47:31.594Z</time></trkpt><trkpt lat="-36.7267075" lon="174.4060043"><ele>109.00000000000001</ele><time>2026-05-02T22:47:33.594Z</time></trkpt><trkpt lat="-36.7267455" lon="174.4061026"><ele>109.0</ele><time>2026-05-02T22:47:35.594Z</time></trkpt><trkpt lat="-36.726779" lon="174.4062779"><ele>108.50000000000001</ele><time>2026-05-02T22:47:37.593Z</time></trkpt><trkpt lat="-36.7267572" lon="174.4064042"><ele>108.0</ele><time>2026-05-02T22:47:39.593Z</time></trkpt><trkpt lat="-36.7267335" lon="174.4064965"><ele>107.5</ele><time>2026-05-02T22:47:40.593Z</time></trkpt><trkpt lat="-36.7267275" lon="174.4065963"><ele>107.0</ele><time>2026-05-02T22:47:42.594Z</time></trkpt><trkpt lat="-36.72676" lon="174.4066881"><ele>106.50000000000001</ele><time>2026-05-02T22:47:45.595Z</time></trkpt><trkpt lat="-36.7268214" lon="174.4067307"><ele>106.0</ele><time>2026-05-02T22:47:48.593Z</time></trkpt><trkpt lat="-36.7269008" lon="174.4067846"><ele>107.16666666666667</ele><time>2026-05-02T22:47:51.595Z</time></trkpt><trkpt lat="-36.7269868" lon="174.4068016"><ele>108.33333333333334</ele><time>2026-05-02T22:47:54.594Z</time></trkpt><trkpt lat="-36.7270741" lon="174.4068434"><ele>109.5</ele><time>2026-05-02T22:47:57.593Z</time></trkpt><trkpt lat="-36.72716" lon="174.4068349"><ele>110.66666666666666</ele><time>2026-05-02T22:48:00.594Z</time></trkpt><trkpt lat="-36.7272103" lon="174.4067452"><ele>111.83333333333333</ele><time>2026-05-02T22:48:03.594Z</time></trkpt><trkpt lat="-36.7272643" lon="174.4066693"><ele>113.0</ele><time>2026-05-02T22:48:06.593Z</time></trkpt><trkpt lat="-36.7273339" lon="174.4067047"><ele>113.0</ele><time>2026-05-02T22:48:09.593Z</time></trkpt><trkpt lat="-36.7274011" lon="174.4067108"><ele>113.0</ele><time>2026-05-02T22:48:11.593Z</time></trkpt><trkpt lat="-36.7274753" lon="174.4066796"><ele>113.0</ele><time>2026-05-02T22:48:13.594Z</time></trkpt><trkpt lat="-36.7275344" lon="174.406647"><ele>113.0</ele><time>2026-05-02T22:48:15.594Z</time></trkpt><trkpt lat="-36.7276001" lon="174.4066553"><ele>113.0</ele><time>2026-05-02T22:48:17.593Z</time></trkpt><trkpt lat="-36.7276695" lon="174.4066998"><ele>113.0</ele><time>2026-05-02T22:48:19.593Z</time></trkpt><trkpt lat="-36.7277365" lon="174.4067249"><ele>113.0</ele><time>2026-05-02T22:48:21.593Z</time></trkpt><trkpt lat="-36.727827" lon="174.4067005"><ele>113.42857142857143</ele><time>2026-05-02T22:48:24.594Z</time></trkpt><trkpt lat="-36.7278998" lon="174.4066552"><ele>113.85714285714286</ele><time>2026-05-02T22:48:26.593Z</time></trkpt><trkpt lat="-36.7279789" lon="174.4066351"><ele>114.28571428571429</ele><time>2026-05-02T22:48:28.595Z</time></trkpt><trkpt lat="-36.7280533" lon="174.4066222"><ele>114.71428571428572</ele><time>2026-05-02T22:48:30.595Z</time></trkpt><trkpt lat="-36.7281163" lon="174.4065925"><ele>115.14285714285714</ele><time>2026-05-02T22:48:32.595Z</time></trkpt><trkpt lat="-36.7281737" lon="174.4065546"><ele>115.57142857142858</ele><time>2026-05-02T22:48:34.593Z</time></trkpt><trkpt lat="-36.7282302" lon="174.4065189"><ele>116.00000000000001</ele><time>2026-05-02T22:48:36.595Z</time></trkpt><trkpt lat="-36.7283122" lon="174.4065513"><ele>115.99999999999999</ele><time>2026-05-02T22:48:38.594Z</time></trkpt><trkpt lat="-36.7283673" lon="174.4065894"><ele>116.0</ele><time>2026-05-02T22:48:40.596Z</time></trkpt><trkpt lat="-36.728416" lon="174.4066584"><ele>116.0</ele><time>2026-05-02T22:48:43.594Z</time></trkpt><trkpt lat="-36.7284917" lon="174.4067354"><ele>116.0</ele><time>2026-05-02T22:48:46.593Z</time></trkpt><trkpt lat="-36.7285504" lon="174.4067883"><ele>115.99999999999999</ele><time>2026-05-02T22:48:48.594Z</time></trkpt><trkpt lat="-36.7286232" lon="174.4068648"><ele>116.0</ele><time>2026-05-02T22:48:50.594Z</time></trkpt><trkpt lat="-36.72868" lon="174.4069407"><ele>115.83333333333333</ele><time>2026-05-02T22:48:52.593Z</time></trkpt><trkpt lat="-36.7287169" lon="174.4070262"><ele>115.66666666666666</ele><time>2026-05-02T22:48:54.594Z</time></trkpt><trkpt lat="-36.7287638" lon="174.4071409"><ele>115.5</ele><time>2026-05-02T22:48:57.593Z</time></trkpt><trkpt lat="-36.728813" lon="174.4072356"><ele>115.33333333333334</ele><time>2026-05-02T22:48:59.595Z</time></trkpt><trkpt lat="-36.7288598" lon="174.4073368"><ele>115.16666666666667</ele><time>2026-05-02T22:49:02.595Z</time></trkpt><trkpt lat="-36.7288921" lon="174.4074146"><ele>115.0</ele><time>2026-05-02T22:49:04.592Z</time></trkpt><trkpt lat="-36.7288649" lon="174.407506"><ele>115.33333333333334</ele><time>2026-05-02T22:49:07.594Z</time></trkpt><trkpt lat="-36.7288924" lon="174.4075816"><ele>115.66666666666667</ele><time>2026-05-02T22:49:10.594Z</time></trkpt><trkpt lat="-36.7289826" lon="174.4076012"><ele>116.0</ele><time>2026-05-02T22:49:13.595Z</time></trkpt><trkpt lat="-36.7290538" lon="174.4076108"><ele>116.33333333333334</ele><time>2026-05-02T22:49:15.594Z</time></trkpt><trkpt lat="-36.7291281" lon="174.4076135"><ele>116.66666666666667</ele><time>2026-05-02T22:49:17.595Z</time></trkpt><trkpt lat="-36.7292459" lon="174.4075978"><ele>117.0</ele><time>2026-05-02T22:49:19.594Z</time></trkpt><trkpt lat="-36.7293413" lon="174.4075886"><ele>117.33333333333333</ele><time>2026-05-02T22:49:21.594Z</time></trkpt><trkpt lat="-36.7294264" lon="174.4076274"><ele>117.66666666666666</ele><time>2026-05-02T22:49:23.595Z</time></trkpt><trkpt lat="-36.7295026" lon="174.4076754"><ele>118.0</ele><time>2026-05-02T22:49:25.594Z</time></trkpt><trkpt lat="-36.7295693" lon="174.4076753"><ele>118.33333333333333</ele><time>2026-05-02T22:49:27.595Z</time></trkpt><trkpt lat="-36.7296569" lon="174.4076528"><ele>118.66666666666666</ele><time>2026-05-02T22:49:30.595Z</time></trkpt><trkpt lat="-36.7297361" lon="174.4076809"><ele>119.0</ele><time>2026-05-02T22:49:33.593Z</time></trkpt><trkpt lat="-36.729808" lon="174.4077404"><ele>118.99999999999999</ele><time>2026-05-02T22:49:36.593Z</time></trkpt><trkpt lat="-36.7298549" lon="174.4078233"><ele>119.0</ele><time>2026-05-02T22:49:39.595Z</time></trkpt><trkpt lat="-36.7299268" lon="174.4078321"><ele>119.0</ele><time>2026-05-02T22:49:42.596Z</time></trkpt><trkpt lat="-36.7299855" lon="174.4077879"><ele>119.0</ele><time>2026-05-02T22:49:45.594Z</time></trkpt><trkpt lat="-36.7300468" lon="174.4077103"><ele>118.99999999999999</ele><time>2026-05-02T22:49:48.595Z</time></trkpt><trkpt lat="-36.7301162" lon="174.4077145"><ele>119.0</ele><time>2026-05-02T22:49:51.594Z</time></trkpt><trkpt lat="-36.7300994" lon="174.4078013"><ele>119.0</ele><time>2026-05-02T22:49:54.595Z</time></trkpt><trkpt lat="-36.7301038" lon="174.4078825"><ele>119.0</ele><time>2026-05-02T22:49:57.595Z</time></trkpt><trkpt lat="-36.7301844" lon="174.4078876"><ele>119.0</ele><time>2026-05-02T22:50:00.594Z</time></trkpt><trkpt lat="-36.7302505" lon="174.4078978"><ele>119.0</ele><time>2026-05-02T22:50:03.594Z</time></trkpt><trkpt lat="-36.7303101" lon="174.4079525"><ele>119.0</ele><time>2026-05-02T22:50:06.594Z</time></trkpt><trkpt lat="-36.7303906" lon="174.4079666"><ele>119.0</ele><time>2026-05-02T22:50:08.593Z</time></trkpt><trkpt lat="-36.7304664" lon="174.4079744"><ele>119.0</ele><time>2026-05-02T22:50:10.593Z</time></trkpt><trkpt lat="-36.7305438" lon="174.4079936"><ele>120.0</ele><time>2026-05-02T22:50:12.593Z</time></trkpt><trkpt lat="-36.7306119" lon="174.4079968"><ele>121.0</ele><time>2026-05-02T22:50:14.594Z</time></trkpt><trkpt lat="-36.7306747" lon="174.407972"><ele>122.0</ele><time>2026-05-02T22:50:16.594Z</time></trkpt><trkpt lat="-36.7307384" lon="174.4079535"><ele>123.0</ele><time>2026-05-02T22:50:18.594Z</time></trkpt><trkpt lat="-36.7307981" lon="174.4080193"><ele>124.0</ele><time>2026-05-02T22:50:21.594Z</time></trkpt><trkpt lat="-36.7308081" lon="174.4081061"><ele>125.0</ele><time>2026-05-02T22:50:23.594Z</time></trkpt><trkpt lat="-36.730796" lon="174.4081862"><ele>126.0</ele><time>2026-05-02T22:50:25.594Z</time></trkpt><trkpt lat="-36.7307853" lon="174.4082883"><ele>126.33333333333333</ele><time>2026-05-02T22:50:28.593Z</time></trkpt><trkpt lat="-36.7308382" lon="174.4083839"><ele>126.66666666666666</ele><time>2026-05-02T22:50:31.594Z</time></trkpt><trkpt lat="-36.7308932" lon="174.4084349"><ele>127.0</ele><time>2026-05-02T22:50:33.594Z</time></trkpt><trkpt lat="-36.730935" lon="174.4085184"><ele>127.33333333333333</ele><time>2026-05-02T22:50:35.594Z</time></trkpt><trkpt lat="-36.73094" lon="174.4086015"><ele>127.66666666666666</ele><time>2026-05-02T22:50:37.595Z</time></trkpt><trkpt lat="-36.7309401" lon="174.4087008"><ele>128.0</ele><time>2026-05-02T22:50:39.594Z</time></trkpt><trkpt lat="-36.7309415" lon="174.4088181"><ele>129.0</ele><time>2026-05-02T22:50:41.593Z</time></trkpt><trkpt lat="-36.7309187" lon="174.4089185"><ele>130.0</ele><time>2026-05-02T22:50:43.596Z</time></trkpt><trkpt lat="-36.7308912" lon="174.4090106"><ele>131.0</ele><time>2026-05-02T22:50:45.594Z</time></trkpt><trkpt lat="-36.7308581" lon="174.4091034"><ele>132.0</ele><time>2026-05-02T22:50:47.595Z</time></trkpt><trkpt lat="-36.7308232" lon="174.4091975"><ele>133.0</ele><time>2026-05-02T22:50:49.593Z</time></trkpt><trkpt lat="-36.7307847" lon="174.4092929"><ele>134.0</ele><time>2026-05-02T22:50:51.594Z</time></trkpt><trkpt lat="-36.7307456" lon="174.40939"><ele>134.0</ele><time>2026-05-02T22:50:53.594Z</time></trkpt><trkpt lat="-36.7307054" lon="174.4094878"><ele>134.0</ele><time>2026-05-02T22:50:55.595Z</time></trkpt><trkpt lat="-36.7306644" lon="174.4095859"><ele>134.0</ele><time>2026-05-02T22:50:57.593Z</time></trkpt><trkpt lat="-36.7306262" lon="174.4096773"><ele>134.0</ele><time>2026-05-02T22:50:59.595Z</time></trkpt><trkpt lat="-36.7305919" lon="174.4097685"><ele>134.0</ele><time>2026-05-02T22:51:01.594Z</time></trkpt><trkpt lat="-36.7305646" lon="174.4098565"><ele>134.0</ele><time>2026-05-02T22:51:03.593Z</time></trkpt><trkpt lat="-36.7305628" lon="174.4099459"><ele>134.57142857142858</ele><time>2026-05-02T22:51:06.593Z</time></trkpt><trkpt lat="-36.7306186" lon="174.410012"><ele>135.14285714285714</ele><time>2026-05-02T22:51:10.594Z</time></trkpt><trkpt lat="-36.7305749" lon="174.4101034"><ele>135.71428571428572</ele><time>2026-05-02T22:52:50.594Z</time></trkpt><trkpt lat="-36.730554" lon="174.4101943"><ele>136.28571428571428</ele><time>2026-05-02T22:52:54.594Z</time></trkpt><trkpt lat="-36.7305192" lon="174.4102711"><ele>136.85714285714286</ele><time>2026-05-02T22:52:56.594Z</time></trkpt><trkpt lat="-36.7304728" lon="174.4103269"><ele>137.42857142857144</ele><time>2026-05-02T22:52:58.595Z</time></trkpt><trkpt lat="-36.7304296" lon="174.4103853"><ele>138.0</ele><time>2026-05-02T22:53:01.594Z</time></trkpt><trkpt lat="-36.7303784" lon="174.4104331"><ele>137.4</ele><time>2026-05-02T22:53:03.593Z</time></trkpt><trkpt lat="-36.7303674" lon="174.410526"><ele>136.8</ele><time>2026-05-02T22:53:06.594Z</time></trkpt><trkpt lat="-36.7304003" lon="174.4106508"><ele>136.2</ele><time>2026-05-02T22:53:09.594Z</time></trkpt><trkpt lat="-36.7304145" lon="174.4107682"><ele>135.6</ele><time>2026-05-02T22:53:11.595Z</time></trkpt><trkpt lat="-36.730409" lon="174.4108797"><ele>135.0</ele><time>2026-05-02T22:53:13.594Z</time></trkpt><trkpt lat="-36.7303674" lon="174.4109927"><ele>135.0</ele><time>2026-05-02T22:53:15.593Z</time></trkpt><trkpt lat="-36.7303288" lon="174.4110759"><ele>135.0</ele><time>2026-05-02T22:53:17.593Z</time></trkpt><trkpt lat="-36.7302953" lon="174.4111556"><ele>135.0</ele><time>2026-05-02T22:53:19.594Z</time></trkpt><trkpt lat="-36.7302538" lon="174.411258"><ele>135.0</ele><time>2026-05-02T22:53:21.594Z</time></trkpt><trkpt lat="-36.7302246" lon="174.4113494"><ele>135.0</ele><time>2026-05-02T22:53:23.593Z</time></trkpt><trkpt lat="-36.7302008" lon="174.4114374"><ele>135.0</ele><time>2026-05-02T22:53:25.593Z</time></trkpt><trkpt lat="-36.7301473" lon="174.4115195"><ele>134.2</ele><time>2026-05-02T22:53:27.594Z</time></trkpt><trkpt lat="-36.7301034" lon="174.4116034"><ele>133.4</ele><time>2026-05-02T22:53:29.594Z</time></trkpt><trkpt lat="-36.7300914" lon="174.4117076"><ele>132.6</ele><time>2026-05-02T22:53:31.594Z</time></trkpt><trkpt lat="-36.7300576" lon="174.4118425"><ele>131.8</ele><time>2026-05-02T22:53:33.594Z</time></trkpt><trkpt lat="-36.7300282" lon="174.4119278"><ele>131.0</ele><time>2026-05-02T22:53:34.594Z</time></trkpt><trkpt lat="-36.7299735" lon="174.4120736"><ele>129.83333333333331</ele><time>2026-05-02T22:53:36.596Z</time></trkpt><trkpt lat="-36.729948" lon="174.4121651"><ele>128.66666666666666</ele><time>2026-05-02T22:53:37.594Z</time></trkpt><trkpt lat="-36.7299107" lon="174.412243"><ele>127.5</ele><time>2026-05-02T22:53:38.595Z</time></trkpt><trkpt lat="-36.729862" lon="174.4123763"><ele>126.33333333333334</ele><time>2026-05-02T22:53:40.594Z</time></trkpt><trkpt lat="-36.729931" lon="174.4124591"><ele>125.16666666666667</ele><time>2026-05-02T22:53:42.595Z</time></trkpt><trkpt lat="-36.7300017" lon="174.4124152"><ele>124.0</ele><time>2026-05-02T22:53:44.595Z</time></trkpt><trkpt lat="-36.7300966" lon="174.4123713"><ele>124.0</ele><time>2026-05-02T22:53:46.594Z</time></trkpt><trkpt lat="-36.73018" lon="174.412386"><ele>124.00000000000001</ele><time>2026-05-02T22:53:48.594Z</time></trkpt><trkpt lat="-36.7302394" lon="174.4124231"><ele>124.0</ele><time>2026-05-02T22:53:49.595Z</time></trkpt><trkpt lat="-36.7302981" lon="174.4124918"><ele>124.0</ele><time>2026-05-02T22:53:50.594Z</time></trkpt><trkpt lat="-36.7303102" lon="174.4125724"><ele>124.00000000000001</ele><time>2026-05-02T22:53:51.594Z</time></trkpt><trkpt lat="-36.73033" lon="174.4126552"><ele>124.0</ele><time>2026-05-02T22:53:52.595Z</time></trkpt><trkpt lat="-36.7303428" lon="174.412733"><ele>124.0</ele><time>2026-05-02T22:53:53.595Z</time></trkpt><trkpt lat="-36.7303726" lon="174.4128108"><ele>124.16666666666667</ele><time>2026-05-02T22:53:56.593Z</time></trkpt><trkpt lat="-36.7304429" lon="174.4127535"><ele>124.33333333333334</ele><time>2026-05-02T22:54:00.594Z</time></trkpt><trkpt lat="-36.7305099" lon="174.412681"><ele>124.5</ele><time>2026-05-02T22:54:03.594Z</time></trkpt><trkpt lat="-36.7305231" lon="174.4126009"><ele>124.66666666666666</ele><time>2026-05-02T22:54:05.592Z</time></trkpt><trkpt lat="-36.730558" lon="174.4125224"><ele>124.83333333333333</ele><time>2026-05-02T22:54:07.595Z</time></trkpt><trkpt lat="-36.7306191" lon="174.412468"><ele>125.0</ele><time>2026-05-02T22:54:09.594Z</time></trkpt><trkpt lat="-36.730692" lon="174.4124536"><ele>125.0</ele><time>2026-05-02T22:54:11.594Z</time></trkpt><trkpt lat="-36.7307565" lon="174.4124505"><ele>125.0</ele><time>2026-05-02T22:54:13.594Z</time></trkpt><trkpt lat="-36.7308209" lon="174.4124355"><ele>125.0</ele><time>2026-05-02T22:54:15.595Z</time></trkpt><trkpt lat="-36.7308985" lon="174.4123921"><ele>125.0</ele><time>2026-05-02T22:54:18.594Z</time></trkpt><trkpt lat="-36.7309519" lon="174.4123353"><ele>125.0</ele><time>2026-05-02T22:54:21.593Z</time></trkpt><trkpt lat="-36.7310313" lon="174.4123759"><ele>125.0</ele><time>2026-05-02T22:54:24.595Z</time></trkpt><trkpt lat="-36.7310972" lon="174.4124156"><ele>125.0</ele><time>2026-05-02T22:54:26.593Z</time></trkpt><trkpt lat="-36.7311629" lon="174.4124234"><ele>125.16666666666666</ele><time>2026-05-02T22:54:28.595Z</time></trkpt><trkpt lat="-36.731236" lon="174.4123943"><ele>125.33333333333333</ele><time>2026-05-02T22:54:30.594Z</time></trkpt><trkpt lat="-36.731326" lon="174.412397"><ele>125.5</ele><time>2026-05-02T22:54:32.594Z</time></trkpt><trkpt lat="-36.7314118" lon="174.4123818"><ele>125.66666666666666</ele><time>2026-05-02T22:54:34.595Z</time></trkpt><trkpt lat="-36.7315097" lon="174.4123815"><ele>125.83333333333333</ele><time>2026-05-02T22:54:36.594Z</time></trkpt><trkpt lat="-36.7315864" lon="174.412431"><ele>126.0</ele><time>2026-05-02T22:54:38.594Z</time></trkpt><trkpt lat="-36.7316735" lon="174.4124699"><ele>126.0</ele><time>2026-05-02T22:54:40.593Z</time></trkpt><trkpt lat="-36.7317437" lon="174.4124494"><ele>126.0</ele><time>2026-05-02T22:54:42.593Z</time></trkpt><trkpt lat="-36.731817" lon="174.4124308"><ele>126.0</ele><time>2026-05-02T22:54:44.593Z</time></trkpt><trkpt lat="-36.7319029" lon="174.4124446"><ele>126.0</ele><time>2026-05-02T22:54:46.593Z</time></trkpt><trkpt lat="-36.7319903" lon="174.412467"><ele>126.0</ele><time>2026-05-02T22:54:48.594Z</time></trkpt><trkpt lat="-36.73207" lon="174.4124896"><ele>126.0</ele><time>2026-05-02T22:54:50.595Z</time></trkpt><trkpt lat="-36.732145" lon="174.4124387"><ele>125.83333333333333</ele><time>2026-05-02T22:54:53.595Z</time></trkpt><trkpt lat="-36.7322206" lon="174.4124109"><ele>125.66666666666666</ele><time>2026-05-02T22:54:56.593Z</time></trkpt><trkpt lat="-36.732295" lon="174.4123997"><ele>125.5</ele><time>2026-05-02T22:54:59.593Z</time></trkpt><trkpt lat="-36.7323551" lon="174.4123509"><ele>125.33333333333333</ele><time>2026-05-02T22:55:01.595Z</time></trkpt><trkpt lat="-36.7324175" lon="174.4123021"><ele>125.16666666666666</ele><time>2026-05-02T22:55:03.594Z</time></trkpt><trkpt lat="-36.7324945" lon="174.4122283"><ele>125.0</ele><time>2026-05-02T22:55:05.595Z</time></trkpt><trkpt lat="-36.732572" lon="174.4121793"><ele>124.99999999999999</ele><time>2026-05-02T22:55:07.594Z</time></trkpt><trkpt lat="-36.7326436" lon="174.4121567"><ele>125.0</ele><time>2026-05-02T22:55:08.594Z</time></trkpt><trkpt lat="-36.7327482" lon="174.4121435"><ele>125.0</ele><time>2026-05-02T22:55:10.594Z</time></trkpt><trkpt lat="-36.7328321" lon="174.4121459"><ele>125.0</ele><time>2026-05-02T22:55:12.593Z</time></trkpt><trkpt lat="-36.7329145" lon="174.4121486"><ele>124.99999999999999</ele><time>2026-05-02T22:55:15.594Z</time></trkpt><trkpt lat="-36.7330051" lon="174.41213"><ele>125.0</ele><time>2026-05-02T22:55:18.595Z</time></trkpt><trkpt lat="-36.7330712" lon="174.4121347"><ele>124.99999999999999</ele><time>2026-05-02T22:55:20.594Z</time></trkpt><trkpt lat="-36.7331376" lon="174.4120946"><ele>125.0</ele><time>2026-05-02T22:55:22.594Z</time></trkpt><trkpt lat="-36.7332006" lon="174.4120448"><ele>125.0</ele><time>2026-05-02T22:55:24.594Z</time></trkpt><trkpt lat="-36.73326" lon="174.4120929"><ele>125.0</ele><time>2026-05-02T22:55:26.595Z</time></trkpt><trkpt lat="-36.7333112" lon="174.4121844"><ele>124.99999999999999</ele><time>2026-05-02T22:55:28.595Z</time></trkpt><trkpt lat="-36.7333367" lon="174.4122793"><ele>125.0</ele><time>2026-05-02T22:55:30.594Z</time></trkpt><trkpt lat="-36.7333614" lon="174.412386"><ele>125.0</ele><time>2026-05-02T22:55:32.595Z</time></trkpt><trkpt lat="-36.7334271" lon="174.412435"><ele>125.0</ele><time>2026-05-02T22:55:34.595Z</time></trkpt><trkpt lat="-36.7335016" lon="174.4124865"><ele>125.0</ele><time>2026-05-02T22:55:36.594Z</time></trkpt><trkpt lat="-36.7335603" lon="174.4125728"><ele>125.0</ele><time>2026-05-02T22:55:38.594Z</time></trkpt><trkpt lat="-36.7335729" lon="174.4126886"><ele>125.0</ele><time>2026-05-02T22:55:40.594Z</time></trkpt><trkpt lat="-36.7335819" lon="174.4128751"><ele>125.33333333333333</ele><time>2026-05-02T22:55:42.595Z</time></trkpt><trkpt lat="-36.7336002" lon="174.412952"><ele>125.66666666666666</ele><time>2026-05-02T22:55:43.594Z</time></trkpt><trkpt lat="-36.7336175" lon="174.4130379"><ele>126.0</ele><time>2026-05-02T22:55:44.593Z</time></trkpt><trkpt lat="-36.7336194" lon="174.4131168"><ele>126.33333333333334</ele><time>2026-05-02T22:55:45.595Z</time></trkpt><trkpt lat="-36.733632" lon="174.413221"><ele>126.66666666666667</ele><time>2026-05-02T22:55:47.593Z</time></trkpt><trkpt lat="-36.7336905" lon="174.4132908"><ele>127.0</ele><time>2026-05-02T22:55:49.594Z</time></trkpt><trkpt lat="-36.7337793" lon="174.4133405"><ele>127.0</ele><time>2026-05-02T22:55:51.594Z</time></trkpt><trkpt lat="-36.7338471" lon="174.4134074"><ele>126.99999999999999</ele><time>2026-05-02T22:55:53.594Z</time></trkpt><trkpt lat="-36.7339181" lon="174.4134554"><ele>126.99999999999999</ele><time>2026-05-02T22:55:55.594Z</time></trkpt><trkpt lat="-36.7339846" lon="174.4135251"><ele>127.0</ele><time>2026-05-02T22:55:57.594Z</time></trkpt><trkpt lat="-36.7340817" lon="174.413601"><ele>127.0</ele><time>2026-05-02T22:55:59.595Z</time></trkpt><trkpt lat="-36.7341677" lon="174.4136868"><ele>127.00000000000001</ele><time>2026-05-02T22:56:01.595Z</time></trkpt><trkpt lat="-36.734229" lon="174.4137761"><ele>127.0</ele><time>2026-05-02T22:56:03.595Z</time></trkpt><trkpt lat="-36.7343079" lon="174.4138302"><ele>127.0</ele><time>2026-05-02T22:56:05.595Z</time></trkpt><trkpt lat="-36.7343862" lon="174.4138279"><ele>127.0</ele><time>2026-05-02T22:56:07.594Z</time></trkpt><trkpt lat="-36.7344725" lon="174.4138549"><ele>127.00000000000001</ele><time>2026-05-02T22:56:10.593Z</time></trkpt><trkpt lat="-36.7345109" lon="174.4139564"><ele>127.0</ele><time>2026-05-02T22:56:12.594Z</time></trkpt><trkpt lat="-36.7345698" lon="174.4140626"><ele>127.83333333333334</ele><time>2026-05-02T22:56:14.595Z</time></trkpt><trkpt lat="-36.7346587" lon="174.414122"><ele>128.66666666666669</ele><time>2026-05-02T22:56:16.593Z</time></trkpt><trkpt lat="-36.7347203" lon="174.4141622"><ele>129.5</ele><time>2026-05-02T22:56:17.595Z</time></trkpt><trkpt lat="-36.7348147" lon="174.4141989"><ele>130.33333333333334</ele><time>2026-05-02T22:56:19.593Z</time></trkpt><trkpt lat="-36.7348861" lon="174.4141941"><ele>131.16666666666666</ele><time>2026-05-02T22:56:21.594Z</time></trkpt><trkpt lat="-36.7349455" lon="174.4141363"><ele>132.0</ele><time>2026-05-02T22:56:23.595Z</time></trkpt><trkpt lat="-36.735018" lon="174.4140993"><ele>132.0</ele><time>2026-05-02T22:56:25.595Z</time></trkpt><trkpt lat="-36.7351244" lon="174.4141085"><ele>132.0</ele><time>2026-05-02T22:56:27.594Z</time></trkpt><trkpt lat="-36.7352188" lon="174.4140962"><ele>132.0</ele><time>2026-05-02T22:56:29.595Z</time></trkpt><trkpt lat="-36.7353083" lon="174.4141257"><ele>132.0</ele><time>2026-05-02T22:56:31.595Z</time></trkpt><trkpt lat="-36.735398" lon="174.4141119"><ele>132.0</ele><time>2026-05-02T22:56:33.595Z</time></trkpt><trkpt lat="-36.7354581" lon="174.4140754"><ele>131.79999999999998</ele><time>2026-05-02T22:56:35.595Z</time></trkpt><trkpt lat="-36.7355371" lon="174.4141354"><ele>131.6</ele><time>2026-05-02T22:56:38.593Z</time></trkpt><trkpt lat="-36.7356088" lon="174.4141364"><ele>131.39999999999998</ele><time>2026-05-02T22:56:41.593Z</time></trkpt><trkpt lat="-36.7356354" lon="174.4140424"><ele>131.2</ele><time>2026-05-02T22:56:43.594Z</time></trkpt><trkpt lat="-36.7356686" lon="174.4139146"><ele>131.0</ele><time>2026-05-02T22:56:45.594Z</time></trkpt><trkpt lat="-36.7357073" lon="174.4137801"><ele>131.0</ele><time>2026-05-02T22:56:47.594Z</time></trkpt><trkpt lat="-36.7357224" lon="174.4136958"><ele>131.0</ele><time>2026-05-02T22:56:48.595Z</time></trkpt><trkpt lat="-36.7357527" lon="174.4136158"><ele>131.0</ele><time>2026-05-02T22:56:49.594Z</time></trkpt><trkpt lat="-36.7357738" lon="174.4135364"><ele>131.0</ele><time>2026-05-02T22:56:50.593Z</time></trkpt><trkpt lat="-36.7358053" lon="174.4134493"><ele>131.0</ele><time>2026-05-02T22:56:51.594Z</time></trkpt><trkpt lat="-36.7358307" lon="174.4133579"><ele>131.0</ele><time>2026-05-02T22:56:52.594Z</time></trkpt><trkpt lat="-36.7358526" lon="174.4132633"><ele>131.0</ele><time>2026-05-02T22:56:53.594Z</time></trkpt><trkpt lat="-36.7358636" lon="174.4131601"><ele>131.0</ele><time>2026-05-02T22:56:54.593Z</time></trkpt><trkpt lat="-36.7358704" lon="174.4130615"><ele>131.0</ele><time>2026-05-02T22:56:55.594Z</time></trkpt><trkpt lat="-36.7358896" lon="174.4129618"><ele>131.0</ele><time>2026-05-02T22:56:56.595Z</time></trkpt><trkpt lat="-36.7359211" lon="174.4128733"><ele>131.0</ele><time>2026-05-02T22:56:57.593Z</time></trkpt><trkpt lat="-36.7359437" lon="174.4127808"><ele>131.0</ele><time>2026-05-02T22:56:58.595Z</time></trkpt><trkpt lat="-36.7359603" lon="174.4126855"><ele>131.0</ele><time>2026-05-02T22:56:59.593Z</time></trkpt><trkpt lat="-36.7359925" lon="174.4126076"><ele>131.4</ele><time>2026-05-02T22:57:00.593Z</time></trkpt><trkpt lat="-36.7360217" lon="174.4124449"><ele>131.8</ele><time>2026-05-02T22:57:02.594Z</time></trkpt><trkpt lat="-36.7360415" lon="174.4123096"><ele>132.20000000000002</ele><time>2026-05-02T22:57:04.594Z</time></trkpt><trkpt lat="-36.7360865" lon="174.4121934"><ele>132.6</ele><time>2026-05-02T22:57:06.594Z</time></trkpt><trkpt lat="-36.7361263" lon="174.4120921"><ele>133.0</ele><time>2026-05-02T22:57:08.594Z</time></trkpt><trkpt lat="-36.73613" lon="174.4119872"><ele>132.20000000000002</ele><time>2026-05-02T22:57:10.594Z</time></trkpt><trkpt lat="-36.736145" lon="174.4118307"><ele>131.4</ele><time>2026-05-02T22:57:12.594Z</time></trkpt><trkpt lat="-36.7361563" lon="174.4116979"><ele>130.60000000000002</ele><time>2026-05-02T22:57:14.594Z</time></trkpt><trkpt lat="-36.7361674" lon="174.4115971"><ele>129.8</ele><time>2026-05-02T22:57:16.595Z</time></trkpt><trkpt lat="-36.7361829" lon="174.4115028"><ele>129.0</ele><time>2026-05-02T22:57:18.593Z</time></trkpt><trkpt lat="-36.7362295" lon="174.4114466"><ele>129.0</ele><time>2026-05-02T22:57:20.594Z</time></trkpt><trkpt lat="-36.7362952" lon="174.4113946"><ele>129.0</ele><time>2026-05-02T22:57:22.594Z</time></trkpt><trkpt lat="-36.7363736" lon="174.4114026"><ele>129.0</ele><time>2026-05-02T22:57:24.594Z</time></trkpt><trkpt lat="-36.7364516" lon="174.41143"><ele>129.0</ele><time>2026-05-02T22:57:26.593Z</time></trkpt><trkpt lat="-36.736519" lon="174.4114672"><ele>129.0</ele><time>2026-05-02T22:57:28.595Z</time></trkpt><trkpt lat="-36.7365518" lon="174.4115399"><ele>129.0</ele><time>2026-05-02T22:57:30.594Z</time></trkpt><trkpt lat="-36.7365367" lon="174.4116298"><ele>129.0</ele><time>2026-05-02T22:57:32.593Z</time></trkpt><trkpt lat="-36.7364715" lon="174.4117124"><ele>129.0</ele><time>2026-05-02T22:57:34.595Z</time></trkpt><trkpt lat="-36.7364199" lon="174.4117774"><ele>129.0</ele><time>2026-05-02T22:57:36.593Z</time></trkpt><trkpt lat="-36.7364673" lon="174.4118374"><ele>129.0</ele><time>2026-05-02T22:57:39.595Z</time></trkpt><trkpt lat="-36.7365383" lon="174.4118399"><ele>129.0</ele><time>2026-05-02T22:57:41.593Z</time></trkpt><trkpt lat="-36.7365587" lon="174.4119293"><ele>129.0</ele><time>2026-05-02T22:57:43.594Z</time></trkpt><trkpt lat="-36.7365393" lon="174.4120429"><ele>129.0</ele><time>2026-05-02T22:57:45.593Z</time></trkpt><trkpt lat="-36.73652" lon="174.4121609"><ele>129.0</ele><time>2026-05-02T22:57:47.595Z</time></trkpt><trkpt lat="-36.7364984" lon="174.41224"><ele>129.0</ele><time>2026-05-02T22:57:48.595Z</time></trkpt><trkpt lat="-36.7364647" lon="174.4124022"><ele>129.0</ele><time>2026-05-02T22:57:50.594Z</time></trkpt><trkpt lat="-36.7364595" lon="174.4125735"><ele>129.0</ele><time>2026-05-02T22:57:52.594Z</time></trkpt><trkpt lat="-36.7364648" lon="174.4126521"><ele>128.99999999999997</ele><time>2026-05-02T22:57:53.595Z</time></trkpt><trkpt lat="-36.7364734" lon="174.4127321"><ele>129.0</ele><time>2026-05-02T22:57:54.593Z</time></trkpt><trkpt lat="-36.7364926" lon="174.4128106"><ele>129.0</ele><time>2026-05-02T22:57:55.593Z</time></trkpt><trkpt lat="-36.7365035" lon="174.4128936"><ele>129.0</ele><time>2026-05-02T22:57:56.593Z</time></trkpt><trkpt lat="-36.7364847" lon="174.4129773"><ele>129.0</ele><time>2026-05-02T22:57:57.594Z</time></trkpt><trkpt lat="-36.7364686" lon="174.4131163"><ele>128.99999999999997</ele><time>2026-05-02T22:57:59.594Z</time></trkpt><trkpt lat="-36.7364431" lon="174.4131897"><ele>129.0</ele><time>2026-05-02T22:58:00.594Z</time></trkpt><trkpt lat="-36.7364709" lon="174.4132824"><ele>128.6</ele><time>2026-05-02T22:58:02.595Z</time></trkpt><trkpt lat="-36.7365054" lon="174.4134157"><ele>128.2</ele><time>2026-05-02T22:58:04.594Z</time></trkpt><trkpt lat="-36.736524" lon="174.4135382"><ele>127.79999999999998</ele><time>2026-05-02T22:58:06.593Z</time></trkpt><trkpt lat="-36.7365267" lon="174.4136234"><ele>127.39999999999999</ele><time>2026-05-02T22:58:07.593Z</time></trkpt><trkpt lat="-36.7365138" lon="174.4137567"><ele>127.0</ele><time>2026-05-02T22:58:09.594Z</time></trkpt><trkpt lat="-36.7365151" lon="174.4138681"><ele>127.0</ele><time>2026-05-02T22:58:11.593Z</time></trkpt><trkpt lat="-36.736508" lon="174.4140045"><ele>126.99999999999999</ele><time>2026-05-02T22:58:13.594Z</time></trkpt><trkpt lat="-36.7364808" lon="174.4140833"><ele>126.99999999999999</ele><time>2026-05-02T22:58:14.595Z</time></trkpt><trkpt lat="-36.7364876" lon="174.4141644"><ele>127.0</ele><time>2026-05-02T22:58:15.593Z</time></trkpt><trkpt lat="-36.7364787" lon="174.414304"><ele>127.0</ele><time>2026-05-02T22:58:17.593Z</time></trkpt><trkpt lat="-36.7364731" lon="174.414453"><ele>127.00000000000001</ele><time>2026-05-02T22:58:19.595Z</time></trkpt><trkpt lat="-36.7364612" lon="174.4146161"><ele>127.0</ele><time>2026-05-02T22:58:21.594Z</time></trkpt><trkpt lat="-36.736527" lon="174.4147042"><ele>127.0</ele><time>2026-05-02T22:58:23.592Z</time></trkpt><trkpt lat="-36.7365884" lon="174.4146539"><ele>127.0</ele><time>2026-05-02T22:58:25.594Z</time></trkpt><trkpt lat="-36.7365675" lon="174.4145732"><ele>127.00000000000001</ele><time>2026-05-02T22:58:27.593Z</time></trkpt><trkpt lat="-36.736579" lon="174.4144835"><ele>127.0</ele><time>2026-05-02T22:58:30.595Z</time></trkpt><trkpt lat="-36.7365931" lon="174.4144038"><ele>127.00000000000001</ele><time>2026-05-02T22:58:33.595Z</time></trkpt><trkpt lat="-36.7365809" lon="174.4143017"><ele>127.0</ele><time>2026-05-02T22:58:36.594Z</time></trkpt><trkpt lat="-36.7365701" lon="174.4142171"><ele>127.0</ele><time>2026-05-02T22:58:38.594Z</time></trkpt><trkpt lat="-36.7365552" lon="174.4141308"><ele>127.0</ele><time>2026-05-02T22:58:39.593Z</time></trkpt><trkpt lat="-36.7365994" lon="174.4140082"><ele>127.00000000000001</ele><time>2026-05-02T22:58:41.594Z</time></trkpt><trkpt lat="-36.7365956" lon="174.4139235"><ele>127.0</ele><time>2026-05-02T22:58:42.594Z</time></trkpt><trkpt lat="-36.7366027" lon="174.4138446"><ele>126.8</ele><time>2026-05-02T22:58:43.594Z</time></trkpt><trkpt lat="-36.7366099" lon="174.4137526"><ele>126.6</ele><time>2026-05-02T22:58:44.594Z</time></trkpt><trkpt lat="-36.736626" lon="174.4135974"><ele>126.39999999999999</ele><time>2026-05-02T22:58:46.593Z</time></trkpt><trkpt lat="-36.7366457" lon="174.4134709"><ele>126.19999999999999</ele><time>2026-05-02T22:58:48.595Z</time></trkpt><trkpt lat="-36.7366697" lon="174.413306"><ele>126.0</ele><time>2026-05-02T22:58:50.593Z</time></trkpt><trkpt lat="-36.7366987" lon="174.4132208"><ele>126.0</ele><time>2026-05-02T22:58:51.593Z</time></trkpt><trkpt lat="-36.7367159" lon="174.4131414"><ele>126.0</ele><time>2026-05-02T22:58:52.594Z</time></trkpt><trkpt lat="-36.7367632" lon="174.4130879"><ele>126.0</ele><time>2026-05-02T22:58:53.594Z</time></trkpt><trkpt lat="-36.7368163" lon="174.413131"><ele>126.0</ele><time>2026-05-02T22:58:55.594Z</time></trkpt><trkpt lat="-36.7368995" lon="174.4132407"><ele>126.0</ele><time>2026-05-02T22:58:57.593Z</time></trkpt><trkpt lat="-36.7369783" lon="174.4131819"><ele>126.0</ele><time>2026-05-02T22:58:59.593Z</time></trkpt><trkpt lat="-36.7370077" lon="174.413059"><ele>126.0</ele><time>2026-05-02T22:59:01.595Z</time></trkpt><trkpt lat="-36.7370655" lon="174.4129084"><ele>126.0</ele><time>2026-05-02T22:59:03.593Z</time></trkpt><trkpt lat="-36.7370903" lon="174.4128217"><ele>126.0</ele><time>2026-05-02T22:59:04.595Z</time></trkpt><trkpt lat="-36.7371131" lon="174.41268"><ele>126.0</ele><time>2026-05-02T22:59:06.593Z</time></trkpt><trkpt lat="-36.737059" lon="174.4126197"><ele>126.0</ele><time>2026-05-02T22:59:08.593Z</time></trkpt><trkpt lat="-36.7369877" lon="174.4125996"><ele>126.0</ele><time>2026-05-02T22:59:10.592Z</time></trkpt><trkpt lat="-36.7369545" lon="174.4125023"><ele>126.0</ele><time>2026-05-02T22:59:15.592Z</time></trkpt><trkpt lat="-36.7369308" lon="174.4124094"><ele>126.0</ele><time>2026-05-02T22:59:17.594Z</time></trkpt><trkpt lat="-36.7369365" lon="174.4123212"><ele>126.0</ele><time>2026-05-02T22:59:19.594Z</time></trkpt><trkpt lat="-36.737" lon="174.4122314"><ele>126.0</ele><time>2026-05-02T22:59:21.595Z</time></trkpt><trkpt lat="-36.7370816" lon="174.4121998"><ele>126.0</ele><time>2026-05-02T22:59:22.594Z</time></trkpt><trkpt lat="-36.7372078" lon="174.4122306"><ele>126.0</ele><time>2026-05-02T22:59:24.595Z</time></trkpt><trkpt lat="-36.737283" lon="174.4122412"><ele>126.0</ele><time>2026-05-02T22:59:25.595Z</time></trkpt><trkpt lat="-36.7373818" lon="174.4122386"><ele>126.0</ele><time>2026-05-02T22:59:27.594Z</time></trkpt><trkpt lat="-36.7374805" lon="174.4122336"><ele>126.0</ele><time>2026-05-02T22:59:29.595Z</time></trkpt><trkpt lat="-36.7375702" lon="174.4122462"><ele>126.0</ele><time>2026-05-02T22:59:31.594Z</time></trkpt><trkpt lat="-36.7376531" lon="174.4122774"><ele>126.0</ele><time>2026-05-02T22:59:33.594Z</time></trkpt><trkpt lat="-36.7377212" lon="174.4123"><ele>126.0</ele><time>2026-05-02T22:59:35.595Z</time></trkpt><trkpt lat="-36.7377958" lon="174.4123031"><ele>126.0</ele><time>2026-05-02T22:59:37.593Z</time></trkpt><trkpt lat="-36.7378726" lon="174.4122319"><ele>126.0</ele><time>2026-05-02T22:59:40.594Z</time></trkpt><trkpt lat="-36.7379277" lon="174.4121852"><ele>126.0</ele><time>2026-05-02T22:59:42.593Z</time></trkpt><trkpt lat="-36.7380003" lon="174.4121543"><ele>126.0</ele><time>2026-05-02T22:59:46.594Z</time></trkpt><trkpt lat="-36.7380319" lon="174.4122586"><ele>126.0</ele><time>2026-05-02T22:59:49.593Z</time></trkpt><trkpt lat="-36.7380429" lon="174.4123414"><ele>126.0</ele><time>2026-05-02T22:59:51.594Z</time></trkpt><trkpt lat="-36.7380889" lon="174.4124244"><ele>126.0</ele><time>2026-05-02T22:59:53.595Z</time></trkpt><trkpt lat="-36.7381573" lon="174.4125029"><ele>126.0</ele><time>2026-05-02T22:59:55.594Z</time></trkpt><trkpt lat="-36.7382355" lon="174.4125262"><ele>126.0</ele><time>2026-05-02T22:59:57.594Z</time></trkpt><trkpt lat="-36.7383049" lon="174.4125854"><ele>126.0</ele><time>2026-05-02T23:00:00.594Z</time></trkpt><trkpt lat="-36.738251" lon="174.412685"><ele>126.0</ele><time>2026-05-02T23:00:03.594Z</time></trkpt><trkpt lat="-36.7381915" lon="174.4127574"><ele>126.0</ele><time>2026-05-02T23:00:05.594Z</time></trkpt><trkpt lat="-36.738141" lon="174.4128357"><ele>126.0</ele><time>2026-05-02T23:00:07.594Z</time></trkpt><trkpt lat="-36.738187" lon="174.4129086"><ele>126.0</ele><time>2026-05-02T23:00:10.594Z</time></trkpt><trkpt lat="-36.738281" lon="174.4128941"><ele>126.0</ele><time>2026-05-02T23:00:13.593Z</time></trkpt><trkpt lat="-36.7383607" lon="174.4128954"><ele>126.0</ele><time>2026-05-02T23:00:15.593Z</time></trkpt><trkpt lat="-36.7384014" lon="174.4129615"><ele>125.66666666666667</ele><time>2026-05-02T23:00:17.595Z</time></trkpt><trkpt lat="-36.738383" lon="174.4130413"><ele>125.33333333333334</ele><time>2026-05-02T23:00:19.593Z</time></trkpt><trkpt lat="-36.738446" lon="174.413069"><ele>125.0</ele><time>2026-05-02T23:00:23.595Z</time></trkpt><trkpt lat="-36.7385054" lon="174.4130105"><ele>124.66666666666667</ele><time>2026-05-02T23:00:25.594Z</time></trkpt><trkpt lat="-36.7385616" lon="174.4129573"><ele>124.33333333333334</ele><time>2026-05-02T23:00:28.594Z</time></trkpt><trkpt lat="-36.7385675" lon="174.4130716"><ele>124.0</ele><time>2026-05-02T23:00:32.593Z</time></trkpt><trkpt lat="-36.7385628" lon="174.4131734"><ele>126.33333333333334</ele><time>2026-05-02T23:00:34.595Z</time></trkpt><trkpt lat="-36.7385586" lon="174.4132608"><ele>128.66666666666669</ele><time>2026-05-02T23:00:36.594Z</time></trkpt><trkpt lat="-36.7385699" lon="174.4133383"><ele>131.0</ele><time>2026-05-02T23:00:39.594Z</time></trkpt><trkpt lat="-36.7386485" lon="174.4133165"><ele>133.33333333333334</ele><time>2026-05-02T23:00:43.594Z</time></trkpt><trkpt lat="-36.7387297" lon="174.4132835"><ele>135.66666666666666</ele><time>2026-05-02T23:00:46.593Z</time></trkpt><trkpt lat="-36.7387987" lon="174.4132553"><ele>138.0</ele><time>2026-05-02T23:00:48.594Z</time></trkpt><trkpt lat="-36.7388743" lon="174.4132946"><ele>138.0</ele><time>2026-05-02T23:00:50.593Z</time></trkpt><trkpt lat="-36.7389427" lon="174.4133295"><ele>138.0</ele><time>2026-05-02T23:00:51.593Z</time></trkpt><trkpt lat="-36.7390075" lon="174.4133356"><ele>138.0</ele><time>2026-05-02T23:00:52.594Z</time></trkpt><trkpt lat="-36.7391113" lon="174.4133685"><ele>138.0</ele><time>2026-05-02T23:00:54.594Z</time></trkpt><trkpt lat="-36.739151" lon="174.4134578"><ele>138.0</ele><time>2026-05-02T23:00:56.593Z</time></trkpt><trkpt lat="-36.7391689" lon="174.4135579"><ele>138.0</ele><time>2026-05-02T23:00:58.595Z</time></trkpt><trkpt lat="-36.7392288" lon="174.4136204"><ele>138.0</ele><time>2026-05-02T23:01:01.594Z</time></trkpt><trkpt lat="-36.7393033" lon="174.4135443"><ele>138.0</ele><time>2026-05-02T23:01:04.595Z</time></trkpt><trkpt lat="-36.7393305" lon="174.4134073"><ele>138.0</ele><time>2026-05-02T23:01:06.593Z</time></trkpt><trkpt lat="-36.7392881" lon="174.4133067"><ele>138.0</ele><time>2026-05-02T23:01:08.594Z</time></trkpt><trkpt lat="-36.7392307" lon="174.4132061"><ele>138.0</ele><time>2026-05-02T23:01:10.593Z</time></trkpt><trkpt lat="-36.7391563" lon="174.4131041"><ele>136.0</ele><time>2026-05-02T23:01:12.594Z</time></trkpt><trkpt lat="-36.7391564" lon="174.4129891"><ele>134.0</ele><time>2026-05-02T23:01:14.594Z</time></trkpt><trkpt lat="-36.7392388" lon="174.4129581"><ele>132.0</ele><time>2026-05-02T23:01:16.593Z</time></trkpt><trkpt lat="-36.7393376" lon="174.4129644"><ele>130.0</ele><time>2026-05-02T23:01:18.595Z</time></trkpt><trkpt lat="-36.7394255" lon="174.4130182"><ele>128.0</ele><time>2026-05-02T23:01:20.594Z</time></trkpt><trkpt lat="-36.7394783" lon="174.4130896"><ele>127.99999999999999</ele><time>2026-05-02T23:01:22.595Z</time></trkpt><trkpt lat="-36.7395341" lon="174.4131836"><ele>128.0</ele><time>2026-05-02T23:01:24.594Z</time></trkpt><trkpt lat="-36.7395675" lon="174.4132604"><ele>128.0</ele><time>2026-05-02T23:01:26.594Z</time></trkpt><trkpt lat="-36.7396207" lon="174.4133027"><ele>128.0</ele><time>2026-05-02T23:01:28.593Z</time></trkpt><trkpt lat="-36.7396695" lon="174.4133789"><ele>127.99999999999999</ele><time>2026-05-02T23:01:31.595Z</time></trkpt><trkpt lat="-36.7396035" lon="174.4134429"><ele>128.0</ele><time>2026-05-02T23:01:34.592Z</time></trkpt><trkpt lat="-36.7395153" lon="174.4134538"><ele>127.99999999999999</ele><time>2026-05-02T23:01:37.595Z</time></trkpt><trkpt lat="-36.7394352" lon="174.4134922"><ele>128.0</ele><time>2026-05-02T23:01:40.595Z</time></trkpt><trkpt lat="-36.7394126" lon="174.4135806"><ele>128.0</ele><time>2026-05-02T23:01:43.593Z</time></trkpt><trkpt lat="-36.7394047" lon="174.41368"><ele>128.0</ele><time>2026-05-02T23:01:46.595Z</time></trkpt><trkpt lat="-36.7394244" lon="174.4137932"><ele>127.99999999999999</ele><time>2026-05-02T23:01:49.594Z</time></trkpt><trkpt lat="-36.7394751" lon="174.4138417"><ele>128.0</ele><time>2026-05-02T23:01:51.594Z</time></trkpt><trkpt lat="-36.7395769" lon="174.4138089"><ele>128.0</ele><time>2026-05-02T23:01:53.594Z</time></trkpt><trkpt lat="-36.7396722" lon="174.413753"><ele>128.0</ele><time>2026-05-02T23:01:55.595Z</time></trkpt><trkpt lat="-36.7397519" lon="174.4136527"><ele>128.0</ele><time>2026-05-02T23:01:57.594Z</time></trkpt><trkpt lat="-36.7398396" lon="174.4135447"><ele>128.0</ele><time>2026-05-02T23:01:59.593Z</time></trkpt><trkpt lat="-36.7399606" lon="174.413534"><ele>127.99999999999999</ele><time>2026-05-02T23:02:01.594Z</time></trkpt><trkpt lat="-36.7400223" lon="174.4135718"><ele>128.0</ele><time>2026-05-02T23:02:03.594Z</time></trkpt><trkpt lat="-36.7401249" lon="174.413595"><ele>128.0</ele><time>2026-05-02T23:02:05.594Z</time></trkpt><trkpt lat="-36.7402136" lon="174.4135628"><ele>128.0</ele><time>2026-05-02T23:02:07.594Z</time></trkpt><trkpt lat="-36.7402933" lon="174.4135768"><ele>127.99999999999999</ele><time>2026-05-02T23:02:09.595Z</time></trkpt><trkpt lat="-36.7403784" lon="174.4136071"><ele>128.0</ele><time>2026-05-02T23:02:11.593Z</time></trkpt><trkpt lat="-36.7404375" lon="174.4136407"><ele>127.66666666666666</ele><time>2026-05-02T23:02:12.593Z</time></trkpt><trkpt lat="-36.7405239" lon="174.413716"><ele>127.33333333333333</ele><time>2026-05-02T23:02:14.593Z</time></trkpt><trkpt lat="-36.7406028" lon="174.4138114"><ele>127.0</ele><time>2026-05-02T23:02:16.594Z</time></trkpt><trkpt lat="-36.7406029" lon="174.4138927"><ele>126.66666666666666</ele><time>2026-05-02T23:02:18.594Z</time></trkpt><trkpt lat="-36.7405357" lon="174.4139646"><ele>126.33333333333333</ele><time>2026-05-02T23:02:20.594Z</time></trkpt><trkpt lat="-36.7404858" lon="174.4140291"><ele>126.0</ele><time>2026-05-02T23:02:22.593Z</time></trkpt><trkpt lat="-36.7404084" lon="174.4140625"><ele>127.8</ele><time>2026-05-02T23:02:25.595Z</time></trkpt><trkpt lat="-36.740327" lon="174.414073"><ele>129.6</ele><time>2026-05-02T23:02:28.595Z</time></trkpt><trkpt lat="-36.7402668" lon="174.4141329"><ele>131.4</ele><time>2026-05-02T23:02:30.595Z</time></trkpt><trkpt lat="-36.7402014" lon="174.4141654"><ele>133.2</ele><time>2026-05-02T23:02:32.594Z</time></trkpt><trkpt lat="-36.7400652" lon="174.4141656"><ele>135.0</ele><time>2026-05-02T23:02:34.594Z</time></trkpt><trkpt lat="-36.7399664" lon="174.4141325"><ele>136.0</ele><time>2026-05-02T23:02:36.594Z</time></trkpt><trkpt lat="-36.7398739" lon="174.4140952"><ele>137.0</ele><time>2026-05-02T23:02:38.594Z</time></trkpt><trkpt lat="-36.7397858" lon="174.4140937"><ele>138.0</ele><time>2026-05-02T23:02:40.595Z</time></trkpt><trkpt lat="-36.7397101" lon="174.4141174"><ele>139.0</ele><time>2026-05-02T23:02:42.595Z</time></trkpt><trkpt lat="-36.739669" lon="174.41418"><ele>140.0</ele><time>2026-05-02T23:02:44.593Z</time></trkpt><trkpt lat="-36.7397703" lon="174.4142636"><ele>140.0</ele><time>2026-05-02T23:02:47.594Z</time></trkpt><trkpt lat="-36.739881" lon="174.4142783"><ele>140.0</ele><time>2026-05-02T23:02:50.595Z</time></trkpt><trkpt lat="-36.7399919" lon="174.4143229"><ele>140.0</ele><time>2026-05-02T23:02:52.594Z</time></trkpt><trkpt lat="-36.7400919" lon="174.4143408"><ele>140.0</ele><time>2026-05-02T23:02:54.594Z</time></trkpt><trkpt lat="-36.7402088" lon="174.414323"><ele>140.0</ele><time>2026-05-02T23:02:57.594Z</time></trkpt><trkpt lat="-36.7402845" lon="174.4143435"><ele>139.0</ele><time>2026-05-02T23:02:58.595Z</time></trkpt><trkpt lat="-36.7403914" lon="174.4143128"><ele>138.0</ele><time>2026-05-02T23:03:00.595Z</time></trkpt><trkpt lat="-36.7404619" lon="174.4143088"><ele>137.0</ele><time>2026-05-02T23:03:01.594Z</time></trkpt><trkpt lat="-36.7405582" lon="174.4142754"><ele>136.0</ele><time>2026-05-02T23:03:03.595Z</time></trkpt><trkpt lat="-36.7406442" lon="174.4142238"><ele>135.0</ele><time>2026-05-02T23:03:05.594Z</time></trkpt><trkpt lat="-36.7407552" lon="174.4141612"><ele>135.0</ele><time>2026-05-02T23:03:07.595Z</time></trkpt><trkpt lat="-36.7408446" lon="174.4141233"><ele>135.0</ele><time>2026-05-02T23:03:09.595Z</time></trkpt><trkpt lat="-36.7408992" lon="174.4140743"><ele>135.0</ele><time>2026-05-02T23:03:11.594Z</time></trkpt><trkpt lat="-36.7409743" lon="174.4140643"><ele>135.0</ele><time>2026-05-02T23:03:13.594Z</time></trkpt><trkpt lat="-36.7410434" lon="174.4141013"><ele>135.0</ele><time>2026-05-02T23:03:15.592Z</time></trkpt><trkpt lat="-36.741074" lon="174.4141908"><ele>135.0</ele><time>2026-05-02T23:03:16.594Z</time></trkpt><trkpt lat="-36.7411161" lon="174.4142497"><ele>135.0</ele><time>2026-05-02T23:03:18.595Z</time></trkpt><trkpt lat="-36.7411185" lon="174.4143295"><ele>135.0</ele><time>2026-05-02T23:03:20.594Z</time></trkpt><trkpt lat="-36.7411333" lon="174.4144188"><ele>135.0</ele><time>2026-05-02T23:03:22.594Z</time></trkpt><trkpt lat="-36.7411541" lon="174.4145565"><ele>135.0</ele><time>2026-05-02T23:03:24.595Z</time></trkpt><trkpt lat="-36.7411784" lon="174.414685"><ele>135.0</ele><time>2026-05-02T23:03:26.593Z</time></trkpt><trkpt lat="-36.7412312" lon="174.4147891"><ele>135.33333333333334</ele><time>2026-05-02T23:03:28.595Z</time></trkpt><trkpt lat="-36.7412909" lon="174.4148146"><ele>135.66666666666666</ele><time>2026-05-02T23:03:29.594Z</time></trkpt><trkpt lat="-36.7413716" lon="174.4148398"><ele>136.0</ele><time>2026-05-02T23:03:32.594Z</time></trkpt><trkpt lat="-36.7414348" lon="174.4148755"><ele>136.33333333333331</ele><time>2026-05-02T23:03:34.595Z</time></trkpt><trkpt lat="-36.7415327" lon="174.4148842"><ele>136.66666666666666</ele><time>2026-05-02T23:03:37.593Z</time></trkpt><trkpt lat="-36.741655" lon="174.4148802"><ele>137.0</ele><time>2026-05-02T23:03:39.594Z</time></trkpt><trkpt lat="-36.7417157" lon="174.414838"><ele>137.0</ele><time>2026-05-02T23:03:41.593Z</time></trkpt><trkpt lat="-36.7417933" lon="174.4147667"><ele>137.0</ele><time>2026-05-02T23:03:44.594Z</time></trkpt><trkpt lat="-36.7418672" lon="174.4148195"><ele>137.0</ele><time>2026-05-02T23:03:47.594Z</time></trkpt><trkpt lat="-36.7418539" lon="174.4149339"><ele>137.0</ele><time>2026-05-02T23:03:50.595Z</time></trkpt><trkpt lat="-36.7417933" lon="174.4150031"><ele>137.0</ele><time>2026-05-02T23:03:52.594Z</time></trkpt><trkpt lat="-36.7417192" lon="174.4150442"><ele>137.0</ele><time>2026-05-02T23:03:53.595Z</time></trkpt><trkpt lat="-36.7416627" lon="174.4150934"><ele>137.0</ele><time>2026-05-02T23:03:54.594Z</time></trkpt><trkpt lat="-36.7415905" lon="174.4151792"><ele>137.0</ele><time>2026-05-02T23:03:56.594Z</time></trkpt><trkpt lat="-36.7415508" lon="174.4152824"><ele>137.0</ele><time>2026-05-02T23:03:58.594Z</time></trkpt><trkpt lat="-36.7415715" lon="174.415392"><ele>137.0</ele><time>2026-05-02T23:04:00.594Z</time></trkpt><trkpt lat="-36.7416317" lon="174.4154421"><ele>137.0</ele><time>2026-05-02T23:04:01.596Z</time></trkpt><trkpt lat="-36.7417046" lon="174.4154657"><ele>137.0</ele><time>2026-05-02T23:04:03.594Z</time></trkpt><trkpt lat="-36.7417842" lon="174.4155184"><ele>136.16666666666666</ele><time>2026-05-02T23:04:05.594Z</time></trkpt><trkpt lat="-36.7417865" lon="174.4156359"><ele>135.33333333333331</ele><time>2026-05-02T23:04:08.595Z</time></trkpt><trkpt lat="-36.7417739" lon="174.4157283"><ele>134.5</ele><time>2026-05-02T23:04:10.594Z</time></trkpt><trkpt lat="-36.7417218" lon="174.4157867"><ele>133.66666666666666</ele><time>2026-05-02T23:04:11.595Z</time></trkpt><trkpt lat="-36.7416091" lon="174.4158309"><ele>132.83333333333334</ele><time>2026-05-02T23:04:13.595Z</time></trkpt><trkpt lat="-36.7415422" lon="174.4158298"><ele>132.0</ele><time>2026-05-02T23:04:14.594Z</time></trkpt><trkpt lat="-36.7414668" lon="174.4158301"><ele>132.0</ele><time>2026-05-02T23:04:15.594Z</time></trkpt><trkpt lat="-36.741408" lon="174.4159388"><ele>132.0</ele><time>2026-05-02T23:04:17.595Z</time></trkpt><trkpt lat="-36.7414506" lon="174.4160455"><ele>132.0</ele><time>2026-05-02T23:04:20.595Z</time></trkpt><trkpt lat="-36.7415389" lon="174.4161379"><ele>132.0</ele><time>2026-05-02T23:04:22.595Z</time></trkpt><trkpt lat="-36.7415853" lon="174.4161985"><ele>132.0</ele><time>2026-05-02T23:04:23.593Z</time></trkpt><trkpt lat="-36.7416265" lon="174.4163037"><ele>131.83333333333334</ele><time>2026-05-02T23:04:25.595Z</time></trkpt><trkpt lat="-36.7415849" lon="174.416419"><ele>131.66666666666666</ele><time>2026-05-02T23:04:27.595Z</time></trkpt><trkpt lat="-36.7415225" lon="174.4165419"><ele>131.5</ele><time>2026-05-02T23:04:29.595Z</time></trkpt><trkpt lat="-36.7415362" lon="174.4166223"><ele>131.33333333333331</ele><time>2026-05-02T23:04:30.594Z</time></trkpt><trkpt lat="-36.7415319" lon="174.4167115"><ele>131.16666666666666</ele><time>2026-05-02T23:04:31.593Z</time></trkpt><trkpt lat="-36.7415047" lon="174.4167899"><ele>131.0</ele><time>2026-05-02T23:04:33.594Z</time></trkpt><trkpt lat="-36.7414415" lon="174.4168826"><ele>131.0</ele><time>2026-05-02T23:04:34.595Z</time></trkpt><trkpt lat="-36.7413833" lon="174.4169893"><ele>131.0</ele><time>2026-05-02T23:04:36.594Z</time></trkpt><trkpt lat="-36.7413814" lon="174.4170936"><ele>131.0</ele><time>2026-05-02T23:04:38.594Z</time></trkpt><trkpt lat="-36.7414017" lon="174.4171901"><ele>131.0</ele><time>2026-05-02T23:04:40.594Z</time></trkpt><trkpt lat="-36.7413305" lon="174.4173285"><ele>131.0</ele><time>2026-05-02T23:04:42.594Z</time></trkpt><trkpt lat="-36.7412599" lon="174.4174321"><ele>131.0</ele><time>2026-05-02T23:04:44.594Z</time></trkpt><trkpt lat="-36.7412233" lon="174.4175442"><ele>131.0</ele><time>2026-05-02T23:04:46.595Z</time></trkpt><trkpt lat="-36.7412516" lon="174.4176172"><ele>131.0</ele><time>2026-05-02T23:04:47.594Z</time></trkpt><trkpt lat="-36.741308" lon="174.4175534"><ele>131.0</ele><time>2026-05-02T23:04:50.593Z</time></trkpt><trkpt lat="-36.7413501" lon="174.4174587"><ele>131.0</ele><time>2026-05-02T23:04:52.595Z</time></trkpt><trkpt lat="-36.7414057" lon="174.4173496"><ele>131.0</ele><time>2026-05-02T23:04:54.594Z</time></trkpt><trkpt lat="-36.7414647" lon="174.4172037"><ele>131.0</ele><time>2026-05-02T23:04:56.594Z</time></trkpt><trkpt lat="-36.7415358" lon="174.4170865"><ele>131.0</ele><time>2026-05-02T23:04:58.595Z</time></trkpt><trkpt lat="-36.7415576" lon="174.4169432"><ele>131.0</ele><time>2026-05-02T23:05:00.594Z</time></trkpt><trkpt lat="-36.7415881" lon="174.4167924"><ele>131.0</ele><time>2026-05-02T23:05:02.595Z</time></trkpt><trkpt lat="-36.7416147" lon="174.416653"><ele>131.0</ele><time>2026-05-02T23:05:04.593Z</time></trkpt><trkpt lat="-36.7416405" lon="174.4165688"><ele>131.0</ele><time>2026-05-02T23:05:05.594Z</time></trkpt><trkpt lat="-36.7416459" lon="174.4164749"><ele>131.0</ele><time>2026-05-02T23:05:06.594Z</time></trkpt><trkpt lat="-36.741695" lon="174.4163557"><ele>131.0</ele><time>2026-05-02T23:05:08.593Z</time></trkpt><trkpt lat="-36.7417347" lon="174.416171"><ele>131.0</ele><time>2026-05-02T23:05:10.594Z</time></trkpt><trkpt lat="-36.7417562" lon="174.4160356"><ele>131.2</ele><time>2026-05-02T23:05:12.592Z</time></trkpt><trkpt lat="-36.7417725" lon="174.4159061"><ele>131.39999999999998</ele><time>2026-05-02T23:05:14.594Z</time></trkpt><trkpt lat="-36.7417767" lon="174.415826"><ele>131.6</ele><time>2026-05-02T23:05:15.594Z</time></trkpt><trkpt lat="-36.7418026" lon="174.4157139"><ele>131.79999999999998</ele><time>2026-05-02T23:05:17.595Z</time></trkpt><trkpt lat="-36.7418503" lon="174.4155729"><ele>132.0</ele><time>2026-05-02T23:05:19.595Z</time></trkpt><trkpt lat="-36.7418844" lon="174.4154649"><ele>132.16666666666666</ele><time>2026-05-02T23:05:21.593Z</time></trkpt><trkpt lat="-36.7419248" lon="174.4153371"><ele>132.33333333333334</ele><time>2026-05-02T23:05:23.594Z</time></trkpt><trkpt lat="-36.7419195" lon="174.4152577"><ele>132.5</ele><time>2026-05-02T23:05:24.594Z</time></trkpt><trkpt lat="-36.741919" lon="174.4151452"><ele>132.66666666666669</ele><time>2026-05-02T23:05:26.594Z</time></trkpt><trkpt lat="-36.7419342" lon="174.4150463"><ele>132.83333333333334</ele><time>2026-05-02T23:05:28.594Z</time></trkpt><trkpt lat="-36.7419956" lon="174.4149605"><ele>133.0</ele><time>2026-05-02T23:05:30.595Z</time></trkpt><trkpt lat="-36.7420821" lon="174.4148846"><ele>133.0</ele><time>2026-05-02T23:05:32.595Z</time></trkpt><trkpt lat="-36.7421428" lon="174.414837"><ele>133.0</ele><time>2026-05-02T23:05:33.595Z</time></trkpt><trkpt lat="-36.7421839" lon="174.4147353"><ele>133.0</ele><time>2026-05-02T23:05:35.594Z</time></trkpt><trkpt lat="-36.7422103" lon="174.4146403"><ele>133.0</ele><time>2026-05-02T23:05:38.593Z</time></trkpt><trkpt lat="-36.7422056" lon="174.4145502"><ele>133.0</ele><time>2026-05-02T23:06:02.593Z</time></trkpt><trkpt lat="-36.7422869" lon="174.4145048"><ele>133.0</ele><time>2026-05-02T23:06:05.596Z</time></trkpt><trkpt lat="-36.7423492" lon="174.4145485"><ele>133.0</ele><time>2026-05-02T23:06:07.594Z</time></trkpt><trkpt lat="-36.7424171" lon="174.4146391"><ele>133.0</ele><time>2026-05-02T23:06:10.593Z</time></trkpt><trkpt lat="-36.7424557" lon="174.4147229"><ele>133.0</ele><time>2026-05-02T23:06:12.594Z</time></trkpt><trkpt lat="-36.7424609" lon="174.4148198"><ele>133.0</ele><time>2026-05-02T23:06:14.594Z</time></trkpt><trkpt lat="-36.7423846" lon="174.4149588"><ele>133.0</ele><time>2026-05-02T23:06:16.593Z</time></trkpt><trkpt lat="-36.7423588" lon="174.4150314"><ele>133.0</ele><time>2026-05-02T23:06:17.594Z</time></trkpt><trkpt lat="-36.7423434" lon="174.4151491"><ele>133.0</ele><time>2026-05-02T23:06:19.593Z</time></trkpt><trkpt lat="-36.7424367" lon="174.4152383"><ele>133.0</ele><time>2026-05-02T23:06:21.595Z</time></trkpt><trkpt lat="-36.7425298" lon="174.4152504"><ele>133.0</ele><time>2026-05-02T23:06:23.595Z</time></trkpt><trkpt lat="-36.7426138" lon="174.4152136"><ele>133.0</ele><time>2026-05-02T23:06:25.593Z</time></trkpt><trkpt lat="-36.7427198" lon="174.4151994"><ele>131.6</ele><time>2026-05-02T23:06:27.595Z</time></trkpt><trkpt lat="-36.7428033" lon="174.4153068"><ele>130.20000000000002</ele><time>2026-05-02T23:06:29.592Z</time></trkpt><trkpt lat="-36.7428006" lon="174.4154198"><ele>128.8</ele><time>2026-05-02T23:06:31.594Z</time></trkpt><trkpt lat="-36.7427097" lon="174.415509"><ele>127.4</ele><time>2026-05-02T23:06:33.595Z</time></trkpt><trkpt lat="-36.7426204" lon="174.4155621"><ele>126.0</ele><time>2026-05-02T23:06:35.596Z</time></trkpt><trkpt lat="-36.7425574" lon="174.4155693"><ele>125.8</ele><time>2026-05-02T23:06:36.594Z</time></trkpt><trkpt lat="-36.7424459" lon="174.4156416"><ele>125.6</ele><time>2026-05-02T23:06:38.595Z</time></trkpt><trkpt lat="-36.7423801" lon="174.4157442"><ele>125.4</ele><time>2026-05-02T23:06:40.595Z</time></trkpt><trkpt lat="-36.7424129" lon="174.4158631"><ele>125.2</ele><time>2026-05-02T23:06:42.595Z</time></trkpt><trkpt lat="-36.7424839" lon="174.4159418"><ele>125.0</ele><time>2026-05-02T23:06:44.595Z</time></trkpt><trkpt lat="-36.7425712" lon="174.4160173"><ele>124.99999999999999</ele><time>2026-05-02T23:06:46.594Z</time></trkpt><trkpt lat="-36.7426444" lon="174.4159674"><ele>125.0</ele><time>2026-05-02T23:06:49.595Z</time></trkpt><trkpt lat="-36.7426967" lon="174.4160159"><ele>125.0</ele><time>2026-05-02T23:06:51.594Z</time></trkpt><trkpt lat="-36.7427528" lon="174.4160767"><ele>125.0</ele><time>2026-05-02T23:06:53.595Z</time></trkpt><trkpt lat="-36.7428356" lon="174.4161348"><ele>124.99999999999999</ele><time>2026-05-02T23:06:55.594Z</time></trkpt><trkpt lat="-36.7429097" lon="174.41622"><ele>125.0</ele><time>2026-05-02T23:06:57.594Z</time></trkpt><trkpt lat="-36.7429826" lon="174.4163102"><ele>125.16666666666666</ele><time>2026-05-02T23:06:59.593Z</time></trkpt><trkpt lat="-36.7430536" lon="174.41634"><ele>125.33333333333333</ele><time>2026-05-02T23:07:01.594Z</time></trkpt><trkpt lat="-36.7431219" lon="174.4163438"><ele>125.5</ele><time>2026-05-02T23:07:03.594Z</time></trkpt><trkpt lat="-36.7432018" lon="174.4163915"><ele>125.66666666666666</ele><time>2026-05-02T23:07:06.593Z</time></trkpt><trkpt lat="-36.7432853" lon="174.4164149"><ele>125.83333333333333</ele><time>2026-05-02T23:07:10.594Z</time></trkpt><trkpt lat="-36.7433107" lon="174.4165096"><ele>126.0</ele><time>2026-05-02T23:07:13.594Z</time></trkpt><trkpt lat="-36.7432671" lon="174.4166089"><ele>126.0</ele><time>2026-05-02T23:07:16.594Z</time></trkpt><trkpt lat="-36.7432123" lon="174.4166891"><ele>126.0</ele><time>2026-05-02T23:07:18.594Z</time></trkpt><trkpt lat="-36.7431777" lon="174.4167694"><ele>126.0</ele><time>2026-05-02T23:07:20.594Z</time></trkpt><trkpt lat="-36.7431255" lon="174.4168592"><ele>126.0</ele><time>2026-05-02T23:07:22.595Z</time></trkpt><trkpt lat="-36.7430526" lon="174.4169036"><ele>126.0</ele><time>2026-05-02T23:07:24.593Z</time></trkpt><trkpt lat="-36.7429987" lon="174.4169617"><ele>126.0</ele><time>2026-05-02T23:07:26.594Z</time></trkpt><trkpt lat="-36.743016" lon="174.4170403"><ele>126.0</ele><time>2026-05-02T23:07:28.594Z</time></trkpt><trkpt lat="-36.7430891" lon="174.4170858"><ele>126.0</ele><time>2026-05-02T23:07:30.594Z</time></trkpt><trkpt lat="-36.7431534" lon="174.417127"><ele>126.0</ele><time>2026-05-02T23:07:32.594Z</time></trkpt><trkpt lat="-36.7431674" lon="174.4172417"><ele>126.0</ele><time>2026-05-02T23:07:35.594Z</time></trkpt><trkpt lat="-36.7431532" lon="174.4173268"><ele>126.0</ele><time>2026-05-02T23:07:37.593Z</time></trkpt><trkpt lat="-36.7431902" lon="174.4173917"><ele>126.0</ele><time>2026-05-02T23:07:39.594Z</time></trkpt><trkpt lat="-36.7432451" lon="174.4174356"><ele>126.0</ele><time>2026-05-02T23:07:41.594Z</time></trkpt><trkpt lat="-36.7433312" lon="174.4173991"><ele>126.16666666666667</ele><time>2026-05-02T23:07:44.594Z</time></trkpt><trkpt lat="-36.7434024" lon="174.4173624"><ele>126.33333333333334</ele><time>2026-05-02T23:07:47.594Z</time></trkpt><trkpt lat="-36.7434762" lon="174.4174312"><ele>126.5</ele><time>2026-05-02T23:07:50.593Z</time></trkpt><trkpt lat="-36.7435407" lon="174.4175028"><ele>126.66666666666667</ele><time>2026-05-02T23:07:52.594Z</time></trkpt><trkpt lat="-36.7436039" lon="174.4175808"><ele>126.83333333333334</ele><time>2026-05-02T23:07:54.595Z</time></trkpt><trkpt lat="-36.7436807" lon="174.417609"><ele>127.0</ele><time>2026-05-02T23:07:56.594Z</time></trkpt><trkpt lat="-36.7437391" lon="174.4175631"><ele>127.00000000000001</ele><time>2026-05-02T23:07:59.595Z</time></trkpt><trkpt lat="-36.7437138" lon="174.417458"><ele>127.0</ele><time>2026-05-02T23:08:02.594Z</time></trkpt><trkpt lat="-36.743751" lon="174.4173566"><ele>127.0</ele><time>2026-05-02T23:08:05.593Z</time></trkpt><trkpt lat="-36.7438136" lon="174.4173044"><ele>127.0</ele><time>2026-05-02T23:08:07.594Z</time></trkpt><trkpt lat="-36.7438779" lon="174.417222"><ele>127.00000000000001</ele><time>2026-05-02T23:08:10.593Z</time></trkpt><trkpt lat="-36.7439492" lon="174.4171457"><ele>127.0</ele><time>2026-05-02T23:08:13.595Z</time></trkpt><trkpt lat="-36.744" lon="174.4170861"><ele>127.00000000000001</ele><time>2026-05-02T23:08:15.595Z</time></trkpt><trkpt lat="-36.744069" lon="174.4170774"><ele>127.0</ele><time>2026-05-02T23:08:17.593Z</time></trkpt><trkpt lat="-36.7441674" lon="174.4170508"><ele>127.0</ele><time>2026-05-02T23:08:20.594Z</time></trkpt><trkpt lat="-36.7442503" lon="174.4169678"><ele>127.0</ele><time>2026-05-02T23:08:22.594Z</time></trkpt><trkpt lat="-36.7442895" lon="174.4168944"><ele>127.00000000000001</ele><time>2026-05-02T23:08:24.594Z</time></trkpt><trkpt lat="-36.7442488" lon="174.416832"><ele>127.0</ele><time>2026-05-02T23:08:28.594Z</time></trkpt><trkpt lat="-36.7441563" lon="174.4168077"><ele>127.0</ele><time>2026-05-02T23:08:30.595Z</time></trkpt><trkpt lat="-36.7440974" lon="174.4167744"><ele>126.99999999999999</ele><time>2026-05-02T23:08:31.595Z</time></trkpt><trkpt lat="-36.744019" lon="174.4166973"><ele>126.99999999999999</ele><time>2026-05-02T23:08:33.594Z</time></trkpt><trkpt lat="-36.7439887" lon="174.4166042"><ele>127.0</ele><time>2026-05-02T23:08:35.594Z</time></trkpt><trkpt lat="-36.7439764" lon="174.4164592"><ele>127.0</ele><time>2026-05-02T23:08:37.594Z</time></trkpt><trkpt lat="-36.7439144" lon="174.4163662"><ele>125.66666666666667</ele><time>2026-05-02T23:08:39.594Z</time></trkpt><trkpt lat="-36.7438526" lon="174.4162716"><ele>124.33333333333334</ele><time>2026-05-02T23:08:41.593Z</time></trkpt><trkpt lat="-36.7438048" lon="174.4162139"><ele>123.0</ele><time>2026-05-02T23:08:42.593Z</time></trkpt><trkpt lat="-36.7437681" lon="174.4161258"><ele>121.66666666666666</ele><time>2026-05-02T23:08:43.595Z</time></trkpt><trkpt lat="-36.7437203" lon="174.4160511"><ele>120.33333333333333</ele><time>2026-05-02T23:08:44.595Z</time></trkpt><trkpt lat="-36.7436719" lon="174.4159396"><ele>119.0</ele><time>2026-05-02T23:08:46.594Z</time></trkpt><trkpt lat="-36.7436726" lon="174.4158218"><ele>118.99999999999999</ele><time>2026-05-02T23:08:48.594Z</time></trkpt><trkpt lat="-36.7437449" lon="174.4157868"><ele>119.0</ele><time>2026-05-02T23:08:51.593Z</time></trkpt><trkpt lat="-36.7438014" lon="174.4158606"><ele>119.0</ele><time>2026-05-02T23:08:54.594Z</time></trkpt><trkpt lat="-36.7438272" lon="174.4159455"><ele>119.0</ele><time>2026-05-02T23:08:56.595Z</time></trkpt><trkpt lat="-36.7439054" lon="174.4159688"><ele>118.99999999999999</ele><time>2026-05-02T23:08:59.594Z</time></trkpt><trkpt lat="-36.7439756" lon="174.4159797"><ele>119.0</ele><time>2026-05-02T23:09:01.595Z</time></trkpt><trkpt lat="-36.7440348" lon="174.4160456"><ele>118.99999999999999</ele><time>2026-05-02T23:09:03.595Z</time></trkpt><trkpt lat="-36.7440531" lon="174.4161469"><ele>119.0</ele><time>2026-05-02T23:09:05.594Z</time></trkpt><trkpt lat="-36.7440655" lon="174.4162289"><ele>119.0</ele><time>2026-05-02T23:09:07.594Z</time></trkpt><trkpt lat="-36.7440711" lon="174.4163089"><ele>119.0</ele><time>2026-05-02T23:09:09.594Z</time></trkpt><trkpt lat="-36.744091" lon="174.4164134"><ele>118.99999999999999</ele><time>2026-05-02T23:09:12.594Z</time></trkpt><trkpt lat="-36.7440862" lon="174.4165258"><ele>119.0</ele><time>2026-05-02T23:09:15.595Z</time></trkpt><trkpt lat="-36.7441589" lon="174.4165969"><ele>118.99999999999999</ele><time>2026-05-02T23:09:18.593Z</time></trkpt><trkpt lat="-36.7442337" lon="174.4165611"><ele>119.0</ele><time>2026-05-02T23:09:21.593Z</time></trkpt><trkpt lat="-36.7442536" lon="174.4164509"><ele>119.0</ele><time>2026-05-02T23:09:24.595Z</time></trkpt><trkpt lat="-36.744243" lon="174.4163393"><ele>119.0</ele><time>2026-05-02T23:09:27.594Z</time></trkpt><trkpt lat="-36.7442747" lon="174.4162602"><ele>118.99999999999999</ele><time>2026-05-02T23:09:29.595Z</time></trkpt><trkpt lat="-36.7443648" lon="174.4162427"><ele>119.0</ele><time>2026-05-02T23:09:32.595Z</time></trkpt><trkpt lat="-36.7444202" lon="174.4162859"><ele>121.16666666666666</ele><time>2026-05-02T23:09:34.594Z</time></trkpt><trkpt lat="-36.7444911" lon="174.4163533"><ele>123.33333333333333</ele><time>2026-05-02T23:09:37.595Z</time></trkpt><trkpt lat="-36.7445122" lon="174.4164304"><ele>125.5</ele><time>2026-05-02T23:09:39.594Z</time></trkpt><trkpt lat="-36.7445148" lon="174.4165258"><ele>127.66666666666666</ele><time>2026-05-02T23:09:41.594Z</time></trkpt><trkpt lat="-36.7445255" lon="174.4166315"><ele>129.83333333333334</ele><time>2026-05-02T23:09:43.594Z</time></trkpt><trkpt lat="-36.7445372" lon="174.4167221"><ele>132.0</ele><time>2026-05-02T23:09:45.594Z</time></trkpt><trkpt lat="-36.7445689" lon="174.4168116"><ele>132.0</ele><time>2026-05-02T23:09:47.595Z</time></trkpt><trkpt lat="-36.7445767" lon="174.4168974"><ele>132.0</ele><time>2026-05-02T23:09:49.595Z</time></trkpt><trkpt lat="-36.7446038" lon="174.4169873"><ele>132.0</ele><time>2026-05-02T23:09:51.594Z</time></trkpt><trkpt lat="-36.7446855" lon="174.4170137"><ele>132.0</ele><time>2026-05-02T23:09:54.594Z</time></trkpt><trkpt lat="-36.7447663" lon="174.4169528"><ele>132.0</ele><time>2026-05-02T23:09:57.594Z</time></trkpt><trkpt lat="-36.7448572" lon="174.4168928"><ele>132.0</ele><time>2026-05-02T23:10:00.593Z</time></trkpt><trkpt lat="-36.7449247" lon="174.4168595"><ele>132.0</ele><time>2026-05-02T23:10:02.595Z</time></trkpt><trkpt lat="-36.7449911" lon="174.4168847"><ele>132.0</ele><time>2026-05-02T23:10:04.594Z</time></trkpt><trkpt lat="-36.7450405" lon="174.4169498"><ele>132.0</ele><time>2026-05-02T23:10:06.594Z</time></trkpt><trkpt lat="-36.7450754" lon="174.4170307"><ele>132.0</ele><time>2026-05-02T23:10:08.594Z</time></trkpt><trkpt lat="-36.7451292" lon="174.417109"><ele>132.0</ele><time>2026-05-02T23:10:10.595Z</time></trkpt><trkpt lat="-36.7451916" lon="174.4171571"><ele>132.0</ele><time>2026-05-02T23:10:12.593Z</time></trkpt><trkpt lat="-36.7452709" lon="174.4171222"><ele>132.83333333333334</ele><time>2026-05-02T23:10:15.594Z</time></trkpt><trkpt lat="-36.7453476" lon="174.4170701"><ele>133.66666666666666</ele><time>2026-05-02T23:10:18.594Z</time></trkpt><trkpt lat="-36.7454329" lon="174.4170426"><ele>134.5</ele><time>2026-05-02T23:10:21.593Z</time></trkpt><trkpt lat="-36.7454989" lon="174.4170943"><ele>135.33333333333331</ele><time>2026-05-02T23:10:23.595Z</time></trkpt><trkpt lat="-36.7455576" lon="174.4171228"><ele>136.16666666666666</ele><time>2026-05-02T23:10:25.594Z</time></trkpt><trkpt lat="-36.7456399" lon="174.4171385"><ele>137.0</ele><time>2026-05-02T23:10:28.594Z</time></trkpt><trkpt lat="-36.745711" lon="174.4171294"><ele>136.83333333333331</ele><time>2026-05-02T23:10:31.594Z</time></trkpt><trkpt lat="-36.7457737" lon="174.4171887"><ele>136.66666666666666</ele><time>2026-05-02T23:10:34.595Z</time></trkpt><trkpt lat="-36.7457847" lon="174.4173014"><ele>136.5</ele><time>2026-05-02T23:10:37.594Z</time></trkpt><trkpt lat="-36.7457997" lon="174.4173803"><ele>136.33333333333334</ele><time>2026-05-02T23:10:39.595Z</time></trkpt><trkpt lat="-36.74583" lon="174.4174501"><ele>136.16666666666669</ele><time>2026-05-02T23:10:41.594Z</time></trkpt><trkpt lat="-36.7458528" lon="174.417546"><ele>136.0</ele><time>2026-05-02T23:10:43.595Z</time></trkpt><trkpt lat="-36.7458773" lon="174.4176426"><ele>135.99999999999997</ele><time>2026-05-02T23:10:45.594Z</time></trkpt><trkpt lat="-36.745902" lon="174.417727"><ele>136.0</ele><time>2026-05-02T23:10:47.593Z</time></trkpt><trkpt lat="-36.7459657" lon="174.4177851"><ele>136.0</ele><time>2026-05-02T23:10:49.595Z</time></trkpt><trkpt lat="-36.7460298" lon="174.4177935"><ele>136.0</ele><time>2026-05-02T23:10:51.595Z</time></trkpt><trkpt lat="-36.7460977" lon="174.4178225"><ele>136.0</ele><time>2026-05-02T23:10:54.595Z</time></trkpt><trkpt lat="-36.7461258" lon="174.4179029"><ele>135.99999999999997</ele><time>2026-05-02T23:10:57.594Z</time></trkpt><trkpt lat="-36.7460629" lon="174.4179824"><ele>136.0</ele><time>2026-05-02T23:11:00.593Z</time></trkpt><trkpt lat="-36.7459777" lon="174.4180194"><ele>136.0</ele><time>2026-05-02T23:11:03.594Z</time></trkpt><trkpt lat="-36.7459088" lon="174.4179937"><ele>136.0</ele><time>2026-05-02T23:11:05.594Z</time></trkpt><trkpt lat="-36.7458483" lon="174.4179434"><ele>136.0</ele><time>2026-05-02T23:11:07.594Z</time></trkpt><trkpt lat="-36.7457376" lon="174.4178439"><ele>136.0</ele><time>2026-05-02T23:11:09.595Z</time></trkpt><trkpt lat="-36.7456157" lon="174.4177628"><ele>136.0</ele><time>2026-05-02T23:11:11.593Z</time></trkpt><trkpt lat="-36.745546" lon="174.4177024"><ele>136.0</ele><time>2026-05-02T23:11:12.594Z</time></trkpt><trkpt lat="-36.7454889" lon="174.417652"><ele>136.0</ele><time>2026-05-02T23:11:13.595Z</time></trkpt><trkpt lat="-36.7454338" lon="174.4175981"><ele>136.0</ele><time>2026-05-02T23:11:14.595Z</time></trkpt><trkpt lat="-36.7453699" lon="174.4175408"><ele>136.0</ele><time>2026-05-02T23:11:15.594Z</time></trkpt><trkpt lat="-36.7452917" lon="174.4174134"><ele>136.0</ele><time>2026-05-02T23:11:17.593Z</time></trkpt><trkpt lat="-36.7452025" lon="174.4173451"><ele>135.0</ele><time>2026-05-02T23:11:19.594Z</time></trkpt><trkpt lat="-36.7450984" lon="174.4173004"><ele>134.0</ele><time>2026-05-02T23:11:21.595Z</time></trkpt><trkpt lat="-36.7449867" lon="174.4171854"><ele>133.0</ele><time>2026-05-02T23:11:23.593Z</time></trkpt><trkpt lat="-36.7448808" lon="174.4171692"><ele>132.0</ele><time>2026-05-02T23:11:25.595Z</time></trkpt><trkpt lat="-36.74476" lon="174.4171959"><ele>132.0</ele><time>2026-05-02T23:11:27.594Z</time></trkpt><trkpt lat="-36.74475" lon="174.417305"><ele>132.0</ele><time>2026-05-02T23:11:29.594Z</time></trkpt><trkpt lat="-36.7447458" lon="174.4174034"><ele>132.0</ele><time>2026-05-02T23:11:31.594Z</time></trkpt><trkpt lat="-36.7447092" lon="174.4175478"><ele>132.0</ele><time>2026-05-02T23:11:33.594Z</time></trkpt><trkpt lat="-36.7446815" lon="174.4176392"><ele>132.0</ele><time>2026-05-02T23:11:34.594Z</time></trkpt><trkpt lat="-36.7446067" lon="174.4177057"><ele>132.0</ele><time>2026-05-02T23:11:36.594Z</time></trkpt><trkpt lat="-36.7445217" lon="174.4177699"><ele>132.0</ele><time>2026-05-02T23:11:38.594Z</time></trkpt><trkpt lat="-36.7444399" lon="174.4178267"><ele>132.0</ele><time>2026-05-02T23:11:39.594Z</time></trkpt><trkpt lat="-36.7443521" lon="174.4178254"><ele>132.0</ele><time>2026-05-02T23:11:40.593Z</time></trkpt><trkpt lat="-36.7442706" lon="174.4178366"><ele>132.0</ele><time>2026-05-02T23:11:41.595Z</time></trkpt><trkpt lat="-36.7442009" lon="174.4178973"><ele>132.0</ele><time>2026-05-02T23:11:42.594Z</time></trkpt><trkpt lat="-36.7441346" lon="174.4179656"><ele>129.4</ele><time>2026-05-02T23:11:43.594Z</time></trkpt><trkpt lat="-36.7440749" lon="174.4180298"><ele>126.79999999999998</ele><time>2026-05-02T23:11:44.595Z</time></trkpt><trkpt lat="-36.7439664" lon="174.4180753"><ele>124.2</ele><time>2026-05-02T23:11:46.594Z</time></trkpt><trkpt lat="-36.7439039" lon="174.4180889"><ele>121.6</ele><time>2026-05-02T23:11:47.594Z</time></trkpt><trkpt lat="-36.7438367" lon="174.4181212"><ele>119.0</ele><time>2026-05-02T23:11:48.595Z</time></trkpt><trkpt lat="-36.7437288" lon="174.418194"><ele>118.99999999999999</ele><time>2026-05-02T23:11:50.595Z</time></trkpt><trkpt lat="-36.7436654" lon="174.4182112"><ele>119.0</ele><time>2026-05-02T23:11:51.595Z</time></trkpt><trkpt lat="-36.7436" lon="174.4182525"><ele>119.0</ele><time>2026-05-02T23:11:53.593Z</time></trkpt><trkpt lat="-36.7435446" lon="174.4183155"><ele>119.0</ele><time>2026-05-02T23:11:55.595Z</time></trkpt><trkpt lat="-36.7434656" lon="174.4184153"><ele>118.99999999999999</ele><time>2026-05-02T23:11:57.595Z</time></trkpt><trkpt lat="-36.7434076" lon="174.4184658"><ele>119.0</ele><time>2026-05-02T23:11:58.594Z</time></trkpt><trkpt lat="-36.7433245" lon="174.4185963"><ele>118.2</ele><time>2026-05-02T23:12:00.595Z</time></trkpt><trkpt lat="-36.7432342" lon="174.418684"><ele>117.4</ele><time>2026-05-02T23:12:02.594Z</time></trkpt><trkpt lat="-36.7431572" lon="174.4187042"><ele>116.6</ele><time>2026-05-02T23:12:03.595Z</time></trkpt><trkpt lat="-36.743056" lon="174.4186897"><ele>115.8</ele><time>2026-05-02T23:12:05.594Z</time></trkpt><trkpt lat="-36.742974" lon="174.4186795"><ele>115.0</ele><time>2026-05-02T23:12:06.595Z</time></trkpt><trkpt lat="-36.7428932" lon="174.4186688"><ele>115.0</ele><time>2026-05-02T23:12:07.594Z</time></trkpt><trkpt lat="-36.7427802" lon="174.4186753"><ele>115.0</ele><time>2026-05-02T23:12:09.594Z</time></trkpt><trkpt lat="-36.742715" lon="174.4186798"><ele>115.0</ele><time>2026-05-02T23:12:10.594Z</time></trkpt><trkpt lat="-36.7426381" lon="174.41868"><ele>115.0</ele><time>2026-05-02T23:12:11.595Z</time></trkpt><trkpt lat="-36.7425124" lon="174.4187249"><ele>115.0</ele><time>2026-05-02T23:12:13.594Z</time></trkpt><trkpt lat="-36.7424498" lon="174.4187497"><ele>114.50000000000001</ele><time>2026-05-02T23:12:14.594Z</time></trkpt><trkpt lat="-36.7423905" lon="174.4187879"><ele>114.0</ele><time>2026-05-02T23:12:15.594Z</time></trkpt><trkpt lat="-36.7423266" lon="174.4188314"><ele>113.5</ele><time>2026-05-02T23:12:16.594Z</time></trkpt><trkpt lat="-36.7422639" lon="174.4188683"><ele>113.0</ele><time>2026-05-02T23:12:17.595Z</time></trkpt><trkpt lat="-36.7421986" lon="174.4188974"><ele>112.50000000000001</ele><time>2026-05-02T23:12:18.595Z</time></trkpt><trkpt lat="-36.7421332" lon="174.4189316"><ele>112.0</ele><time>2026-05-02T23:12:19.594Z</time></trkpt><trkpt lat="-36.7420075" lon="174.4189683"><ele>112.0</ele><time>2026-05-02T23:12:21.595Z</time></trkpt><trkpt lat="-36.7419402" lon="174.4189833"><ele>111.99999999999999</ele><time>2026-05-02T23:12:22.595Z</time></trkpt><trkpt lat="-36.7418682" lon="174.4189996"><ele>111.99999999999999</ele><time>2026-05-02T23:12:23.594Z</time></trkpt><trkpt lat="-36.7417538" lon="174.419001"><ele>112.0</ele><time>2026-05-02T23:12:25.595Z</time></trkpt><trkpt lat="-36.7416538" lon="174.4190055"><ele>112.0</ele><time>2026-05-02T23:12:27.593Z</time></trkpt><trkpt lat="-36.7415608" lon="174.4190291"><ele>111.39999999999999</ele><time>2026-05-02T23:12:29.595Z</time></trkpt><trkpt lat="-36.7414473" lon="174.4190096"><ele>110.79999999999998</ele><time>2026-05-02T23:12:31.595Z</time></trkpt><trkpt lat="-36.741358" lon="174.4190308"><ele>110.2</ele><time>2026-05-02T23:12:33.594Z</time></trkpt><trkpt lat="-36.7412902" lon="174.419099"><ele>109.6</ele><time>2026-05-02T23:12:35.594Z</time></trkpt><trkpt lat="-36.74123" lon="174.4191804"><ele>109.0</ele><time>2026-05-02T23:12:37.594Z</time></trkpt><trkpt lat="-36.7411551" lon="174.4192846"><ele>109.00000000000001</ele><time>2026-05-02T23:12:39.594Z</time></trkpt><trkpt lat="-36.7410656" lon="174.4193619"><ele>109.0</ele><time>2026-05-02T23:12:41.594Z</time></trkpt><trkpt lat="-36.7409997" lon="174.419363"><ele>109.0</ele><time>2026-05-02T23:12:43.595Z</time></trkpt><trkpt lat="-36.7410385" lon="174.4193008"><ele>109.0</ele><time>2026-05-02T23:12:46.595Z</time></trkpt><trkpt lat="-36.7410749" lon="174.4192269"><ele>109.00000000000001</ele><time>2026-05-02T23:12:49.594Z</time></trkpt><trkpt lat="-36.7409947" lon="174.4192438"><ele>109.0</ele><time>2026-05-02T23:12:54.594Z</time></trkpt><trkpt lat="-36.7409085" lon="174.4192761"><ele>109.6</ele><time>2026-05-02T23:12:57.595Z</time></trkpt><trkpt lat="-36.7408269" lon="174.4192963"><ele>110.2</ele><time>2026-05-02T23:12:59.593Z</time></trkpt><trkpt lat="-36.7407568" lon="174.419333"><ele>110.79999999999998</ele><time>2026-05-02T23:13:01.594Z</time></trkpt><trkpt lat="-36.7406872" lon="174.419412"><ele>111.39999999999999</ele><time>2026-05-02T23:13:03.595Z</time></trkpt><trkpt lat="-36.7406077" lon="174.4194703"><ele>112.0</ele><time>2026-05-02T23:13:05.594Z</time></trkpt><trkpt lat="-36.7404982" lon="174.4194836"><ele>112.0</ele><time>2026-05-02T23:13:07.594Z</time></trkpt><trkpt lat="-36.7403767" lon="174.4194995"><ele>111.99999999999999</ele><time>2026-05-02T23:13:09.594Z</time></trkpt><trkpt lat="-36.7402333" lon="174.4195232"><ele>111.99999999999999</ele><time>2026-05-02T23:13:11.595Z</time></trkpt><trkpt lat="-36.7401536" lon="174.4195415"><ele>112.0</ele><time>2026-05-02T23:13:12.594Z</time></trkpt><trkpt lat="-36.740084" lon="174.4195413"><ele>112.0</ele><time>2026-05-02T23:13:13.594Z</time></trkpt><trkpt lat="-36.7400043" lon="174.4195394"><ele>111.66666666666667</ele><time>2026-05-02T23:13:14.595Z</time></trkpt><trkpt lat="-36.7399282" lon="174.4195494"><ele>111.33333333333334</ele><time>2026-05-02T23:13:15.594Z</time></trkpt><trkpt lat="-36.7398451" lon="174.4195599"><ele>111.0</ele><time>2026-05-02T23:13:16.594Z</time></trkpt><trkpt lat="-36.7397673" lon="174.4195712"><ele>110.66666666666666</ele><time>2026-05-02T23:13:17.594Z</time></trkpt><trkpt lat="-36.7396822" lon="174.4195733"><ele>110.33333333333333</ele><time>2026-05-02T23:13:18.595Z</time></trkpt><trkpt lat="-36.7395999" lon="174.4195737"><ele>110.0</ele><time>2026-05-02T23:13:19.594Z</time></trkpt><trkpt lat="-36.7394817" lon="174.4195728"><ele>109.99999999999999</ele><time>2026-05-02T23:13:20.595Z</time></trkpt><trkpt lat="-36.7394124" lon="174.4195894"><ele>110.0</ele><time>2026-05-02T23:13:21.595Z</time></trkpt><trkpt lat="-36.7393393" lon="174.4196085"><ele>110.0</ele><time>2026-05-02T23:13:22.594Z</time></trkpt><trkpt lat="-36.7392274" lon="174.4195792"><ele>110.0</ele><time>2026-05-02T23:13:24.593Z</time></trkpt><trkpt lat="-36.7391698" lon="174.419486"><ele>109.99999999999999</ele><time>2026-05-02T23:13:26.594Z</time></trkpt><trkpt lat="-36.7391124" lon="174.4194116"><ele>110.0</ele><time>2026-05-02T23:13:28.594Z</time></trkpt><trkpt lat="-36.739054" lon="174.419337"><ele>107.99999999999999</ele><time>2026-05-02T23:13:31.594Z</time></trkpt><trkpt lat="-36.7389932" lon="174.4193044"><ele>106.0</ele><time>2026-05-02T23:13:36.595Z</time></trkpt><trkpt lat="-36.7390358" lon="174.4193923"><ele>104.0</ele><time>2026-05-02T23:13:40.595Z</time></trkpt><trkpt lat="-36.7391105" lon="174.4195073"><ele>102.0</ele><time>2026-05-02T23:13:42.595Z</time></trkpt><trkpt lat="-36.739137" lon="174.4195836"><ele>99.99999999999999</ele><time>2026-05-02T23:13:43.595Z</time></trkpt><trkpt lat="-36.7391607" lon="174.419674"><ele>98.0</ele><time>2026-05-02T23:13:44.594Z</time></trkpt><trkpt lat="-36.7391775" lon="174.4197602"><ele>96.42857142857143</ele><time>2026-05-02T23:13:45.594Z</time></trkpt><trkpt lat="-36.7391974" lon="174.4198426"><ele>94.85714285714286</ele><time>2026-05-02T23:13:46.594Z</time></trkpt><trkpt lat="-36.7392127" lon="174.4199264"><ele>93.28571428571428</ele><time>2026-05-02T23:13:47.594Z</time></trkpt><trkpt lat="-36.7392261" lon="174.4200208"><ele>91.71428571428572</ele><time>2026-05-02T23:13:48.594Z</time></trkpt><trkpt lat="-36.7392406" lon="174.4201145"><ele>90.14285714285714</ele><time>2026-05-02T23:13:49.594Z</time></trkpt><trkpt lat="-36.7392788" lon="174.4202014"><ele>88.57142857142857</ele><time>2026-05-02T23:13:50.595Z</time></trkpt><trkpt lat="-36.7393043" lon="174.4202868"><ele>87.0</ele><time>2026-05-02T23:13:51.594Z</time></trkpt><trkpt lat="-36.7393791" lon="174.4204012"><ele>87.8</ele><time>2026-05-02T23:13:53.593Z</time></trkpt><trkpt lat="-36.7394422" lon="174.4205141"><ele>88.6</ele><time>2026-05-02T23:13:55.595Z</time></trkpt><trkpt lat="-36.7394741" lon="174.42064"><ele>89.39999999999999</ele><time>2026-05-02T23:13:57.594Z</time></trkpt><trkpt lat="-36.7394892" lon="174.4207169"><ele>90.19999999999999</ele><time>2026-05-02T23:13:58.594Z</time></trkpt><trkpt lat="-36.7394825" lon="174.4208834"><ele>91.0</ele><time>2026-05-02T23:14:00.595Z</time></trkpt><trkpt lat="-36.7394406" lon="174.4209552"><ele>91.0</ele><time>2026-05-02T23:14:01.595Z</time></trkpt><trkpt lat="-36.7394014" lon="174.4210749"><ele>91.0</ele><time>2026-05-02T23:14:03.594Z</time></trkpt><trkpt lat="-36.7393984" lon="174.4212205"><ele>91.0</ele><time>2026-05-02T23:14:05.594Z</time></trkpt><trkpt lat="-36.7394079" lon="174.4213553"><ele>91.0</ele><time>2026-05-02T23:14:07.594Z</time></trkpt><trkpt lat="-36.7394276" lon="174.4214948"><ele>91.0</ele><time>2026-05-02T23:14:09.593Z</time></trkpt><trkpt lat="-36.7394303" lon="174.4216003"><ele>90.14285714285714</ele><time>2026-05-02T23:14:10.594Z</time></trkpt><trkpt lat="-36.7394458" lon="174.4216901"><ele>89.28571428571428</ele><time>2026-05-02T23:14:11.595Z</time></trkpt><trkpt lat="-36.7394503" lon="174.4217887"><ele>88.42857142857143</ele><time>2026-05-02T23:14:12.594Z</time></trkpt><trkpt lat="-36.7394883" lon="174.4218603"><ele>87.57142857142857</ele><time>2026-05-02T23:14:13.594Z</time></trkpt><trkpt lat="-36.7395342" lon="174.4219145"><ele>86.71428571428571</ele><time>2026-05-02T23:14:14.593Z</time></trkpt><trkpt lat="-36.7395841" lon="174.4219668"><ele>85.85714285714286</ele><time>2026-05-02T23:14:15.595Z</time></trkpt><trkpt lat="-36.7396419" lon="174.4220539"><ele>85.0</ele><time>2026-05-02T23:14:17.593Z</time></trkpt><trkpt lat="-36.7397078" lon="174.4221299"><ele>85.0</ele><time>2026-05-02T23:14:19.593Z</time></trkpt><trkpt lat="-36.7397855" lon="174.4221474"><ele>85.0</ele><time>2026-05-02T23:14:21.593Z</time></trkpt><trkpt lat="-36.7398804" lon="174.422173"><ele>85.0</ele><time>2026-05-02T23:14:23.594Z</time></trkpt><trkpt lat="-36.7399698" lon="174.4221909"><ele>85.0</ele><time>2026-05-02T23:14:26.595Z</time></trkpt><trkpt lat="-36.7400348" lon="174.422242"><ele>85.0</ele><time>2026-05-02T23:14:29.595Z</time></trkpt><trkpt lat="-36.7400579" lon="174.4223259"><ele>85.0</ele><time>2026-05-02T23:14:33.595Z</time></trkpt><trkpt lat="-36.7400221" lon="174.4224078"><ele>85.0</ele><time>2026-05-02T23:14:37.595Z</time></trkpt><trkpt lat="-36.7400134" lon="174.4224987"><ele>85.0</ele><time>2026-05-02T23:14:41.595Z</time></trkpt><trkpt lat="-36.7399408" lon="174.4225704"><ele>85.0</ele><time>2026-05-02T23:14:45.595Z</time></trkpt><trkpt lat="-36.7399275" lon="174.4226535"><ele>85.0</ele><time>2026-05-02T23:14:47.594Z</time></trkpt><trkpt lat="-36.7399197" lon="174.4227602"><ele>85.0</ele><time>2026-05-02T23:14:50.595Z</time></trkpt></trkseg></trk></gpx>